<?xml version="1.0" encoding="UTF-8" standalone="no" ?>
<gpx xmlns="http://www.topografix.com/GPX/1/1" xmlns:xsi="http://www.w3.org/2001/XMLSchema-instance" xsi:schemaLocation="http://www.topografix.com/GPX/1/1 http://www.topografix.com/GPX/1/1/gpx.xsd" version="1.1" creator="VisuGPX - https://www.visugpx.com">
  <metadata>
    <name>Le Jocou. Variante</name>
    <desc><![CDATA[Variante d'une rando classique. Aller par la Grande Plate jusqu'au col de Seysse, montée raide (au dessus du col) jusqu'au Jocou, descente par la crête des Amousières.]]></desc>
  </metadata>
  <trk>
    <name><![CDATA[20181125170844-4ZkHT]]></name>
    <trkseg>
      <trkpt lat="44.70146" lon="5.64842">
        <ele>1205.63</ele>
        <time>2018-06-23T08:07:37Z</time>
      </trkpt>
      <trkpt lat="44.70156" lon="5.64855">
        <ele>1207.55</ele>
        <time>2018-06-23T08:07:48Z</time>
      </trkpt>
      <trkpt lat="44.70164" lon="5.64877">
        <ele>1207.07</ele>
        <time>2018-06-23T08:08:01Z</time>
      </trkpt>
      <trkpt lat="44.70172" lon="5.64893">
        <ele>1208.51</ele>
        <time>2018-06-23T08:08:15Z</time>
      </trkpt>
      <trkpt lat="44.70173" lon="5.64895">
        <ele>1205.15</ele>
        <time>2018-06-23T08:08:18Z</time>
      </trkpt>
      <trkpt lat="44.70175" lon="5.64897">
        <ele>1211.4</ele>
        <time>2018-06-23T08:08:20Z</time>
      </trkpt>
      <trkpt lat="44.70176" lon="5.64898">
        <ele>1207.55</ele>
        <time>2018-06-23T08:08:21Z</time>
      </trkpt>
      <trkpt lat="44.70178" lon="5.649">
        <ele>1209.48</ele>
        <time>2018-06-23T08:08:24Z</time>
      </trkpt>
      <trkpt lat="44.7018" lon="5.64903">
        <ele>1210.92</ele>
        <time>2018-06-23T08:08:27Z</time>
      </trkpt>
      <trkpt lat="44.70184" lon="5.6491">
        <ele>1210.92</ele>
        <time>2018-06-23T08:08:34Z</time>
      </trkpt>
      <trkpt lat="44.70185" lon="5.64918">
        <ele>1213.8</ele>
        <time>2018-06-23T08:08:45Z</time>
      </trkpt>
      <trkpt lat="44.70187" lon="5.64919">
        <ele>1213.8</ele>
        <time>2018-06-23T08:08:47Z</time>
      </trkpt>
      <trkpt lat="44.7019" lon="5.64921">
        <ele>1214.76</ele>
        <time>2018-06-23T08:08:54Z</time>
      </trkpt>
      <trkpt lat="44.70188" lon="5.64915">
        <ele>1215.24</ele>
        <time>2018-06-23T08:09:05Z</time>
      </trkpt>
      <trkpt lat="44.70192" lon="5.64915">
        <ele>1217.65</ele>
        <time>2018-06-23T08:09:15Z</time>
      </trkpt>
      <trkpt lat="44.70195" lon="5.64916">
        <ele>1219.57</ele>
        <time>2018-06-23T08:09:26Z</time>
      </trkpt>
      <trkpt lat="44.70197" lon="5.64917">
        <ele>1221.97</ele>
        <time>2018-06-23T08:09:39Z</time>
      </trkpt>
      <trkpt lat="44.70209" lon="5.64919">
        <ele>1223.42</ele>
        <time>2018-06-23T08:09:49Z</time>
      </trkpt>
      <trkpt lat="44.70217" lon="5.64916">
        <ele>1225.34</ele>
        <time>2018-06-23T08:10:00Z</time>
      </trkpt>
      <trkpt lat="44.70223" lon="5.64915">
        <ele>1229.18</ele>
        <time>2018-06-23T08:10:09Z</time>
      </trkpt>
      <trkpt lat="44.70223" lon="5.64915">
        <ele>1227.74</ele>
        <time>2018-06-23T08:10:10Z</time>
      </trkpt>
      <trkpt lat="44.7023" lon="5.64912">
        <ele>1228.22</ele>
        <time>2018-06-23T08:10:20Z</time>
      </trkpt>
      <trkpt lat="44.70233" lon="5.64912">
        <ele>1233.03</ele>
        <time>2018-06-23T08:10:27Z</time>
      </trkpt>
      <trkpt lat="44.70234" lon="5.64912">
        <ele>1235.91</ele>
        <time>2018-06-23T08:10:30Z</time>
      </trkpt>
      <trkpt lat="44.70236" lon="5.64912">
        <ele>1240.24</ele>
        <time>2018-06-23T08:10:32Z</time>
      </trkpt>
      <trkpt lat="44.70236" lon="5.64912">
        <ele>1239.28</ele>
        <time>2018-06-23T08:10:33Z</time>
      </trkpt>
      <trkpt lat="44.70239" lon="5.64912">
        <ele>1242.64</ele>
        <time>2018-06-23T08:10:35Z</time>
      </trkpt>
      <trkpt lat="44.7024" lon="5.64911">
        <ele>1246.01</ele>
        <time>2018-06-23T08:10:37Z</time>
      </trkpt>
      <trkpt lat="44.70243" lon="5.64912">
        <ele>1249.85</ele>
        <time>2018-06-23T08:10:41Z</time>
      </trkpt>
      <trkpt lat="44.70247" lon="5.64911">
        <ele>1253.7</ele>
        <time>2018-06-23T08:10:45Z</time>
      </trkpt>
      <trkpt lat="44.70248" lon="5.64911">
        <ele>1255.14</ele>
        <time>2018-06-23T08:10:47Z</time>
      </trkpt>
      <trkpt lat="44.70253" lon="5.64911">
        <ele>1259.46</ele>
        <time>2018-06-23T08:10:51Z</time>
      </trkpt>
      <trkpt lat="44.70254" lon="5.64912">
        <ele>1260.43</ele>
        <time>2018-06-23T08:10:53Z</time>
      </trkpt>
      <trkpt lat="44.70256" lon="5.64912">
        <ele>1261.87</ele>
        <time>2018-06-23T08:10:55Z</time>
      </trkpt>
      <trkpt lat="44.70258" lon="5.64913">
        <ele>1263.79</ele>
        <time>2018-06-23T08:10:58Z</time>
      </trkpt>
      <trkpt lat="44.7026" lon="5.64912">
        <ele>1267.16</ele>
        <time>2018-06-23T08:11:02Z</time>
      </trkpt>
      <trkpt lat="44.70261" lon="5.64911">
        <ele>1268.12</ele>
        <time>2018-06-23T08:11:04Z</time>
      </trkpt>
      <trkpt lat="44.70262" lon="5.64908">
        <ele>1270.52</ele>
        <time>2018-06-23T08:11:07Z</time>
      </trkpt>
      <trkpt lat="44.70266" lon="5.64906">
        <ele>1273.88</ele>
        <time>2018-06-23T08:11:14Z</time>
      </trkpt>
      <trkpt lat="44.7027" lon="5.64907">
        <ele>1277.25</ele>
        <time>2018-06-23T08:11:20Z</time>
      </trkpt>
      <trkpt lat="44.70274" lon="5.64908">
        <ele>1279.17</ele>
        <time>2018-06-23T08:11:25Z</time>
      </trkpt>
      <trkpt lat="44.70278" lon="5.64907">
        <ele>1281.57</ele>
        <time>2018-06-23T08:11:30Z</time>
      </trkpt>
      <trkpt lat="44.70278" lon="5.64908">
        <ele>1277.73</ele>
        <time>2018-06-23T08:11:32Z</time>
      </trkpt>
      <trkpt lat="44.70279" lon="5.64908">
        <ele>1282.06</ele>
        <time>2018-06-23T08:11:33Z</time>
      </trkpt>
      <trkpt lat="44.7028" lon="5.64907">
        <ele>1283.02</ele>
        <time>2018-06-23T08:11:35Z</time>
      </trkpt>
      <trkpt lat="44.70283" lon="5.64907">
        <ele>1284.46</ele>
        <time>2018-06-23T08:11:40Z</time>
      </trkpt>
      <trkpt lat="44.70289" lon="5.64908">
        <ele>1288.3</ele>
        <time>2018-06-23T08:11:48Z</time>
      </trkpt>
      <trkpt lat="44.7029" lon="5.64907">
        <ele>1284.94</ele>
        <time>2018-06-23T08:11:51Z</time>
      </trkpt>
      <trkpt lat="44.70296" lon="5.64906">
        <ele>1290.71</ele>
        <time>2018-06-23T08:11:58Z</time>
      </trkpt>
      <trkpt lat="44.70296" lon="5.64905">
        <ele>1286.38</ele>
        <time>2018-06-23T08:11:59Z</time>
      </trkpt>
      <trkpt lat="44.70299" lon="5.64903">
        <ele>1284.46</ele>
        <time>2018-06-23T08:12:02Z</time>
      </trkpt>
      <trkpt lat="44.70302" lon="5.64896">
        <ele>1289.27</ele>
        <time>2018-06-23T08:12:07Z</time>
      </trkpt>
      <trkpt lat="44.70303" lon="5.64888">
        <ele>1291.67</ele>
        <time>2018-06-23T08:12:18Z</time>
      </trkpt>
      <trkpt lat="44.70307" lon="5.64883">
        <ele>1292.63</ele>
        <time>2018-06-23T08:12:25Z</time>
      </trkpt>
      <trkpt lat="44.70311" lon="5.64873">
        <ele>1293.59</ele>
        <time>2018-06-23T08:12:34Z</time>
      </trkpt>
      <trkpt lat="44.70314" lon="5.64865">
        <ele>1295.03</ele>
        <time>2018-06-23T08:12:43Z</time>
      </trkpt>
      <trkpt lat="44.70316" lon="5.64866">
        <ele>1295.51</ele>
        <time>2018-06-23T08:12:52Z</time>
      </trkpt>
      <trkpt lat="44.70316" lon="5.64866">
        <ele>1295.99</ele>
        <time>2018-06-23T08:12:53Z</time>
      </trkpt>
      <trkpt lat="44.70318" lon="5.64868">
        <ele>1296.96</ele>
        <time>2018-06-23T08:13:05Z</time>
      </trkpt>
      <trkpt lat="44.7032" lon="5.64865">
        <ele>1296.96</ele>
        <time>2018-06-23T08:13:14Z</time>
      </trkpt>
      <trkpt lat="44.70319" lon="5.6485">
        <ele>1296.96</ele>
        <time>2018-06-23T08:13:24Z</time>
      </trkpt>
      <trkpt lat="44.70318" lon="5.64835">
        <ele>1295.51</ele>
        <time>2018-06-23T08:13:36Z</time>
      </trkpt>
      <trkpt lat="44.70317" lon="5.64831">
        <ele>1295.03</ele>
        <time>2018-06-23T08:13:49Z</time>
      </trkpt>
      <trkpt lat="44.70316" lon="5.64826">
        <ele>1294.55</ele>
        <time>2018-06-23T08:13:59Z</time>
      </trkpt>
      <trkpt lat="44.70315" lon="5.64825">
        <ele>1294.55</ele>
        <time>2018-06-23T08:14:00Z</time>
      </trkpt>
      <trkpt lat="44.70307" lon="5.64815">
        <ele>1295.03</ele>
        <time>2018-06-23T08:14:12Z</time>
      </trkpt>
      <trkpt lat="44.70307" lon="5.64816">
        <ele>1295.03</ele>
        <time>2018-06-23T08:14:33Z</time>
      </trkpt>
      <trkpt lat="44.70304" lon="5.64812">
        <ele>1294.07</ele>
        <time>2018-06-23T08:14:45Z</time>
      </trkpt>
      <trkpt lat="44.70296" lon="5.64808">
        <ele>1292.63</ele>
        <time>2018-06-23T08:14:54Z</time>
      </trkpt>
      <trkpt lat="44.70288" lon="5.64799">
        <ele>1292.15</ele>
        <time>2018-06-23T08:15:03Z</time>
      </trkpt>
      <trkpt lat="44.70279" lon="5.6479">
        <ele>1289.75</ele>
        <time>2018-06-23T08:15:12Z</time>
      </trkpt>
      <trkpt lat="44.70267" lon="5.6478">
        <ele>1289.27</ele>
        <time>2018-06-23T08:15:24Z</time>
      </trkpt>
      <trkpt lat="44.70264" lon="5.64776">
        <ele>1288.3</ele>
        <time>2018-06-23T08:15:28Z</time>
      </trkpt>
      <trkpt lat="44.7026" lon="5.6477">
        <ele>1288.3</ele>
        <time>2018-06-23T08:15:33Z</time>
      </trkpt>
      <trkpt lat="44.70258" lon="5.64768">
        <ele>1288.78</ele>
        <time>2018-06-23T08:15:45Z</time>
      </trkpt>
      <trkpt lat="44.70258" lon="5.64767">
        <ele>1288.78</ele>
        <time>2018-06-23T08:16:05Z</time>
      </trkpt>
      <trkpt lat="44.70258" lon="5.64768">
        <ele>1289.27</ele>
        <time>2018-06-23T08:16:23Z</time>
      </trkpt>
      <trkpt lat="44.70258" lon="5.64768">
        <ele>1289.75</ele>
        <time>2018-06-23T08:16:45Z</time>
      </trkpt>
      <trkpt lat="44.70259" lon="5.64769">
        <ele>1289.75</ele>
        <time>2018-06-23T08:16:57Z</time>
      </trkpt>
      <trkpt lat="44.70263" lon="5.64778">
        <ele>1290.71</ele>
        <time>2018-06-23T08:17:05Z</time>
      </trkpt>
      <trkpt lat="44.70272" lon="5.64787">
        <ele>1292.15</ele>
        <time>2018-06-23T08:17:16Z</time>
      </trkpt>
      <trkpt lat="44.70281" lon="5.64793">
        <ele>1293.59</ele>
        <time>2018-06-23T08:17:27Z</time>
      </trkpt>
      <trkpt lat="44.70292" lon="5.64803">
        <ele>1295.51</ele>
        <time>2018-06-23T08:17:38Z</time>
      </trkpt>
      <trkpt lat="44.70301" lon="5.64812">
        <ele>1296.96</ele>
        <time>2018-06-23T08:17:48Z</time>
      </trkpt>
      <trkpt lat="44.70307" lon="5.64818">
        <ele>1299.36</ele>
        <time>2018-06-23T08:17:57Z</time>
      </trkpt>
      <trkpt lat="44.70314" lon="5.64832">
        <ele>1300.8</ele>
        <time>2018-06-23T08:18:10Z</time>
      </trkpt>
      <trkpt lat="44.70322" lon="5.64836">
        <ele>1302.24</ele>
        <time>2018-06-23T08:18:21Z</time>
      </trkpt>
      <trkpt lat="44.70328" lon="5.64844">
        <ele>1304.17</ele>
        <time>2018-06-23T08:18:32Z</time>
      </trkpt>
      <trkpt lat="44.70333" lon="5.64848">
        <ele>1306.09</ele>
        <time>2018-06-23T08:18:42Z</time>
      </trkpt>
      <trkpt lat="44.7034" lon="5.64853">
        <ele>1308.49</ele>
        <time>2018-06-23T08:18:52Z</time>
      </trkpt>
      <trkpt lat="44.70342" lon="5.64855">
        <ele>1308.97</ele>
        <time>2018-06-23T08:18:55Z</time>
      </trkpt>
      <trkpt lat="44.70348" lon="5.64857">
        <ele>1311.38</ele>
        <time>2018-06-23T08:19:04Z</time>
      </trkpt>
      <trkpt lat="44.70352" lon="5.6486">
        <ele>1311.86</ele>
        <time>2018-06-23T08:19:13Z</time>
      </trkpt>
      <trkpt lat="44.70353" lon="5.6486">
        <ele>1312.82</ele>
        <time>2018-06-23T08:19:20Z</time>
      </trkpt>
      <trkpt lat="44.70354" lon="5.64858">
        <ele>1313.3</ele>
        <time>2018-06-23T08:19:24Z</time>
      </trkpt>
      <trkpt lat="44.7036" lon="5.64847">
        <ele>1317.14</ele>
        <time>2018-06-23T08:19:34Z</time>
      </trkpt>
      <trkpt lat="44.70361" lon="5.64845">
        <ele>1313.78</ele>
        <time>2018-06-23T08:19:36Z</time>
      </trkpt>
      <trkpt lat="44.70362" lon="5.64836">
        <ele>1314.74</ele>
        <time>2018-06-23T08:19:45Z</time>
      </trkpt>
      <trkpt lat="44.70362" lon="5.64825">
        <ele>1315.7</ele>
        <time>2018-06-23T08:19:55Z</time>
      </trkpt>
      <trkpt lat="44.70362" lon="5.64825">
        <ele>1316.18</ele>
        <time>2018-06-23T08:20:10Z</time>
      </trkpt>
      <trkpt lat="44.70362" lon="5.64825">
        <ele>1327.72</ele>
        <time>2018-06-23T08:20:13Z</time>
      </trkpt>
      <trkpt lat="44.70363" lon="5.64825">
        <ele>1316.66</ele>
        <time>2018-06-23T08:20:14Z</time>
      </trkpt>
      <trkpt lat="44.70363" lon="5.64825">
        <ele>1316.18</ele>
        <time>2018-06-23T08:20:16Z</time>
      </trkpt>
      <trkpt lat="44.70363" lon="5.64822">
        <ele>1316.18</ele>
        <time>2018-06-23T08:20:30Z</time>
      </trkpt>
      <trkpt lat="44.70365" lon="5.64816">
        <ele>1318.1</ele>
        <time>2018-06-23T08:20:34Z</time>
      </trkpt>
      <trkpt lat="44.7037" lon="5.64799">
        <ele>1319.07</ele>
        <time>2018-06-23T08:20:46Z</time>
      </trkpt>
      <trkpt lat="44.70372" lon="5.64785">
        <ele>1319.55</ele>
        <time>2018-06-23T08:20:55Z</time>
      </trkpt>
      <trkpt lat="44.70374" lon="5.64768">
        <ele>1320.51</ele>
        <time>2018-06-23T08:21:06Z</time>
      </trkpt>
      <trkpt lat="44.70377" lon="5.64754">
        <ele>1322.43</ele>
        <time>2018-06-23T08:21:17Z</time>
      </trkpt>
      <trkpt lat="44.70377" lon="5.64752">
        <ele>1322.43</ele>
        <time>2018-06-23T08:21:19Z</time>
      </trkpt>
      <trkpt lat="44.70383" lon="5.64738">
        <ele>1323.87</ele>
        <time>2018-06-23T08:21:29Z</time>
      </trkpt>
      <trkpt lat="44.70391" lon="5.64727">
        <ele>1324.35</ele>
        <time>2018-06-23T08:21:40Z</time>
      </trkpt>
      <trkpt lat="44.70398" lon="5.6471">
        <ele>1325.31</ele>
        <time>2018-06-23T08:21:51Z</time>
      </trkpt>
      <trkpt lat="44.70402" lon="5.64693">
        <ele>1327.24</ele>
        <time>2018-06-23T08:22:04Z</time>
      </trkpt>
      <trkpt lat="44.70405" lon="5.64674">
        <ele>1327.72</ele>
        <time>2018-06-23T08:22:17Z</time>
      </trkpt>
      <trkpt lat="44.70404" lon="5.64656">
        <ele>1328.68</ele>
        <time>2018-06-23T08:22:28Z</time>
      </trkpt>
      <trkpt lat="44.70402" lon="5.64641">
        <ele>1329.64</ele>
        <time>2018-06-23T08:22:39Z</time>
      </trkpt>
      <trkpt lat="44.70401" lon="5.64625">
        <ele>1331.08</ele>
        <time>2018-06-23T08:22:52Z</time>
      </trkpt>
      <trkpt lat="44.70404" lon="5.64608">
        <ele>1332.04</ele>
        <time>2018-06-23T08:23:03Z</time>
      </trkpt>
      <trkpt lat="44.70404" lon="5.646">
        <ele>1332.52</ele>
        <time>2018-06-23T08:23:14Z</time>
      </trkpt>
      <trkpt lat="44.70406" lon="5.64598">
        <ele>1332.52</ele>
        <time>2018-06-23T08:23:27Z</time>
      </trkpt>
      <trkpt lat="44.70406" lon="5.64597">
        <ele>1333.01</ele>
        <time>2018-06-23T08:23:45Z</time>
      </trkpt>
      <trkpt lat="44.70407" lon="5.64598">
        <ele>1333.01</ele>
        <time>2018-06-23T08:24:03Z</time>
      </trkpt>
      <trkpt lat="44.70408" lon="5.64598">
        <ele>1333.97</ele>
        <time>2018-06-23T08:24:21Z</time>
      </trkpt>
      <trkpt lat="44.70409" lon="5.64597">
        <ele>1333.97</ele>
        <time>2018-06-23T08:24:36Z</time>
      </trkpt>
      <trkpt lat="44.70409" lon="5.64594">
        <ele>1333.49</ele>
        <time>2018-06-23T08:24:41Z</time>
      </trkpt>
      <trkpt lat="44.70405" lon="5.64588">
        <ele>1333.49</ele>
        <time>2018-06-23T08:24:52Z</time>
      </trkpt>
      <trkpt lat="44.70405" lon="5.64588">
        <ele>1333.49</ele>
        <time>2018-06-23T08:25:19Z</time>
      </trkpt>
      <trkpt lat="44.70405" lon="5.64589">
        <ele>1333.49</ele>
        <time>2018-06-23T08:25:46Z</time>
      </trkpt>
      <trkpt lat="44.70405" lon="5.6459">
        <ele>1335.41</ele>
        <time>2018-06-23T08:25:56Z</time>
      </trkpt>
      <trkpt lat="44.70406" lon="5.64585">
        <ele>1334.45</ele>
        <time>2018-06-23T08:26:05Z</time>
      </trkpt>
      <trkpt lat="44.70406" lon="5.64568">
        <ele>1334.45</ele>
        <time>2018-06-23T08:26:16Z</time>
      </trkpt>
      <trkpt lat="44.704" lon="5.64551">
        <ele>1333.97</ele>
        <time>2018-06-23T08:26:27Z</time>
      </trkpt>
      <trkpt lat="44.70397" lon="5.64532">
        <ele>1335.41</ele>
        <time>2018-06-23T08:26:38Z</time>
      </trkpt>
      <trkpt lat="44.70397" lon="5.64528">
        <ele>1335.41</ele>
        <time>2018-06-23T08:26:41Z</time>
      </trkpt>
      <trkpt lat="44.70393" lon="5.64521">
        <ele>1335.41</ele>
        <time>2018-06-23T08:26:46Z</time>
      </trkpt>
      <trkpt lat="44.70385" lon="5.64505">
        <ele>1333.49</ele>
        <time>2018-06-23T08:26:57Z</time>
      </trkpt>
      <trkpt lat="44.70384" lon="5.64503">
        <ele>1333.49</ele>
        <time>2018-06-23T08:26:59Z</time>
      </trkpt>
      <trkpt lat="44.7038" lon="5.64494">
        <ele>1333.01</ele>
        <time>2018-06-23T08:27:06Z</time>
      </trkpt>
      <trkpt lat="44.70373" lon="5.64474">
        <ele>1332.04</ele>
        <time>2018-06-23T08:27:19Z</time>
      </trkpt>
      <trkpt lat="44.70371" lon="5.64468">
        <ele>1332.04</ele>
        <time>2018-06-23T08:27:23Z</time>
      </trkpt>
      <trkpt lat="44.70368" lon="5.64454">
        <ele>1332.04</ele>
        <time>2018-06-23T08:27:33Z</time>
      </trkpt>
      <trkpt lat="44.70367" lon="5.6445">
        <ele>1331.56</ele>
        <time>2018-06-23T08:27:36Z</time>
      </trkpt>
      <trkpt lat="44.70359" lon="5.64432">
        <ele>1331.08</ele>
        <time>2018-06-23T08:27:48Z</time>
      </trkpt>
      <trkpt lat="44.70355" lon="5.64421">
        <ele>1331.56</ele>
        <time>2018-06-23T08:27:56Z</time>
      </trkpt>
      <trkpt lat="44.70347" lon="5.64404">
        <ele>1331.56</ele>
        <time>2018-06-23T08:28:08Z</time>
      </trkpt>
      <trkpt lat="44.70339" lon="5.64385">
        <ele>1331.56</ele>
        <time>2018-06-23T08:28:21Z</time>
      </trkpt>
      <trkpt lat="44.70334" lon="5.64369">
        <ele>1332.52</ele>
        <time>2018-06-23T08:28:32Z</time>
      </trkpt>
      <trkpt lat="44.70333" lon="5.64356">
        <ele>1333.49</ele>
        <time>2018-06-23T08:28:41Z</time>
      </trkpt>
      <trkpt lat="44.70334" lon="5.64352">
        <ele>1333.49</ele>
        <time>2018-06-23T08:28:43Z</time>
      </trkpt>
      <trkpt lat="44.70336" lon="5.64335">
        <ele>1335.41</ele>
        <time>2018-06-23T08:28:56Z</time>
      </trkpt>
      <trkpt lat="44.70337" lon="5.64325">
        <ele>1338.29</ele>
        <time>2018-06-23T08:29:07Z</time>
      </trkpt>
      <trkpt lat="44.70341" lon="5.64316">
        <ele>1339.73</ele>
        <time>2018-06-23T08:29:17Z</time>
      </trkpt>
      <trkpt lat="44.70343" lon="5.64304">
        <ele>1340.7</ele>
        <time>2018-06-23T08:29:28Z</time>
      </trkpt>
      <trkpt lat="44.70345" lon="5.64292">
        <ele>1342.62</ele>
        <time>2018-06-23T08:29:39Z</time>
      </trkpt>
      <trkpt lat="44.70347" lon="5.64279">
        <ele>1344.54</ele>
        <time>2018-06-23T08:29:50Z</time>
      </trkpt>
      <trkpt lat="44.70349" lon="5.64267">
        <ele>1345.98</ele>
        <time>2018-06-23T08:30:02Z</time>
      </trkpt>
      <trkpt lat="44.70353" lon="5.64258">
        <ele>1347.91</ele>
        <time>2018-06-23T08:30:13Z</time>
      </trkpt>
      <trkpt lat="44.70354" lon="5.6425">
        <ele>1350.31</ele>
        <time>2018-06-23T08:30:24Z</time>
      </trkpt>
      <trkpt lat="44.70357" lon="5.64244">
        <ele>1351.27</ele>
        <time>2018-06-23T08:30:32Z</time>
      </trkpt>
      <trkpt lat="44.70358" lon="5.6424">
        <ele>1353.19</ele>
        <time>2018-06-23T08:30:37Z</time>
      </trkpt>
      <trkpt lat="44.7036" lon="5.64235">
        <ele>1354.15</ele>
        <time>2018-06-23T08:30:45Z</time>
      </trkpt>
      <trkpt lat="44.7036" lon="5.64233">
        <ele>1354.63</ele>
        <time>2018-06-23T08:30:47Z</time>
      </trkpt>
      <trkpt lat="44.70361" lon="5.64218">
        <ele>1355.12</ele>
        <time>2018-06-23T08:30:57Z</time>
      </trkpt>
      <trkpt lat="44.70361" lon="5.64212">
        <ele>1355.6</ele>
        <time>2018-06-23T08:31:01Z</time>
      </trkpt>
      <trkpt lat="44.70357" lon="5.64193">
        <ele>1356.56</ele>
        <time>2018-06-23T08:31:13Z</time>
      </trkpt>
      <trkpt lat="44.70357" lon="5.64191">
        <ele>1356.56</ele>
        <time>2018-06-23T08:31:14Z</time>
      </trkpt>
      <trkpt lat="44.70361" lon="5.64178">
        <ele>1357.04</ele>
        <time>2018-06-23T08:31:25Z</time>
      </trkpt>
      <trkpt lat="44.7036" lon="5.64174">
        <ele>1358</ele>
        <time>2018-06-23T08:31:28Z</time>
      </trkpt>
      <trkpt lat="44.70359" lon="5.64148">
        <ele>1358</ele>
        <time>2018-06-23T08:31:39Z</time>
      </trkpt>
      <trkpt lat="44.70356" lon="5.64132">
        <ele>1358</ele>
        <time>2018-06-23T08:31:50Z</time>
      </trkpt>
      <trkpt lat="44.70355" lon="5.64118">
        <ele>1358.48</ele>
        <time>2018-06-23T08:32:00Z</time>
      </trkpt>
      <trkpt lat="44.70354" lon="5.64107">
        <ele>1358.96</ele>
        <time>2018-06-23T08:32:11Z</time>
      </trkpt>
      <trkpt lat="44.70353" lon="5.64089">
        <ele>1359.92</ele>
        <time>2018-06-23T08:32:22Z</time>
      </trkpt>
      <trkpt lat="44.7035" lon="5.64079">
        <ele>1361.36</ele>
        <time>2018-06-23T08:32:33Z</time>
      </trkpt>
      <trkpt lat="44.7035" lon="5.64074">
        <ele>1361.84</ele>
        <time>2018-06-23T08:32:43Z</time>
      </trkpt>
      <trkpt lat="44.70343" lon="5.64054">
        <ele>1363.29</ele>
        <time>2018-06-23T08:32:56Z</time>
      </trkpt>
      <trkpt lat="44.70338" lon="5.64046">
        <ele>1363.77</ele>
        <time>2018-06-23T08:33:07Z</time>
      </trkpt>
      <trkpt lat="44.70334" lon="5.64042">
        <ele>1363.77</ele>
        <time>2018-06-23T08:33:19Z</time>
      </trkpt>
      <trkpt lat="44.70334" lon="5.6403">
        <ele>1363.77</ele>
        <time>2018-06-23T08:33:24Z</time>
      </trkpt>
      <trkpt lat="44.70332" lon="5.64023">
        <ele>1364.25</ele>
        <time>2018-06-23T08:33:28Z</time>
      </trkpt>
      <trkpt lat="44.70331" lon="5.64008">
        <ele>1364.73</ele>
        <time>2018-06-23T08:33:39Z</time>
      </trkpt>
      <trkpt lat="44.70332" lon="5.64005">
        <ele>1365.21</ele>
        <time>2018-06-23T08:34:01Z</time>
      </trkpt>
      <trkpt lat="44.70323" lon="5.63999">
        <ele>1364.73</ele>
        <time>2018-06-23T08:34:12Z</time>
      </trkpt>
      <trkpt lat="44.70319" lon="5.63995">
        <ele>1364.73</ele>
        <time>2018-06-23T08:34:24Z</time>
      </trkpt>
      <trkpt lat="44.70319" lon="5.63994">
        <ele>1364.25</ele>
        <time>2018-06-23T08:34:26Z</time>
      </trkpt>
      <trkpt lat="44.70319" lon="5.6398">
        <ele>1363.29</ele>
        <time>2018-06-23T08:34:37Z</time>
      </trkpt>
      <trkpt lat="44.70317" lon="5.63966">
        <ele>1361.84</ele>
        <time>2018-06-23T08:34:48Z</time>
      </trkpt>
      <trkpt lat="44.70317" lon="5.6396">
        <ele>1361.84</ele>
        <time>2018-06-23T08:35:02Z</time>
      </trkpt>
      <trkpt lat="44.70316" lon="5.63956">
        <ele>1361.36</ele>
        <time>2018-06-23T08:35:04Z</time>
      </trkpt>
      <trkpt lat="44.70315" lon="5.63941">
        <ele>1360.4</ele>
        <time>2018-06-23T08:35:14Z</time>
      </trkpt>
      <trkpt lat="44.70313" lon="5.63935">
        <ele>1359.44</ele>
        <time>2018-06-23T08:35:28Z</time>
      </trkpt>
      <trkpt lat="44.70313" lon="5.63934">
        <ele>1359.92</ele>
        <time>2018-06-23T08:35:29Z</time>
      </trkpt>
      <trkpt lat="44.7031" lon="5.63923">
        <ele>1359.44</ele>
        <time>2018-06-23T08:35:36Z</time>
      </trkpt>
      <trkpt lat="44.70307" lon="5.63908">
        <ele>1357.52</ele>
        <time>2018-06-23T08:35:46Z</time>
      </trkpt>
      <trkpt lat="44.70301" lon="5.63892">
        <ele>1357.52</ele>
        <time>2018-06-23T08:35:56Z</time>
      </trkpt>
      <trkpt lat="44.70297" lon="5.63878">
        <ele>1355.6</ele>
        <time>2018-06-23T08:36:06Z</time>
      </trkpt>
      <trkpt lat="44.70295" lon="5.63872">
        <ele>1355.12</ele>
        <time>2018-06-23T08:36:10Z</time>
      </trkpt>
      <trkpt lat="44.70291" lon="5.63857">
        <ele>1354.15</ele>
        <time>2018-06-23T08:36:19Z</time>
      </trkpt>
      <trkpt lat="44.70285" lon="5.63844">
        <ele>1352.23</ele>
        <time>2018-06-23T08:36:29Z</time>
      </trkpt>
      <trkpt lat="44.70278" lon="5.63828">
        <ele>1351.75</ele>
        <time>2018-06-23T08:36:40Z</time>
      </trkpt>
      <trkpt lat="44.70274" lon="5.63823">
        <ele>1351.27</ele>
        <time>2018-06-23T08:36:45Z</time>
      </trkpt>
      <trkpt lat="44.7027" lon="5.63806">
        <ele>1349.35</ele>
        <time>2018-06-23T08:36:56Z</time>
      </trkpt>
      <trkpt lat="44.70265" lon="5.63792">
        <ele>1347.91</ele>
        <time>2018-06-23T08:37:06Z</time>
      </trkpt>
      <trkpt lat="44.7026" lon="5.63773">
        <ele>1345.98</ele>
        <time>2018-06-23T08:37:17Z</time>
      </trkpt>
      <trkpt lat="44.70258" lon="5.6377">
        <ele>1345.98</ele>
        <time>2018-06-23T08:37:19Z</time>
      </trkpt>
      <trkpt lat="44.70254" lon="5.63752">
        <ele>1344.54</ele>
        <time>2018-06-23T08:37:30Z</time>
      </trkpt>
      <trkpt lat="44.70253" lon="5.63749">
        <ele>1344.54</ele>
        <time>2018-06-23T08:37:32Z</time>
      </trkpt>
      <trkpt lat="44.70248" lon="5.63733">
        <ele>1343.1</ele>
        <time>2018-06-23T08:37:42Z</time>
      </trkpt>
      <trkpt lat="44.70247" lon="5.63733">
        <ele>1343.1</ele>
        <time>2018-06-23T08:37:43Z</time>
      </trkpt>
      <trkpt lat="44.70243" lon="5.63718">
        <ele>1341.66</ele>
        <time>2018-06-23T08:37:53Z</time>
      </trkpt>
      <trkpt lat="44.70241" lon="5.63704">
        <ele>1341.66</ele>
        <time>2018-06-23T08:38:02Z</time>
      </trkpt>
      <trkpt lat="44.7024" lon="5.63698">
        <ele>1341.66</ele>
        <time>2018-06-23T08:38:06Z</time>
      </trkpt>
      <trkpt lat="44.70241" lon="5.63687">
        <ele>1342.14</ele>
        <time>2018-06-23T08:38:13Z</time>
      </trkpt>
      <trkpt lat="44.70241" lon="5.63679">
        <ele>1343.1</ele>
        <time>2018-06-23T08:38:19Z</time>
      </trkpt>
      <trkpt lat="44.70239" lon="5.63669">
        <ele>1342.62</ele>
        <time>2018-06-23T08:38:25Z</time>
      </trkpt>
      <trkpt lat="44.70241" lon="5.6366">
        <ele>1343.1</ele>
        <time>2018-06-23T08:38:31Z</time>
      </trkpt>
      <trkpt lat="44.7024" lon="5.6365">
        <ele>1344.06</ele>
        <time>2018-06-23T08:38:38Z</time>
      </trkpt>
      <trkpt lat="44.70238" lon="5.63634">
        <ele>1345.02</ele>
        <time>2018-06-23T08:38:50Z</time>
      </trkpt>
      <trkpt lat="44.70238" lon="5.6363">
        <ele>1345.5</ele>
        <time>2018-06-23T08:38:53Z</time>
      </trkpt>
      <trkpt lat="44.70235" lon="5.63614">
        <ele>1346.46</ele>
        <time>2018-06-23T08:39:05Z</time>
      </trkpt>
      <trkpt lat="44.70235" lon="5.63598">
        <ele>1347.43</ele>
        <time>2018-06-23T08:39:16Z</time>
      </trkpt>
      <trkpt lat="44.70235" lon="5.63584">
        <ele>1348.39</ele>
        <time>2018-06-23T08:39:27Z</time>
      </trkpt>
      <trkpt lat="44.70236" lon="5.63567">
        <ele>1349.35</ele>
        <time>2018-06-23T08:39:38Z</time>
      </trkpt>
      <trkpt lat="44.70238" lon="5.6355">
        <ele>1350.31</ele>
        <time>2018-06-23T08:39:49Z</time>
      </trkpt>
      <trkpt lat="44.70237" lon="5.63542">
        <ele>1350.79</ele>
        <time>2018-06-23T08:39:55Z</time>
      </trkpt>
      <trkpt lat="44.7024" lon="5.63533">
        <ele>1352.23</ele>
        <time>2018-06-23T08:40:04Z</time>
      </trkpt>
      <trkpt lat="44.70242" lon="5.63529">
        <ele>1351.75</ele>
        <time>2018-06-23T08:40:12Z</time>
      </trkpt>
      <trkpt lat="44.70241" lon="5.63527">
        <ele>1353.19</ele>
        <time>2018-06-23T08:40:34Z</time>
      </trkpt>
      <trkpt lat="44.70241" lon="5.63527">
        <ele>1353.67</ele>
        <time>2018-06-23T08:40:56Z</time>
      </trkpt>
      <trkpt lat="44.70242" lon="5.63521">
        <ele>1353.19</ele>
        <time>2018-06-23T08:41:03Z</time>
      </trkpt>
      <trkpt lat="44.70248" lon="5.63513">
        <ele>1354.63</ele>
        <time>2018-06-23T08:41:13Z</time>
      </trkpt>
      <trkpt lat="44.70252" lon="5.63506">
        <ele>1355.12</ele>
        <time>2018-06-23T08:41:21Z</time>
      </trkpt>
      <trkpt lat="44.70254" lon="5.63499">
        <ele>1356.08</ele>
        <time>2018-06-23T08:41:29Z</time>
      </trkpt>
      <trkpt lat="44.70261" lon="5.63492">
        <ele>1357.04</ele>
        <time>2018-06-23T08:41:38Z</time>
      </trkpt>
      <trkpt lat="44.70267" lon="5.63485">
        <ele>1358</ele>
        <time>2018-06-23T08:41:48Z</time>
      </trkpt>
      <trkpt lat="44.7027" lon="5.63477">
        <ele>1359.44</ele>
        <time>2018-06-23T08:42:01Z</time>
      </trkpt>
      <trkpt lat="44.70268" lon="5.63478">
        <ele>1359.44</ele>
        <time>2018-06-23T08:42:17Z</time>
      </trkpt>
      <trkpt lat="44.70268" lon="5.63479">
        <ele>1359.92</ele>
        <time>2018-06-23T08:42:39Z</time>
      </trkpt>
      <trkpt lat="44.7027" lon="5.63479">
        <ele>1360.4</ele>
        <time>2018-06-23T08:42:57Z</time>
      </trkpt>
      <trkpt lat="44.70276" lon="5.63465">
        <ele>1361.84</ele>
        <time>2018-06-23T08:43:07Z</time>
      </trkpt>
      <trkpt lat="44.70279" lon="5.63458">
        <ele>1361.84</ele>
        <time>2018-06-23T08:43:12Z</time>
      </trkpt>
      <trkpt lat="44.7028" lon="5.63448">
        <ele>1362.81</ele>
        <time>2018-06-23T08:43:18Z</time>
      </trkpt>
      <trkpt lat="44.7028" lon="5.63446">
        <ele>1362.81</ele>
        <time>2018-06-23T08:43:20Z</time>
      </trkpt>
      <trkpt lat="44.70283" lon="5.63429">
        <ele>1364.73</ele>
        <time>2018-06-23T08:43:31Z</time>
      </trkpt>
      <trkpt lat="44.70284" lon="5.63413">
        <ele>1365.69</ele>
        <time>2018-06-23T08:43:42Z</time>
      </trkpt>
      <trkpt lat="44.70286" lon="5.634">
        <ele>1367.13</ele>
        <time>2018-06-23T08:43:52Z</time>
      </trkpt>
      <trkpt lat="44.70287" lon="5.63385">
        <ele>1368.57</ele>
        <time>2018-06-23T08:44:04Z</time>
      </trkpt>
      <trkpt lat="44.70287" lon="5.6337">
        <ele>1370.02</ele>
        <time>2018-06-23T08:44:14Z</time>
      </trkpt>
      <trkpt lat="44.70287" lon="5.63363">
        <ele>1370.5</ele>
        <time>2018-06-23T08:44:20Z</time>
      </trkpt>
      <trkpt lat="44.70287" lon="5.63353">
        <ele>1371.94</ele>
        <time>2018-06-23T08:44:29Z</time>
      </trkpt>
      <trkpt lat="44.70288" lon="5.63339">
        <ele>1373.38</ele>
        <time>2018-06-23T08:44:39Z</time>
      </trkpt>
      <trkpt lat="44.70289" lon="5.63336">
        <ele>1374.34</ele>
        <time>2018-06-23T08:44:42Z</time>
      </trkpt>
      <trkpt lat="44.7029" lon="5.63322">
        <ele>1375.78</ele>
        <time>2018-06-23T08:44:52Z</time>
      </trkpt>
      <trkpt lat="44.7029" lon="5.6331">
        <ele>1377.23</ele>
        <time>2018-06-23T08:45:01Z</time>
      </trkpt>
      <trkpt lat="44.70291" lon="5.633">
        <ele>1378.19</ele>
        <time>2018-06-23T08:45:11Z</time>
      </trkpt>
      <trkpt lat="44.70294" lon="5.63293">
        <ele>1378.19</ele>
        <time>2018-06-23T08:45:23Z</time>
      </trkpt>
      <trkpt lat="44.70294" lon="5.63289">
        <ele>1379.15</ele>
        <time>2018-06-23T08:45:35Z</time>
      </trkpt>
      <trkpt lat="44.70294" lon="5.6328">
        <ele>1380.59</ele>
        <time>2018-06-23T08:45:45Z</time>
      </trkpt>
      <trkpt lat="44.70293" lon="5.63271">
        <ele>1382.03</ele>
        <time>2018-06-23T08:45:54Z</time>
      </trkpt>
      <trkpt lat="44.70295" lon="5.63267">
        <ele>1382.03</ele>
        <time>2018-06-23T08:46:08Z</time>
      </trkpt>
      <trkpt lat="44.70293" lon="5.63263">
        <ele>1382.51</ele>
        <time>2018-06-23T08:46:18Z</time>
      </trkpt>
      <trkpt lat="44.70292" lon="5.63254">
        <ele>1383.96</ele>
        <time>2018-06-23T08:46:27Z</time>
      </trkpt>
      <trkpt lat="44.70293" lon="5.63238">
        <ele>1384.44</ele>
        <time>2018-06-23T08:46:39Z</time>
      </trkpt>
      <trkpt lat="44.70295" lon="5.6322">
        <ele>1385.88</ele>
        <time>2018-06-23T08:46:51Z</time>
      </trkpt>
      <trkpt lat="44.70299" lon="5.63212">
        <ele>1387.32</ele>
        <time>2018-06-23T08:47:02Z</time>
      </trkpt>
      <trkpt lat="44.70301" lon="5.63208">
        <ele>1387.8</ele>
        <time>2018-06-23T08:47:08Z</time>
      </trkpt>
      <trkpt lat="44.70304" lon="5.632">
        <ele>1388.76</ele>
        <time>2018-06-23T08:47:21Z</time>
      </trkpt>
      <trkpt lat="44.70304" lon="5.63201">
        <ele>1389.72</ele>
        <time>2018-06-23T08:47:35Z</time>
      </trkpt>
      <trkpt lat="44.70312" lon="5.63197">
        <ele>1391.17</ele>
        <time>2018-06-23T08:47:46Z</time>
      </trkpt>
      <trkpt lat="44.70319" lon="5.63191">
        <ele>1392.13</ele>
        <time>2018-06-23T08:47:57Z</time>
      </trkpt>
      <trkpt lat="44.70328" lon="5.63188">
        <ele>1393.57</ele>
        <time>2018-06-23T08:48:06Z</time>
      </trkpt>
      <trkpt lat="44.70336" lon="5.63184">
        <ele>1394.53</ele>
        <time>2018-06-23T08:48:17Z</time>
      </trkpt>
      <trkpt lat="44.70348" lon="5.6318">
        <ele>1396.93</ele>
        <time>2018-06-23T08:48:28Z</time>
      </trkpt>
      <trkpt lat="44.70357" lon="5.63175">
        <ele>1398.86</ele>
        <time>2018-06-23T08:48:39Z</time>
      </trkpt>
      <trkpt lat="44.70361" lon="5.63173">
        <ele>1398.86</ele>
        <time>2018-06-23T08:48:56Z</time>
      </trkpt>
      <trkpt lat="44.70366" lon="5.63168">
        <ele>1400.3</ele>
        <time>2018-06-23T08:49:07Z</time>
      </trkpt>
      <trkpt lat="44.70374" lon="5.63165">
        <ele>1402.22</ele>
        <time>2018-06-23T08:49:20Z</time>
      </trkpt>
      <trkpt lat="44.70383" lon="5.63159">
        <ele>1403.66</ele>
        <time>2018-06-23T08:49:29Z</time>
      </trkpt>
      <trkpt lat="44.7039" lon="5.6315">
        <ele>1405.58</ele>
        <time>2018-06-23T08:49:40Z</time>
      </trkpt>
      <trkpt lat="44.70392" lon="5.6315">
        <ele>1406.07</ele>
        <time>2018-06-23T08:49:58Z</time>
      </trkpt>
      <trkpt lat="44.70398" lon="5.63145">
        <ele>1407.03</ele>
        <time>2018-06-23T08:50:06Z</time>
      </trkpt>
      <trkpt lat="44.70405" lon="5.63138">
        <ele>1408.47</ele>
        <time>2018-06-23T08:50:16Z</time>
      </trkpt>
      <trkpt lat="44.70412" lon="5.63128">
        <ele>1408.95</ele>
        <time>2018-06-23T08:50:23Z</time>
      </trkpt>
      <trkpt lat="44.70418" lon="5.6312">
        <ele>1410.87</ele>
        <time>2018-06-23T08:50:34Z</time>
      </trkpt>
      <trkpt lat="44.70429" lon="5.63113">
        <ele>1412.79</ele>
        <time>2018-06-23T08:50:46Z</time>
      </trkpt>
      <trkpt lat="44.70436" lon="5.63106">
        <ele>1414.24</ele>
        <time>2018-06-23T08:50:56Z</time>
      </trkpt>
      <trkpt lat="44.70442" lon="5.63099">
        <ele>1415.68</ele>
        <time>2018-06-23T08:51:07Z</time>
      </trkpt>
      <trkpt lat="44.70448" lon="5.63092">
        <ele>1417.6</ele>
        <time>2018-06-23T08:51:15Z</time>
      </trkpt>
      <trkpt lat="44.70456" lon="5.63086">
        <ele>1419.52</ele>
        <time>2018-06-23T08:51:26Z</time>
      </trkpt>
      <trkpt lat="44.7046" lon="5.63082">
        <ele>1420.97</ele>
        <time>2018-06-23T08:51:35Z</time>
      </trkpt>
      <trkpt lat="44.70467" lon="5.63077">
        <ele>1422.41</ele>
        <time>2018-06-23T08:51:44Z</time>
      </trkpt>
      <trkpt lat="44.7047" lon="5.63072">
        <ele>1422.41</ele>
        <time>2018-06-23T08:51:47Z</time>
      </trkpt>
      <trkpt lat="44.70479" lon="5.63058">
        <ele>1424.33</ele>
        <time>2018-06-23T08:51:59Z</time>
      </trkpt>
      <trkpt lat="44.70485" lon="5.63051">
        <ele>1425.77</ele>
        <time>2018-06-23T08:52:10Z</time>
      </trkpt>
      <trkpt lat="44.7049" lon="5.63045">
        <ele>1427.21</ele>
        <time>2018-06-23T08:52:21Z</time>
      </trkpt>
      <trkpt lat="44.70495" lon="5.63041">
        <ele>1429.14</ele>
        <time>2018-06-23T08:52:32Z</time>
      </trkpt>
      <trkpt lat="44.70502" lon="5.63036">
        <ele>1431.06</ele>
        <time>2018-06-23T08:52:43Z</time>
      </trkpt>
      <trkpt lat="44.70508" lon="5.6303">
        <ele>1432.02</ele>
        <time>2018-06-23T08:52:53Z</time>
      </trkpt>
      <trkpt lat="44.70514" lon="5.63022">
        <ele>1433.46</ele>
        <time>2018-06-23T08:53:02Z</time>
      </trkpt>
      <trkpt lat="44.70522" lon="5.63013">
        <ele>1435.39</ele>
        <time>2018-06-23T08:53:13Z</time>
      </trkpt>
      <trkpt lat="44.70532" lon="5.63004">
        <ele>1436.35</ele>
        <time>2018-06-23T08:53:23Z</time>
      </trkpt>
      <trkpt lat="44.70544" lon="5.62988">
        <ele>1436.83</ele>
        <time>2018-06-23T08:53:34Z</time>
      </trkpt>
      <trkpt lat="44.7055" lon="5.6298">
        <ele>1437.31</ele>
        <time>2018-06-23T08:53:45Z</time>
      </trkpt>
      <trkpt lat="44.70554" lon="5.62978">
        <ele>1437.79</ele>
        <time>2018-06-23T08:53:50Z</time>
      </trkpt>
      <trkpt lat="44.70564" lon="5.62981">
        <ele>1438.75</ele>
        <time>2018-06-23T08:54:01Z</time>
      </trkpt>
      <trkpt lat="44.70573" lon="5.62982">
        <ele>1438.75</ele>
        <time>2018-06-23T08:54:12Z</time>
      </trkpt>
      <trkpt lat="44.70584" lon="5.62979">
        <ele>1440.19</ele>
        <time>2018-06-23T08:54:23Z</time>
      </trkpt>
      <trkpt lat="44.70597" lon="5.62979">
        <ele>1440.67</ele>
        <time>2018-06-23T08:54:34Z</time>
      </trkpt>
      <trkpt lat="44.70609" lon="5.62974">
        <ele>1441.63</ele>
        <time>2018-06-23T08:54:45Z</time>
      </trkpt>
      <trkpt lat="44.70619" lon="5.62966">
        <ele>1442.11</ele>
        <time>2018-06-23T08:54:56Z</time>
      </trkpt>
      <trkpt lat="44.70628" lon="5.62957">
        <ele>1442.6</ele>
        <time>2018-06-23T08:55:06Z</time>
      </trkpt>
      <trkpt lat="44.70635" lon="5.62946">
        <ele>1443.56</ele>
        <time>2018-06-23T08:55:19Z</time>
      </trkpt>
      <trkpt lat="44.70639" lon="5.62938">
        <ele>1443.56</ele>
        <time>2018-06-23T08:55:32Z</time>
      </trkpt>
      <trkpt lat="44.70642" lon="5.62933">
        <ele>1444.04</ele>
        <time>2018-06-23T08:55:43Z</time>
      </trkpt>
      <trkpt lat="44.70649" lon="5.62925">
        <ele>1444.52</ele>
        <time>2018-06-23T08:55:53Z</time>
      </trkpt>
      <trkpt lat="44.70655" lon="5.62926">
        <ele>1445.48</ele>
        <time>2018-06-23T08:56:04Z</time>
      </trkpt>
      <trkpt lat="44.70654" lon="5.62923">
        <ele>1445.96</ele>
        <time>2018-06-23T08:56:19Z</time>
      </trkpt>
      <trkpt lat="44.70657" lon="5.6293">
        <ele>1446.92</ele>
        <time>2018-06-23T08:56:31Z</time>
      </trkpt>
      <trkpt lat="44.70655" lon="5.62937">
        <ele>1448.36</ele>
        <time>2018-06-23T08:56:39Z</time>
      </trkpt>
      <trkpt lat="44.70659" lon="5.62954">
        <ele>1447.4</ele>
        <time>2018-06-23T08:56:51Z</time>
      </trkpt>
      <trkpt lat="44.70663" lon="5.62966">
        <ele>1446.92</ele>
        <time>2018-06-23T08:57:01Z</time>
      </trkpt>
      <trkpt lat="44.70665" lon="5.62972">
        <ele>1447.4</ele>
        <time>2018-06-23T08:57:11Z</time>
      </trkpt>
      <trkpt lat="44.70666" lon="5.62979">
        <ele>1447.88</ele>
        <time>2018-06-23T08:57:25Z</time>
      </trkpt>
      <trkpt lat="44.70672" lon="5.6299">
        <ele>1448.84</ele>
        <time>2018-06-23T08:57:35Z</time>
      </trkpt>
      <trkpt lat="44.70673" lon="5.62995">
        <ele>1449.32</ele>
        <time>2018-06-23T08:57:40Z</time>
      </trkpt>
      <trkpt lat="44.70675" lon="5.63003">
        <ele>1449.32</ele>
        <time>2018-06-23T08:57:51Z</time>
      </trkpt>
      <trkpt lat="44.70676" lon="5.63011">
        <ele>1450.29</ele>
        <time>2018-06-23T08:58:08Z</time>
      </trkpt>
      <trkpt lat="44.70678" lon="5.63023">
        <ele>1451.25</ele>
        <time>2018-06-23T08:58:17Z</time>
      </trkpt>
      <trkpt lat="44.70678" lon="5.63027">
        <ele>1450.77</ele>
        <time>2018-06-23T08:58:19Z</time>
      </trkpt>
      <trkpt lat="44.7068" lon="5.63041">
        <ele>1451.73</ele>
        <time>2018-06-23T08:58:30Z</time>
      </trkpt>
      <trkpt lat="44.70681" lon="5.63053">
        <ele>1452.69</ele>
        <time>2018-06-23T08:58:39Z</time>
      </trkpt>
      <trkpt lat="44.70681" lon="5.63067">
        <ele>1453.17</ele>
        <time>2018-06-23T08:58:49Z</time>
      </trkpt>
      <trkpt lat="44.70679" lon="5.6308">
        <ele>1453.65</ele>
        <time>2018-06-23T08:59:01Z</time>
      </trkpt>
      <trkpt lat="44.70679" lon="5.63094">
        <ele>1454.13</ele>
        <time>2018-06-23T08:59:12Z</time>
      </trkpt>
      <trkpt lat="44.70683" lon="5.63111">
        <ele>1454.13</ele>
        <time>2018-06-23T08:59:26Z</time>
      </trkpt>
      <trkpt lat="44.70686" lon="5.63119">
        <ele>1454.61</ele>
        <time>2018-06-23T08:59:38Z</time>
      </trkpt>
      <trkpt lat="44.70687" lon="5.63126">
        <ele>1455.09</ele>
        <time>2018-06-23T08:59:48Z</time>
      </trkpt>
      <trkpt lat="44.70691" lon="5.63139">
        <ele>1456.53</ele>
        <time>2018-06-23T08:59:59Z</time>
      </trkpt>
      <trkpt lat="44.70692" lon="5.63147">
        <ele>1457.5</ele>
        <time>2018-06-23T09:00:04Z</time>
      </trkpt>
      <trkpt lat="44.70698" lon="5.63157">
        <ele>1457.98</ele>
        <time>2018-06-23T09:00:13Z</time>
      </trkpt>
      <trkpt lat="44.707" lon="5.63163">
        <ele>1457.5</ele>
        <time>2018-06-23T09:00:20Z</time>
      </trkpt>
      <trkpt lat="44.70701" lon="5.63166">
        <ele>1457.98</ele>
        <time>2018-06-23T09:00:22Z</time>
      </trkpt>
      <trkpt lat="44.70705" lon="5.63172">
        <ele>1457.98</ele>
        <time>2018-06-23T09:00:28Z</time>
      </trkpt>
      <trkpt lat="44.70708" lon="5.63185">
        <ele>1459.42</ele>
        <time>2018-06-23T09:00:39Z</time>
      </trkpt>
      <trkpt lat="44.70712" lon="5.63198">
        <ele>1459.9</ele>
        <time>2018-06-23T09:00:49Z</time>
      </trkpt>
      <trkpt lat="44.70715" lon="5.63209">
        <ele>1460.86</ele>
        <time>2018-06-23T09:00:59Z</time>
      </trkpt>
      <trkpt lat="44.70715" lon="5.63216">
        <ele>1461.34</ele>
        <time>2018-06-23T09:01:03Z</time>
      </trkpt>
      <trkpt lat="44.70716" lon="5.63219">
        <ele>1461.34</ele>
        <time>2018-06-23T09:01:05Z</time>
      </trkpt>
      <trkpt lat="44.70718" lon="5.63226">
        <ele>1462.3</ele>
        <time>2018-06-23T09:01:11Z</time>
      </trkpt>
      <trkpt lat="44.70725" lon="5.63231">
        <ele>1462.78</ele>
        <time>2018-06-23T09:01:20Z</time>
      </trkpt>
      <trkpt lat="44.70728" lon="5.63234">
        <ele>1462.78</ele>
        <time>2018-06-23T09:01:31Z</time>
      </trkpt>
      <trkpt lat="44.70737" lon="5.63241">
        <ele>1463.26</ele>
        <time>2018-06-23T09:01:40Z</time>
      </trkpt>
      <trkpt lat="44.7074" lon="5.63245">
        <ele>1463.74</ele>
        <time>2018-06-23T09:01:44Z</time>
      </trkpt>
      <trkpt lat="44.70745" lon="5.63247">
        <ele>1464.23</ele>
        <time>2018-06-23T09:01:48Z</time>
      </trkpt>
      <trkpt lat="44.70747" lon="5.6325">
        <ele>1464.23</ele>
        <time>2018-06-23T09:01:51Z</time>
      </trkpt>
      <trkpt lat="44.70752" lon="5.6326">
        <ele>1465.19</ele>
        <time>2018-06-23T09:02:00Z</time>
      </trkpt>
      <trkpt lat="44.70755" lon="5.63263">
        <ele>1464.71</ele>
        <time>2018-06-23T09:02:05Z</time>
      </trkpt>
      <trkpt lat="44.70758" lon="5.63269">
        <ele>1466.15</ele>
        <time>2018-06-23T09:02:14Z</time>
      </trkpt>
      <trkpt lat="44.70766" lon="5.63278">
        <ele>1467.11</ele>
        <time>2018-06-23T09:02:24Z</time>
      </trkpt>
      <trkpt lat="44.70767" lon="5.63282">
        <ele>1467.11</ele>
        <time>2018-06-23T09:02:27Z</time>
      </trkpt>
      <trkpt lat="44.7077" lon="5.63287">
        <ele>1467.11</ele>
        <time>2018-06-23T09:02:31Z</time>
      </trkpt>
      <trkpt lat="44.70776" lon="5.63295">
        <ele>1467.59</ele>
        <time>2018-06-23T09:02:42Z</time>
      </trkpt>
      <trkpt lat="44.70783" lon="5.63301">
        <ele>1469.03</ele>
        <time>2018-06-23T09:02:53Z</time>
      </trkpt>
      <trkpt lat="44.70791" lon="5.63307">
        <ele>1468.55</ele>
        <time>2018-06-23T09:03:01Z</time>
      </trkpt>
      <trkpt lat="44.70796" lon="5.63314">
        <ele>1469.03</ele>
        <time>2018-06-23T09:03:09Z</time>
      </trkpt>
      <trkpt lat="44.70805" lon="5.63322">
        <ele>1469.99</ele>
        <time>2018-06-23T09:03:20Z</time>
      </trkpt>
      <trkpt lat="44.70805" lon="5.63323">
        <ele>1470.47</ele>
        <time>2018-06-23T09:03:21Z</time>
      </trkpt>
      <trkpt lat="44.70812" lon="5.63333">
        <ele>1471.44</ele>
        <time>2018-06-23T09:03:33Z</time>
      </trkpt>
      <trkpt lat="44.70813" lon="5.63333">
        <ele>1471.92</ele>
        <time>2018-06-23T09:03:34Z</time>
      </trkpt>
      <trkpt lat="44.70825" lon="5.63339">
        <ele>1471.44</ele>
        <time>2018-06-23T09:03:45Z</time>
      </trkpt>
      <trkpt lat="44.70832" lon="5.63346">
        <ele>1471.92</ele>
        <time>2018-06-23T09:03:56Z</time>
      </trkpt>
      <trkpt lat="44.70838" lon="5.63354">
        <ele>1472.4</ele>
        <time>2018-06-23T09:04:06Z</time>
      </trkpt>
      <trkpt lat="44.70842" lon="5.63359">
        <ele>1473.84</ele>
        <time>2018-06-23T09:04:14Z</time>
      </trkpt>
      <trkpt lat="44.7085" lon="5.63369">
        <ele>1475.28</ele>
        <time>2018-06-23T09:04:25Z</time>
      </trkpt>
      <trkpt lat="44.70858" lon="5.63375">
        <ele>1475.28</ele>
        <time>2018-06-23T09:04:35Z</time>
      </trkpt>
      <trkpt lat="44.70866" lon="5.63381">
        <ele>1476.24</ele>
        <time>2018-06-23T09:04:45Z</time>
      </trkpt>
      <trkpt lat="44.70868" lon="5.63382">
        <ele>1476.24</ele>
        <time>2018-06-23T09:04:47Z</time>
      </trkpt>
      <trkpt lat="44.70874" lon="5.63384">
        <ele>1476.24</ele>
        <time>2018-06-23T09:04:52Z</time>
      </trkpt>
      <trkpt lat="44.70882" lon="5.63392">
        <ele>1477.2</ele>
        <time>2018-06-23T09:05:04Z</time>
      </trkpt>
      <trkpt lat="44.70889" lon="5.63398">
        <ele>1477.68</ele>
        <time>2018-06-23T09:05:14Z</time>
      </trkpt>
      <trkpt lat="44.70892" lon="5.634">
        <ele>1477.68</ele>
        <time>2018-06-23T09:05:17Z</time>
      </trkpt>
      <trkpt lat="44.70899" lon="5.63405">
        <ele>1477.68</ele>
        <time>2018-06-23T09:05:25Z</time>
      </trkpt>
      <trkpt lat="44.70909" lon="5.63411">
        <ele>1478.65</ele>
        <time>2018-06-23T09:05:35Z</time>
      </trkpt>
      <trkpt lat="44.70917" lon="5.63418">
        <ele>1479.13</ele>
        <time>2018-06-23T09:05:46Z</time>
      </trkpt>
      <trkpt lat="44.70928" lon="5.63422">
        <ele>1480.09</ele>
        <time>2018-06-23T09:05:55Z</time>
      </trkpt>
      <trkpt lat="44.70936" lon="5.6343">
        <ele>1480.09</ele>
        <time>2018-06-23T09:06:04Z</time>
      </trkpt>
      <trkpt lat="44.70941" lon="5.63436">
        <ele>1480.57</ele>
        <time>2018-06-23T09:06:11Z</time>
      </trkpt>
      <trkpt lat="44.70948" lon="5.63442">
        <ele>1481.53</ele>
        <time>2018-06-23T09:06:22Z</time>
      </trkpt>
      <trkpt lat="44.70954" lon="5.63449">
        <ele>1481.53</ele>
        <time>2018-06-23T09:06:31Z</time>
      </trkpt>
      <trkpt lat="44.70959" lon="5.63455">
        <ele>1482.01</ele>
        <time>2018-06-23T09:06:39Z</time>
      </trkpt>
      <trkpt lat="44.70967" lon="5.63461">
        <ele>1482.49</ele>
        <time>2018-06-23T09:06:48Z</time>
      </trkpt>
      <trkpt lat="44.7097" lon="5.63466">
        <ele>1482.49</ele>
        <time>2018-06-23T09:06:54Z</time>
      </trkpt>
      <trkpt lat="44.70974" lon="5.63471">
        <ele>1482.97</ele>
        <time>2018-06-23T09:07:01Z</time>
      </trkpt>
      <trkpt lat="44.70983" lon="5.63478">
        <ele>1483.93</ele>
        <time>2018-06-23T09:07:10Z</time>
      </trkpt>
      <trkpt lat="44.70986" lon="5.63482">
        <ele>1485.85</ele>
        <time>2018-06-23T09:07:18Z</time>
      </trkpt>
      <trkpt lat="44.70991" lon="5.63492">
        <ele>1486.34</ele>
        <time>2018-06-23T09:07:28Z</time>
      </trkpt>
      <trkpt lat="44.70992" lon="5.63492">
        <ele>1486.82</ele>
        <time>2018-06-23T09:07:29Z</time>
      </trkpt>
      <trkpt lat="44.70996" lon="5.63497">
        <ele>1486.82</ele>
        <time>2018-06-23T09:07:33Z</time>
      </trkpt>
      <trkpt lat="44.70998" lon="5.635">
        <ele>1486.34</ele>
        <time>2018-06-23T09:07:37Z</time>
      </trkpt>
      <trkpt lat="44.71007" lon="5.63509">
        <ele>1486.82</ele>
        <time>2018-06-23T09:07:47Z</time>
      </trkpt>
      <trkpt lat="44.71008" lon="5.63512">
        <ele>1486.82</ele>
        <time>2018-06-23T09:07:49Z</time>
      </trkpt>
      <trkpt lat="44.7101" lon="5.63518">
        <ele>1486.82</ele>
        <time>2018-06-23T09:07:54Z</time>
      </trkpt>
      <trkpt lat="44.71021" lon="5.63528">
        <ele>1486.34</ele>
        <time>2018-06-23T09:08:06Z</time>
      </trkpt>
      <trkpt lat="44.71025" lon="5.63534">
        <ele>1485.85</ele>
        <time>2018-06-23T09:08:17Z</time>
      </trkpt>
      <trkpt lat="44.71031" lon="5.63543">
        <ele>1487.3</ele>
        <time>2018-06-23T09:08:27Z</time>
      </trkpt>
      <trkpt lat="44.71032" lon="5.63545">
        <ele>1488.26</ele>
        <time>2018-06-23T09:08:29Z</time>
      </trkpt>
      <trkpt lat="44.71039" lon="5.63553">
        <ele>1489.22</ele>
        <time>2018-06-23T09:08:39Z</time>
      </trkpt>
      <trkpt lat="44.71046" lon="5.63562">
        <ele>1489.22</ele>
        <time>2018-06-23T09:08:49Z</time>
      </trkpt>
      <trkpt lat="44.71047" lon="5.63562">
        <ele>1489.7</ele>
        <time>2018-06-23T09:08:50Z</time>
      </trkpt>
      <trkpt lat="44.71055" lon="5.63568">
        <ele>1490.18</ele>
        <time>2018-06-23T09:09:00Z</time>
      </trkpt>
      <trkpt lat="44.71058" lon="5.63571">
        <ele>1490.66</ele>
        <time>2018-06-23T09:09:04Z</time>
      </trkpt>
      <trkpt lat="44.71061" lon="5.63573">
        <ele>1489.7</ele>
        <time>2018-06-23T09:09:07Z</time>
      </trkpt>
      <trkpt lat="44.71071" lon="5.63577">
        <ele>1490.66</ele>
        <time>2018-06-23T09:09:19Z</time>
      </trkpt>
      <trkpt lat="44.71076" lon="5.63577">
        <ele>1490.66</ele>
        <time>2018-06-23T09:09:26Z</time>
      </trkpt>
      <trkpt lat="44.71084" lon="5.63579">
        <ele>1491.62</ele>
        <time>2018-06-23T09:09:37Z</time>
      </trkpt>
      <trkpt lat="44.71089" lon="5.63577">
        <ele>1490.66</ele>
        <time>2018-06-23T09:09:45Z</time>
      </trkpt>
      <trkpt lat="44.71101" lon="5.63578">
        <ele>1492.1</ele>
        <time>2018-06-23T09:09:55Z</time>
      </trkpt>
      <trkpt lat="44.71112" lon="5.63581">
        <ele>1493.55</ele>
        <time>2018-06-23T09:10:06Z</time>
      </trkpt>
      <trkpt lat="44.71119" lon="5.63581">
        <ele>1493.06</ele>
        <time>2018-06-23T09:10:16Z</time>
      </trkpt>
      <trkpt lat="44.71133" lon="5.63579">
        <ele>1494.03</ele>
        <time>2018-06-23T09:10:26Z</time>
      </trkpt>
      <trkpt lat="44.71147" lon="5.63579">
        <ele>1494.51</ele>
        <time>2018-06-23T09:10:38Z</time>
      </trkpt>
      <trkpt lat="44.71161" lon="5.63585">
        <ele>1494.99</ele>
        <time>2018-06-23T09:10:51Z</time>
      </trkpt>
      <trkpt lat="44.71172" lon="5.63589">
        <ele>1495.47</ele>
        <time>2018-06-23T09:11:02Z</time>
      </trkpt>
      <trkpt lat="44.71178" lon="5.63593">
        <ele>1495.95</ele>
        <time>2018-06-23T09:11:08Z</time>
      </trkpt>
      <trkpt lat="44.71179" lon="5.63595">
        <ele>1495.95</ele>
        <time>2018-06-23T09:11:10Z</time>
      </trkpt>
      <trkpt lat="44.71189" lon="5.63599">
        <ele>1496.91</ele>
        <time>2018-06-23T09:11:19Z</time>
      </trkpt>
      <trkpt lat="44.71197" lon="5.63604">
        <ele>1497.39</ele>
        <time>2018-06-23T09:11:28Z</time>
      </trkpt>
      <trkpt lat="44.71204" lon="5.63609">
        <ele>1497.39</ele>
        <time>2018-06-23T09:11:38Z</time>
      </trkpt>
      <trkpt lat="44.71208" lon="5.63614">
        <ele>1498.35</ele>
        <time>2018-06-23T09:11:48Z</time>
      </trkpt>
      <trkpt lat="44.71213" lon="5.63619">
        <ele>1498.35</ele>
        <time>2018-06-23T09:12:01Z</time>
      </trkpt>
      <trkpt lat="44.71218" lon="5.63624">
        <ele>1498.83</ele>
        <time>2018-06-23T09:12:08Z</time>
      </trkpt>
      <trkpt lat="44.71221" lon="5.63626">
        <ele>1498.83</ele>
        <time>2018-06-23T09:12:10Z</time>
      </trkpt>
      <trkpt lat="44.71222" lon="5.63628">
        <ele>1499.79</ele>
        <time>2018-06-23T09:12:12Z</time>
      </trkpt>
      <trkpt lat="44.71231" lon="5.6364">
        <ele>1499.79</ele>
        <time>2018-06-23T09:12:23Z</time>
      </trkpt>
      <trkpt lat="44.71239" lon="5.63648">
        <ele>1500.76</ele>
        <time>2018-06-23T09:12:33Z</time>
      </trkpt>
      <trkpt lat="44.71242" lon="5.63651">
        <ele>1500.27</ele>
        <time>2018-06-23T09:12:37Z</time>
      </trkpt>
      <trkpt lat="44.71253" lon="5.63654">
        <ele>1501.24</ele>
        <time>2018-06-23T09:12:49Z</time>
      </trkpt>
      <trkpt lat="44.71263" lon="5.63658">
        <ele>1502.2</ele>
        <time>2018-06-23T09:13:00Z</time>
      </trkpt>
      <trkpt lat="44.71274" lon="5.63662">
        <ele>1502.2</ele>
        <time>2018-06-23T09:13:11Z</time>
      </trkpt>
      <trkpt lat="44.71279" lon="5.63666">
        <ele>1503.16</ele>
        <time>2018-06-23T09:13:17Z</time>
      </trkpt>
      <trkpt lat="44.71292" lon="5.63672">
        <ele>1504.12</ele>
        <time>2018-06-23T09:13:31Z</time>
      </trkpt>
      <trkpt lat="44.71302" lon="5.63677">
        <ele>1504.12</ele>
        <time>2018-06-23T09:13:41Z</time>
      </trkpt>
      <trkpt lat="44.71312" lon="5.63682">
        <ele>1504.6</ele>
        <time>2018-06-23T09:13:51Z</time>
      </trkpt>
      <trkpt lat="44.71322" lon="5.63683">
        <ele>1506.04</ele>
        <time>2018-06-23T09:14:01Z</time>
      </trkpt>
      <trkpt lat="44.71334" lon="5.6368">
        <ele>1507</ele>
        <time>2018-06-23T09:14:13Z</time>
      </trkpt>
      <trkpt lat="44.71347" lon="5.63682">
        <ele>1507.48</ele>
        <time>2018-06-23T09:14:23Z</time>
      </trkpt>
      <trkpt lat="44.71357" lon="5.63683">
        <ele>1508.45</ele>
        <time>2018-06-23T09:14:33Z</time>
      </trkpt>
      <trkpt lat="44.71369" lon="5.63685">
        <ele>1508.93</ele>
        <time>2018-06-23T09:14:44Z</time>
      </trkpt>
      <trkpt lat="44.71385" lon="5.63687">
        <ele>1509.41</ele>
        <time>2018-06-23T09:14:57Z</time>
      </trkpt>
      <trkpt lat="44.71393" lon="5.63691">
        <ele>1510.37</ele>
        <time>2018-06-23T09:15:06Z</time>
      </trkpt>
      <trkpt lat="44.71398" lon="5.63697">
        <ele>1511.33</ele>
        <time>2018-06-23T09:15:17Z</time>
      </trkpt>
      <trkpt lat="44.71408" lon="5.63698">
        <ele>1511.81</ele>
        <time>2018-06-23T09:15:26Z</time>
      </trkpt>
      <trkpt lat="44.71421" lon="5.63699">
        <ele>1512.77</ele>
        <time>2018-06-23T09:15:37Z</time>
      </trkpt>
      <trkpt lat="44.71424" lon="5.63703">
        <ele>1512.77</ele>
        <time>2018-06-23T09:15:43Z</time>
      </trkpt>
      <trkpt lat="44.71436" lon="5.6371">
        <ele>1514.21</ele>
        <time>2018-06-23T09:15:56Z</time>
      </trkpt>
      <trkpt lat="44.71446" lon="5.63716">
        <ele>1514.69</ele>
        <time>2018-06-23T09:16:05Z</time>
      </trkpt>
      <trkpt lat="44.71453" lon="5.6372">
        <ele>1514.69</ele>
        <time>2018-06-23T09:16:16Z</time>
      </trkpt>
      <trkpt lat="44.71461" lon="5.63727">
        <ele>1515.66</ele>
        <time>2018-06-23T09:16:25Z</time>
      </trkpt>
      <trkpt lat="44.71471" lon="5.63731">
        <ele>1516.14</ele>
        <time>2018-06-23T09:16:35Z</time>
      </trkpt>
      <trkpt lat="44.7148" lon="5.63735">
        <ele>1516.62</ele>
        <time>2018-06-23T09:16:45Z</time>
      </trkpt>
      <trkpt lat="44.71482" lon="5.63736">
        <ele>1516.14</ele>
        <time>2018-06-23T09:16:47Z</time>
      </trkpt>
      <trkpt lat="44.71491" lon="5.63736">
        <ele>1517.1</ele>
        <time>2018-06-23T09:16:56Z</time>
      </trkpt>
      <trkpt lat="44.71498" lon="5.63739">
        <ele>1517.58</ele>
        <time>2018-06-23T09:17:04Z</time>
      </trkpt>
      <trkpt lat="44.71501" lon="5.63735">
        <ele>1518.06</ele>
        <time>2018-06-23T09:17:14Z</time>
      </trkpt>
      <trkpt lat="44.71504" lon="5.63733">
        <ele>1518.54</ele>
        <time>2018-06-23T09:17:34Z</time>
      </trkpt>
      <trkpt lat="44.71511" lon="5.6374">
        <ele>1519.02</ele>
        <time>2018-06-23T09:17:44Z</time>
      </trkpt>
      <trkpt lat="44.71518" lon="5.63737">
        <ele>1519.02</ele>
        <time>2018-06-23T09:17:52Z</time>
      </trkpt>
      <trkpt lat="44.7152" lon="5.63735">
        <ele>1519.02</ele>
        <time>2018-06-23T09:18:04Z</time>
      </trkpt>
      <trkpt lat="44.71527" lon="5.63742">
        <ele>1519.5</ele>
        <time>2018-06-23T09:18:14Z</time>
      </trkpt>
      <trkpt lat="44.71535" lon="5.63746">
        <ele>1520.46</ele>
        <time>2018-06-23T09:18:24Z</time>
      </trkpt>
      <trkpt lat="44.71542" lon="5.63755">
        <ele>1521.9</ele>
        <time>2018-06-23T09:18:33Z</time>
      </trkpt>
      <trkpt lat="44.71547" lon="5.6376">
        <ele>1522.39</ele>
        <time>2018-06-23T09:18:41Z</time>
      </trkpt>
      <trkpt lat="44.71562" lon="5.63766">
        <ele>1522.87</ele>
        <time>2018-06-23T09:18:53Z</time>
      </trkpt>
      <trkpt lat="44.7157" lon="5.63766">
        <ele>1523.83</ele>
        <time>2018-06-23T09:19:03Z</time>
      </trkpt>
      <trkpt lat="44.71578" lon="5.63764">
        <ele>1524.31</ele>
        <time>2018-06-23T09:19:12Z</time>
      </trkpt>
      <trkpt lat="44.71587" lon="5.63764">
        <ele>1525.27</ele>
        <time>2018-06-23T09:19:20Z</time>
      </trkpt>
      <trkpt lat="44.71598" lon="5.63769">
        <ele>1527.19</ele>
        <time>2018-06-23T09:19:32Z</time>
      </trkpt>
      <trkpt lat="44.71608" lon="5.63775">
        <ele>1528.15</ele>
        <time>2018-06-23T09:19:43Z</time>
      </trkpt>
      <trkpt lat="44.71619" lon="5.63776">
        <ele>1528.15</ele>
        <time>2018-06-23T09:19:54Z</time>
      </trkpt>
      <trkpt lat="44.71629" lon="5.63778">
        <ele>1529.11</ele>
        <time>2018-06-23T09:20:04Z</time>
      </trkpt>
      <trkpt lat="44.71641" lon="5.63783">
        <ele>1531.52</ele>
        <time>2018-06-23T09:20:14Z</time>
      </trkpt>
      <trkpt lat="44.7165" lon="5.63788">
        <ele>1531.52</ele>
        <time>2018-06-23T09:20:25Z</time>
      </trkpt>
      <trkpt lat="44.7166" lon="5.63791">
        <ele>1532.48</ele>
        <time>2018-06-23T09:20:36Z</time>
      </trkpt>
      <trkpt lat="44.71673" lon="5.63793">
        <ele>1533.44</ele>
        <time>2018-06-23T09:20:48Z</time>
      </trkpt>
      <trkpt lat="44.71684" lon="5.63796">
        <ele>1533.92</ele>
        <time>2018-06-23T09:20:59Z</time>
      </trkpt>
      <trkpt lat="44.71694" lon="5.63803">
        <ele>1536.32</ele>
        <time>2018-06-23T09:21:11Z</time>
      </trkpt>
      <trkpt lat="44.71695" lon="5.63803">
        <ele>1536.32</ele>
        <time>2018-06-23T09:21:12Z</time>
      </trkpt>
      <trkpt lat="44.71697" lon="5.63806">
        <ele>1537.29</ele>
        <time>2018-06-23T09:21:18Z</time>
      </trkpt>
      <trkpt lat="44.71707" lon="5.63813">
        <ele>1536.8</ele>
        <time>2018-06-23T09:21:29Z</time>
      </trkpt>
      <trkpt lat="44.71714" lon="5.63818">
        <ele>1538.73</ele>
        <time>2018-06-23T09:21:39Z</time>
      </trkpt>
      <trkpt lat="44.71725" lon="5.63825">
        <ele>1538.25</ele>
        <time>2018-06-23T09:21:51Z</time>
      </trkpt>
      <trkpt lat="44.71735" lon="5.63832">
        <ele>1538.25</ele>
        <time>2018-06-23T09:22:03Z</time>
      </trkpt>
      <trkpt lat="44.71741" lon="5.63836">
        <ele>1540.17</ele>
        <time>2018-06-23T09:22:12Z</time>
      </trkpt>
      <trkpt lat="44.71751" lon="5.63843">
        <ele>1540.17</ele>
        <time>2018-06-23T09:22:23Z</time>
      </trkpt>
      <trkpt lat="44.71754" lon="5.63843">
        <ele>1540.65</ele>
        <time>2018-06-23T09:22:34Z</time>
      </trkpt>
      <trkpt lat="44.71758" lon="5.63844">
        <ele>1541.13</ele>
        <time>2018-06-23T09:22:49Z</time>
      </trkpt>
      <trkpt lat="44.71759" lon="5.63845">
        <ele>1540.65</ele>
        <time>2018-06-23T09:23:03Z</time>
      </trkpt>
      <trkpt lat="44.7176" lon="5.63845">
        <ele>1540.65</ele>
        <time>2018-06-23T09:23:21Z</time>
      </trkpt>
      <trkpt lat="44.7176" lon="5.63844">
        <ele>1539.69</ele>
        <time>2018-06-23T09:23:35Z</time>
      </trkpt>
      <trkpt lat="44.71761" lon="5.63845">
        <ele>1539.69</ele>
        <time>2018-06-23T09:23:46Z</time>
      </trkpt>
      <trkpt lat="44.71761" lon="5.63845">
        <ele>1540.17</ele>
        <time>2018-06-23T09:24:09Z</time>
      </trkpt>
      <trkpt lat="44.71762" lon="5.63844">
        <ele>1540.17</ele>
        <time>2018-06-23T09:24:27Z</time>
      </trkpt>
      <trkpt lat="44.71761" lon="5.63845">
        <ele>1540.65</ele>
        <time>2018-06-23T09:24:45Z</time>
      </trkpt>
      <trkpt lat="44.71761" lon="5.63845">
        <ele>1540.65</ele>
        <time>2018-06-23T09:25:07Z</time>
      </trkpt>
      <trkpt lat="44.71761" lon="5.63845">
        <ele>1541.61</ele>
        <time>2018-06-23T09:25:24Z</time>
      </trkpt>
      <trkpt lat="44.71761" lon="5.63844">
        <ele>1541.61</ele>
        <time>2018-06-23T09:25:36Z</time>
      </trkpt>
      <trkpt lat="44.71761" lon="5.63844">
        <ele>1541.13</ele>
        <time>2018-06-23T09:25:51Z</time>
      </trkpt>
      <trkpt lat="44.71761" lon="5.63844">
        <ele>1542.09</ele>
        <time>2018-06-23T09:26:04Z</time>
      </trkpt>
      <trkpt lat="44.71761" lon="5.63845">
        <ele>1541.61</ele>
        <time>2018-06-23T09:26:23Z</time>
      </trkpt>
      <trkpt lat="44.71761" lon="5.63844">
        <ele>1541.61</ele>
        <time>2018-06-23T09:26:36Z</time>
      </trkpt>
      <trkpt lat="44.71763" lon="5.63844">
        <ele>1541.61</ele>
        <time>2018-06-23T09:26:48Z</time>
      </trkpt>
      <trkpt lat="44.71763" lon="5.63845">
        <ele>1542.09</ele>
        <time>2018-06-23T09:27:02Z</time>
      </trkpt>
      <trkpt lat="44.71763" lon="5.63845">
        <ele>1541.61</ele>
        <time>2018-06-23T09:27:16Z</time>
      </trkpt>
      <trkpt lat="44.71762" lon="5.63845">
        <ele>1541.13</ele>
        <time>2018-06-23T09:27:34Z</time>
      </trkpt>
      <trkpt lat="44.71767" lon="5.63847">
        <ele>1541.13</ele>
        <time>2018-06-23T09:27:44Z</time>
      </trkpt>
      <trkpt lat="44.71777" lon="5.63852">
        <ele>1541.61</ele>
        <time>2018-06-23T09:27:55Z</time>
      </trkpt>
      <trkpt lat="44.71789" lon="5.63858">
        <ele>1543.05</ele>
        <time>2018-06-23T09:28:07Z</time>
      </trkpt>
      <trkpt lat="44.71796" lon="5.63864">
        <ele>1543.53</ele>
        <time>2018-06-23T09:28:17Z</time>
      </trkpt>
      <trkpt lat="44.71807" lon="5.6387">
        <ele>1544.5</ele>
        <time>2018-06-23T09:28:28Z</time>
      </trkpt>
      <trkpt lat="44.71817" lon="5.63874">
        <ele>1545.46</ele>
        <time>2018-06-23T09:28:39Z</time>
      </trkpt>
      <trkpt lat="44.71824" lon="5.63877">
        <ele>1546.9</ele>
        <time>2018-06-23T09:28:50Z</time>
      </trkpt>
      <trkpt lat="44.7183" lon="5.63877">
        <ele>1547.86</ele>
        <time>2018-06-23T09:28:55Z</time>
      </trkpt>
      <trkpt lat="44.71839" lon="5.63875">
        <ele>1549.3</ele>
        <time>2018-06-23T09:29:05Z</time>
      </trkpt>
      <trkpt lat="44.71847" lon="5.63872">
        <ele>1550.26</ele>
        <time>2018-06-23T09:29:15Z</time>
      </trkpt>
      <trkpt lat="44.71854" lon="5.63874">
        <ele>1550.26</ele>
        <time>2018-06-23T09:29:25Z</time>
      </trkpt>
      <trkpt lat="44.71857" lon="5.63873">
        <ele>1551.22</ele>
        <time>2018-06-23T09:29:39Z</time>
      </trkpt>
      <trkpt lat="44.71866" lon="5.6388">
        <ele>1553.15</ele>
        <time>2018-06-23T09:29:53Z</time>
      </trkpt>
      <trkpt lat="44.71871" lon="5.6388">
        <ele>1554.11</ele>
        <time>2018-06-23T09:30:03Z</time>
      </trkpt>
      <trkpt lat="44.71872" lon="5.6388">
        <ele>1555.07</ele>
        <time>2018-06-23T09:30:04Z</time>
      </trkpt>
      <trkpt lat="44.71885" lon="5.63885">
        <ele>1556.03</ele>
        <time>2018-06-23T09:30:17Z</time>
      </trkpt>
      <trkpt lat="44.71895" lon="5.63884">
        <ele>1556.51</ele>
        <time>2018-06-23T09:30:30Z</time>
      </trkpt>
      <trkpt lat="44.71902" lon="5.63883">
        <ele>1558.43</ele>
        <time>2018-06-23T09:30:40Z</time>
      </trkpt>
      <trkpt lat="44.71915" lon="5.63877">
        <ele>1560.84</ele>
        <time>2018-06-23T09:30:55Z</time>
      </trkpt>
      <trkpt lat="44.71924" lon="5.63876">
        <ele>1562.28</ele>
        <time>2018-06-23T09:31:05Z</time>
      </trkpt>
      <trkpt lat="44.71928" lon="5.63876">
        <ele>1563.24</ele>
        <time>2018-06-23T09:31:11Z</time>
      </trkpt>
      <trkpt lat="44.71939" lon="5.63874">
        <ele>1564.2</ele>
        <time>2018-06-23T09:31:23Z</time>
      </trkpt>
      <trkpt lat="44.71947" lon="5.63871">
        <ele>1565.16</ele>
        <time>2018-06-23T09:31:33Z</time>
      </trkpt>
      <trkpt lat="44.71955" lon="5.63868">
        <ele>1566.12</ele>
        <time>2018-06-23T09:31:43Z</time>
      </trkpt>
      <trkpt lat="44.71959" lon="5.6387">
        <ele>1568.53</ele>
        <time>2018-06-23T09:31:53Z</time>
      </trkpt>
      <trkpt lat="44.71959" lon="5.63872">
        <ele>1569.01</ele>
        <time>2018-06-23T09:31:57Z</time>
      </trkpt>
      <trkpt lat="44.71965" lon="5.63873">
        <ele>1570.45</ele>
        <time>2018-06-23T09:32:05Z</time>
      </trkpt>
      <trkpt lat="44.71966" lon="5.63872">
        <ele>1570.45</ele>
        <time>2018-06-23T09:32:18Z</time>
      </trkpt>
      <trkpt lat="44.71973" lon="5.63878">
        <ele>1572.37</ele>
        <time>2018-06-23T09:32:31Z</time>
      </trkpt>
      <trkpt lat="44.71982" lon="5.63879">
        <ele>1573.33</ele>
        <time>2018-06-23T09:32:40Z</time>
      </trkpt>
      <trkpt lat="44.7199" lon="5.63882">
        <ele>1574.78</ele>
        <time>2018-06-23T09:32:51Z</time>
      </trkpt>
      <trkpt lat="44.71999" lon="5.63886">
        <ele>1576.22</ele>
        <time>2018-06-23T09:33:03Z</time>
      </trkpt>
      <trkpt lat="44.72005" lon="5.6389">
        <ele>1577.66</ele>
        <time>2018-06-23T09:33:15Z</time>
      </trkpt>
      <trkpt lat="44.72011" lon="5.63894">
        <ele>1578.62</ele>
        <time>2018-06-23T09:33:25Z</time>
      </trkpt>
      <trkpt lat="44.72018" lon="5.63896">
        <ele>1580.54</ele>
        <time>2018-06-23T09:33:34Z</time>
      </trkpt>
      <trkpt lat="44.72023" lon="5.63901">
        <ele>1581.51</ele>
        <time>2018-06-23T09:33:45Z</time>
      </trkpt>
      <trkpt lat="44.72032" lon="5.63904">
        <ele>1582.95</ele>
        <time>2018-06-23T09:33:55Z</time>
      </trkpt>
      <trkpt lat="44.72041" lon="5.63908">
        <ele>1584.39</ele>
        <time>2018-06-23T09:34:06Z</time>
      </trkpt>
      <trkpt lat="44.72048" lon="5.63904">
        <ele>1584.39</ele>
        <time>2018-06-23T09:34:18Z</time>
      </trkpt>
      <trkpt lat="44.72051" lon="5.63902">
        <ele>1585.35</ele>
        <time>2018-06-23T09:34:26Z</time>
      </trkpt>
      <trkpt lat="44.72054" lon="5.63901">
        <ele>1586.31</ele>
        <time>2018-06-23T09:34:32Z</time>
      </trkpt>
      <trkpt lat="44.72064" lon="5.63901">
        <ele>1587.75</ele>
        <time>2018-06-23T09:34:42Z</time>
      </trkpt>
      <trkpt lat="44.72071" lon="5.639">
        <ele>1587.27</ele>
        <time>2018-06-23T09:34:52Z</time>
      </trkpt>
      <trkpt lat="44.72081" lon="5.63902">
        <ele>1590.16</ele>
        <time>2018-06-23T09:35:03Z</time>
      </trkpt>
      <trkpt lat="44.72085" lon="5.63903">
        <ele>1591.6</ele>
        <time>2018-06-23T09:35:14Z</time>
      </trkpt>
      <trkpt lat="44.72095" lon="5.63902">
        <ele>1593.52</ele>
        <time>2018-06-23T09:35:26Z</time>
      </trkpt>
      <trkpt lat="44.721" lon="5.639">
        <ele>1594.96</ele>
        <time>2018-06-23T09:35:31Z</time>
      </trkpt>
      <trkpt lat="44.72103" lon="5.63899">
        <ele>1595.93</ele>
        <time>2018-06-23T09:35:38Z</time>
      </trkpt>
      <trkpt lat="44.7211" lon="5.63899">
        <ele>1597.85</ele>
        <time>2018-06-23T09:35:50Z</time>
      </trkpt>
      <trkpt lat="44.72114" lon="5.63901">
        <ele>1598.81</ele>
        <time>2018-06-23T09:36:00Z</time>
      </trkpt>
      <trkpt lat="44.72121" lon="5.63901">
        <ele>1600.25</ele>
        <time>2018-06-23T09:36:10Z</time>
      </trkpt>
      <trkpt lat="44.72128" lon="5.63899">
        <ele>1600.25</ele>
        <time>2018-06-23T09:36:18Z</time>
      </trkpt>
      <trkpt lat="44.72133" lon="5.63897">
        <ele>1601.69</ele>
        <time>2018-06-23T09:36:24Z</time>
      </trkpt>
      <trkpt lat="44.72142" lon="5.63899">
        <ele>1603.14</ele>
        <time>2018-06-23T09:36:35Z</time>
      </trkpt>
      <trkpt lat="44.72148" lon="5.63903">
        <ele>1603.62</ele>
        <time>2018-06-23T09:36:44Z</time>
      </trkpt>
      <trkpt lat="44.72157" lon="5.63905">
        <ele>1605.54</ele>
        <time>2018-06-23T09:36:56Z</time>
      </trkpt>
      <trkpt lat="44.72159" lon="5.63904">
        <ele>1606.02</ele>
        <time>2018-06-23T09:36:58Z</time>
      </trkpt>
      <trkpt lat="44.72163" lon="5.63903">
        <ele>1605.54</ele>
        <time>2018-06-23T09:37:03Z</time>
      </trkpt>
      <trkpt lat="44.72172" lon="5.63906">
        <ele>1607.46</ele>
        <time>2018-06-23T09:37:14Z</time>
      </trkpt>
      <trkpt lat="44.72176" lon="5.63908">
        <ele>1606.98</ele>
        <time>2018-06-23T09:37:19Z</time>
      </trkpt>
      <trkpt lat="44.7219" lon="5.63911">
        <ele>1607.94</ele>
        <time>2018-06-23T09:37:33Z</time>
      </trkpt>
      <trkpt lat="44.72192" lon="5.63911">
        <ele>1607.94</ele>
        <time>2018-06-23T09:37:35Z</time>
      </trkpt>
      <trkpt lat="44.72201" lon="5.63914">
        <ele>1609.38</ele>
        <time>2018-06-23T09:37:47Z</time>
      </trkpt>
      <trkpt lat="44.72202" lon="5.63917">
        <ele>1611.31</ele>
        <time>2018-06-23T09:37:59Z</time>
      </trkpt>
      <trkpt lat="44.7221" lon="5.63924">
        <ele>1612.75</ele>
        <time>2018-06-23T09:38:13Z</time>
      </trkpt>
      <trkpt lat="44.72223" lon="5.63925">
        <ele>1613.23</ele>
        <time>2018-06-23T09:38:25Z</time>
      </trkpt>
      <trkpt lat="44.72234" lon="5.63928">
        <ele>1614.67</ele>
        <time>2018-06-23T09:38:39Z</time>
      </trkpt>
      <trkpt lat="44.72248" lon="5.63927">
        <ele>1615.63</ele>
        <time>2018-06-23T09:38:52Z</time>
      </trkpt>
      <trkpt lat="44.72255" lon="5.6393">
        <ele>1616.59</ele>
        <time>2018-06-23T09:39:03Z</time>
      </trkpt>
      <trkpt lat="44.72267" lon="5.63928">
        <ele>1615.63</ele>
        <time>2018-06-23T09:39:15Z</time>
      </trkpt>
      <trkpt lat="44.72278" lon="5.63933">
        <ele>1616.11</ele>
        <time>2018-06-23T09:39:28Z</time>
      </trkpt>
      <trkpt lat="44.72285" lon="5.63931">
        <ele>1614.67</ele>
        <time>2018-06-23T09:39:38Z</time>
      </trkpt>
      <trkpt lat="44.72293" lon="5.63927">
        <ele>1612.27</ele>
        <time>2018-06-23T09:39:50Z</time>
      </trkpt>
      <trkpt lat="44.72294" lon="5.63926">
        <ele>1611.31</ele>
        <time>2018-06-23T09:39:52Z</time>
      </trkpt>
      <trkpt lat="44.72302" lon="5.63929">
        <ele>1610.83</ele>
        <time>2018-06-23T09:40:04Z</time>
      </trkpt>
      <trkpt lat="44.72312" lon="5.63935">
        <ele>1611.31</ele>
        <time>2018-06-23T09:40:15Z</time>
      </trkpt>
      <trkpt lat="44.72323" lon="5.63944">
        <ele>1612.27</ele>
        <time>2018-06-23T09:40:29Z</time>
      </trkpt>
      <trkpt lat="44.72327" lon="5.63947">
        <ele>1613.23</ele>
        <time>2018-06-23T09:40:34Z</time>
      </trkpt>
      <trkpt lat="44.72339" lon="5.63954">
        <ele>1613.71</ele>
        <time>2018-06-23T09:40:47Z</time>
      </trkpt>
      <trkpt lat="44.7235" lon="5.63954">
        <ele>1614.67</ele>
        <time>2018-06-23T09:41:00Z</time>
      </trkpt>
      <trkpt lat="44.72362" lon="5.63951">
        <ele>1614.67</ele>
        <time>2018-06-23T09:41:12Z</time>
      </trkpt>
      <trkpt lat="44.7237" lon="5.63952">
        <ele>1615.63</ele>
        <time>2018-06-23T09:41:22Z</time>
      </trkpt>
      <trkpt lat="44.72377" lon="5.63954">
        <ele>1616.11</ele>
        <time>2018-06-23T09:41:31Z</time>
      </trkpt>
      <trkpt lat="44.72378" lon="5.63955">
        <ele>1616.11</ele>
        <time>2018-06-23T09:41:33Z</time>
      </trkpt>
      <trkpt lat="44.72382" lon="5.63953">
        <ele>1617.07</ele>
        <time>2018-06-23T09:41:37Z</time>
      </trkpt>
      <trkpt lat="44.72394" lon="5.63954">
        <ele>1617.56</ele>
        <time>2018-06-23T09:41:49Z</time>
      </trkpt>
      <trkpt lat="44.72399" lon="5.63954">
        <ele>1619.48</ele>
        <time>2018-06-23T09:41:59Z</time>
      </trkpt>
      <trkpt lat="44.7241" lon="5.63953">
        <ele>1619.96</ele>
        <time>2018-06-23T09:42:11Z</time>
      </trkpt>
      <trkpt lat="44.7242" lon="5.63955">
        <ele>1620.44</ele>
        <time>2018-06-23T09:42:23Z</time>
      </trkpt>
      <trkpt lat="44.72423" lon="5.63955">
        <ele>1620.44</ele>
        <time>2018-06-23T09:42:35Z</time>
      </trkpt>
      <trkpt lat="44.7243" lon="5.63955">
        <ele>1620.44</ele>
        <time>2018-06-23T09:42:45Z</time>
      </trkpt>
      <trkpt lat="44.72439" lon="5.63957">
        <ele>1621.4</ele>
        <time>2018-06-23T09:42:55Z</time>
      </trkpt>
      <trkpt lat="44.72448" lon="5.63959">
        <ele>1621.4</ele>
        <time>2018-06-23T09:43:06Z</time>
      </trkpt>
      <trkpt lat="44.72456" lon="5.63964">
        <ele>1622.36</ele>
        <time>2018-06-23T09:43:17Z</time>
      </trkpt>
      <trkpt lat="44.72462" lon="5.63969">
        <ele>1623.32</ele>
        <time>2018-06-23T09:43:27Z</time>
      </trkpt>
      <trkpt lat="44.72468" lon="5.63971">
        <ele>1624.77</ele>
        <time>2018-06-23T09:43:34Z</time>
      </trkpt>
      <trkpt lat="44.72476" lon="5.63973">
        <ele>1626.21</ele>
        <time>2018-06-23T09:43:47Z</time>
      </trkpt>
      <trkpt lat="44.72487" lon="5.6397">
        <ele>1626.69</ele>
        <time>2018-06-23T09:43:59Z</time>
      </trkpt>
      <trkpt lat="44.72491" lon="5.63971">
        <ele>1627.65</ele>
        <time>2018-06-23T09:44:04Z</time>
      </trkpt>
      <trkpt lat="44.72497" lon="5.63968">
        <ele>1628.13</ele>
        <time>2018-06-23T09:44:15Z</time>
      </trkpt>
      <trkpt lat="44.72506" lon="5.63968">
        <ele>1629.57</ele>
        <time>2018-06-23T09:44:28Z</time>
      </trkpt>
      <trkpt lat="44.72513" lon="5.63967">
        <ele>1630.05</ele>
        <time>2018-06-23T09:44:37Z</time>
      </trkpt>
      <trkpt lat="44.72521" lon="5.63967">
        <ele>1631.01</ele>
        <time>2018-06-23T09:44:47Z</time>
      </trkpt>
      <trkpt lat="44.72533" lon="5.63969">
        <ele>1631.98</ele>
        <time>2018-06-23T09:44:58Z</time>
      </trkpt>
      <trkpt lat="44.72546" lon="5.63969">
        <ele>1632.94</ele>
        <time>2018-06-23T09:45:08Z</time>
      </trkpt>
      <trkpt lat="44.72559" lon="5.63967">
        <ele>1633.9</ele>
        <time>2018-06-23T09:45:19Z</time>
      </trkpt>
      <trkpt lat="44.72565" lon="5.63967">
        <ele>1634.38</ele>
        <time>2018-06-23T09:45:30Z</time>
      </trkpt>
      <trkpt lat="44.72564" lon="5.63969">
        <ele>1635.34</ele>
        <time>2018-06-23T09:45:42Z</time>
      </trkpt>
      <trkpt lat="44.72565" lon="5.63973">
        <ele>1636.3</ele>
        <time>2018-06-23T09:45:51Z</time>
      </trkpt>
      <trkpt lat="44.72566" lon="5.63974">
        <ele>1637.26</ele>
        <time>2018-06-23T09:46:01Z</time>
      </trkpt>
      <trkpt lat="44.7257" lon="5.63973">
        <ele>1637.74</ele>
        <time>2018-06-23T09:46:11Z</time>
      </trkpt>
      <trkpt lat="44.72572" lon="5.63977">
        <ele>1638.22</ele>
        <time>2018-06-23T09:46:22Z</time>
      </trkpt>
      <trkpt lat="44.72573" lon="5.63978">
        <ele>1638.22</ele>
        <time>2018-06-23T09:46:32Z</time>
      </trkpt>
      <trkpt lat="44.72576" lon="5.63978">
        <ele>1639.19</ele>
        <time>2018-06-23T09:46:42Z</time>
      </trkpt>
      <trkpt lat="44.72578" lon="5.63978">
        <ele>1640.63</ele>
        <time>2018-06-23T09:46:53Z</time>
      </trkpt>
      <trkpt lat="44.72579" lon="5.63977">
        <ele>1640.63</ele>
        <time>2018-06-23T09:47:01Z</time>
      </trkpt>
      <trkpt lat="44.72583" lon="5.63975">
        <ele>1641.11</ele>
        <time>2018-06-23T09:47:16Z</time>
      </trkpt>
      <trkpt lat="44.72588" lon="5.63978">
        <ele>1641.59</ele>
        <time>2018-06-23T09:47:29Z</time>
      </trkpt>
      <trkpt lat="44.72593" lon="5.63981">
        <ele>1641.59</ele>
        <time>2018-06-23T09:47:47Z</time>
      </trkpt>
      <trkpt lat="44.72593" lon="5.63981">
        <ele>1642.07</ele>
        <time>2018-06-23T09:47:57Z</time>
      </trkpt>
      <trkpt lat="44.72593" lon="5.63982">
        <ele>1643.03</ele>
        <time>2018-06-23T09:48:09Z</time>
      </trkpt>
      <trkpt lat="44.72593" lon="5.63983">
        <ele>1644.47</ele>
        <time>2018-06-23T09:48:22Z</time>
      </trkpt>
      <trkpt lat="44.72597" lon="5.63981">
        <ele>1645.43</ele>
        <time>2018-06-23T09:48:32Z</time>
      </trkpt>
      <trkpt lat="44.72598" lon="5.63983">
        <ele>1645.91</ele>
        <time>2018-06-23T09:48:47Z</time>
      </trkpt>
      <trkpt lat="44.72598" lon="5.63985">
        <ele>1646.4</ele>
        <time>2018-06-23T09:49:03Z</time>
      </trkpt>
      <trkpt lat="44.72602" lon="5.63985">
        <ele>1646.4</ele>
        <time>2018-06-23T09:49:12Z</time>
      </trkpt>
      <trkpt lat="44.72609" lon="5.63985">
        <ele>1646.4</ele>
        <time>2018-06-23T09:49:21Z</time>
      </trkpt>
      <trkpt lat="44.72615" lon="5.63983">
        <ele>1644.95</ele>
        <time>2018-06-23T09:49:29Z</time>
      </trkpt>
      <trkpt lat="44.72617" lon="5.63982">
        <ele>1646.4</ele>
        <time>2018-06-23T09:49:32Z</time>
      </trkpt>
      <trkpt lat="44.72626" lon="5.63981">
        <ele>1646.88</ele>
        <time>2018-06-23T09:49:43Z</time>
      </trkpt>
      <trkpt lat="44.72633" lon="5.63983">
        <ele>1647.84</ele>
        <time>2018-06-23T09:49:53Z</time>
      </trkpt>
      <trkpt lat="44.72635" lon="5.63986">
        <ele>1649.28</ele>
        <time>2018-06-23T09:50:04Z</time>
      </trkpt>
      <trkpt lat="44.72639" lon="5.63989">
        <ele>1649.76</ele>
        <time>2018-06-23T09:50:14Z</time>
      </trkpt>
      <trkpt lat="44.72645" lon="5.63988">
        <ele>1650.24</ele>
        <time>2018-06-23T09:50:21Z</time>
      </trkpt>
      <trkpt lat="44.7265" lon="5.6399">
        <ele>1651.2</ele>
        <time>2018-06-23T09:50:34Z</time>
      </trkpt>
      <trkpt lat="44.72652" lon="5.63986">
        <ele>1650.72</ele>
        <time>2018-06-23T09:50:57Z</time>
      </trkpt>
      <trkpt lat="44.72654" lon="5.63985">
        <ele>1650.72</ele>
        <time>2018-06-23T09:51:20Z</time>
      </trkpt>
      <trkpt lat="44.72658" lon="5.63983">
        <ele>1650.24</ele>
        <time>2018-06-23T09:51:31Z</time>
      </trkpt>
      <trkpt lat="44.72664" lon="5.63985">
        <ele>1651.2</ele>
        <time>2018-06-23T09:51:40Z</time>
      </trkpt>
      <trkpt lat="44.72668" lon="5.63982">
        <ele>1651.68</ele>
        <time>2018-06-23T09:51:50Z</time>
      </trkpt>
      <trkpt lat="44.72669" lon="5.63981">
        <ele>1652.64</ele>
        <time>2018-06-23T09:52:02Z</time>
      </trkpt>
      <trkpt lat="44.7267" lon="5.63981">
        <ele>1653.12</ele>
        <time>2018-06-23T09:52:07Z</time>
      </trkpt>
      <trkpt lat="44.7267" lon="5.63983">
        <ele>1653.12</ele>
        <time>2018-06-23T09:52:21Z</time>
      </trkpt>
      <trkpt lat="44.72672" lon="5.63986">
        <ele>1654.09</ele>
        <time>2018-06-23T09:52:45Z</time>
      </trkpt>
      <trkpt lat="44.72678" lon="5.63985">
        <ele>1653.6</ele>
        <time>2018-06-23T09:52:55Z</time>
      </trkpt>
      <trkpt lat="44.72681" lon="5.63983">
        <ele>1654.57</ele>
        <time>2018-06-23T09:53:08Z</time>
      </trkpt>
      <trkpt lat="44.72686" lon="5.63985">
        <ele>1655.05</ele>
        <time>2018-06-23T09:53:19Z</time>
      </trkpt>
      <trkpt lat="44.72688" lon="5.63987">
        <ele>1656.49</ele>
        <time>2018-06-23T09:53:28Z</time>
      </trkpt>
      <trkpt lat="44.72691" lon="5.63987">
        <ele>1655.53</ele>
        <time>2018-06-23T09:53:42Z</time>
      </trkpt>
      <trkpt lat="44.72698" lon="5.63988">
        <ele>1656.49</ele>
        <time>2018-06-23T09:53:52Z</time>
      </trkpt>
      <trkpt lat="44.72704" lon="5.63987">
        <ele>1656.49</ele>
        <time>2018-06-23T09:54:01Z</time>
      </trkpt>
      <trkpt lat="44.72708" lon="5.63986">
        <ele>1655.53</ele>
        <time>2018-06-23T09:54:11Z</time>
      </trkpt>
      <trkpt lat="44.7271" lon="5.63986">
        <ele>1655.53</ele>
        <time>2018-06-23T09:54:21Z</time>
      </trkpt>
      <trkpt lat="44.72716" lon="5.63979">
        <ele>1656.01</ele>
        <time>2018-06-23T09:54:33Z</time>
      </trkpt>
      <trkpt lat="44.7272" lon="5.63974">
        <ele>1656.49</ele>
        <time>2018-06-23T09:54:42Z</time>
      </trkpt>
      <trkpt lat="44.72723" lon="5.63973">
        <ele>1656.49</ele>
        <time>2018-06-23T09:54:52Z</time>
      </trkpt>
      <trkpt lat="44.72734" lon="5.63971">
        <ele>1657.45</ele>
        <time>2018-06-23T09:55:04Z</time>
      </trkpt>
      <trkpt lat="44.7274" lon="5.63965">
        <ele>1657.93</ele>
        <time>2018-06-23T09:55:10Z</time>
      </trkpt>
      <trkpt lat="44.72747" lon="5.63957">
        <ele>1656.49</ele>
        <time>2018-06-23T09:55:21Z</time>
      </trkpt>
      <trkpt lat="44.72753" lon="5.63951">
        <ele>1657.45</ele>
        <time>2018-06-23T09:55:33Z</time>
      </trkpt>
      <trkpt lat="44.72754" lon="5.63951">
        <ele>1657.93</ele>
        <time>2018-06-23T09:55:49Z</time>
      </trkpt>
      <trkpt lat="44.72757" lon="5.63948">
        <ele>1656.49</ele>
        <time>2018-06-23T09:56:06Z</time>
      </trkpt>
      <trkpt lat="44.72761" lon="5.63945">
        <ele>1656.01</ele>
        <time>2018-06-23T09:56:15Z</time>
      </trkpt>
      <trkpt lat="44.72765" lon="5.6394">
        <ele>1655.53</ele>
        <time>2018-06-23T09:56:29Z</time>
      </trkpt>
      <trkpt lat="44.72766" lon="5.63939">
        <ele>1655.05</ele>
        <time>2018-06-23T09:56:30Z</time>
      </trkpt>
      <trkpt lat="44.72775" lon="5.63937">
        <ele>1655.05</ele>
        <time>2018-06-23T09:56:42Z</time>
      </trkpt>
      <trkpt lat="44.72776" lon="5.63937">
        <ele>1655.53</ele>
        <time>2018-06-23T09:57:02Z</time>
      </trkpt>
      <trkpt lat="44.72775" lon="5.63936">
        <ele>1655.05</ele>
        <time>2018-06-23T09:57:26Z</time>
      </trkpt>
      <trkpt lat="44.72774" lon="5.63935">
        <ele>1655.53</ele>
        <time>2018-06-23T09:57:48Z</time>
      </trkpt>
      <trkpt lat="44.72774" lon="5.63935">
        <ele>1656.01</ele>
        <time>2018-06-23T09:58:05Z</time>
      </trkpt>
      <trkpt lat="44.72775" lon="5.63935">
        <ele>1655.53</ele>
        <time>2018-06-23T09:58:24Z</time>
      </trkpt>
      <trkpt lat="44.72783" lon="5.63931">
        <ele>1655.53</ele>
        <time>2018-06-23T09:58:35Z</time>
      </trkpt>
      <trkpt lat="44.72789" lon="5.63931">
        <ele>1657.45</ele>
        <time>2018-06-23T09:58:47Z</time>
      </trkpt>
      <trkpt lat="44.72801" lon="5.63931">
        <ele>1658.89</ele>
        <time>2018-06-23T09:59:01Z</time>
      </trkpt>
      <trkpt lat="44.7281" lon="5.6393">
        <ele>1659.85</ele>
        <time>2018-06-23T09:59:15Z</time>
      </trkpt>
      <trkpt lat="44.72815" lon="5.63929">
        <ele>1659.85</ele>
        <time>2018-06-23T09:59:30Z</time>
      </trkpt>
      <trkpt lat="44.72817" lon="5.63929">
        <ele>1660.81</ele>
        <time>2018-06-23T09:59:33Z</time>
      </trkpt>
      <trkpt lat="44.72828" lon="5.63927">
        <ele>1661.78</ele>
        <time>2018-06-23T09:59:49Z</time>
      </trkpt>
      <trkpt lat="44.72835" lon="5.6393">
        <ele>1661.3</ele>
        <time>2018-06-23T10:00:03Z</time>
      </trkpt>
      <trkpt lat="44.72842" lon="5.63938">
        <ele>1660.33</ele>
        <time>2018-06-23T10:00:13Z</time>
      </trkpt>
      <trkpt lat="44.72849" lon="5.63942">
        <ele>1659.85</ele>
        <time>2018-06-23T10:00:23Z</time>
      </trkpt>
      <trkpt lat="44.72854" lon="5.6395">
        <ele>1660.33</ele>
        <time>2018-06-23T10:00:33Z</time>
      </trkpt>
      <trkpt lat="44.72854" lon="5.63949">
        <ele>1661.3</ele>
        <time>2018-06-23T10:00:34Z</time>
      </trkpt>
      <trkpt lat="44.72864" lon="5.63953">
        <ele>1662.26</ele>
        <time>2018-06-23T10:00:47Z</time>
      </trkpt>
      <trkpt lat="44.72867" lon="5.63954">
        <ele>1662.26</ele>
        <time>2018-06-23T10:00:55Z</time>
      </trkpt>
      <trkpt lat="44.72868" lon="5.63954">
        <ele>1661.78</ele>
        <time>2018-06-23T10:01:06Z</time>
      </trkpt>
      <trkpt lat="44.72874" lon="5.63951">
        <ele>1661.78</ele>
        <time>2018-06-23T10:01:15Z</time>
      </trkpt>
      <trkpt lat="44.72879" lon="5.63947">
        <ele>1663.7</ele>
        <time>2018-06-23T10:01:26Z</time>
      </trkpt>
      <trkpt lat="44.72883" lon="5.63943">
        <ele>1665.62</ele>
        <time>2018-06-23T10:01:39Z</time>
      </trkpt>
      <trkpt lat="44.72892" lon="5.63943">
        <ele>1667.06</ele>
        <time>2018-06-23T10:01:50Z</time>
      </trkpt>
      <trkpt lat="44.72898" lon="5.63942">
        <ele>1665.62</ele>
        <time>2018-06-23T10:01:58Z</time>
      </trkpt>
      <trkpt lat="44.72906" lon="5.63941">
        <ele>1664.66</ele>
        <time>2018-06-23T10:02:08Z</time>
      </trkpt>
      <trkpt lat="44.72908" lon="5.63941">
        <ele>1664.66</ele>
        <time>2018-06-23T10:02:10Z</time>
      </trkpt>
      <trkpt lat="44.72915" lon="5.6394">
        <ele>1664.66</ele>
        <time>2018-06-23T10:02:20Z</time>
      </trkpt>
      <trkpt lat="44.72917" lon="5.63941">
        <ele>1665.14</ele>
        <time>2018-06-23T10:02:42Z</time>
      </trkpt>
      <trkpt lat="44.72918" lon="5.63941">
        <ele>1665.14</ele>
        <time>2018-06-23T10:02:55Z</time>
      </trkpt>
      <trkpt lat="44.72918" lon="5.6394">
        <ele>1664.18</ele>
        <time>2018-06-23T10:03:13Z</time>
      </trkpt>
      <trkpt lat="44.72918" lon="5.63937">
        <ele>1664.66</ele>
        <time>2018-06-23T10:03:31Z</time>
      </trkpt>
      <trkpt lat="44.72918" lon="5.63938">
        <ele>1665.14</ele>
        <time>2018-06-23T10:03:47Z</time>
      </trkpt>
      <trkpt lat="44.72918" lon="5.63939">
        <ele>1664.66</ele>
        <time>2018-06-23T10:04:11Z</time>
      </trkpt>
      <trkpt lat="44.72918" lon="5.63939">
        <ele>1665.14</ele>
        <time>2018-06-23T10:04:35Z</time>
      </trkpt>
      <trkpt lat="44.72918" lon="5.63939">
        <ele>1665.14</ele>
        <time>2018-06-23T10:04:58Z</time>
      </trkpt>
      <trkpt lat="44.72918" lon="5.63939">
        <ele>1665.62</ele>
        <time>2018-06-23T10:05:27Z</time>
      </trkpt>
      <trkpt lat="44.72918" lon="5.63939">
        <ele>1666.1</ele>
        <time>2018-06-23T10:05:50Z</time>
      </trkpt>
      <trkpt lat="44.72918" lon="5.63939">
        <ele>1665.62</ele>
        <time>2018-06-23T10:06:09Z</time>
      </trkpt>
      <trkpt lat="44.72918" lon="5.63939">
        <ele>1666.1</ele>
        <time>2018-06-23T10:06:30Z</time>
      </trkpt>
      <trkpt lat="44.72918" lon="5.63939">
        <ele>1666.1</ele>
        <time>2018-06-23T10:06:55Z</time>
      </trkpt>
      <trkpt lat="44.72919" lon="5.63939">
        <ele>1666.1</ele>
        <time>2018-06-23T10:07:20Z</time>
      </trkpt>
      <trkpt lat="44.72919" lon="5.63939">
        <ele>1666.58</ele>
        <time>2018-06-23T10:07:46Z</time>
      </trkpt>
      <trkpt lat="44.72918" lon="5.63938">
        <ele>1666.1</ele>
        <time>2018-06-23T10:08:08Z</time>
      </trkpt>
      <trkpt lat="44.72918" lon="5.63939">
        <ele>1666.58</ele>
        <time>2018-06-23T10:08:30Z</time>
      </trkpt>
      <trkpt lat="44.72918" lon="5.63938">
        <ele>1666.58</ele>
        <time>2018-06-23T10:08:47Z</time>
      </trkpt>
      <trkpt lat="44.72917" lon="5.63938">
        <ele>1667.06</ele>
        <time>2018-06-23T10:09:04Z</time>
      </trkpt>
      <trkpt lat="44.72918" lon="5.63938">
        <ele>1667.54</ele>
        <time>2018-06-23T10:09:16Z</time>
      </trkpt>
      <trkpt lat="44.72919" lon="5.63938">
        <ele>1668.02</ele>
        <time>2018-06-23T10:09:27Z</time>
      </trkpt>
      <trkpt lat="44.7293" lon="5.63934">
        <ele>1667.54</ele>
        <time>2018-06-23T10:09:39Z</time>
      </trkpt>
      <trkpt lat="44.72937" lon="5.63928">
        <ele>1668.02</ele>
        <time>2018-06-23T10:09:48Z</time>
      </trkpt>
      <trkpt lat="44.72941" lon="5.63923">
        <ele>1669.47</ele>
        <time>2018-06-23T10:09:58Z</time>
      </trkpt>
      <trkpt lat="44.72941" lon="5.63922">
        <ele>1669.95</ele>
        <time>2018-06-23T10:10:21Z</time>
      </trkpt>
      <trkpt lat="44.72942" lon="5.63922">
        <ele>1669.95</ele>
        <time>2018-06-23T10:10:26Z</time>
      </trkpt>
      <trkpt lat="44.72946" lon="5.6392">
        <ele>1668.51</ele>
        <time>2018-06-23T10:10:38Z</time>
      </trkpt>
      <trkpt lat="44.72954" lon="5.63915">
        <ele>1669.47</ele>
        <time>2018-06-23T10:10:48Z</time>
      </trkpt>
      <trkpt lat="44.72959" lon="5.63912">
        <ele>1669.95</ele>
        <time>2018-06-23T10:10:58Z</time>
      </trkpt>
      <trkpt lat="44.72968" lon="5.63912">
        <ele>1671.39</ele>
        <time>2018-06-23T10:11:09Z</time>
      </trkpt>
      <trkpt lat="44.72979" lon="5.63911">
        <ele>1671.87</ele>
        <time>2018-06-23T10:11:19Z</time>
      </trkpt>
      <trkpt lat="44.72986" lon="5.63914">
        <ele>1673.31</ele>
        <time>2018-06-23T10:11:30Z</time>
      </trkpt>
      <trkpt lat="44.72995" lon="5.63917">
        <ele>1674.75</ele>
        <time>2018-06-23T10:11:40Z</time>
      </trkpt>
      <trkpt lat="44.73002" lon="5.63915">
        <ele>1675.23</ele>
        <time>2018-06-23T10:11:50Z</time>
      </trkpt>
      <trkpt lat="44.73011" lon="5.63916">
        <ele>1678.12</ele>
        <time>2018-06-23T10:12:02Z</time>
      </trkpt>
      <trkpt lat="44.73018" lon="5.63919">
        <ele>1678.12</ele>
        <time>2018-06-23T10:12:13Z</time>
      </trkpt>
      <trkpt lat="44.73025" lon="5.6392">
        <ele>1676.68</ele>
        <time>2018-06-23T10:12:25Z</time>
      </trkpt>
      <trkpt lat="44.73026" lon="5.63924">
        <ele>1676.68</ele>
        <time>2018-06-23T10:12:32Z</time>
      </trkpt>
      <trkpt lat="44.73032" lon="5.63918">
        <ele>1677.16</ele>
        <time>2018-06-23T10:12:40Z</time>
      </trkpt>
      <trkpt lat="44.73039" lon="5.63918">
        <ele>1679.08</ele>
        <time>2018-06-23T10:12:51Z</time>
      </trkpt>
      <trkpt lat="44.73047" lon="5.63917">
        <ele>1680.52</ele>
        <time>2018-06-23T10:13:02Z</time>
      </trkpt>
      <trkpt lat="44.73053" lon="5.63922">
        <ele>1680.52</ele>
        <time>2018-06-23T10:13:11Z</time>
      </trkpt>
      <trkpt lat="44.73056" lon="5.63923">
        <ele>1681</ele>
        <time>2018-06-23T10:13:16Z</time>
      </trkpt>
      <trkpt lat="44.73063" lon="5.63924">
        <ele>1682.44</ele>
        <time>2018-06-23T10:13:26Z</time>
      </trkpt>
      <trkpt lat="44.73073" lon="5.63927">
        <ele>1685.33</ele>
        <time>2018-06-23T10:13:36Z</time>
      </trkpt>
      <trkpt lat="44.73078" lon="5.63919">
        <ele>1685.81</ele>
        <time>2018-06-23T10:13:45Z</time>
      </trkpt>
      <trkpt lat="44.73084" lon="5.63915">
        <ele>1688.21</ele>
        <time>2018-06-23T10:13:56Z</time>
      </trkpt>
      <trkpt lat="44.73095" lon="5.63918">
        <ele>1688.21</ele>
        <time>2018-06-23T10:14:09Z</time>
      </trkpt>
      <trkpt lat="44.73101" lon="5.63915">
        <ele>1688.21</ele>
        <time>2018-06-23T10:14:15Z</time>
      </trkpt>
      <trkpt lat="44.7311" lon="5.63908">
        <ele>1690.14</ele>
        <time>2018-06-23T10:14:27Z</time>
      </trkpt>
      <trkpt lat="44.73116" lon="5.63912">
        <ele>1692.06</ele>
        <time>2018-06-23T10:14:38Z</time>
      </trkpt>
      <trkpt lat="44.7312" lon="5.63913">
        <ele>1693.5</ele>
        <time>2018-06-23T10:14:49Z</time>
      </trkpt>
      <trkpt lat="44.73122" lon="5.63911">
        <ele>1694.94</ele>
        <time>2018-06-23T10:14:58Z</time>
      </trkpt>
      <trkpt lat="44.73128" lon="5.6391">
        <ele>1695.9</ele>
        <time>2018-06-23T10:15:10Z</time>
      </trkpt>
      <trkpt lat="44.73132" lon="5.6391">
        <ele>1696.38</ele>
        <time>2018-06-23T10:15:14Z</time>
      </trkpt>
      <trkpt lat="44.73141" lon="5.63902">
        <ele>1697.34</ele>
        <time>2018-06-23T10:15:24Z</time>
      </trkpt>
      <trkpt lat="44.73143" lon="5.63898">
        <ele>1698.31</ele>
        <time>2018-06-23T10:15:33Z</time>
      </trkpt>
      <trkpt lat="44.73145" lon="5.63895">
        <ele>1699.27</ele>
        <time>2018-06-23T10:15:39Z</time>
      </trkpt>
      <trkpt lat="44.7315" lon="5.63888">
        <ele>1699.27</ele>
        <time>2018-06-23T10:15:45Z</time>
      </trkpt>
      <trkpt lat="44.73162" lon="5.63884">
        <ele>1700.23</ele>
        <time>2018-06-23T10:15:54Z</time>
      </trkpt>
      <trkpt lat="44.73177" lon="5.63878">
        <ele>1699.75</ele>
        <time>2018-06-23T10:16:06Z</time>
      </trkpt>
      <trkpt lat="44.73189" lon="5.63872">
        <ele>1700.71</ele>
        <time>2018-06-23T10:16:18Z</time>
      </trkpt>
      <trkpt lat="44.73199" lon="5.6387">
        <ele>1701.19</ele>
        <time>2018-06-23T10:16:24Z</time>
      </trkpt>
      <trkpt lat="44.73208" lon="5.63859">
        <ele>1701.67</ele>
        <time>2018-06-23T10:16:37Z</time>
      </trkpt>
      <trkpt lat="44.73207" lon="5.63848">
        <ele>1703.59</ele>
        <time>2018-06-23T10:16:48Z</time>
      </trkpt>
      <trkpt lat="44.73211" lon="5.63849">
        <ele>1703.59</ele>
        <time>2018-06-23T10:16:58Z</time>
      </trkpt>
      <trkpt lat="44.73213" lon="5.63851">
        <ele>1703.11</ele>
        <time>2018-06-23T10:17:01Z</time>
      </trkpt>
      <trkpt lat="44.73225" lon="5.63851">
        <ele>1705.04</ele>
        <time>2018-06-23T10:17:15Z</time>
      </trkpt>
      <trkpt lat="44.73229" lon="5.63855">
        <ele>1706.96</ele>
        <time>2018-06-23T10:17:26Z</time>
      </trkpt>
      <trkpt lat="44.73234" lon="5.63857">
        <ele>1709.84</ele>
        <time>2018-06-23T10:17:37Z</time>
      </trkpt>
      <trkpt lat="44.7324" lon="5.63863">
        <ele>1711.28</ele>
        <time>2018-06-23T10:17:48Z</time>
      </trkpt>
      <trkpt lat="44.73247" lon="5.63861">
        <ele>1713.21</ele>
        <time>2018-06-23T10:17:59Z</time>
      </trkpt>
      <trkpt lat="44.73252" lon="5.63861">
        <ele>1715.61</ele>
        <time>2018-06-23T10:18:09Z</time>
      </trkpt>
      <trkpt lat="44.73257" lon="5.63859">
        <ele>1717.05</ele>
        <time>2018-06-23T10:18:20Z</time>
      </trkpt>
      <trkpt lat="44.7326" lon="5.63853">
        <ele>1718.97</ele>
        <time>2018-06-23T10:18:32Z</time>
      </trkpt>
      <trkpt lat="44.73266" lon="5.63853">
        <ele>1719.94</ele>
        <time>2018-06-23T10:18:43Z</time>
      </trkpt>
      <trkpt lat="44.7327" lon="5.63856">
        <ele>1722.82</ele>
        <time>2018-06-23T10:18:55Z</time>
      </trkpt>
      <trkpt lat="44.73273" lon="5.63858">
        <ele>1724.74</ele>
        <time>2018-06-23T10:19:07Z</time>
      </trkpt>
      <trkpt lat="44.73273" lon="5.63862">
        <ele>1726.18</ele>
        <time>2018-06-23T10:19:16Z</time>
      </trkpt>
      <trkpt lat="44.73277" lon="5.63864">
        <ele>1728.11</ele>
        <time>2018-06-23T10:19:26Z</time>
      </trkpt>
      <trkpt lat="44.7328" lon="5.63866">
        <ele>1729.07</ele>
        <time>2018-06-23T10:19:33Z</time>
      </trkpt>
      <trkpt lat="44.73283" lon="5.63863">
        <ele>1730.51</ele>
        <time>2018-06-23T10:19:46Z</time>
      </trkpt>
      <trkpt lat="44.73288" lon="5.63861">
        <ele>1731.95</ele>
        <time>2018-06-23T10:19:51Z</time>
      </trkpt>
      <trkpt lat="44.73293" lon="5.63863">
        <ele>1733.88</ele>
        <time>2018-06-23T10:20:03Z</time>
      </trkpt>
      <trkpt lat="44.73297" lon="5.63864">
        <ele>1735.32</ele>
        <time>2018-06-23T10:20:13Z</time>
      </trkpt>
      <trkpt lat="44.733" lon="5.63863">
        <ele>1736.76</ele>
        <time>2018-06-23T10:20:24Z</time>
      </trkpt>
      <trkpt lat="44.73306" lon="5.63861">
        <ele>1738.68</ele>
        <time>2018-06-23T10:20:36Z</time>
      </trkpt>
      <trkpt lat="44.73306" lon="5.6386">
        <ele>1738.68</ele>
        <time>2018-06-23T10:20:54Z</time>
      </trkpt>
      <trkpt lat="44.73304" lon="5.63861">
        <ele>1739.16</ele>
        <time>2018-06-23T10:21:11Z</time>
      </trkpt>
      <trkpt lat="44.73303" lon="5.63863">
        <ele>1738.2</ele>
        <time>2018-06-23T10:21:30Z</time>
      </trkpt>
      <trkpt lat="44.73303" lon="5.63863">
        <ele>1737.24</ele>
        <time>2018-06-23T10:21:32Z</time>
      </trkpt>
      <trkpt lat="44.73303" lon="5.63864">
        <ele>1737.72</ele>
        <time>2018-06-23T10:21:51Z</time>
      </trkpt>
      <trkpt lat="44.73303" lon="5.63864">
        <ele>1737.24</ele>
        <time>2018-06-23T10:21:58Z</time>
      </trkpt>
      <trkpt lat="44.73303" lon="5.63864">
        <ele>1739.16</ele>
        <time>2018-06-23T10:22:16Z</time>
      </trkpt>
      <trkpt lat="44.73304" lon="5.63864">
        <ele>1738.68</ele>
        <time>2018-06-23T10:22:29Z</time>
      </trkpt>
      <trkpt lat="44.73304" lon="5.63865">
        <ele>1738.68</ele>
        <time>2018-06-23T10:22:53Z</time>
      </trkpt>
      <trkpt lat="44.73303" lon="5.63866">
        <ele>1738.68</ele>
        <time>2018-06-23T10:23:19Z</time>
      </trkpt>
      <trkpt lat="44.73304" lon="5.63866">
        <ele>1739.64</ele>
        <time>2018-06-23T10:23:45Z</time>
      </trkpt>
      <trkpt lat="44.73303" lon="5.63874">
        <ele>1741.08</ele>
        <time>2018-06-23T10:23:54Z</time>
      </trkpt>
      <trkpt lat="44.73301" lon="5.63883">
        <ele>1742.53</ele>
        <time>2018-06-23T10:24:06Z</time>
      </trkpt>
      <trkpt lat="44.733" lon="5.63893">
        <ele>1744.93</ele>
        <time>2018-06-23T10:24:18Z</time>
      </trkpt>
      <trkpt lat="44.73299" lon="5.63904">
        <ele>1747.33</ele>
        <time>2018-06-23T10:24:31Z</time>
      </trkpt>
      <trkpt lat="44.73301" lon="5.63911">
        <ele>1749.26</ele>
        <time>2018-06-23T10:24:41Z</time>
      </trkpt>
      <trkpt lat="44.73299" lon="5.63921">
        <ele>1750.22</ele>
        <time>2018-06-23T10:24:51Z</time>
      </trkpt>
      <trkpt lat="44.73299" lon="5.63933">
        <ele>1752.62</ele>
        <time>2018-06-23T10:25:06Z</time>
      </trkpt>
      <trkpt lat="44.73299" lon="5.63948">
        <ele>1753.1</ele>
        <time>2018-06-23T10:25:20Z</time>
      </trkpt>
      <trkpt lat="44.733" lon="5.63955">
        <ele>1755.02</ele>
        <time>2018-06-23T10:25:33Z</time>
      </trkpt>
      <trkpt lat="44.73302" lon="5.6396">
        <ele>1756.47</ele>
        <time>2018-06-23T10:25:44Z</time>
      </trkpt>
      <trkpt lat="44.73305" lon="5.63968">
        <ele>1758.39</ele>
        <time>2018-06-23T10:25:55Z</time>
      </trkpt>
      <trkpt lat="44.73307" lon="5.63973">
        <ele>1759.83</ele>
        <time>2018-06-23T10:26:07Z</time>
      </trkpt>
      <trkpt lat="44.7331" lon="5.63978">
        <ele>1761.27</ele>
        <time>2018-06-23T10:26:19Z</time>
      </trkpt>
      <trkpt lat="44.73314" lon="5.63986">
        <ele>1762.71</ele>
        <time>2018-06-23T10:26:30Z</time>
      </trkpt>
      <trkpt lat="44.73317" lon="5.63995">
        <ele>1764.16</ele>
        <time>2018-06-23T10:26:42Z</time>
      </trkpt>
      <trkpt lat="44.73321" lon="5.64002">
        <ele>1765.12</ele>
        <time>2018-06-23T10:26:53Z</time>
      </trkpt>
      <trkpt lat="44.73323" lon="5.64011">
        <ele>1766.08</ele>
        <time>2018-06-23T10:27:04Z</time>
      </trkpt>
      <trkpt lat="44.73329" lon="5.64019">
        <ele>1767.04</ele>
        <time>2018-06-23T10:27:15Z</time>
      </trkpt>
      <trkpt lat="44.7333" lon="5.64028">
        <ele>1768.96</ele>
        <time>2018-06-23T10:27:27Z</time>
      </trkpt>
      <trkpt lat="44.73333" lon="5.64035">
        <ele>1770.41</ele>
        <time>2018-06-23T10:27:38Z</time>
      </trkpt>
      <trkpt lat="44.73335" lon="5.64042">
        <ele>1772.33</ele>
        <time>2018-06-23T10:27:49Z</time>
      </trkpt>
      <trkpt lat="44.73338" lon="5.6405">
        <ele>1773.29</ele>
        <time>2018-06-23T10:28:00Z</time>
      </trkpt>
      <trkpt lat="44.7334" lon="5.64054">
        <ele>1775.69</ele>
        <time>2018-06-23T10:28:10Z</time>
      </trkpt>
      <trkpt lat="44.73343" lon="5.64059">
        <ele>1775.69</ele>
        <time>2018-06-23T10:28:21Z</time>
      </trkpt>
      <trkpt lat="44.73345" lon="5.64064">
        <ele>1777.13</ele>
        <time>2018-06-23T10:28:32Z</time>
      </trkpt>
      <trkpt lat="44.7335" lon="5.64072">
        <ele>1778.58</ele>
        <time>2018-06-23T10:28:43Z</time>
      </trkpt>
      <trkpt lat="44.73353" lon="5.6408">
        <ele>1779.54</ele>
        <time>2018-06-23T10:28:54Z</time>
      </trkpt>
      <trkpt lat="44.73354" lon="5.6409">
        <ele>1780.98</ele>
        <time>2018-06-23T10:29:07Z</time>
      </trkpt>
      <trkpt lat="44.73355" lon="5.64096">
        <ele>1782.9</ele>
        <time>2018-06-23T10:29:18Z</time>
      </trkpt>
      <trkpt lat="44.73357" lon="5.64104">
        <ele>1784.82</ele>
        <time>2018-06-23T10:29:31Z</time>
      </trkpt>
      <trkpt lat="44.73359" lon="5.64113">
        <ele>1786.27</ele>
        <time>2018-06-23T10:29:43Z</time>
      </trkpt>
      <trkpt lat="44.73362" lon="5.64117">
        <ele>1787.71</ele>
        <time>2018-06-23T10:29:52Z</time>
      </trkpt>
      <trkpt lat="44.73367" lon="5.64124">
        <ele>1787.71</ele>
        <time>2018-06-23T10:30:03Z</time>
      </trkpt>
      <trkpt lat="44.73367" lon="5.64127">
        <ele>1787.71</ele>
        <time>2018-06-23T10:30:06Z</time>
      </trkpt>
      <trkpt lat="44.73373" lon="5.64138">
        <ele>1788.67</ele>
        <time>2018-06-23T10:30:19Z</time>
      </trkpt>
      <trkpt lat="44.73375" lon="5.64147">
        <ele>1789.63</ele>
        <time>2018-06-23T10:30:30Z</time>
      </trkpt>
      <trkpt lat="44.73376" lon="5.6415">
        <ele>1791.07</ele>
        <time>2018-06-23T10:30:41Z</time>
      </trkpt>
      <trkpt lat="44.73379" lon="5.64154">
        <ele>1792.52</ele>
        <time>2018-06-23T10:30:52Z</time>
      </trkpt>
      <trkpt lat="44.7338" lon="5.64157">
        <ele>1793.48</ele>
        <time>2018-06-23T10:31:03Z</time>
      </trkpt>
      <trkpt lat="44.73379" lon="5.64159">
        <ele>1795.4</ele>
        <time>2018-06-23T10:31:15Z</time>
      </trkpt>
      <trkpt lat="44.73381" lon="5.64162">
        <ele>1797.32</ele>
        <time>2018-06-23T10:31:27Z</time>
      </trkpt>
      <trkpt lat="44.73382" lon="5.64167">
        <ele>1798.28</ele>
        <time>2018-06-23T10:31:38Z</time>
      </trkpt>
      <trkpt lat="44.73382" lon="5.64169">
        <ele>1799.24</ele>
        <time>2018-06-23T10:31:51Z</time>
      </trkpt>
      <trkpt lat="44.73383" lon="5.6417">
        <ele>1801.17</ele>
        <time>2018-06-23T10:32:02Z</time>
      </trkpt>
      <trkpt lat="44.73384" lon="5.64174">
        <ele>1802.61</ele>
        <time>2018-06-23T10:32:12Z</time>
      </trkpt>
      <trkpt lat="44.73384" lon="5.64178">
        <ele>1803.09</ele>
        <time>2018-06-23T10:32:22Z</time>
      </trkpt>
      <trkpt lat="44.73384" lon="5.64182">
        <ele>1802.61</ele>
        <time>2018-06-23T10:32:45Z</time>
      </trkpt>
      <trkpt lat="44.73384" lon="5.64182">
        <ele>1803.09</ele>
        <time>2018-06-23T10:33:02Z</time>
      </trkpt>
      <trkpt lat="44.73386" lon="5.64191">
        <ele>1803.09</ele>
        <time>2018-06-23T10:33:17Z</time>
      </trkpt>
      <trkpt lat="44.73387" lon="5.64202">
        <ele>1804.05</ele>
        <time>2018-06-23T10:33:28Z</time>
      </trkpt>
      <trkpt lat="44.73387" lon="5.64211">
        <ele>1805.49</ele>
        <time>2018-06-23T10:33:37Z</time>
      </trkpt>
      <trkpt lat="44.7339" lon="5.64217">
        <ele>1806.45</ele>
        <time>2018-06-23T10:33:46Z</time>
      </trkpt>
      <trkpt lat="44.73393" lon="5.64223">
        <ele>1807.42</ele>
        <time>2018-06-23T10:33:57Z</time>
      </trkpt>
      <trkpt lat="44.73397" lon="5.64225">
        <ele>1808.86</ele>
        <time>2018-06-23T10:34:07Z</time>
      </trkpt>
      <trkpt lat="44.73402" lon="5.64236">
        <ele>1810.78</ele>
        <time>2018-06-23T10:34:20Z</time>
      </trkpt>
      <trkpt lat="44.73401" lon="5.64246">
        <ele>1811.26</ele>
        <time>2018-06-23T10:34:34Z</time>
      </trkpt>
      <trkpt lat="44.73402" lon="5.64251">
        <ele>1813.66</ele>
        <time>2018-06-23T10:34:46Z</time>
      </trkpt>
      <trkpt lat="44.73402" lon="5.64255">
        <ele>1815.59</ele>
        <time>2018-06-23T10:35:00Z</time>
      </trkpt>
      <trkpt lat="44.734" lon="5.64258">
        <ele>1817.51</ele>
        <time>2018-06-23T10:35:12Z</time>
      </trkpt>
      <trkpt lat="44.73399" lon="5.6426">
        <ele>1817.99</ele>
        <time>2018-06-23T10:35:28Z</time>
      </trkpt>
      <trkpt lat="44.73396" lon="5.64265">
        <ele>1819.91</ele>
        <time>2018-06-23T10:35:39Z</time>
      </trkpt>
      <trkpt lat="44.73394" lon="5.64264">
        <ele>1821.35</ele>
        <time>2018-06-23T10:35:52Z</time>
      </trkpt>
      <trkpt lat="44.73394" lon="5.64264">
        <ele>1822.32</ele>
        <time>2018-06-23T10:36:04Z</time>
      </trkpt>
      <trkpt lat="44.73394" lon="5.64264">
        <ele>1822.8</ele>
        <time>2018-06-23T10:36:20Z</time>
      </trkpt>
      <trkpt lat="44.73392" lon="5.64265">
        <ele>1823.28</ele>
        <time>2018-06-23T10:36:34Z</time>
      </trkpt>
      <trkpt lat="44.73391" lon="5.64265">
        <ele>1823.76</ele>
        <time>2018-06-23T10:36:46Z</time>
      </trkpt>
      <trkpt lat="44.73391" lon="5.64265">
        <ele>1824.72</ele>
        <time>2018-06-23T10:37:03Z</time>
      </trkpt>
      <trkpt lat="44.73389" lon="5.64264">
        <ele>1825.68</ele>
        <time>2018-06-23T10:37:13Z</time>
      </trkpt>
      <trkpt lat="44.73386" lon="5.64264">
        <ele>1826.64</ele>
        <time>2018-06-23T10:37:24Z</time>
      </trkpt>
      <trkpt lat="44.73386" lon="5.64264">
        <ele>1827.6</ele>
        <time>2018-06-23T10:37:40Z</time>
      </trkpt>
      <trkpt lat="44.73385" lon="5.64265">
        <ele>1828.08</ele>
        <time>2018-06-23T10:37:55Z</time>
      </trkpt>
      <trkpt lat="44.73383" lon="5.64261">
        <ele>1830.01</ele>
        <time>2018-06-23T10:38:09Z</time>
      </trkpt>
      <trkpt lat="44.73379" lon="5.64265">
        <ele>1831.45</ele>
        <time>2018-06-23T10:38:20Z</time>
      </trkpt>
      <trkpt lat="44.73379" lon="5.64266">
        <ele>1832.41</ele>
        <time>2018-06-23T10:38:29Z</time>
      </trkpt>
      <trkpt lat="44.73378" lon="5.64265">
        <ele>1833.85</ele>
        <time>2018-06-23T10:38:40Z</time>
      </trkpt>
      <trkpt lat="44.73378" lon="5.64265">
        <ele>1835.77</ele>
        <time>2018-06-23T10:38:51Z</time>
      </trkpt>
      <trkpt lat="44.73376" lon="5.64264">
        <ele>1836.26</ele>
        <time>2018-06-23T10:39:06Z</time>
      </trkpt>
      <trkpt lat="44.73375" lon="5.64264">
        <ele>1838.18</ele>
        <time>2018-06-23T10:39:16Z</time>
      </trkpt>
      <trkpt lat="44.73374" lon="5.64265">
        <ele>1839.62</ele>
        <time>2018-06-23T10:39:28Z</time>
      </trkpt>
      <trkpt lat="44.73373" lon="5.64266">
        <ele>1840.1</ele>
        <time>2018-06-23T10:39:41Z</time>
      </trkpt>
      <trkpt lat="44.73371" lon="5.64266">
        <ele>1841.54</ele>
        <time>2018-06-23T10:39:51Z</time>
      </trkpt>
      <trkpt lat="44.7337" lon="5.64267">
        <ele>1843.47</ele>
        <time>2018-06-23T10:40:00Z</time>
      </trkpt>
      <trkpt lat="44.73369" lon="5.64267">
        <ele>1844.43</ele>
        <time>2018-06-23T10:40:12Z</time>
      </trkpt>
      <trkpt lat="44.73367" lon="5.64268">
        <ele>1845.39</ele>
        <time>2018-06-23T10:40:23Z</time>
      </trkpt>
      <trkpt lat="44.73366" lon="5.64269">
        <ele>1846.83</ele>
        <time>2018-06-23T10:40:35Z</time>
      </trkpt>
      <trkpt lat="44.73365" lon="5.6427">
        <ele>1846.83</ele>
        <time>2018-06-23T10:40:48Z</time>
      </trkpt>
      <trkpt lat="44.73363" lon="5.6427">
        <ele>1848.27</ele>
        <time>2018-06-23T10:41:00Z</time>
      </trkpt>
      <trkpt lat="44.73362" lon="5.64271">
        <ele>1848.27</ele>
        <time>2018-06-23T10:41:12Z</time>
      </trkpt>
      <trkpt lat="44.73361" lon="5.64272">
        <ele>1848.75</ele>
        <time>2018-06-23T10:41:30Z</time>
      </trkpt>
      <trkpt lat="44.73359" lon="5.64272">
        <ele>1849.71</ele>
        <time>2018-06-23T10:41:39Z</time>
      </trkpt>
      <trkpt lat="44.73358" lon="5.64273">
        <ele>1849.71</ele>
        <time>2018-06-23T10:41:57Z</time>
      </trkpt>
      <trkpt lat="44.73356" lon="5.64274">
        <ele>1851.16</ele>
        <time>2018-06-23T10:42:14Z</time>
      </trkpt>
      <trkpt lat="44.73355" lon="5.64274">
        <ele>1852.12</ele>
        <time>2018-06-23T10:42:26Z</time>
      </trkpt>
      <trkpt lat="44.73355" lon="5.64275">
        <ele>1853.56</ele>
        <time>2018-06-23T10:42:37Z</time>
      </trkpt>
      <trkpt lat="44.73351" lon="5.64278">
        <ele>1855</ele>
        <time>2018-06-23T10:42:45Z</time>
      </trkpt>
      <trkpt lat="44.73349" lon="5.64279">
        <ele>1855.48</ele>
        <time>2018-06-23T10:42:58Z</time>
      </trkpt>
      <trkpt lat="44.73349" lon="5.6428">
        <ele>1856.92</ele>
        <time>2018-06-23T10:43:06Z</time>
      </trkpt>
      <trkpt lat="44.73347" lon="5.64282">
        <ele>1859.33</ele>
        <time>2018-06-23T10:43:21Z</time>
      </trkpt>
      <trkpt lat="44.73346" lon="5.64282">
        <ele>1860.29</ele>
        <time>2018-06-23T10:43:32Z</time>
      </trkpt>
      <trkpt lat="44.73344" lon="5.64283">
        <ele>1861.73</ele>
        <time>2018-06-23T10:43:42Z</time>
      </trkpt>
      <trkpt lat="44.73343" lon="5.64283">
        <ele>1862.69</ele>
        <time>2018-06-23T10:43:55Z</time>
      </trkpt>
      <trkpt lat="44.73342" lon="5.64283">
        <ele>1864.13</ele>
        <time>2018-06-23T10:44:06Z</time>
      </trkpt>
      <trkpt lat="44.73339" lon="5.64285">
        <ele>1865.09</ele>
        <time>2018-06-23T10:44:23Z</time>
      </trkpt>
      <trkpt lat="44.73338" lon="5.64285">
        <ele>1865.09</ele>
        <time>2018-06-23T10:44:34Z</time>
      </trkpt>
      <trkpt lat="44.73337" lon="5.64285">
        <ele>1865.09</ele>
        <time>2018-06-23T10:44:48Z</time>
      </trkpt>
      <trkpt lat="44.73336" lon="5.64286">
        <ele>1866.54</ele>
        <time>2018-06-23T10:44:59Z</time>
      </trkpt>
      <trkpt lat="44.73335" lon="5.64286">
        <ele>1867.5</ele>
        <time>2018-06-23T10:45:12Z</time>
      </trkpt>
      <trkpt lat="44.73334" lon="5.64286">
        <ele>1868.46</ele>
        <time>2018-06-23T10:45:22Z</time>
      </trkpt>
      <trkpt lat="44.73333" lon="5.64286">
        <ele>1869.9</ele>
        <time>2018-06-23T10:45:35Z</time>
      </trkpt>
      <trkpt lat="44.73331" lon="5.64288">
        <ele>1870.86</ele>
        <time>2018-06-23T10:45:51Z</time>
      </trkpt>
      <trkpt lat="44.7333" lon="5.64288">
        <ele>1872.3</ele>
        <time>2018-06-23T10:46:01Z</time>
      </trkpt>
      <trkpt lat="44.73327" lon="5.64288">
        <ele>1873.27</ele>
        <time>2018-06-23T10:46:13Z</time>
      </trkpt>
      <trkpt lat="44.73324" lon="5.64291">
        <ele>1874.71</ele>
        <time>2018-06-23T10:46:25Z</time>
      </trkpt>
      <trkpt lat="44.73317" lon="5.64294">
        <ele>1877.11</ele>
        <time>2018-06-23T10:46:38Z</time>
      </trkpt>
      <trkpt lat="44.73312" lon="5.64297">
        <ele>1878.55</ele>
        <time>2018-06-23T10:46:50Z</time>
      </trkpt>
      <trkpt lat="44.73308" lon="5.64295">
        <ele>1880.48</ele>
        <time>2018-06-23T10:47:00Z</time>
      </trkpt>
      <trkpt lat="44.73305" lon="5.64293">
        <ele>1881.44</ele>
        <time>2018-06-23T10:47:09Z</time>
      </trkpt>
      <trkpt lat="44.73303" lon="5.64297">
        <ele>1883.36</ele>
        <time>2018-06-23T10:47:18Z</time>
      </trkpt>
      <trkpt lat="44.733" lon="5.64293">
        <ele>1884.8</ele>
        <time>2018-06-23T10:47:28Z</time>
      </trkpt>
      <trkpt lat="44.73301" lon="5.64293">
        <ele>1885.76</ele>
        <time>2018-06-23T10:47:37Z</time>
      </trkpt>
      <trkpt lat="44.733" lon="5.64295">
        <ele>1887.21</ele>
        <time>2018-06-23T10:47:47Z</time>
      </trkpt>
      <trkpt lat="44.73299" lon="5.64296">
        <ele>1888.17</ele>
        <time>2018-06-23T10:47:53Z</time>
      </trkpt>
      <trkpt lat="44.73297" lon="5.64297">
        <ele>1889.13</ele>
        <time>2018-06-23T10:48:03Z</time>
      </trkpt>
      <trkpt lat="44.73296" lon="5.64295">
        <ele>1891.05</ele>
        <time>2018-06-23T10:48:13Z</time>
      </trkpt>
      <trkpt lat="44.73294" lon="5.64297">
        <ele>1892.49</ele>
        <time>2018-06-23T10:48:26Z</time>
      </trkpt>
      <trkpt lat="44.73293" lon="5.64299">
        <ele>1892.97</ele>
        <time>2018-06-23T10:48:36Z</time>
      </trkpt>
      <trkpt lat="44.73294" lon="5.643">
        <ele>1892.49</ele>
        <time>2018-06-23T10:48:47Z</time>
      </trkpt>
      <trkpt lat="44.73291" lon="5.64301">
        <ele>1892.01</ele>
        <time>2018-06-23T10:49:06Z</time>
      </trkpt>
      <trkpt lat="44.7329" lon="5.64299">
        <ele>1892.01</ele>
        <time>2018-06-23T10:49:27Z</time>
      </trkpt>
      <trkpt lat="44.73289" lon="5.64301">
        <ele>1891.53</ele>
        <time>2018-06-23T10:49:53Z</time>
      </trkpt>
      <trkpt lat="44.73287" lon="5.64302">
        <ele>1892.01</ele>
        <time>2018-06-23T10:50:11Z</time>
      </trkpt>
      <trkpt lat="44.73288" lon="5.64301">
        <ele>1892.01</ele>
        <time>2018-06-23T10:50:34Z</time>
      </trkpt>
      <trkpt lat="44.73288" lon="5.64302">
        <ele>1892.01</ele>
        <time>2018-06-23T10:50:58Z</time>
      </trkpt>
      <trkpt lat="44.73288" lon="5.64302">
        <ele>1892.49</ele>
        <time>2018-06-23T10:51:15Z</time>
      </trkpt>
      <trkpt lat="44.73288" lon="5.64301">
        <ele>1892.49</ele>
        <time>2018-06-23T10:51:38Z</time>
      </trkpt>
      <trkpt lat="44.73287" lon="5.64301">
        <ele>1892.97</ele>
        <time>2018-06-23T10:51:47Z</time>
      </trkpt>
      <trkpt lat="44.73287" lon="5.64298">
        <ele>1893.93</ele>
        <time>2018-06-23T10:51:58Z</time>
      </trkpt>
      <trkpt lat="44.73286" lon="5.64298">
        <ele>1895.86</ele>
        <time>2018-06-23T10:52:08Z</time>
      </trkpt>
      <trkpt lat="44.73285" lon="5.64299">
        <ele>1896.82</ele>
        <time>2018-06-23T10:52:18Z</time>
      </trkpt>
      <trkpt lat="44.73283" lon="5.64301">
        <ele>1898.74</ele>
        <time>2018-06-23T10:52:29Z</time>
      </trkpt>
      <trkpt lat="44.7328" lon="5.64298">
        <ele>1900.18</ele>
        <time>2018-06-23T10:52:39Z</time>
      </trkpt>
      <trkpt lat="44.73279" lon="5.64293">
        <ele>1901.63</ele>
        <time>2018-06-23T10:52:50Z</time>
      </trkpt>
      <trkpt lat="44.73278" lon="5.64292">
        <ele>1902.11</ele>
        <time>2018-06-23T10:53:01Z</time>
      </trkpt>
      <trkpt lat="44.73277" lon="5.64293">
        <ele>1904.03</ele>
        <time>2018-06-23T10:53:13Z</time>
      </trkpt>
      <trkpt lat="44.73276" lon="5.64293">
        <ele>1905.95</ele>
        <time>2018-06-23T10:53:26Z</time>
      </trkpt>
      <trkpt lat="44.73274" lon="5.64293">
        <ele>1907.39</ele>
        <time>2018-06-23T10:53:38Z</time>
      </trkpt>
      <trkpt lat="44.73273" lon="5.64293">
        <ele>1908.83</ele>
        <time>2018-06-23T10:53:49Z</time>
      </trkpt>
      <trkpt lat="44.73271" lon="5.64294">
        <ele>1910.28</ele>
        <time>2018-06-23T10:54:01Z</time>
      </trkpt>
      <trkpt lat="44.7327" lon="5.64294">
        <ele>1911.24</ele>
        <time>2018-06-23T10:54:13Z</time>
      </trkpt>
      <trkpt lat="44.73267" lon="5.64293">
        <ele>1912.68</ele>
        <time>2018-06-23T10:54:23Z</time>
      </trkpt>
      <trkpt lat="44.73264" lon="5.64295">
        <ele>1914.12</ele>
        <time>2018-06-23T10:54:34Z</time>
      </trkpt>
      <trkpt lat="44.73262" lon="5.64295">
        <ele>1915.56</ele>
        <time>2018-06-23T10:54:46Z</time>
      </trkpt>
      <trkpt lat="44.73261" lon="5.64294">
        <ele>1916.53</ele>
        <time>2018-06-23T10:54:58Z</time>
      </trkpt>
      <trkpt lat="44.73259" lon="5.64292">
        <ele>1917.97</ele>
        <time>2018-06-23T10:55:08Z</time>
      </trkpt>
      <trkpt lat="44.73255" lon="5.64292">
        <ele>1919.41</ele>
        <time>2018-06-23T10:55:19Z</time>
      </trkpt>
      <trkpt lat="44.73254" lon="5.64292">
        <ele>1921.33</ele>
        <time>2018-06-23T10:55:30Z</time>
      </trkpt>
      <trkpt lat="44.73253" lon="5.64294">
        <ele>1922.77</ele>
        <time>2018-06-23T10:55:41Z</time>
      </trkpt>
      <trkpt lat="44.7325" lon="5.64298">
        <ele>1924.22</ele>
        <time>2018-06-23T10:55:52Z</time>
      </trkpt>
      <trkpt lat="44.7325" lon="5.64298">
        <ele>1924.22</ele>
        <time>2018-06-23T10:56:08Z</time>
      </trkpt>
      <trkpt lat="44.73247" lon="5.64299">
        <ele>1925.18</ele>
        <time>2018-06-23T10:56:16Z</time>
      </trkpt>
      <trkpt lat="44.73245" lon="5.64301">
        <ele>1927.1</ele>
        <time>2018-06-23T10:56:28Z</time>
      </trkpt>
      <trkpt lat="44.73243" lon="5.64301">
        <ele>1929.02</ele>
        <time>2018-06-23T10:56:38Z</time>
      </trkpt>
      <trkpt lat="44.73242" lon="5.64301">
        <ele>1930.46</ele>
        <time>2018-06-23T10:56:49Z</time>
      </trkpt>
      <trkpt lat="44.73239" lon="5.643">
        <ele>1931.91</ele>
        <time>2018-06-23T10:57:01Z</time>
      </trkpt>
      <trkpt lat="44.73237" lon="5.64302">
        <ele>1932.87</ele>
        <time>2018-06-23T10:57:12Z</time>
      </trkpt>
      <trkpt lat="44.73235" lon="5.64301">
        <ele>1934.31</ele>
        <time>2018-06-23T10:57:24Z</time>
      </trkpt>
      <trkpt lat="44.73234" lon="5.64302">
        <ele>1935.27</ele>
        <time>2018-06-23T10:57:36Z</time>
      </trkpt>
      <trkpt lat="44.7323" lon="5.64303">
        <ele>1936.23</ele>
        <time>2018-06-23T10:57:46Z</time>
      </trkpt>
      <trkpt lat="44.73229" lon="5.64304">
        <ele>1937.19</ele>
        <time>2018-06-23T10:57:54Z</time>
      </trkpt>
      <trkpt lat="44.73229" lon="5.64304">
        <ele>1937.67</ele>
        <time>2018-06-23T10:57:55Z</time>
      </trkpt>
      <trkpt lat="44.73226" lon="5.64307">
        <ele>1939.12</ele>
        <time>2018-06-23T10:58:08Z</time>
      </trkpt>
      <trkpt lat="44.73224" lon="5.64307">
        <ele>1940.08</ele>
        <time>2018-06-23T10:58:21Z</time>
      </trkpt>
      <trkpt lat="44.73223" lon="5.64307">
        <ele>1941.04</ele>
        <time>2018-06-23T10:58:31Z</time>
      </trkpt>
      <trkpt lat="44.73222" lon="5.64308">
        <ele>1942.48</ele>
        <time>2018-06-23T10:58:44Z</time>
      </trkpt>
      <trkpt lat="44.73221" lon="5.64308">
        <ele>1942.96</ele>
        <time>2018-06-23T10:59:00Z</time>
      </trkpt>
      <trkpt lat="44.7322" lon="5.64308">
        <ele>1943.92</ele>
        <time>2018-06-23T10:59:12Z</time>
      </trkpt>
      <trkpt lat="44.73219" lon="5.6431">
        <ele>1945.36</ele>
        <time>2018-06-23T10:59:21Z</time>
      </trkpt>
      <trkpt lat="44.73216" lon="5.64309">
        <ele>1946.81</ele>
        <time>2018-06-23T10:59:32Z</time>
      </trkpt>
      <trkpt lat="44.73214" lon="5.6431">
        <ele>1948.25</ele>
        <time>2018-06-23T10:59:43Z</time>
      </trkpt>
      <trkpt lat="44.73213" lon="5.64309">
        <ele>1949.21</ele>
        <time>2018-06-23T10:59:52Z</time>
      </trkpt>
      <trkpt lat="44.73212" lon="5.64312">
        <ele>1950.65</ele>
        <time>2018-06-23T11:00:02Z</time>
      </trkpt>
      <trkpt lat="44.73212" lon="5.64313">
        <ele>1951.61</ele>
        <time>2018-06-23T11:00:13Z</time>
      </trkpt>
      <trkpt lat="44.73207" lon="5.64313">
        <ele>1953.06</ele>
        <time>2018-06-23T11:00:25Z</time>
      </trkpt>
      <trkpt lat="44.73206" lon="5.64315">
        <ele>1954.02</ele>
        <time>2018-06-23T11:00:34Z</time>
      </trkpt>
      <trkpt lat="44.73205" lon="5.64317">
        <ele>1955.46</ele>
        <time>2018-06-23T11:00:45Z</time>
      </trkpt>
      <trkpt lat="44.73203" lon="5.64319">
        <ele>1956.42</ele>
        <time>2018-06-23T11:00:57Z</time>
      </trkpt>
      <trkpt lat="44.73201" lon="5.64319">
        <ele>1957.38</ele>
        <time>2018-06-23T11:01:06Z</time>
      </trkpt>
      <trkpt lat="44.732" lon="5.6432">
        <ele>1958.34</ele>
        <time>2018-06-23T11:01:17Z</time>
      </trkpt>
      <trkpt lat="44.732" lon="5.6432">
        <ele>1958.82</ele>
        <time>2018-06-23T11:01:32Z</time>
      </trkpt>
      <trkpt lat="44.732" lon="5.64317">
        <ele>1960.27</ele>
        <time>2018-06-23T11:01:45Z</time>
      </trkpt>
      <trkpt lat="44.73199" lon="5.64318">
        <ele>1962.19</ele>
        <time>2018-06-23T11:01:55Z</time>
      </trkpt>
      <trkpt lat="44.73199" lon="5.6432">
        <ele>1962.67</ele>
        <time>2018-06-23T11:02:05Z</time>
      </trkpt>
      <trkpt lat="44.73197" lon="5.64322">
        <ele>1963.63</ele>
        <time>2018-06-23T11:02:17Z</time>
      </trkpt>
      <trkpt lat="44.73194" lon="5.64322">
        <ele>1965.07</ele>
        <time>2018-06-23T11:02:27Z</time>
      </trkpt>
      <trkpt lat="44.73193" lon="5.64321">
        <ele>1966.51</ele>
        <time>2018-06-23T11:02:38Z</time>
      </trkpt>
      <trkpt lat="44.73194" lon="5.64321">
        <ele>1967.96</ele>
        <time>2018-06-23T11:02:55Z</time>
      </trkpt>
      <trkpt lat="44.73193" lon="5.64323">
        <ele>1969.4</ele>
        <time>2018-06-23T11:03:07Z</time>
      </trkpt>
      <trkpt lat="44.7319" lon="5.64326">
        <ele>1969.88</ele>
        <time>2018-06-23T11:03:17Z</time>
      </trkpt>
      <trkpt lat="44.73187" lon="5.6433">
        <ele>1971.32</ele>
        <time>2018-06-23T11:03:26Z</time>
      </trkpt>
      <trkpt lat="44.73185" lon="5.64336">
        <ele>1972.28</ele>
        <time>2018-06-23T11:03:35Z</time>
      </trkpt>
      <trkpt lat="44.73182" lon="5.64345">
        <ele>1972.76</ele>
        <time>2018-06-23T11:03:45Z</time>
      </trkpt>
      <trkpt lat="44.7318" lon="5.6435">
        <ele>1973.72</ele>
        <time>2018-06-23T11:03:56Z</time>
      </trkpt>
      <trkpt lat="44.73178" lon="5.64356">
        <ele>1974.2</ele>
        <time>2018-06-23T11:04:08Z</time>
      </trkpt>
      <trkpt lat="44.73177" lon="5.6436">
        <ele>1974.69</ele>
        <time>2018-06-23T11:04:22Z</time>
      </trkpt>
      <trkpt lat="44.73177" lon="5.64362">
        <ele>1974.69</ele>
        <time>2018-06-23T11:04:35Z</time>
      </trkpt>
      <trkpt lat="44.73177" lon="5.64363">
        <ele>1975.65</ele>
        <time>2018-06-23T11:04:55Z</time>
      </trkpt>
      <trkpt lat="44.73176" lon="5.64365">
        <ele>1975.65</ele>
        <time>2018-06-23T11:05:13Z</time>
      </trkpt>
      <trkpt lat="44.73176" lon="5.64366">
        <ele>1977.09</ele>
        <time>2018-06-23T11:05:24Z</time>
      </trkpt>
      <trkpt lat="44.73174" lon="5.64375">
        <ele>1978.53</ele>
        <time>2018-06-23T11:05:35Z</time>
      </trkpt>
      <trkpt lat="44.73173" lon="5.64379">
        <ele>1979.97</ele>
        <time>2018-06-23T11:05:46Z</time>
      </trkpt>
      <trkpt lat="44.7317" lon="5.64384">
        <ele>1981.9</ele>
        <time>2018-06-23T11:05:57Z</time>
      </trkpt>
      <trkpt lat="44.73171" lon="5.64388">
        <ele>1982.86</ele>
        <time>2018-06-23T11:06:08Z</time>
      </trkpt>
      <trkpt lat="44.73173" lon="5.64392">
        <ele>1983.82</ele>
        <time>2018-06-23T11:06:20Z</time>
      </trkpt>
      <trkpt lat="44.73173" lon="5.64395">
        <ele>1985.74</ele>
        <time>2018-06-23T11:06:30Z</time>
      </trkpt>
      <trkpt lat="44.73173" lon="5.64398">
        <ele>1986.7</ele>
        <time>2018-06-23T11:06:40Z</time>
      </trkpt>
      <trkpt lat="44.73173" lon="5.64404">
        <ele>1986.7</ele>
        <time>2018-06-23T11:06:50Z</time>
      </trkpt>
      <trkpt lat="44.73172" lon="5.64407">
        <ele>1986.22</ele>
        <time>2018-06-23T11:07:08Z</time>
      </trkpt>
      <trkpt lat="44.73172" lon="5.64408">
        <ele>1986.7</ele>
        <time>2018-06-23T11:07:28Z</time>
      </trkpt>
      <trkpt lat="44.73172" lon="5.64408">
        <ele>1986.7</ele>
        <time>2018-06-23T11:07:45Z</time>
      </trkpt>
      <trkpt lat="44.73172" lon="5.64409">
        <ele>1986.22</ele>
        <time>2018-06-23T11:08:04Z</time>
      </trkpt>
      <trkpt lat="44.73172" lon="5.64418">
        <ele>1983.82</ele>
        <time>2018-06-23T11:08:16Z</time>
      </trkpt>
      <trkpt lat="44.73177" lon="5.64427">
        <ele>1982.86</ele>
        <time>2018-06-23T11:08:29Z</time>
      </trkpt>
      <trkpt lat="44.7318" lon="5.64432">
        <ele>1982.86</ele>
        <time>2018-06-23T11:08:41Z</time>
      </trkpt>
      <trkpt lat="44.73182" lon="5.64432">
        <ele>1982.38</ele>
        <time>2018-06-23T11:08:53Z</time>
      </trkpt>
      <trkpt lat="44.7318" lon="5.64431">
        <ele>1983.34</ele>
        <time>2018-06-23T11:09:05Z</time>
      </trkpt>
      <trkpt lat="44.73171" lon="5.6443">
        <ele>1981.9</ele>
        <time>2018-06-23T11:09:16Z</time>
      </trkpt>
      <trkpt lat="44.73171" lon="5.64429">
        <ele>1981.9</ele>
        <time>2018-06-23T11:09:17Z</time>
      </trkpt>
      <trkpt lat="44.73164" lon="5.6443">
        <ele>1980.93</ele>
        <time>2018-06-23T11:09:24Z</time>
      </trkpt>
      <trkpt lat="44.73152" lon="5.64429">
        <ele>1979.49</ele>
        <time>2018-06-23T11:09:37Z</time>
      </trkpt>
      <trkpt lat="44.73141" lon="5.64428">
        <ele>1979.49</ele>
        <time>2018-06-23T11:09:48Z</time>
      </trkpt>
      <trkpt lat="44.73132" lon="5.64429">
        <ele>1978.53</ele>
        <time>2018-06-23T11:09:59Z</time>
      </trkpt>
      <trkpt lat="44.73121" lon="5.64432">
        <ele>1977.09</ele>
        <time>2018-06-23T11:10:12Z</time>
      </trkpt>
      <trkpt lat="44.73113" lon="5.64434">
        <ele>1976.61</ele>
        <time>2018-06-23T11:10:23Z</time>
      </trkpt>
      <trkpt lat="44.73111" lon="5.64436">
        <ele>1976.13</ele>
        <time>2018-06-23T11:10:35Z</time>
      </trkpt>
      <trkpt lat="44.7311" lon="5.64437">
        <ele>1975.65</ele>
        <time>2018-06-23T11:10:48Z</time>
      </trkpt>
      <trkpt lat="44.73109" lon="5.64436">
        <ele>1976.13</ele>
        <time>2018-06-23T11:11:05Z</time>
      </trkpt>
      <trkpt lat="44.73109" lon="5.64436">
        <ele>1975.65</ele>
        <time>2018-06-23T11:11:24Z</time>
      </trkpt>
      <trkpt lat="44.73109" lon="5.64436">
        <ele>1976.13</ele>
        <time>2018-06-23T11:11:50Z</time>
      </trkpt>
      <trkpt lat="44.73109" lon="5.64437">
        <ele>1976.13</ele>
        <time>2018-06-23T11:12:11Z</time>
      </trkpt>
      <trkpt lat="44.73107" lon="5.64439">
        <ele>1975.17</ele>
        <time>2018-06-23T11:12:25Z</time>
      </trkpt>
      <trkpt lat="44.73099" lon="5.64444">
        <ele>1973.72</ele>
        <time>2018-06-23T11:12:36Z</time>
      </trkpt>
      <trkpt lat="44.73089" lon="5.64452">
        <ele>1972.76</ele>
        <time>2018-06-23T11:12:48Z</time>
      </trkpt>
      <trkpt lat="44.73078" lon="5.64455">
        <ele>1973.24</ele>
        <time>2018-06-23T11:12:59Z</time>
      </trkpt>
      <trkpt lat="44.7307" lon="5.64455">
        <ele>1974.69</ele>
        <time>2018-06-23T11:13:09Z</time>
      </trkpt>
      <trkpt lat="44.73061" lon="5.64458">
        <ele>1975.17</ele>
        <time>2018-06-23T11:13:20Z</time>
      </trkpt>
      <trkpt lat="44.73051" lon="5.64462">
        <ele>1977.09</ele>
        <time>2018-06-23T11:13:32Z</time>
      </trkpt>
      <trkpt lat="44.73042" lon="5.64465">
        <ele>1978.05</ele>
        <time>2018-06-23T11:13:42Z</time>
      </trkpt>
      <trkpt lat="44.73035" lon="5.64465">
        <ele>1978.53</ele>
        <time>2018-06-23T11:13:53Z</time>
      </trkpt>
      <trkpt lat="44.73027" lon="5.64468">
        <ele>1979.97</ele>
        <time>2018-06-23T11:14:06Z</time>
      </trkpt>
      <trkpt lat="44.73024" lon="5.6447">
        <ele>1980.45</ele>
        <time>2018-06-23T11:14:16Z</time>
      </trkpt>
      <trkpt lat="44.73019" lon="5.64472">
        <ele>1979.49</ele>
        <time>2018-06-23T11:14:23Z</time>
      </trkpt>
      <trkpt lat="44.73017" lon="5.64474">
        <ele>1979.97</ele>
        <time>2018-06-23T11:14:25Z</time>
      </trkpt>
      <trkpt lat="44.73013" lon="5.64476">
        <ele>1979.97</ele>
        <time>2018-06-23T11:14:30Z</time>
      </trkpt>
      <trkpt lat="44.73001" lon="5.64483">
        <ele>1980.45</ele>
        <time>2018-06-23T11:14:44Z</time>
      </trkpt>
      <trkpt lat="44.72993" lon="5.6449">
        <ele>1979.01</ele>
        <time>2018-06-23T11:14:55Z</time>
      </trkpt>
      <trkpt lat="44.72983" lon="5.64497">
        <ele>1979.01</ele>
        <time>2018-06-23T11:15:07Z</time>
      </trkpt>
      <trkpt lat="44.72977" lon="5.64502">
        <ele>1979.01</ele>
        <time>2018-06-23T11:15:17Z</time>
      </trkpt>
      <trkpt lat="44.72972" lon="5.64505">
        <ele>1979.97</ele>
        <time>2018-06-23T11:15:29Z</time>
      </trkpt>
      <trkpt lat="44.72973" lon="5.64505">
        <ele>1979.49</ele>
        <time>2018-06-23T11:15:46Z</time>
      </trkpt>
      <trkpt lat="44.72972" lon="5.64506">
        <ele>1979.01</ele>
        <time>2018-06-23T11:16:07Z</time>
      </trkpt>
      <trkpt lat="44.72968" lon="5.64509">
        <ele>1979.01</ele>
        <time>2018-06-23T11:16:19Z</time>
      </trkpt>
      <trkpt lat="44.72966" lon="5.6451">
        <ele>1979.49</ele>
        <time>2018-06-23T11:16:21Z</time>
      </trkpt>
      <trkpt lat="44.72955" lon="5.64513">
        <ele>1980.45</ele>
        <time>2018-06-23T11:16:32Z</time>
      </trkpt>
      <trkpt lat="44.72951" lon="5.64512">
        <ele>1981.41</ele>
        <time>2018-06-23T11:16:42Z</time>
      </trkpt>
      <trkpt lat="44.72948" lon="5.64514">
        <ele>1981.41</ele>
        <time>2018-06-23T11:16:47Z</time>
      </trkpt>
      <trkpt lat="44.72942" lon="5.64515">
        <ele>1982.38</ele>
        <time>2018-06-23T11:16:54Z</time>
      </trkpt>
      <trkpt lat="44.72934" lon="5.64517">
        <ele>1984.3</ele>
        <time>2018-06-23T11:17:05Z</time>
      </trkpt>
      <trkpt lat="44.72923" lon="5.64522">
        <ele>1984.3</ele>
        <time>2018-06-23T11:17:17Z</time>
      </trkpt>
      <trkpt lat="44.72914" lon="5.64525">
        <ele>1983.82</ele>
        <time>2018-06-23T11:17:28Z</time>
      </trkpt>
      <trkpt lat="44.72902" lon="5.64531">
        <ele>1984.78</ele>
        <time>2018-06-23T11:17:41Z</time>
      </trkpt>
      <trkpt lat="44.729" lon="5.6453">
        <ele>1985.74</ele>
        <time>2018-06-23T11:17:53Z</time>
      </trkpt>
      <trkpt lat="44.729" lon="5.6453">
        <ele>1985.74</ele>
        <time>2018-06-23T11:18:15Z</time>
      </trkpt>
      <trkpt lat="44.729" lon="5.6453">
        <ele>1986.22</ele>
        <time>2018-06-23T11:18:29Z</time>
      </trkpt>
      <trkpt lat="44.729" lon="5.6453">
        <ele>1987.18</ele>
        <time>2018-06-23T11:18:50Z</time>
      </trkpt>
      <trkpt lat="44.729" lon="5.6453">
        <ele>1986.7</ele>
        <time>2018-06-23T11:19:12Z</time>
      </trkpt>
      <trkpt lat="44.729" lon="5.6453">
        <ele>1986.22</ele>
        <time>2018-06-23T11:19:16Z</time>
      </trkpt>
      <trkpt lat="44.72887" lon="5.64531">
        <ele>1987.66</ele>
        <time>2018-06-23T11:19:28Z</time>
      </trkpt>
      <trkpt lat="44.72877" lon="5.64533">
        <ele>1988.14</ele>
        <time>2018-06-23T11:19:38Z</time>
      </trkpt>
      <trkpt lat="44.72867" lon="5.64534">
        <ele>1988.62</ele>
        <time>2018-06-23T11:19:48Z</time>
      </trkpt>
      <trkpt lat="44.72857" lon="5.64536">
        <ele>1988.62</ele>
        <time>2018-06-23T11:19:58Z</time>
      </trkpt>
      <trkpt lat="44.72846" lon="5.64539">
        <ele>1988.62</ele>
        <time>2018-06-23T11:20:08Z</time>
      </trkpt>
      <trkpt lat="44.72836" lon="5.64541">
        <ele>1989.1</ele>
        <time>2018-06-23T11:20:18Z</time>
      </trkpt>
      <trkpt lat="44.72827" lon="5.64545">
        <ele>1990.07</ele>
        <time>2018-06-23T11:20:28Z</time>
      </trkpt>
      <trkpt lat="44.72818" lon="5.64547">
        <ele>1990.55</ele>
        <time>2018-06-23T11:20:37Z</time>
      </trkpt>
      <trkpt lat="44.72807" lon="5.6455">
        <ele>1991.51</ele>
        <time>2018-06-23T11:20:49Z</time>
      </trkpt>
      <trkpt lat="44.72799" lon="5.6455">
        <ele>1993.91</ele>
        <time>2018-06-23T11:20:59Z</time>
      </trkpt>
      <trkpt lat="44.72798" lon="5.6455">
        <ele>1993.43</ele>
        <time>2018-06-23T11:21:04Z</time>
      </trkpt>
      <trkpt lat="44.72786" lon="5.64556">
        <ele>1994.87</ele>
        <time>2018-06-23T11:21:16Z</time>
      </trkpt>
      <trkpt lat="44.72777" lon="5.64559">
        <ele>1994.87</ele>
        <time>2018-06-23T11:21:27Z</time>
      </trkpt>
      <trkpt lat="44.72775" lon="5.6456">
        <ele>1995.35</ele>
        <time>2018-06-23T11:21:30Z</time>
      </trkpt>
      <trkpt lat="44.7277" lon="5.64562">
        <ele>1995.35</ele>
        <time>2018-06-23T11:21:36Z</time>
      </trkpt>
      <trkpt lat="44.72765" lon="5.64567">
        <ele>1998.24</ele>
        <time>2018-06-23T11:21:48Z</time>
      </trkpt>
      <trkpt lat="44.72758" lon="5.64568">
        <ele>1999.68</ele>
        <time>2018-06-23T11:22:02Z</time>
      </trkpt>
      <trkpt lat="44.72752" lon="5.64567">
        <ele>2001.6</ele>
        <time>2018-06-23T11:22:09Z</time>
      </trkpt>
      <trkpt lat="44.72745" lon="5.64571">
        <ele>2001.6</ele>
        <time>2018-06-23T11:22:18Z</time>
      </trkpt>
      <trkpt lat="44.72732" lon="5.64571">
        <ele>2000.64</ele>
        <time>2018-06-23T11:22:32Z</time>
      </trkpt>
      <trkpt lat="44.7273" lon="5.64571">
        <ele>2001.6</ele>
        <time>2018-06-23T11:22:34Z</time>
      </trkpt>
      <trkpt lat="44.72719" lon="5.64574">
        <ele>2000.16</ele>
        <time>2018-06-23T11:22:46Z</time>
      </trkpt>
      <trkpt lat="44.72713" lon="5.64576">
        <ele>2000.16</ele>
        <time>2018-06-23T11:22:54Z</time>
      </trkpt>
      <trkpt lat="44.72708" lon="5.64576">
        <ele>1999.68</ele>
        <time>2018-06-23T11:23:00Z</time>
      </trkpt>
      <trkpt lat="44.72697" lon="5.6458">
        <ele>1998.24</ele>
        <time>2018-06-23T11:23:12Z</time>
      </trkpt>
      <trkpt lat="44.72686" lon="5.64582">
        <ele>1996.8</ele>
        <time>2018-06-23T11:23:24Z</time>
      </trkpt>
      <trkpt lat="44.72681" lon="5.64584">
        <ele>1997.28</ele>
        <time>2018-06-23T11:23:29Z</time>
      </trkpt>
      <trkpt lat="44.72676" lon="5.64588">
        <ele>1997.28</ele>
        <time>2018-06-23T11:23:34Z</time>
      </trkpt>
      <trkpt lat="44.72667" lon="5.64591">
        <ele>1999.2</ele>
        <time>2018-06-23T11:23:45Z</time>
      </trkpt>
      <trkpt lat="44.72659" lon="5.64595">
        <ele>2000.16</ele>
        <time>2018-06-23T11:23:55Z</time>
      </trkpt>
      <trkpt lat="44.72654" lon="5.646">
        <ele>1998.72</ele>
        <time>2018-06-23T11:24:05Z</time>
      </trkpt>
      <trkpt lat="44.7265" lon="5.64602">
        <ele>1999.2</ele>
        <time>2018-06-23T11:24:17Z</time>
      </trkpt>
      <trkpt lat="44.72642" lon="5.64606">
        <ele>1999.2</ele>
        <time>2018-06-23T11:24:28Z</time>
      </trkpt>
      <trkpt lat="44.72631" lon="5.64611">
        <ele>1999.68</ele>
        <time>2018-06-23T11:24:40Z</time>
      </trkpt>
      <trkpt lat="44.72623" lon="5.64616">
        <ele>1999.68</ele>
        <time>2018-06-23T11:24:50Z</time>
      </trkpt>
      <trkpt lat="44.72617" lon="5.6462">
        <ele>1999.2</ele>
        <time>2018-06-23T11:24:57Z</time>
      </trkpt>
      <trkpt lat="44.72615" lon="5.64621">
        <ele>1999.2</ele>
        <time>2018-06-23T11:24:59Z</time>
      </trkpt>
      <trkpt lat="44.72609" lon="5.64624">
        <ele>2000.16</ele>
        <time>2018-06-23T11:25:05Z</time>
      </trkpt>
      <trkpt lat="44.72598" lon="5.64628">
        <ele>1999.68</ele>
        <time>2018-06-23T11:25:17Z</time>
      </trkpt>
      <trkpt lat="44.72591" lon="5.64629">
        <ele>2001.6</ele>
        <time>2018-06-23T11:25:28Z</time>
      </trkpt>
      <trkpt lat="44.72588" lon="5.64629">
        <ele>2002.08</ele>
        <time>2018-06-23T11:25:32Z</time>
      </trkpt>
      <trkpt lat="44.72585" lon="5.64631">
        <ele>2003.04</ele>
        <time>2018-06-23T11:25:36Z</time>
      </trkpt>
      <trkpt lat="44.72577" lon="5.64632">
        <ele>2004.97</ele>
        <time>2018-06-23T11:25:48Z</time>
      </trkpt>
      <trkpt lat="44.7257" lon="5.64633">
        <ele>2005.93</ele>
        <time>2018-06-23T11:25:59Z</time>
      </trkpt>
      <trkpt lat="44.72563" lon="5.64636">
        <ele>2008.33</ele>
        <time>2018-06-23T11:26:09Z</time>
      </trkpt>
      <trkpt lat="44.72557" lon="5.64639">
        <ele>2008.81</ele>
        <time>2018-06-23T11:26:19Z</time>
      </trkpt>
      <trkpt lat="44.72551" lon="5.6464">
        <ele>2010.25</ele>
        <time>2018-06-23T11:26:29Z</time>
      </trkpt>
      <trkpt lat="44.72544" lon="5.64643">
        <ele>2011.7</ele>
        <time>2018-06-23T11:26:41Z</time>
      </trkpt>
      <trkpt lat="44.72539" lon="5.64643">
        <ele>2012.66</ele>
        <time>2018-06-23T11:26:52Z</time>
      </trkpt>
      <trkpt lat="44.72532" lon="5.64645">
        <ele>2014.58</ele>
        <time>2018-06-23T11:27:04Z</time>
      </trkpt>
      <trkpt lat="44.72524" lon="5.64647">
        <ele>2016.02</ele>
        <time>2018-06-23T11:27:16Z</time>
      </trkpt>
      <trkpt lat="44.72517" lon="5.64649">
        <ele>2016.98</ele>
        <time>2018-06-23T11:27:26Z</time>
      </trkpt>
      <trkpt lat="44.72511" lon="5.64651">
        <ele>2017.94</ele>
        <time>2018-06-23T11:27:37Z</time>
      </trkpt>
      <trkpt lat="44.72504" lon="5.64653">
        <ele>2020.35</ele>
        <time>2018-06-23T11:27:47Z</time>
      </trkpt>
      <trkpt lat="44.72502" lon="5.64655">
        <ele>2020.83</ele>
        <time>2018-06-23T11:27:51Z</time>
      </trkpt>
      <trkpt lat="44.72499" lon="5.64657">
        <ele>2021.31</ele>
        <time>2018-06-23T11:27:56Z</time>
      </trkpt>
      <trkpt lat="44.72493" lon="5.64661">
        <ele>2022.27</ele>
        <time>2018-06-23T11:28:06Z</time>
      </trkpt>
      <trkpt lat="44.72485" lon="5.64667">
        <ele>2025.15</ele>
        <time>2018-06-23T11:28:19Z</time>
      </trkpt>
      <trkpt lat="44.72481" lon="5.64669">
        <ele>2025.64</ele>
        <time>2018-06-23T11:28:30Z</time>
      </trkpt>
      <trkpt lat="44.72479" lon="5.6467">
        <ele>2026.6</ele>
        <time>2018-06-23T11:28:46Z</time>
      </trkpt>
      <trkpt lat="44.72477" lon="5.64671">
        <ele>2027.08</ele>
        <time>2018-06-23T11:29:01Z</time>
      </trkpt>
      <trkpt lat="44.72471" lon="5.64677">
        <ele>2028.52</ele>
        <time>2018-06-23T11:29:12Z</time>
      </trkpt>
      <trkpt lat="44.72464" lon="5.6468">
        <ele>2030.92</ele>
        <time>2018-06-23T11:29:24Z</time>
      </trkpt>
      <trkpt lat="44.72458" lon="5.64684">
        <ele>2031.88</ele>
        <time>2018-06-23T11:29:35Z</time>
      </trkpt>
      <trkpt lat="44.72452" lon="5.64689">
        <ele>2034.77</ele>
        <time>2018-06-23T11:29:46Z</time>
      </trkpt>
      <trkpt lat="44.72447" lon="5.64693">
        <ele>2036.69</ele>
        <time>2018-06-23T11:29:58Z</time>
      </trkpt>
      <trkpt lat="44.72441" lon="5.64696">
        <ele>2038.61</ele>
        <time>2018-06-23T11:30:09Z</time>
      </trkpt>
      <trkpt lat="44.72436" lon="5.64699">
        <ele>2039.57</ele>
        <time>2018-06-23T11:30:20Z</time>
      </trkpt>
      <trkpt lat="44.7243" lon="5.64703">
        <ele>2041.98</ele>
        <time>2018-06-23T11:30:31Z</time>
      </trkpt>
      <trkpt lat="44.72428" lon="5.64704">
        <ele>2042.94</ele>
        <time>2018-06-23T11:30:42Z</time>
      </trkpt>
      <trkpt lat="44.72426" lon="5.64705">
        <ele>2044.38</ele>
        <time>2018-06-23T11:30:59Z</time>
      </trkpt>
      <trkpt lat="44.72425" lon="5.64707">
        <ele>2044.38</ele>
        <time>2018-06-23T11:31:10Z</time>
      </trkpt>
      <trkpt lat="44.72424" lon="5.64707">
        <ele>2044.38</ele>
        <time>2018-06-23T11:31:23Z</time>
      </trkpt>
      <trkpt lat="44.72424" lon="5.64707">
        <ele>2045.82</ele>
        <time>2018-06-23T11:31:39Z</time>
      </trkpt>
      <trkpt lat="44.72424" lon="5.64707">
        <ele>2044.86</ele>
        <time>2018-06-23T11:31:51Z</time>
      </trkpt>
      <trkpt lat="44.72424" lon="5.64707">
        <ele>2044.86</ele>
        <time>2018-06-23T11:32:08Z</time>
      </trkpt>
      <trkpt lat="44.72424" lon="5.64708">
        <ele>2044.86</ele>
        <time>2018-06-23T11:32:28Z</time>
      </trkpt>
      <trkpt lat="44.72424" lon="5.64707">
        <ele>2045.82</ele>
        <time>2018-06-23T11:32:44Z</time>
      </trkpt>
      <trkpt lat="44.72421" lon="5.64709">
        <ele>2046.3</ele>
        <time>2018-06-23T11:33:01Z</time>
      </trkpt>
      <trkpt lat="44.72418" lon="5.64711">
        <ele>2046.78</ele>
        <time>2018-06-23T11:33:12Z</time>
      </trkpt>
      <trkpt lat="44.72417" lon="5.64711">
        <ele>2046.3</ele>
        <time>2018-06-23T11:33:34Z</time>
      </trkpt>
      <trkpt lat="44.72413" lon="5.6471">
        <ele>2046.78</ele>
        <time>2018-06-23T11:33:45Z</time>
      </trkpt>
      <trkpt lat="44.72412" lon="5.6471">
        <ele>2046.78</ele>
        <time>2018-06-23T11:34:02Z</time>
      </trkpt>
      <trkpt lat="44.72413" lon="5.64708">
        <ele>2046.3</ele>
        <time>2018-06-23T11:34:18Z</time>
      </trkpt>
      <trkpt lat="44.72414" lon="5.64705">
        <ele>2045.82</ele>
        <time>2018-06-23T11:34:29Z</time>
      </trkpt>
      <trkpt lat="44.72415" lon="5.64705">
        <ele>2045.34</ele>
        <time>2018-06-23T11:34:46Z</time>
      </trkpt>
      <trkpt lat="44.72414" lon="5.64705">
        <ele>2045.82</ele>
        <time>2018-06-23T11:34:56Z</time>
      </trkpt>
      <trkpt lat="44.72413" lon="5.64705">
        <ele>2046.3</ele>
        <time>2018-06-23T11:35:15Z</time>
      </trkpt>
      <trkpt lat="44.72413" lon="5.64705">
        <ele>2046.3</ele>
        <time>2018-06-23T11:35:39Z</time>
      </trkpt>
      <trkpt lat="44.72413" lon="5.64705">
        <ele>2046.78</ele>
        <time>2018-06-23T11:35:59Z</time>
      </trkpt>
      <trkpt lat="44.72414" lon="5.64705">
        <ele>2046.78</ele>
        <time>2018-06-23T11:36:16Z</time>
      </trkpt>
      <trkpt lat="44.72414" lon="5.64705">
        <ele>2046.3</ele>
        <time>2018-06-23T11:36:39Z</time>
      </trkpt>
      <trkpt lat="44.72414" lon="5.64705">
        <ele>2046.78</ele>
        <time>2018-06-23T11:36:59Z</time>
      </trkpt>
      <trkpt lat="44.72414" lon="5.64705">
        <ele>2046.78</ele>
        <time>2018-06-23T11:37:20Z</time>
      </trkpt>
      <trkpt lat="44.72414" lon="5.64706">
        <ele>2046.78</ele>
        <time>2018-06-23T11:37:40Z</time>
      </trkpt>
      <trkpt lat="44.72414" lon="5.64706">
        <ele>2046.3</ele>
        <time>2018-06-23T11:38:00Z</time>
      </trkpt>
      <trkpt lat="44.72414" lon="5.64706">
        <ele>2046.78</ele>
        <time>2018-06-23T11:38:19Z</time>
      </trkpt>
      <trkpt lat="44.72416" lon="5.64705">
        <ele>2046.78</ele>
        <time>2018-06-23T11:38:36Z</time>
      </trkpt>
      <trkpt lat="44.72416" lon="5.64705">
        <ele>2046.3</ele>
        <time>2018-06-23T11:38:47Z</time>
      </trkpt>
      <trkpt lat="44.72414" lon="5.64705">
        <ele>2046.78</ele>
        <time>2018-06-23T11:39:01Z</time>
      </trkpt>
      <trkpt lat="44.72414" lon="5.64706">
        <ele>2047.26</ele>
        <time>2018-06-23T11:39:18Z</time>
      </trkpt>
      <trkpt lat="44.72415" lon="5.64705">
        <ele>2047.26</ele>
        <time>2018-06-23T11:39:34Z</time>
      </trkpt>
      <trkpt lat="44.72415" lon="5.64705">
        <ele>2046.3</ele>
        <time>2018-06-23T11:39:51Z</time>
      </trkpt>
      <trkpt lat="44.72415" lon="5.64704">
        <ele>2046.78</ele>
        <time>2018-06-23T11:40:11Z</time>
      </trkpt>
      <trkpt lat="44.72415" lon="5.64704">
        <ele>2046.78</ele>
        <time>2018-06-23T11:40:32Z</time>
      </trkpt>
      <trkpt lat="44.72415" lon="5.64704">
        <ele>2046.78</ele>
        <time>2018-06-23T11:40:59Z</time>
      </trkpt>
      <trkpt lat="44.72415" lon="5.64704">
        <ele>2046.78</ele>
        <time>2018-06-23T11:41:20Z</time>
      </trkpt>
      <trkpt lat="44.72415" lon="5.64704">
        <ele>2046.78</ele>
        <time>2018-06-23T11:41:45Z</time>
      </trkpt>
      <trkpt lat="44.72415" lon="5.64704">
        <ele>2046.78</ele>
        <time>2018-06-23T11:42:09Z</time>
      </trkpt>
      <trkpt lat="44.72415" lon="5.64704">
        <ele>2046.78</ele>
        <time>2018-06-23T11:42:30Z</time>
      </trkpt>
      <trkpt lat="44.72415" lon="5.64704">
        <ele>2046.78</ele>
        <time>2018-06-23T11:42:54Z</time>
      </trkpt>
      <trkpt lat="44.72415" lon="5.64704">
        <ele>2047.26</ele>
        <time>2018-06-23T11:43:19Z</time>
      </trkpt>
      <trkpt lat="44.72415" lon="5.64704">
        <ele>2047.26</ele>
        <time>2018-06-23T11:43:47Z</time>
      </trkpt>
      <trkpt lat="44.72415" lon="5.64704">
        <ele>2046.78</ele>
        <time>2018-06-23T11:44:07Z</time>
      </trkpt>
      <trkpt lat="44.72415" lon="5.64704">
        <ele>2047.26</ele>
        <time>2018-06-23T11:44:35Z</time>
      </trkpt>
      <trkpt lat="44.72415" lon="5.64704">
        <ele>2046.78</ele>
        <time>2018-06-23T11:45:00Z</time>
      </trkpt>
      <trkpt lat="44.72415" lon="5.64704">
        <ele>2046.3</ele>
        <time>2018-06-23T11:45:30Z</time>
      </trkpt>
      <trkpt lat="44.72416" lon="5.64703">
        <ele>2046.78</ele>
        <time>2018-06-23T11:45:48Z</time>
      </trkpt>
      <trkpt lat="44.72416" lon="5.64703">
        <ele>2046.78</ele>
        <time>2018-06-23T11:46:06Z</time>
      </trkpt>
      <trkpt lat="44.72416" lon="5.64704">
        <ele>2047.26</ele>
        <time>2018-06-23T11:46:39Z</time>
      </trkpt>
      <trkpt lat="44.72416" lon="5.64704">
        <ele>2047.26</ele>
        <time>2018-06-23T11:47:08Z</time>
      </trkpt>
      <trkpt lat="44.72416" lon="5.64704">
        <ele>2047.26</ele>
        <time>2018-06-23T11:47:36Z</time>
      </trkpt>
      <trkpt lat="44.72416" lon="5.64704">
        <ele>2047.26</ele>
        <time>2018-06-23T11:48:09Z</time>
      </trkpt>
      <trkpt lat="44.72416" lon="5.64704">
        <ele>2047.26</ele>
        <time>2018-06-23T11:48:37Z</time>
      </trkpt>
      <trkpt lat="44.72415" lon="5.64704">
        <ele>2047.75</ele>
        <time>2018-06-23T11:49:06Z</time>
      </trkpt>
      <trkpt lat="44.72415" lon="5.64705">
        <ele>2047.75</ele>
        <time>2018-06-23T11:49:34Z</time>
      </trkpt>
      <trkpt lat="44.72415" lon="5.64704">
        <ele>2047.26</ele>
        <time>2018-06-23T11:50:03Z</time>
      </trkpt>
      <trkpt lat="44.72415" lon="5.64704">
        <ele>2047.75</ele>
        <time>2018-06-23T11:50:36Z</time>
      </trkpt>
      <trkpt lat="44.72415" lon="5.64704">
        <ele>2048.23</ele>
        <time>2018-06-23T11:51:05Z</time>
      </trkpt>
      <trkpt lat="44.72415" lon="5.64704">
        <ele>2047.75</ele>
        <time>2018-06-23T11:51:34Z</time>
      </trkpt>
      <trkpt lat="44.72415" lon="5.64704">
        <ele>2047.75</ele>
        <time>2018-06-23T11:52:02Z</time>
      </trkpt>
      <trkpt lat="44.72415" lon="5.64704">
        <ele>2047.75</ele>
        <time>2018-06-23T11:52:30Z</time>
      </trkpt>
      <trkpt lat="44.72415" lon="5.64704">
        <ele>2048.23</ele>
        <time>2018-06-23T11:52:58Z</time>
      </trkpt>
      <trkpt lat="44.72415" lon="5.64704">
        <ele>2047.26</ele>
        <time>2018-06-23T11:53:27Z</time>
      </trkpt>
      <trkpt lat="44.72415" lon="5.64704">
        <ele>2047.75</ele>
        <time>2018-06-23T11:53:54Z</time>
      </trkpt>
      <trkpt lat="44.72415" lon="5.64704">
        <ele>2047.75</ele>
        <time>2018-06-23T11:54:21Z</time>
      </trkpt>
      <trkpt lat="44.72415" lon="5.64704">
        <ele>2048.71</ele>
        <time>2018-06-23T11:54:49Z</time>
      </trkpt>
      <trkpt lat="44.72415" lon="5.64704">
        <ele>2047.75</ele>
        <time>2018-06-23T11:55:18Z</time>
      </trkpt>
      <trkpt lat="44.72415" lon="5.64704">
        <ele>2047.75</ele>
        <time>2018-06-23T11:55:48Z</time>
      </trkpt>
      <trkpt lat="44.72415" lon="5.64704">
        <ele>2048.23</ele>
        <time>2018-06-23T11:56:19Z</time>
      </trkpt>
      <trkpt lat="44.72415" lon="5.64704">
        <ele>2048.23</ele>
        <time>2018-06-23T11:56:46Z</time>
      </trkpt>
      <trkpt lat="44.72415" lon="5.64704">
        <ele>2048.23</ele>
        <time>2018-06-23T11:57:16Z</time>
      </trkpt>
      <trkpt lat="44.72415" lon="5.64704">
        <ele>2048.71</ele>
        <time>2018-06-23T11:57:43Z</time>
      </trkpt>
      <trkpt lat="44.72415" lon="5.64704">
        <ele>2048.23</ele>
        <time>2018-06-23T11:58:15Z</time>
      </trkpt>
      <trkpt lat="44.72415" lon="5.64703">
        <ele>2048.23</ele>
        <time>2018-06-23T11:58:44Z</time>
      </trkpt>
      <trkpt lat="44.72415" lon="5.64703">
        <ele>2048.23</ele>
        <time>2018-06-23T11:59:12Z</time>
      </trkpt>
      <trkpt lat="44.72415" lon="5.64703">
        <ele>2048.23</ele>
        <time>2018-06-23T11:59:36Z</time>
      </trkpt>
      <trkpt lat="44.72415" lon="5.64703">
        <ele>2048.23</ele>
        <time>2018-06-23T12:00:05Z</time>
      </trkpt>
      <trkpt lat="44.72415" lon="5.64703">
        <ele>2048.23</ele>
        <time>2018-06-23T12:00:33Z</time>
      </trkpt>
      <trkpt lat="44.72415" lon="5.64703">
        <ele>2048.23</ele>
        <time>2018-06-23T12:00:59Z</time>
      </trkpt>
      <trkpt lat="44.72415" lon="5.64703">
        <ele>2048.23</ele>
        <time>2018-06-23T12:01:25Z</time>
      </trkpt>
      <trkpt lat="44.72415" lon="5.64702">
        <ele>2048.23</ele>
        <time>2018-06-23T12:01:50Z</time>
      </trkpt>
      <trkpt lat="44.72415" lon="5.64703">
        <ele>2048.71</ele>
        <time>2018-06-23T12:02:19Z</time>
      </trkpt>
      <trkpt lat="44.72415" lon="5.64703">
        <ele>2048.71</ele>
        <time>2018-06-23T12:02:48Z</time>
      </trkpt>
      <trkpt lat="44.72415" lon="5.64703">
        <ele>2048.71</ele>
        <time>2018-06-23T12:03:18Z</time>
      </trkpt>
      <trkpt lat="44.72415" lon="5.64703">
        <ele>2048.71</ele>
        <time>2018-06-23T12:03:47Z</time>
      </trkpt>
      <trkpt lat="44.72415" lon="5.64703">
        <ele>2048.71</ele>
        <time>2018-06-23T12:04:13Z</time>
      </trkpt>
      <trkpt lat="44.72415" lon="5.64703">
        <ele>2048.71</ele>
        <time>2018-06-23T12:04:40Z</time>
      </trkpt>
      <trkpt lat="44.72415" lon="5.64703">
        <ele>2048.71</ele>
        <time>2018-06-23T12:05:09Z</time>
      </trkpt>
      <trkpt lat="44.72415" lon="5.64703">
        <ele>2048.23</ele>
        <time>2018-06-23T12:05:37Z</time>
      </trkpt>
      <trkpt lat="44.72415" lon="5.64703">
        <ele>2048.23</ele>
        <time>2018-06-23T12:06:04Z</time>
      </trkpt>
      <trkpt lat="44.72415" lon="5.64704">
        <ele>2048.23</ele>
        <time>2018-06-23T12:06:36Z</time>
      </trkpt>
      <trkpt lat="44.72415" lon="5.64704">
        <ele>2048.23</ele>
        <time>2018-06-23T12:07:09Z</time>
      </trkpt>
      <trkpt lat="44.72415" lon="5.64704">
        <ele>2048.71</ele>
        <time>2018-06-23T12:07:33Z</time>
      </trkpt>
      <trkpt lat="44.72415" lon="5.64704">
        <ele>2048.71</ele>
        <time>2018-06-23T12:08:02Z</time>
      </trkpt>
      <trkpt lat="44.72415" lon="5.64704">
        <ele>2048.23</ele>
        <time>2018-06-23T12:08:30Z</time>
      </trkpt>
      <trkpt lat="44.72415" lon="5.64703">
        <ele>2048.23</ele>
        <time>2018-06-23T12:08:52Z</time>
      </trkpt>
      <trkpt lat="44.72415" lon="5.64704">
        <ele>2048.23</ele>
        <time>2018-06-23T12:09:18Z</time>
      </trkpt>
      <trkpt lat="44.72415" lon="5.64704">
        <ele>2048.23</ele>
        <time>2018-06-23T12:09:47Z</time>
      </trkpt>
      <trkpt lat="44.72415" lon="5.64704">
        <ele>2048.71</ele>
        <time>2018-06-23T12:10:11Z</time>
      </trkpt>
      <trkpt lat="44.72414" lon="5.64704">
        <ele>2049.67</ele>
        <time>2018-06-23T12:10:19Z</time>
      </trkpt>
      <trkpt lat="44.72414" lon="5.64704">
        <ele>2050.15</ele>
        <time>2018-06-23T12:10:31Z</time>
      </trkpt>
      <trkpt lat="44.72408" lon="5.64707">
        <ele>2050.63</ele>
        <time>2018-06-23T12:10:42Z</time>
      </trkpt>
      <trkpt lat="44.72408" lon="5.64706">
        <ele>2050.63</ele>
        <time>2018-06-23T12:11:00Z</time>
      </trkpt>
      <trkpt lat="44.72408" lon="5.64706">
        <ele>2050.15</ele>
        <time>2018-06-23T12:11:10Z</time>
      </trkpt>
      <trkpt lat="44.72407" lon="5.64706">
        <ele>2050.15</ele>
        <time>2018-06-23T12:11:29Z</time>
      </trkpt>
      <trkpt lat="44.72407" lon="5.64707">
        <ele>2049.67</ele>
        <time>2018-06-23T12:11:44Z</time>
      </trkpt>
      <trkpt lat="44.72399" lon="5.64705">
        <ele>2047.75</ele>
        <time>2018-06-23T12:11:55Z</time>
      </trkpt>
      <trkpt lat="44.7239" lon="5.64702">
        <ele>2045.82</ele>
        <time>2018-06-23T12:12:07Z</time>
      </trkpt>
      <trkpt lat="44.72383" lon="5.64698">
        <ele>2043.9</ele>
        <time>2018-06-23T12:12:18Z</time>
      </trkpt>
      <trkpt lat="44.72382" lon="5.64698">
        <ele>2042.94</ele>
        <time>2018-06-23T12:12:20Z</time>
      </trkpt>
      <trkpt lat="44.72379" lon="5.64697">
        <ele>2041.98</ele>
        <time>2018-06-23T12:12:31Z</time>
      </trkpt>
      <trkpt lat="44.72376" lon="5.64697">
        <ele>2041.02</ele>
        <time>2018-06-23T12:12:41Z</time>
      </trkpt>
      <trkpt lat="44.72368" lon="5.64696">
        <ele>2038.61</ele>
        <time>2018-06-23T12:12:52Z</time>
      </trkpt>
      <trkpt lat="44.72366" lon="5.64696">
        <ele>2037.65</ele>
        <time>2018-06-23T12:13:04Z</time>
      </trkpt>
      <trkpt lat="44.72365" lon="5.64696">
        <ele>2035.73</ele>
        <time>2018-06-23T12:13:18Z</time>
      </trkpt>
      <trkpt lat="44.72362" lon="5.64696">
        <ele>2034.77</ele>
        <time>2018-06-23T12:13:29Z</time>
      </trkpt>
      <trkpt lat="44.72358" lon="5.64696">
        <ele>2032.84</ele>
        <time>2018-06-23T12:13:39Z</time>
      </trkpt>
      <trkpt lat="44.72355" lon="5.64696">
        <ele>2032.36</ele>
        <time>2018-06-23T12:13:51Z</time>
      </trkpt>
      <trkpt lat="44.7235" lon="5.64697">
        <ele>2030.44</ele>
        <time>2018-06-23T12:14:01Z</time>
      </trkpt>
      <trkpt lat="44.72343" lon="5.64693">
        <ele>2029</ele>
        <time>2018-06-23T12:14:10Z</time>
      </trkpt>
      <trkpt lat="44.72337" lon="5.6469">
        <ele>2027.08</ele>
        <time>2018-06-23T12:14:21Z</time>
      </trkpt>
      <trkpt lat="44.72332" lon="5.64688">
        <ele>2024.67</ele>
        <time>2018-06-23T12:14:31Z</time>
      </trkpt>
      <trkpt lat="44.72324" lon="5.64683">
        <ele>2023.71</ele>
        <time>2018-06-23T12:14:41Z</time>
      </trkpt>
      <trkpt lat="44.72321" lon="5.64682">
        <ele>2022.75</ele>
        <time>2018-06-23T12:14:45Z</time>
      </trkpt>
      <trkpt lat="44.72311" lon="5.6468">
        <ele>2020.83</ele>
        <time>2018-06-23T12:14:56Z</time>
      </trkpt>
      <trkpt lat="44.72307" lon="5.6468">
        <ele>2019.87</ele>
        <time>2018-06-23T12:15:01Z</time>
      </trkpt>
      <trkpt lat="44.72302" lon="5.6468">
        <ele>2019.87</ele>
        <time>2018-06-23T12:15:05Z</time>
      </trkpt>
      <trkpt lat="44.72289" lon="5.64682">
        <ele>2018.43</ele>
        <time>2018-06-23T12:15:18Z</time>
      </trkpt>
      <trkpt lat="44.72287" lon="5.64682">
        <ele>2019.87</ele>
        <time>2018-06-23T12:15:20Z</time>
      </trkpt>
      <trkpt lat="44.72275" lon="5.64681">
        <ele>2018.43</ele>
        <time>2018-06-23T12:15:32Z</time>
      </trkpt>
      <trkpt lat="44.72265" lon="5.64682">
        <ele>2016.5</ele>
        <time>2018-06-23T12:15:45Z</time>
      </trkpt>
      <trkpt lat="44.72255" lon="5.64684">
        <ele>2014.58</ele>
        <time>2018-06-23T12:16:00Z</time>
      </trkpt>
      <trkpt lat="44.72246" lon="5.64685">
        <ele>2013.62</ele>
        <time>2018-06-23T12:16:12Z</time>
      </trkpt>
      <trkpt lat="44.7224" lon="5.64685">
        <ele>2011.22</ele>
        <time>2018-06-23T12:16:24Z</time>
      </trkpt>
      <trkpt lat="44.72229" lon="5.64685">
        <ele>2009.77</ele>
        <time>2018-06-23T12:16:36Z</time>
      </trkpt>
      <trkpt lat="44.7222" lon="5.64687">
        <ele>2007.85</ele>
        <time>2018-06-23T12:16:49Z</time>
      </trkpt>
      <trkpt lat="44.72212" lon="5.64688">
        <ele>2005.45</ele>
        <time>2018-06-23T12:17:00Z</time>
      </trkpt>
      <trkpt lat="44.72204" lon="5.64688">
        <ele>2003.04</ele>
        <time>2018-06-23T12:17:11Z</time>
      </trkpt>
      <trkpt lat="44.72198" lon="5.64688">
        <ele>2002.08</ele>
        <time>2018-06-23T12:17:21Z</time>
      </trkpt>
      <trkpt lat="44.72192" lon="5.64692">
        <ele>2001.12</ele>
        <time>2018-06-23T12:17:30Z</time>
      </trkpt>
      <trkpt lat="44.72189" lon="5.64692">
        <ele>1999.68</ele>
        <time>2018-06-23T12:17:36Z</time>
      </trkpt>
      <trkpt lat="44.7218" lon="5.64691">
        <ele>1998.72</ele>
        <time>2018-06-23T12:17:47Z</time>
      </trkpt>
      <trkpt lat="44.72173" lon="5.64691">
        <ele>1997.76</ele>
        <time>2018-06-23T12:17:55Z</time>
      </trkpt>
      <trkpt lat="44.72169" lon="5.64692">
        <ele>1996.8</ele>
        <time>2018-06-23T12:17:58Z</time>
      </trkpt>
      <trkpt lat="44.72161" lon="5.64691">
        <ele>1995.35</ele>
        <time>2018-06-23T12:18:09Z</time>
      </trkpt>
      <trkpt lat="44.72153" lon="5.64692">
        <ele>1993.43</ele>
        <time>2018-06-23T12:18:19Z</time>
      </trkpt>
      <trkpt lat="44.72152" lon="5.64693">
        <ele>1992.95</ele>
        <time>2018-06-23T12:18:20Z</time>
      </trkpt>
      <trkpt lat="44.72145" lon="5.64697">
        <ele>1992.95</ele>
        <time>2018-06-23T12:18:31Z</time>
      </trkpt>
      <trkpt lat="44.72142" lon="5.64702">
        <ele>1990.55</ele>
        <time>2018-06-23T12:18:42Z</time>
      </trkpt>
      <trkpt lat="44.72141" lon="5.64703">
        <ele>1990.07</ele>
        <time>2018-06-23T12:18:43Z</time>
      </trkpt>
      <trkpt lat="44.7214" lon="5.64708">
        <ele>1989.59</ele>
        <time>2018-06-23T12:18:52Z</time>
      </trkpt>
      <trkpt lat="44.7214" lon="5.64708">
        <ele>1989.59</ele>
        <time>2018-06-23T12:19:15Z</time>
      </trkpt>
      <trkpt lat="44.7214" lon="5.64708">
        <ele>1989.1</ele>
        <time>2018-06-23T12:19:41Z</time>
      </trkpt>
      <trkpt lat="44.7214" lon="5.64708">
        <ele>1990.07</ele>
        <time>2018-06-23T12:19:52Z</time>
      </trkpt>
      <trkpt lat="44.72133" lon="5.64707">
        <ele>1990.55</ele>
        <time>2018-06-23T12:20:03Z</time>
      </trkpt>
      <trkpt lat="44.72122" lon="5.64709">
        <ele>1989.59</ele>
        <time>2018-06-23T12:20:17Z</time>
      </trkpt>
      <trkpt lat="44.72117" lon="5.64711">
        <ele>1989.1</ele>
        <time>2018-06-23T12:20:23Z</time>
      </trkpt>
      <trkpt lat="44.72111" lon="5.64713">
        <ele>1988.14</ele>
        <time>2018-06-23T12:20:36Z</time>
      </trkpt>
      <trkpt lat="44.7211" lon="5.64712">
        <ele>1988.14</ele>
        <time>2018-06-23T12:20:56Z</time>
      </trkpt>
      <trkpt lat="44.7211" lon="5.64712">
        <ele>1988.62</ele>
        <time>2018-06-23T12:21:13Z</time>
      </trkpt>
      <trkpt lat="44.72109" lon="5.64713">
        <ele>1988.62</ele>
        <time>2018-06-23T12:21:33Z</time>
      </trkpt>
      <trkpt lat="44.72111" lon="5.64713">
        <ele>1988.62</ele>
        <time>2018-06-23T12:21:41Z</time>
      </trkpt>
      <trkpt lat="44.72111" lon="5.64712">
        <ele>1988.62</ele>
        <time>2018-06-23T12:21:55Z</time>
      </trkpt>
      <trkpt lat="44.7211" lon="5.64712">
        <ele>1988.62</ele>
        <time>2018-06-23T12:22:21Z</time>
      </trkpt>
      <trkpt lat="44.72107" lon="5.64714">
        <ele>1987.66</ele>
        <time>2018-06-23T12:22:43Z</time>
      </trkpt>
      <trkpt lat="44.72104" lon="5.64713">
        <ele>1987.18</ele>
        <time>2018-06-23T12:22:54Z</time>
      </trkpt>
      <trkpt lat="44.72103" lon="5.64713">
        <ele>1987.66</ele>
        <time>2018-06-23T12:23:03Z</time>
      </trkpt>
      <trkpt lat="44.721" lon="5.64714">
        <ele>1986.22</ele>
        <time>2018-06-23T12:23:10Z</time>
      </trkpt>
      <trkpt lat="44.72091" lon="5.64717">
        <ele>1985.74</ele>
        <time>2018-06-23T12:23:20Z</time>
      </trkpt>
      <trkpt lat="44.72086" lon="5.64719">
        <ele>1984.3</ele>
        <time>2018-06-23T12:23:26Z</time>
      </trkpt>
      <trkpt lat="44.72085" lon="5.64719">
        <ele>1983.82</ele>
        <time>2018-06-23T12:23:30Z</time>
      </trkpt>
      <trkpt lat="44.7208" lon="5.6472">
        <ele>1983.34</ele>
        <time>2018-06-23T12:23:35Z</time>
      </trkpt>
      <trkpt lat="44.72076" lon="5.64723">
        <ele>1982.38</ele>
        <time>2018-06-23T12:23:47Z</time>
      </trkpt>
      <trkpt lat="44.72066" lon="5.64726">
        <ele>1979.97</ele>
        <time>2018-06-23T12:24:00Z</time>
      </trkpt>
      <trkpt lat="44.7206" lon="5.64728">
        <ele>1979.01</ele>
        <time>2018-06-23T12:24:11Z</time>
      </trkpt>
      <trkpt lat="44.72054" lon="5.64729">
        <ele>1977.09</ele>
        <time>2018-06-23T12:24:22Z</time>
      </trkpt>
      <trkpt lat="44.72046" lon="5.64727">
        <ele>1974.69</ele>
        <time>2018-06-23T12:24:33Z</time>
      </trkpt>
      <trkpt lat="44.72045" lon="5.64727">
        <ele>1974.69</ele>
        <time>2018-06-23T12:24:34Z</time>
      </trkpt>
      <trkpt lat="44.72034" lon="5.64727">
        <ele>1971.8</ele>
        <time>2018-06-23T12:24:48Z</time>
      </trkpt>
      <trkpt lat="44.72024" lon="5.64727">
        <ele>1970.36</ele>
        <time>2018-06-23T12:25:01Z</time>
      </trkpt>
      <trkpt lat="44.72022" lon="5.64727">
        <ele>1968.92</ele>
        <time>2018-06-23T12:25:11Z</time>
      </trkpt>
      <trkpt lat="44.7202" lon="5.64727">
        <ele>1968.92</ele>
        <time>2018-06-23T12:25:21Z</time>
      </trkpt>
      <trkpt lat="44.72016" lon="5.64728">
        <ele>1967.96</ele>
        <time>2018-06-23T12:25:32Z</time>
      </trkpt>
      <trkpt lat="44.72013" lon="5.64727">
        <ele>1966.51</ele>
        <time>2018-06-23T12:25:36Z</time>
      </trkpt>
      <trkpt lat="44.72006" lon="5.64726">
        <ele>1966.03</ele>
        <time>2018-06-23T12:25:45Z</time>
      </trkpt>
      <trkpt lat="44.71996" lon="5.64728">
        <ele>1962.67</ele>
        <time>2018-06-23T12:25:58Z</time>
      </trkpt>
      <trkpt lat="44.71989" lon="5.64725">
        <ele>1959.3</ele>
        <time>2018-06-23T12:26:10Z</time>
      </trkpt>
      <trkpt lat="44.7198" lon="5.64722">
        <ele>1956.42</ele>
        <time>2018-06-23T12:26:21Z</time>
      </trkpt>
      <trkpt lat="44.71972" lon="5.64717">
        <ele>1953.06</ele>
        <time>2018-06-23T12:26:31Z</time>
      </trkpt>
      <trkpt lat="44.71964" lon="5.64713">
        <ele>1949.69</ele>
        <time>2018-06-23T12:26:42Z</time>
      </trkpt>
      <trkpt lat="44.71957" lon="5.64709">
        <ele>1947.29</ele>
        <time>2018-06-23T12:26:52Z</time>
      </trkpt>
      <trkpt lat="44.71949" lon="5.64705">
        <ele>1944.88</ele>
        <time>2018-06-23T12:27:01Z</time>
      </trkpt>
      <trkpt lat="44.7194" lon="5.64699">
        <ele>1942.96</ele>
        <time>2018-06-23T12:27:10Z</time>
      </trkpt>
      <trkpt lat="44.71935" lon="5.64697">
        <ele>1942</ele>
        <time>2018-06-23T12:27:15Z</time>
      </trkpt>
      <trkpt lat="44.71932" lon="5.64695">
        <ele>1941.52</ele>
        <time>2018-06-23T12:27:18Z</time>
      </trkpt>
      <trkpt lat="44.71922" lon="5.6469">
        <ele>1939.12</ele>
        <time>2018-06-23T12:27:29Z</time>
      </trkpt>
      <trkpt lat="44.71911" lon="5.64683">
        <ele>1937.67</ele>
        <time>2018-06-23T12:27:40Z</time>
      </trkpt>
      <trkpt lat="44.71902" lon="5.64678">
        <ele>1936.23</ele>
        <time>2018-06-23T12:27:49Z</time>
      </trkpt>
      <trkpt lat="44.71892" lon="5.64672">
        <ele>1934.79</ele>
        <time>2018-06-23T12:27:59Z</time>
      </trkpt>
      <trkpt lat="44.7188" lon="5.64665">
        <ele>1932.87</ele>
        <time>2018-06-23T12:28:10Z</time>
      </trkpt>
      <trkpt lat="44.71868" lon="5.6466">
        <ele>1932.39</ele>
        <time>2018-06-23T12:28:21Z</time>
      </trkpt>
      <trkpt lat="44.71857" lon="5.64653">
        <ele>1930.95</ele>
        <time>2018-06-23T12:28:32Z</time>
      </trkpt>
      <trkpt lat="44.71846" lon="5.64647">
        <ele>1929.5</ele>
        <time>2018-06-23T12:28:43Z</time>
      </trkpt>
      <trkpt lat="44.71838" lon="5.64639">
        <ele>1928.54</ele>
        <time>2018-06-23T12:28:53Z</time>
      </trkpt>
      <trkpt lat="44.71828" lon="5.64633">
        <ele>1929.5</ele>
        <time>2018-06-23T12:29:03Z</time>
      </trkpt>
      <trkpt lat="44.71818" lon="5.6463">
        <ele>1929.5</ele>
        <time>2018-06-23T12:29:15Z</time>
      </trkpt>
      <trkpt lat="44.71813" lon="5.64631">
        <ele>1929.5</ele>
        <time>2018-06-23T12:29:25Z</time>
      </trkpt>
      <trkpt lat="44.71814" lon="5.6463">
        <ele>1929.98</ele>
        <time>2018-06-23T12:29:42Z</time>
      </trkpt>
      <trkpt lat="44.71818" lon="5.64629">
        <ele>1930.46</ele>
        <time>2018-06-23T12:29:54Z</time>
      </trkpt>
      <trkpt lat="44.7182" lon="5.64629">
        <ele>1928.54</ele>
        <time>2018-06-23T12:30:11Z</time>
      </trkpt>
      <trkpt lat="44.71815" lon="5.64628">
        <ele>1929.5</ele>
        <time>2018-06-23T12:30:23Z</time>
      </trkpt>
      <trkpt lat="44.71805" lon="5.64626">
        <ele>1929.02</ele>
        <time>2018-06-23T12:30:33Z</time>
      </trkpt>
      <trkpt lat="44.71797" lon="5.64623">
        <ele>1929.5</ele>
        <time>2018-06-23T12:30:42Z</time>
      </trkpt>
      <trkpt lat="44.71792" lon="5.64621">
        <ele>1928.54</ele>
        <time>2018-06-23T12:30:46Z</time>
      </trkpt>
      <trkpt lat="44.71781" lon="5.64616">
        <ele>1929.98</ele>
        <time>2018-06-23T12:30:58Z</time>
      </trkpt>
      <trkpt lat="44.71771" lon="5.6461">
        <ele>1930.46</ele>
        <time>2018-06-23T12:31:09Z</time>
      </trkpt>
      <trkpt lat="44.71764" lon="5.64604">
        <ele>1930.95</ele>
        <time>2018-06-23T12:31:17Z</time>
      </trkpt>
      <trkpt lat="44.7176" lon="5.64601">
        <ele>1931.91</ele>
        <time>2018-06-23T12:31:21Z</time>
      </trkpt>
      <trkpt lat="44.71755" lon="5.64597">
        <ele>1931.91</ele>
        <time>2018-06-23T12:31:27Z</time>
      </trkpt>
      <trkpt lat="44.71747" lon="5.64594">
        <ele>1933.35</ele>
        <time>2018-06-23T12:31:38Z</time>
      </trkpt>
      <trkpt lat="44.71745" lon="5.64595">
        <ele>1933.83</ele>
        <time>2018-06-23T12:31:46Z</time>
      </trkpt>
      <trkpt lat="44.71735" lon="5.64594">
        <ele>1933.35</ele>
        <time>2018-06-23T12:31:58Z</time>
      </trkpt>
      <trkpt lat="44.71724" lon="5.64588">
        <ele>1934.31</ele>
        <time>2018-06-23T12:32:09Z</time>
      </trkpt>
      <trkpt lat="44.71714" lon="5.64587">
        <ele>1934.79</ele>
        <time>2018-06-23T12:32:20Z</time>
      </trkpt>
      <trkpt lat="44.71705" lon="5.64586">
        <ele>1935.27</ele>
        <time>2018-06-23T12:32:31Z</time>
      </trkpt>
      <trkpt lat="44.71697" lon="5.64588">
        <ele>1935.75</ele>
        <time>2018-06-23T12:32:42Z</time>
      </trkpt>
      <trkpt lat="44.71696" lon="5.64589">
        <ele>1936.23</ele>
        <time>2018-06-23T12:32:44Z</time>
      </trkpt>
      <trkpt lat="44.71692" lon="5.64591">
        <ele>1935.75</ele>
        <time>2018-06-23T12:32:48Z</time>
      </trkpt>
      <trkpt lat="44.71684" lon="5.64593">
        <ele>1936.71</ele>
        <time>2018-06-23T12:32:59Z</time>
      </trkpt>
      <trkpt lat="44.71674" lon="5.64594">
        <ele>1935.27</ele>
        <time>2018-06-23T12:33:11Z</time>
      </trkpt>
      <trkpt lat="44.71672" lon="5.64596">
        <ele>1935.27</ele>
        <time>2018-06-23T12:33:24Z</time>
      </trkpt>
      <trkpt lat="44.71669" lon="5.64596">
        <ele>1935.27</ele>
        <time>2018-06-23T12:33:34Z</time>
      </trkpt>
      <trkpt lat="44.7166" lon="5.64597">
        <ele>1936.23</ele>
        <time>2018-06-23T12:33:46Z</time>
      </trkpt>
      <trkpt lat="44.71646" lon="5.646">
        <ele>1935.75</ele>
        <time>2018-06-23T12:34:01Z</time>
      </trkpt>
      <trkpt lat="44.71634" lon="5.64603">
        <ele>1935.27</ele>
        <time>2018-06-23T12:34:12Z</time>
      </trkpt>
      <trkpt lat="44.71625" lon="5.64605">
        <ele>1936.23</ele>
        <time>2018-06-23T12:34:22Z</time>
      </trkpt>
      <trkpt lat="44.71614" lon="5.64607">
        <ele>1937.19</ele>
        <time>2018-06-23T12:34:33Z</time>
      </trkpt>
      <trkpt lat="44.71612" lon="5.64607">
        <ele>1937.19</ele>
        <time>2018-06-23T12:34:35Z</time>
      </trkpt>
      <trkpt lat="44.716" lon="5.64613">
        <ele>1938.16</ele>
        <time>2018-06-23T12:34:48Z</time>
      </trkpt>
      <trkpt lat="44.71589" lon="5.64614">
        <ele>1940.08</ele>
        <time>2018-06-23T12:35:00Z</time>
      </trkpt>
      <trkpt lat="44.71587" lon="5.64614">
        <ele>1939.6</ele>
        <time>2018-06-23T12:35:02Z</time>
      </trkpt>
      <trkpt lat="44.71572" lon="5.64615">
        <ele>1942</ele>
        <time>2018-06-23T12:35:18Z</time>
      </trkpt>
      <trkpt lat="44.71563" lon="5.64614">
        <ele>1942.48</ele>
        <time>2018-06-23T12:35:29Z</time>
      </trkpt>
      <trkpt lat="44.7156" lon="5.64613">
        <ele>1942.96</ele>
        <time>2018-06-23T12:35:32Z</time>
      </trkpt>
      <trkpt lat="44.71552" lon="5.64614">
        <ele>1944.88</ele>
        <time>2018-06-23T12:35:43Z</time>
      </trkpt>
      <trkpt lat="44.71545" lon="5.64613">
        <ele>1946.33</ele>
        <time>2018-06-23T12:35:54Z</time>
      </trkpt>
      <trkpt lat="44.71542" lon="5.64613">
        <ele>1948.73</ele>
        <time>2018-06-23T12:36:04Z</time>
      </trkpt>
      <trkpt lat="44.71542" lon="5.64613">
        <ele>1947.77</ele>
        <time>2018-06-23T12:36:23Z</time>
      </trkpt>
      <trkpt lat="44.71542" lon="5.64613">
        <ele>1947.29</ele>
        <time>2018-06-23T12:36:43Z</time>
      </trkpt>
      <trkpt lat="44.71541" lon="5.64612">
        <ele>1945.85</ele>
        <time>2018-06-23T12:37:09Z</time>
      </trkpt>
      <trkpt lat="44.71541" lon="5.64611">
        <ele>1945.85</ele>
        <time>2018-06-23T12:37:10Z</time>
      </trkpt>
      <trkpt lat="44.71538" lon="5.64604">
        <ele>1944.88</ele>
        <time>2018-06-23T12:37:21Z</time>
      </trkpt>
      <trkpt lat="44.71539" lon="5.646">
        <ele>1943.92</ele>
        <time>2018-06-23T12:37:26Z</time>
      </trkpt>
      <trkpt lat="44.71535" lon="5.64595">
        <ele>1943.92</ele>
        <time>2018-06-23T12:37:35Z</time>
      </trkpt>
      <trkpt lat="44.71533" lon="5.64593">
        <ele>1940.56</ele>
        <time>2018-06-23T12:37:43Z</time>
      </trkpt>
      <trkpt lat="44.71532" lon="5.64589">
        <ele>1940.08</ele>
        <time>2018-06-23T12:37:50Z</time>
      </trkpt>
      <trkpt lat="44.71528" lon="5.64584">
        <ele>1939.6</ele>
        <time>2018-06-23T12:38:01Z</time>
      </trkpt>
      <trkpt lat="44.71525" lon="5.64581">
        <ele>1937.67</ele>
        <time>2018-06-23T12:38:06Z</time>
      </trkpt>
      <trkpt lat="44.71518" lon="5.64574">
        <ele>1936.23</ele>
        <time>2018-06-23T12:38:18Z</time>
      </trkpt>
      <trkpt lat="44.71517" lon="5.64574">
        <ele>1935.27</ele>
        <time>2018-06-23T12:38:20Z</time>
      </trkpt>
      <trkpt lat="44.71512" lon="5.64569">
        <ele>1934.79</ele>
        <time>2018-06-23T12:38:29Z</time>
      </trkpt>
      <trkpt lat="44.71511" lon="5.64568">
        <ele>1933.83</ele>
        <time>2018-06-23T12:38:31Z</time>
      </trkpt>
      <trkpt lat="44.71505" lon="5.64566">
        <ele>1931.43</ele>
        <time>2018-06-23T12:38:43Z</time>
      </trkpt>
      <trkpt lat="44.71501" lon="5.64562">
        <ele>1929.98</ele>
        <time>2018-06-23T12:38:55Z</time>
      </trkpt>
      <trkpt lat="44.71494" lon="5.64559">
        <ele>1929.98</ele>
        <time>2018-06-23T12:39:05Z</time>
      </trkpt>
      <trkpt lat="44.71491" lon="5.64559">
        <ele>1929.02</ele>
        <time>2018-06-23T12:39:20Z</time>
      </trkpt>
      <trkpt lat="44.7149" lon="5.64558">
        <ele>1928.06</ele>
        <time>2018-06-23T12:39:25Z</time>
      </trkpt>
      <trkpt lat="44.71487" lon="5.64557">
        <ele>1928.54</ele>
        <time>2018-06-23T12:39:36Z</time>
      </trkpt>
      <trkpt lat="44.71481" lon="5.64557">
        <ele>1925.18</ele>
        <time>2018-06-23T12:39:44Z</time>
      </trkpt>
      <trkpt lat="44.71476" lon="5.64554">
        <ele>1923.25</ele>
        <time>2018-06-23T12:39:54Z</time>
      </trkpt>
      <trkpt lat="44.71476" lon="5.64553">
        <ele>1922.77</ele>
        <time>2018-06-23T12:39:55Z</time>
      </trkpt>
      <trkpt lat="44.71474" lon="5.64552">
        <ele>1925.18</ele>
        <time>2018-06-23T12:39:59Z</time>
      </trkpt>
      <trkpt lat="44.71474" lon="5.64551">
        <ele>1921.81</ele>
        <time>2018-06-23T12:40:08Z</time>
      </trkpt>
      <trkpt lat="44.71473" lon="5.64551">
        <ele>1922.77</ele>
        <time>2018-06-23T12:40:09Z</time>
      </trkpt>
      <trkpt lat="44.71473" lon="5.6455">
        <ele>1924.22</ele>
        <time>2018-06-23T12:40:12Z</time>
      </trkpt>
      <trkpt lat="44.71473" lon="5.6455">
        <ele>1922.29</ele>
        <time>2018-06-23T12:40:17Z</time>
      </trkpt>
      <trkpt lat="44.71466" lon="5.64544">
        <ele>1920.37</ele>
        <time>2018-06-23T12:40:28Z</time>
      </trkpt>
      <trkpt lat="44.7146" lon="5.64535">
        <ele>1918.93</ele>
        <time>2018-06-23T12:40:38Z</time>
      </trkpt>
      <trkpt lat="44.71455" lon="5.6453">
        <ele>1916.53</ele>
        <time>2018-06-23T12:40:50Z</time>
      </trkpt>
      <trkpt lat="44.71448" lon="5.64524">
        <ele>1915.56</ele>
        <time>2018-06-23T12:41:01Z</time>
      </trkpt>
      <trkpt lat="44.71442" lon="5.64518">
        <ele>1914.6</ele>
        <time>2018-06-23T12:41:11Z</time>
      </trkpt>
      <trkpt lat="44.7144" lon="5.64513">
        <ele>1910.76</ele>
        <time>2018-06-23T12:41:19Z</time>
      </trkpt>
      <trkpt lat="44.71439" lon="5.6451">
        <ele>1912.68</ele>
        <time>2018-06-23T12:41:26Z</time>
      </trkpt>
      <trkpt lat="44.71439" lon="5.64507">
        <ele>1908.83</ele>
        <time>2018-06-23T12:41:30Z</time>
      </trkpt>
      <trkpt lat="44.71434" lon="5.645">
        <ele>1906.43</ele>
        <time>2018-06-23T12:41:41Z</time>
      </trkpt>
      <trkpt lat="44.71432" lon="5.64497">
        <ele>1904.99</ele>
        <time>2018-06-23T12:41:44Z</time>
      </trkpt>
      <trkpt lat="44.71428" lon="5.6449">
        <ele>1903.07</ele>
        <time>2018-06-23T12:41:54Z</time>
      </trkpt>
      <trkpt lat="44.71424" lon="5.64485">
        <ele>1902.11</ele>
        <time>2018-06-23T12:42:04Z</time>
      </trkpt>
      <trkpt lat="44.71424" lon="5.64485">
        <ele>1902.59</ele>
        <time>2018-06-23T12:42:06Z</time>
      </trkpt>
      <trkpt lat="44.71422" lon="5.64484">
        <ele>1901.63</ele>
        <time>2018-06-23T12:42:09Z</time>
      </trkpt>
      <trkpt lat="44.7142" lon="5.6448">
        <ele>1899.22</ele>
        <time>2018-06-23T12:42:19Z</time>
      </trkpt>
      <trkpt lat="44.7142" lon="5.64479">
        <ele>1897.3</ele>
        <time>2018-06-23T12:42:27Z</time>
      </trkpt>
      <trkpt lat="44.71417" lon="5.64475">
        <ele>1896.34</ele>
        <time>2018-06-23T12:42:38Z</time>
      </trkpt>
      <trkpt lat="44.71417" lon="5.64469">
        <ele>1893.45</ele>
        <time>2018-06-23T12:42:48Z</time>
      </trkpt>
      <trkpt lat="44.71416" lon="5.64464">
        <ele>1892.97</ele>
        <time>2018-06-23T12:42:56Z</time>
      </trkpt>
      <trkpt lat="44.71414" lon="5.64462">
        <ele>1891.05</ele>
        <time>2018-06-23T12:43:05Z</time>
      </trkpt>
      <trkpt lat="44.71414" lon="5.64459">
        <ele>1891.05</ele>
        <time>2018-06-23T12:43:18Z</time>
      </trkpt>
      <trkpt lat="44.71414" lon="5.64458">
        <ele>1889.61</ele>
        <time>2018-06-23T12:43:35Z</time>
      </trkpt>
      <trkpt lat="44.71413" lon="5.64458">
        <ele>1889.13</ele>
        <time>2018-06-23T12:43:37Z</time>
      </trkpt>
      <trkpt lat="44.71408" lon="5.64456">
        <ele>1887.69</ele>
        <time>2018-06-23T12:43:47Z</time>
      </trkpt>
      <trkpt lat="44.71402" lon="5.64455">
        <ele>1886.24</ele>
        <time>2018-06-23T12:43:56Z</time>
      </trkpt>
      <trkpt lat="44.71397" lon="5.64449">
        <ele>1884.8</ele>
        <time>2018-06-23T12:44:10Z</time>
      </trkpt>
      <trkpt lat="44.71392" lon="5.64439">
        <ele>1883.84</ele>
        <time>2018-06-23T12:44:20Z</time>
      </trkpt>
      <trkpt lat="44.71388" lon="5.64432">
        <ele>1881.92</ele>
        <time>2018-06-23T12:44:30Z</time>
      </trkpt>
      <trkpt lat="44.71386" lon="5.64423">
        <ele>1879.51</ele>
        <time>2018-06-23T12:44:40Z</time>
      </trkpt>
      <trkpt lat="44.71378" lon="5.64417">
        <ele>1879.03</ele>
        <time>2018-06-23T12:44:50Z</time>
      </trkpt>
      <trkpt lat="44.71374" lon="5.64414">
        <ele>1877.59</ele>
        <time>2018-06-23T12:45:01Z</time>
      </trkpt>
      <trkpt lat="44.7137" lon="5.6441">
        <ele>1875.67</ele>
        <time>2018-06-23T12:45:10Z</time>
      </trkpt>
      <trkpt lat="44.71369" lon="5.64402">
        <ele>1875.19</ele>
        <time>2018-06-23T12:45:22Z</time>
      </trkpt>
      <trkpt lat="44.71369" lon="5.644">
        <ele>1872.3</ele>
        <time>2018-06-23T12:45:26Z</time>
      </trkpt>
      <trkpt lat="44.71364" lon="5.64396">
        <ele>1871.82</ele>
        <time>2018-06-23T12:45:35Z</time>
      </trkpt>
      <trkpt lat="44.71355" lon="5.64389">
        <ele>1868.94</ele>
        <time>2018-06-23T12:45:47Z</time>
      </trkpt>
      <trkpt lat="44.71352" lon="5.64385">
        <ele>1867.5</ele>
        <time>2018-06-23T12:45:58Z</time>
      </trkpt>
      <trkpt lat="44.7135" lon="5.64383">
        <ele>1866.54</ele>
        <time>2018-06-23T12:46:09Z</time>
      </trkpt>
      <trkpt lat="44.71347" lon="5.64378">
        <ele>1866.06</ele>
        <time>2018-06-23T12:46:19Z</time>
      </trkpt>
      <trkpt lat="44.71341" lon="5.64375">
        <ele>1865.09</ele>
        <time>2018-06-23T12:46:28Z</time>
      </trkpt>
      <trkpt lat="44.71334" lon="5.64376">
        <ele>1862.69</ele>
        <time>2018-06-23T12:46:41Z</time>
      </trkpt>
      <trkpt lat="44.71334" lon="5.64376">
        <ele>1862.69</ele>
        <time>2018-06-23T12:46:56Z</time>
      </trkpt>
      <trkpt lat="44.71334" lon="5.64376">
        <ele>1861.25</ele>
        <time>2018-06-23T12:47:19Z</time>
      </trkpt>
      <trkpt lat="44.7133" lon="5.64373">
        <ele>1859.81</ele>
        <time>2018-06-23T12:47:29Z</time>
      </trkpt>
      <trkpt lat="44.71326" lon="5.64368">
        <ele>1857.4</ele>
        <time>2018-06-23T12:47:40Z</time>
      </trkpt>
      <trkpt lat="44.7132" lon="5.64367">
        <ele>1856.92</ele>
        <time>2018-06-23T12:47:53Z</time>
      </trkpt>
      <trkpt lat="44.71318" lon="5.64368">
        <ele>1856.92</ele>
        <time>2018-06-23T12:48:05Z</time>
      </trkpt>
      <trkpt lat="44.71319" lon="5.64368">
        <ele>1856.92</ele>
        <time>2018-06-23T12:48:25Z</time>
      </trkpt>
      <trkpt lat="44.71319" lon="5.64368">
        <ele>1856.44</ele>
        <time>2018-06-23T12:48:26Z</time>
      </trkpt>
      <trkpt lat="44.71318" lon="5.64369">
        <ele>1855.96</ele>
        <time>2018-06-23T12:48:32Z</time>
      </trkpt>
      <trkpt lat="44.71316" lon="5.64372">
        <ele>1855</ele>
        <time>2018-06-23T12:48:40Z</time>
      </trkpt>
      <trkpt lat="44.71314" lon="5.64372">
        <ele>1854.52</ele>
        <time>2018-06-23T12:48:54Z</time>
      </trkpt>
      <trkpt lat="44.71313" lon="5.64372">
        <ele>1854.04</ele>
        <time>2018-06-23T12:49:12Z</time>
      </trkpt>
      <trkpt lat="44.71312" lon="5.64371">
        <ele>1853.08</ele>
        <time>2018-06-23T12:49:22Z</time>
      </trkpt>
      <trkpt lat="44.71307" lon="5.64366">
        <ele>1851.64</ele>
        <time>2018-06-23T12:49:33Z</time>
      </trkpt>
      <trkpt lat="44.71301" lon="5.6436">
        <ele>1848.27</ele>
        <time>2018-06-23T12:49:42Z</time>
      </trkpt>
      <trkpt lat="44.71296" lon="5.64355">
        <ele>1846.35</ele>
        <time>2018-06-23T12:49:52Z</time>
      </trkpt>
      <trkpt lat="44.71292" lon="5.64351">
        <ele>1845.39</ele>
        <time>2018-06-23T12:50:01Z</time>
      </trkpt>
      <trkpt lat="44.7129" lon="5.64345">
        <ele>1843.95</ele>
        <time>2018-06-23T12:50:17Z</time>
      </trkpt>
      <trkpt lat="44.71288" lon="5.64342">
        <ele>1842.98</ele>
        <time>2018-06-23T12:50:26Z</time>
      </trkpt>
      <trkpt lat="44.71288" lon="5.64337">
        <ele>1839.62</ele>
        <time>2018-06-23T12:50:34Z</time>
      </trkpt>
      <trkpt lat="44.71282" lon="5.64329">
        <ele>1836.74</ele>
        <time>2018-06-23T12:50:46Z</time>
      </trkpt>
      <trkpt lat="44.71282" lon="5.64329">
        <ele>1836.26</ele>
        <time>2018-06-23T12:50:47Z</time>
      </trkpt>
      <trkpt lat="44.71274" lon="5.64323">
        <ele>1834.81</ele>
        <time>2018-06-23T12:50:56Z</time>
      </trkpt>
      <trkpt lat="44.71271" lon="5.6432">
        <ele>1833.37</ele>
        <time>2018-06-23T12:51:04Z</time>
      </trkpt>
      <trkpt lat="44.71266" lon="5.64317">
        <ele>1832.41</ele>
        <time>2018-06-23T12:51:13Z</time>
      </trkpt>
      <trkpt lat="44.71265" lon="5.64315">
        <ele>1832.41</ele>
        <time>2018-06-23T12:51:24Z</time>
      </trkpt>
      <trkpt lat="44.71265" lon="5.64314">
        <ele>1830.97</ele>
        <time>2018-06-23T12:51:35Z</time>
      </trkpt>
      <trkpt lat="44.71261" lon="5.6431">
        <ele>1829.53</ele>
        <time>2018-06-23T12:51:44Z</time>
      </trkpt>
      <trkpt lat="44.71256" lon="5.64304">
        <ele>1827.12</ele>
        <time>2018-06-23T12:51:55Z</time>
      </trkpt>
      <trkpt lat="44.7125" lon="5.64296">
        <ele>1825.68</ele>
        <time>2018-06-23T12:52:08Z</time>
      </trkpt>
      <trkpt lat="44.71247" lon="5.64294">
        <ele>1825.2</ele>
        <time>2018-06-23T12:52:19Z</time>
      </trkpt>
      <trkpt lat="44.71242" lon="5.6429">
        <ele>1823.28</ele>
        <time>2018-06-23T12:52:30Z</time>
      </trkpt>
      <trkpt lat="44.71238" lon="5.64284">
        <ele>1820.87</ele>
        <time>2018-06-23T12:52:40Z</time>
      </trkpt>
      <trkpt lat="44.71237" lon="5.64282">
        <ele>1819.43</ele>
        <time>2018-06-23T12:52:45Z</time>
      </trkpt>
      <trkpt lat="44.71232" lon="5.64278">
        <ele>1818.47</ele>
        <time>2018-06-23T12:52:55Z</time>
      </trkpt>
      <trkpt lat="44.7123" lon="5.64273">
        <ele>1817.51</ele>
        <time>2018-06-23T12:53:07Z</time>
      </trkpt>
      <trkpt lat="44.71228" lon="5.64271">
        <ele>1816.55</ele>
        <time>2018-06-23T12:53:19Z</time>
      </trkpt>
      <trkpt lat="44.71226" lon="5.64267">
        <ele>1816.07</ele>
        <time>2018-06-23T12:53:26Z</time>
      </trkpt>
      <trkpt lat="44.71218" lon="5.64261">
        <ele>1813.66</ele>
        <time>2018-06-23T12:53:36Z</time>
      </trkpt>
      <trkpt lat="44.71216" lon="5.64258">
        <ele>1812.7</ele>
        <time>2018-06-23T12:53:41Z</time>
      </trkpt>
      <trkpt lat="44.7121" lon="5.64251">
        <ele>1811.26</ele>
        <time>2018-06-23T12:53:53Z</time>
      </trkpt>
      <trkpt lat="44.71204" lon="5.64244">
        <ele>1807.9</ele>
        <time>2018-06-23T12:54:05Z</time>
      </trkpt>
      <trkpt lat="44.71198" lon="5.64239">
        <ele>1806.94</ele>
        <time>2018-06-23T12:54:15Z</time>
      </trkpt>
      <trkpt lat="44.71198" lon="5.64239">
        <ele>1806.45</ele>
        <time>2018-06-23T12:54:16Z</time>
      </trkpt>
      <trkpt lat="44.71194" lon="5.64234">
        <ele>1804.05</ele>
        <time>2018-06-23T12:54:22Z</time>
      </trkpt>
      <trkpt lat="44.71187" lon="5.64228">
        <ele>1803.57</ele>
        <time>2018-06-23T12:54:33Z</time>
      </trkpt>
      <trkpt lat="44.71181" lon="5.64221">
        <ele>1801.17</ele>
        <time>2018-06-23T12:54:45Z</time>
      </trkpt>
      <trkpt lat="44.71173" lon="5.64213">
        <ele>1800.21</ele>
        <time>2018-06-23T12:54:58Z</time>
      </trkpt>
      <trkpt lat="44.71168" lon="5.64207">
        <ele>1798.76</ele>
        <time>2018-06-23T12:55:08Z</time>
      </trkpt>
      <trkpt lat="44.71162" lon="5.64204">
        <ele>1798.28</ele>
        <time>2018-06-23T12:55:21Z</time>
      </trkpt>
      <trkpt lat="44.71161" lon="5.64202">
        <ele>1796.84</ele>
        <time>2018-06-23T12:55:26Z</time>
      </trkpt>
      <trkpt lat="44.71161" lon="5.64201">
        <ele>1797.32</ele>
        <time>2018-06-23T12:55:39Z</time>
      </trkpt>
      <trkpt lat="44.7116" lon="5.64198">
        <ele>1795.88</ele>
        <time>2018-06-23T12:55:49Z</time>
      </trkpt>
      <trkpt lat="44.71163" lon="5.64199">
        <ele>1795.88</ele>
        <time>2018-06-23T12:56:03Z</time>
      </trkpt>
      <trkpt lat="44.71167" lon="5.64196">
        <ele>1793.96</ele>
        <time>2018-06-23T12:56:15Z</time>
      </trkpt>
      <trkpt lat="44.71166" lon="5.64194">
        <ele>1793</ele>
        <time>2018-06-23T12:56:17Z</time>
      </trkpt>
      <trkpt lat="44.71164" lon="5.64193">
        <ele>1792.52</ele>
        <time>2018-06-23T12:56:27Z</time>
      </trkpt>
      <trkpt lat="44.71164" lon="5.64189">
        <ele>1792.03</ele>
        <time>2018-06-23T12:56:37Z</time>
      </trkpt>
      <trkpt lat="44.71164" lon="5.64187">
        <ele>1790.59</ele>
        <time>2018-06-23T12:56:39Z</time>
      </trkpt>
      <trkpt lat="44.71161" lon="5.64184">
        <ele>1789.63</ele>
        <time>2018-06-23T12:56:49Z</time>
      </trkpt>
      <trkpt lat="44.71159" lon="5.64182">
        <ele>1789.63</ele>
        <time>2018-06-23T12:57:00Z</time>
      </trkpt>
      <trkpt lat="44.71157" lon="5.6418">
        <ele>1790.11</ele>
        <time>2018-06-23T12:57:11Z</time>
      </trkpt>
      <trkpt lat="44.71153" lon="5.64176">
        <ele>1789.15</ele>
        <time>2018-06-23T12:57:21Z</time>
      </trkpt>
      <trkpt lat="44.71148" lon="5.64173">
        <ele>1788.19</ele>
        <time>2018-06-23T12:57:32Z</time>
      </trkpt>
      <trkpt lat="44.71147" lon="5.64171">
        <ele>1787.23</ele>
        <time>2018-06-23T12:57:45Z</time>
      </trkpt>
      <trkpt lat="44.71144" lon="5.64167">
        <ele>1785.31</ele>
        <time>2018-06-23T12:57:57Z</time>
      </trkpt>
      <trkpt lat="44.71142" lon="5.64163">
        <ele>1782.9</ele>
        <time>2018-06-23T12:58:10Z</time>
      </trkpt>
      <trkpt lat="44.71137" lon="5.64158">
        <ele>1781.46</ele>
        <time>2018-06-23T12:58:20Z</time>
      </trkpt>
      <trkpt lat="44.71136" lon="5.64154">
        <ele>1780.02</ele>
        <time>2018-06-23T12:58:31Z</time>
      </trkpt>
      <trkpt lat="44.71136" lon="5.64154">
        <ele>1779.54</ele>
        <time>2018-06-23T12:58:32Z</time>
      </trkpt>
      <trkpt lat="44.71133" lon="5.64149">
        <ele>1778.58</ele>
        <time>2018-06-23T12:58:42Z</time>
      </trkpt>
      <trkpt lat="44.71131" lon="5.64148">
        <ele>1778.1</ele>
        <time>2018-06-23T12:58:50Z</time>
      </trkpt>
      <trkpt lat="44.71127" lon="5.64143">
        <ele>1776.65</ele>
        <time>2018-06-23T12:58:58Z</time>
      </trkpt>
      <trkpt lat="44.71121" lon="5.64138">
        <ele>1773.77</ele>
        <time>2018-06-23T12:59:08Z</time>
      </trkpt>
      <trkpt lat="44.71112" lon="5.6413">
        <ele>1772.33</ele>
        <time>2018-06-23T12:59:18Z</time>
      </trkpt>
      <trkpt lat="44.71107" lon="5.64125">
        <ele>1771.85</ele>
        <time>2018-06-23T12:59:24Z</time>
      </trkpt>
      <trkpt lat="44.71103" lon="5.64122">
        <ele>1771.37</ele>
        <time>2018-06-23T12:59:29Z</time>
      </trkpt>
      <trkpt lat="44.71096" lon="5.64113">
        <ele>1770.41</ele>
        <time>2018-06-23T12:59:41Z</time>
      </trkpt>
      <trkpt lat="44.71085" lon="5.64105">
        <ele>1768</ele>
        <time>2018-06-23T12:59:54Z</time>
      </trkpt>
      <trkpt lat="44.71084" lon="5.64105">
        <ele>1767.52</ele>
        <time>2018-06-23T12:59:55Z</time>
      </trkpt>
      <trkpt lat="44.71081" lon="5.64103">
        <ele>1767.04</ele>
        <time>2018-06-23T12:59:59Z</time>
      </trkpt>
      <trkpt lat="44.71075" lon="5.64098">
        <ele>1764.64</ele>
        <time>2018-06-23T13:00:08Z</time>
      </trkpt>
      <trkpt lat="44.71074" lon="5.64097">
        <ele>1765.12</ele>
        <time>2018-06-23T13:00:09Z</time>
      </trkpt>
      <trkpt lat="44.71073" lon="5.64096">
        <ele>1764.64</ele>
        <time>2018-06-23T13:00:10Z</time>
      </trkpt>
      <trkpt lat="44.71071" lon="5.64094">
        <ele>1763.68</ele>
        <time>2018-06-23T13:00:12Z</time>
      </trkpt>
      <trkpt lat="44.71062" lon="5.64086">
        <ele>1763.2</ele>
        <time>2018-06-23T13:00:24Z</time>
      </trkpt>
      <trkpt lat="44.7105" lon="5.64076">
        <ele>1762.23</ele>
        <time>2018-06-23T13:00:39Z</time>
      </trkpt>
      <trkpt lat="44.71043" lon="5.6407">
        <ele>1761.27</ele>
        <time>2018-06-23T13:00:48Z</time>
      </trkpt>
      <trkpt lat="44.71034" lon="5.64059">
        <ele>1759.83</ele>
        <time>2018-06-23T13:00:59Z</time>
      </trkpt>
      <trkpt lat="44.71024" lon="5.6405">
        <ele>1758.87</ele>
        <time>2018-06-23T13:01:10Z</time>
      </trkpt>
      <trkpt lat="44.71023" lon="5.64047">
        <ele>1757.91</ele>
        <time>2018-06-23T13:01:12Z</time>
      </trkpt>
      <trkpt lat="44.71021" lon="5.64043">
        <ele>1757.91</ele>
        <time>2018-06-23T13:01:16Z</time>
      </trkpt>
      <trkpt lat="44.71009" lon="5.64034">
        <ele>1756.47</ele>
        <time>2018-06-23T13:01:29Z</time>
      </trkpt>
      <trkpt lat="44.71003" lon="5.6403">
        <ele>1755.5</ele>
        <time>2018-06-23T13:01:40Z</time>
      </trkpt>
      <trkpt lat="44.71002" lon="5.6403">
        <ele>1755.5</ele>
        <time>2018-06-23T13:01:53Z</time>
      </trkpt>
      <trkpt lat="44.71001" lon="5.64029">
        <ele>1754.06</ele>
        <time>2018-06-23T13:02:03Z</time>
      </trkpt>
      <trkpt lat="44.71002" lon="5.64029">
        <ele>1754.54</ele>
        <time>2018-06-23T13:02:24Z</time>
      </trkpt>
      <trkpt lat="44.71001" lon="5.6403">
        <ele>1753.58</ele>
        <time>2018-06-23T13:02:32Z</time>
      </trkpt>
      <trkpt lat="44.71001" lon="5.6403">
        <ele>1755.02</ele>
        <time>2018-06-23T13:02:57Z</time>
      </trkpt>
      <trkpt lat="44.71001" lon="5.6403">
        <ele>1754.06</ele>
        <time>2018-06-23T13:03:20Z</time>
      </trkpt>
      <trkpt lat="44.71001" lon="5.6403">
        <ele>1755.99</ele>
        <time>2018-06-23T13:03:40Z</time>
      </trkpt>
      <trkpt lat="44.71001" lon="5.6403">
        <ele>1755.5</ele>
        <time>2018-06-23T13:03:58Z</time>
      </trkpt>
      <trkpt lat="44.71001" lon="5.6403">
        <ele>1755.99</ele>
        <time>2018-06-23T13:04:12Z</time>
      </trkpt>
      <trkpt lat="44.71001" lon="5.6403">
        <ele>1755.5</ele>
        <time>2018-06-23T13:04:33Z</time>
      </trkpt>
      <trkpt lat="44.71001" lon="5.6403">
        <ele>1755.99</ele>
        <time>2018-06-23T13:04:50Z</time>
      </trkpt>
      <trkpt lat="44.71001" lon="5.6403">
        <ele>1754.54</ele>
        <time>2018-06-23T13:05:11Z</time>
      </trkpt>
      <trkpt lat="44.71001" lon="5.6403">
        <ele>1755.02</ele>
        <time>2018-06-23T13:05:34Z</time>
      </trkpt>
      <trkpt lat="44.71001" lon="5.6403">
        <ele>1755.5</ele>
        <time>2018-06-23T13:06:05Z</time>
      </trkpt>
      <trkpt lat="44.71" lon="5.64027">
        <ele>1755.5</ele>
        <time>2018-06-23T13:06:21Z</time>
      </trkpt>
      <trkpt lat="44.70999" lon="5.64027">
        <ele>1751.18</ele>
        <time>2018-06-23T13:06:22Z</time>
      </trkpt>
      <trkpt lat="44.70999" lon="5.64027">
        <ele>1755.5</ele>
        <time>2018-06-23T13:06:23Z</time>
      </trkpt>
      <trkpt lat="44.70995" lon="5.64024">
        <ele>1754.06</ele>
        <time>2018-06-23T13:06:28Z</time>
      </trkpt>
      <trkpt lat="44.70995" lon="5.64024">
        <ele>1750.7</ele>
        <time>2018-06-23T13:06:29Z</time>
      </trkpt>
      <trkpt lat="44.70994" lon="5.64023">
        <ele>1754.54</ele>
        <time>2018-06-23T13:06:30Z</time>
      </trkpt>
      <trkpt lat="44.70993" lon="5.64021">
        <ele>1751.18</ele>
        <time>2018-06-23T13:06:33Z</time>
      </trkpt>
      <trkpt lat="44.70992" lon="5.6402">
        <ele>1755.99</ele>
        <time>2018-06-23T13:06:35Z</time>
      </trkpt>
      <trkpt lat="44.70991" lon="5.64019">
        <ele>1754.54</ele>
        <time>2018-06-23T13:06:36Z</time>
      </trkpt>
      <trkpt lat="44.70986" lon="5.64013">
        <ele>1750.7</ele>
        <time>2018-06-23T13:06:47Z</time>
      </trkpt>
      <trkpt lat="44.70984" lon="5.64012">
        <ele>1752.14</ele>
        <time>2018-06-23T13:06:50Z</time>
      </trkpt>
      <trkpt lat="44.70983" lon="5.64011">
        <ele>1751.18</ele>
        <time>2018-06-23T13:06:52Z</time>
      </trkpt>
      <trkpt lat="44.70978" lon="5.64003">
        <ele>1748.29</ele>
        <time>2018-06-23T13:07:05Z</time>
      </trkpt>
      <trkpt lat="44.70974" lon="5.63994">
        <ele>1747.33</ele>
        <time>2018-06-23T13:07:16Z</time>
      </trkpt>
      <trkpt lat="44.70973" lon="5.63989">
        <ele>1744.45</ele>
        <time>2018-06-23T13:07:23Z</time>
      </trkpt>
      <trkpt lat="44.70973" lon="5.63988">
        <ele>1748.29</ele>
        <time>2018-06-23T13:07:24Z</time>
      </trkpt>
      <trkpt lat="44.70972" lon="5.63986">
        <ele>1743.97</ele>
        <time>2018-06-23T13:07:27Z</time>
      </trkpt>
      <trkpt lat="44.70972" lon="5.63985">
        <ele>1747.81</ele>
        <time>2018-06-23T13:07:28Z</time>
      </trkpt>
      <trkpt lat="44.7097" lon="5.63982">
        <ele>1744.93</ele>
        <time>2018-06-23T13:07:34Z</time>
      </trkpt>
      <trkpt lat="44.70965" lon="5.63974">
        <ele>1743.01</ele>
        <time>2018-06-23T13:07:44Z</time>
      </trkpt>
      <trkpt lat="44.7096" lon="5.63969">
        <ele>1741.57</ele>
        <time>2018-06-23T13:07:51Z</time>
      </trkpt>
      <trkpt lat="44.70955" lon="5.63965">
        <ele>1741.08</ele>
        <time>2018-06-23T13:08:00Z</time>
      </trkpt>
      <trkpt lat="44.70952" lon="5.63961">
        <ele>1741.08</ele>
        <time>2018-06-23T13:08:11Z</time>
      </trkpt>
      <trkpt lat="44.7095" lon="5.63958">
        <ele>1737.72</ele>
        <time>2018-06-23T13:08:21Z</time>
      </trkpt>
      <trkpt lat="44.7095" lon="5.63958">
        <ele>1739.64</ele>
        <time>2018-06-23T13:08:22Z</time>
      </trkpt>
      <trkpt lat="44.70944" lon="5.6395">
        <ele>1736.28</ele>
        <time>2018-06-23T13:08:33Z</time>
      </trkpt>
      <trkpt lat="44.70943" lon="5.6395">
        <ele>1737.72</ele>
        <time>2018-06-23T13:08:34Z</time>
      </trkpt>
      <trkpt lat="44.7094" lon="5.63946">
        <ele>1734.36</ele>
        <time>2018-06-23T13:08:38Z</time>
      </trkpt>
      <trkpt lat="44.70939" lon="5.63945">
        <ele>1735.8</ele>
        <time>2018-06-23T13:08:39Z</time>
      </trkpt>
      <trkpt lat="44.70934" lon="5.63941">
        <ele>1735.8</ele>
        <time>2018-06-23T13:08:50Z</time>
      </trkpt>
      <trkpt lat="44.70929" lon="5.63937">
        <ele>1735.32</ele>
        <time>2018-06-23T13:09:01Z</time>
      </trkpt>
      <trkpt lat="44.7092" lon="5.63935">
        <ele>1733.88</ele>
        <time>2018-06-23T13:09:09Z</time>
      </trkpt>
      <trkpt lat="44.70918" lon="5.63935">
        <ele>1735.32</ele>
        <time>2018-06-23T13:09:11Z</time>
      </trkpt>
      <trkpt lat="44.70916" lon="5.63934">
        <ele>1733.39</ele>
        <time>2018-06-23T13:09:13Z</time>
      </trkpt>
      <trkpt lat="44.70915" lon="5.63932">
        <ele>1737.24</ele>
        <time>2018-06-23T13:09:15Z</time>
      </trkpt>
      <trkpt lat="44.70914" lon="5.63931">
        <ele>1732.43</ele>
        <time>2018-06-23T13:09:16Z</time>
      </trkpt>
      <trkpt lat="44.70909" lon="5.63922">
        <ele>1732.91</ele>
        <time>2018-06-23T13:09:28Z</time>
      </trkpt>
      <trkpt lat="44.70908" lon="5.63921">
        <ele>1728.59</ele>
        <time>2018-06-23T13:09:30Z</time>
      </trkpt>
      <trkpt lat="44.70907" lon="5.6392">
        <ele>1731.95</ele>
        <time>2018-06-23T13:09:31Z</time>
      </trkpt>
      <trkpt lat="44.70905" lon="5.63919">
        <ele>1727.15</ele>
        <time>2018-06-23T13:09:33Z</time>
      </trkpt>
      <trkpt lat="44.70904" lon="5.63918">
        <ele>1730.51</ele>
        <time>2018-06-23T13:09:34Z</time>
      </trkpt>
      <trkpt lat="44.70904" lon="5.63917">
        <ele>1731.95</ele>
        <time>2018-06-23T13:09:35Z</time>
      </trkpt>
      <trkpt lat="44.70901" lon="5.63915">
        <ele>1731.47</ele>
        <time>2018-06-23T13:09:38Z</time>
      </trkpt>
      <trkpt lat="44.709" lon="5.63914">
        <ele>1730.99</ele>
        <time>2018-06-23T13:09:39Z</time>
      </trkpt>
      <trkpt lat="44.70897" lon="5.63909">
        <ele>1727.15</ele>
        <time>2018-06-23T13:09:46Z</time>
      </trkpt>
      <trkpt lat="44.70896" lon="5.63908">
        <ele>1730.51</ele>
        <time>2018-06-23T13:09:47Z</time>
      </trkpt>
      <trkpt lat="44.70895" lon="5.63906">
        <ele>1729.55</ele>
        <time>2018-06-23T13:09:51Z</time>
      </trkpt>
      <trkpt lat="44.70892" lon="5.639">
        <ele>1733.88</ele>
        <time>2018-06-23T13:09:59Z</time>
      </trkpt>
      <trkpt lat="44.70892" lon="5.639">
        <ele>1729.55</ele>
        <time>2018-06-23T13:10:00Z</time>
      </trkpt>
      <trkpt lat="44.7089" lon="5.63897">
        <ele>1726.18</ele>
        <time>2018-06-23T13:10:17Z</time>
      </trkpt>
      <trkpt lat="44.70886" lon="5.63891">
        <ele>1725.7</ele>
        <time>2018-06-23T13:10:28Z</time>
      </trkpt>
      <trkpt lat="44.70886" lon="5.63891">
        <ele>1726.67</ele>
        <time>2018-06-23T13:10:35Z</time>
      </trkpt>
      <trkpt lat="44.70885" lon="5.63889">
        <ele>1722.34</ele>
        <time>2018-06-23T13:10:37Z</time>
      </trkpt>
      <trkpt lat="44.70885" lon="5.63888">
        <ele>1723.3</ele>
        <time>2018-06-23T13:10:38Z</time>
      </trkpt>
      <trkpt lat="44.70878" lon="5.63881">
        <ele>1723.3</ele>
        <time>2018-06-23T13:10:47Z</time>
      </trkpt>
      <trkpt lat="44.70875" lon="5.63874">
        <ele>1718.97</ele>
        <time>2018-06-23T13:10:56Z</time>
      </trkpt>
      <trkpt lat="44.70874" lon="5.63873">
        <ele>1722.82</ele>
        <time>2018-06-23T13:10:58Z</time>
      </trkpt>
      <trkpt lat="44.70873" lon="5.63872">
        <ele>1721.86</ele>
        <time>2018-06-23T13:10:59Z</time>
      </trkpt>
      <trkpt lat="44.70873" lon="5.63871">
        <ele>1718.49</ele>
        <time>2018-06-23T13:11:00Z</time>
      </trkpt>
      <trkpt lat="44.70872" lon="5.63871">
        <ele>1721.38</ele>
        <time>2018-06-23T13:11:01Z</time>
      </trkpt>
      <trkpt lat="44.7087" lon="5.63867">
        <ele>1717.53</ele>
        <time>2018-06-23T13:11:08Z</time>
      </trkpt>
      <trkpt lat="44.7087" lon="5.63867">
        <ele>1720.42</ele>
        <time>2018-06-23T13:11:10Z</time>
      </trkpt>
      <trkpt lat="44.7087" lon="5.63867">
        <ele>1716.57</ele>
        <time>2018-06-23T13:11:13Z</time>
      </trkpt>
      <trkpt lat="44.7087" lon="5.63867">
        <ele>1720.42</ele>
        <time>2018-06-23T13:11:14Z</time>
      </trkpt>
      <trkpt lat="44.70869" lon="5.63865">
        <ele>1715.13</ele>
        <time>2018-06-23T13:11:17Z</time>
      </trkpt>
      <trkpt lat="44.70869" lon="5.63865">
        <ele>1721.86</ele>
        <time>2018-06-23T13:11:18Z</time>
      </trkpt>
      <trkpt lat="44.70869" lon="5.63865">
        <ele>1719.46</ele>
        <time>2018-06-23T13:11:21Z</time>
      </trkpt>
      <trkpt lat="44.70869" lon="5.63864">
        <ele>1710.32</ele>
        <time>2018-06-23T13:11:25Z</time>
      </trkpt>
      <trkpt lat="44.70869" lon="5.63864">
        <ele>1724.26</ele>
        <time>2018-06-23T13:11:26Z</time>
      </trkpt>
      <trkpt lat="44.70869" lon="5.63864">
        <ele>1718.49</ele>
        <time>2018-06-23T13:11:27Z</time>
      </trkpt>
      <trkpt lat="44.70867" lon="5.63859">
        <ele>1717.05</ele>
        <time>2018-06-23T13:11:36Z</time>
      </trkpt>
      <trkpt lat="44.70863" lon="5.63855">
        <ele>1714.17</ele>
        <time>2018-06-23T13:11:44Z</time>
      </trkpt>
      <trkpt lat="44.70857" lon="5.63848">
        <ele>1713.21</ele>
        <time>2018-06-23T13:11:56Z</time>
      </trkpt>
      <trkpt lat="44.70857" lon="5.63847">
        <ele>1709.36</ele>
        <time>2018-06-23T13:11:57Z</time>
      </trkpt>
      <trkpt lat="44.70857" lon="5.63846">
        <ele>1712.73</ele>
        <time>2018-06-23T13:11:59Z</time>
      </trkpt>
      <trkpt lat="44.70856" lon="5.63844">
        <ele>1711.76</ele>
        <time>2018-06-23T13:12:08Z</time>
      </trkpt>
      <trkpt lat="44.70855" lon="5.63841">
        <ele>1709.84</ele>
        <time>2018-06-23T13:12:18Z</time>
      </trkpt>
      <trkpt lat="44.70851" lon="5.63835">
        <ele>1708.4</ele>
        <time>2018-06-23T13:12:29Z</time>
      </trkpt>
      <trkpt lat="44.70849" lon="5.6383">
        <ele>1708.88</ele>
        <time>2018-06-23T13:12:40Z</time>
      </trkpt>
      <trkpt lat="44.70848" lon="5.63829">
        <ele>1705.04</ele>
        <time>2018-06-23T13:12:41Z</time>
      </trkpt>
      <trkpt lat="44.70846" lon="5.63826">
        <ele>1704.07</ele>
        <time>2018-06-23T13:12:50Z</time>
      </trkpt>
      <trkpt lat="44.70843" lon="5.63819">
        <ele>1704.07</ele>
        <time>2018-06-23T13:13:01Z</time>
      </trkpt>
      <trkpt lat="44.70843" lon="5.63819">
        <ele>1705.52</ele>
        <time>2018-06-23T13:13:04Z</time>
      </trkpt>
      <trkpt lat="44.70838" lon="5.63812">
        <ele>1706.48</ele>
        <time>2018-06-23T13:13:15Z</time>
      </trkpt>
      <trkpt lat="44.70838" lon="5.63812">
        <ele>1705.04</ele>
        <time>2018-06-23T13:13:16Z</time>
      </trkpt>
      <trkpt lat="44.70837" lon="5.6381">
        <ele>1701.67</ele>
        <time>2018-06-23T13:13:18Z</time>
      </trkpt>
      <trkpt lat="44.70836" lon="5.63808">
        <ele>1706.96</ele>
        <time>2018-06-23T13:13:20Z</time>
      </trkpt>
      <trkpt lat="44.70835" lon="5.63808">
        <ele>1702.63</ele>
        <time>2018-06-23T13:13:21Z</time>
      </trkpt>
      <trkpt lat="44.70832" lon="5.63801">
        <ele>1701.67</ele>
        <time>2018-06-23T13:13:29Z</time>
      </trkpt>
      <trkpt lat="44.70828" lon="5.63797">
        <ele>1699.75</ele>
        <time>2018-06-23T13:13:37Z</time>
      </trkpt>
      <trkpt lat="44.70826" lon="5.63794">
        <ele>1698.31</ele>
        <time>2018-06-23T13:13:40Z</time>
      </trkpt>
      <trkpt lat="44.70824" lon="5.63792">
        <ele>1699.75</ele>
        <time>2018-06-23T13:13:42Z</time>
      </trkpt>
      <trkpt lat="44.70823" lon="5.6379">
        <ele>1694.94</ele>
        <time>2018-06-23T13:13:46Z</time>
      </trkpt>
      <trkpt lat="44.70822" lon="5.6379">
        <ele>1696.86</ele>
        <time>2018-06-23T13:13:47Z</time>
      </trkpt>
      <trkpt lat="44.70822" lon="5.63789">
        <ele>1700.23</ele>
        <time>2018-06-23T13:13:49Z</time>
      </trkpt>
      <trkpt lat="44.70821" lon="5.63788">
        <ele>1697.34</ele>
        <time>2018-06-23T13:13:50Z</time>
      </trkpt>
      <trkpt lat="44.7082" lon="5.63785">
        <ele>1696.38</ele>
        <time>2018-06-23T13:13:53Z</time>
      </trkpt>
      <trkpt lat="44.70815" lon="5.63778">
        <ele>1693.02</ele>
        <time>2018-06-23T13:14:01Z</time>
      </trkpt>
      <trkpt lat="44.70815" lon="5.63777">
        <ele>1695.9</ele>
        <time>2018-06-23T13:14:02Z</time>
      </trkpt>
      <trkpt lat="44.70811" lon="5.63772">
        <ele>1695.42</ele>
        <time>2018-06-23T13:14:08Z</time>
      </trkpt>
      <trkpt lat="44.70811" lon="5.63772">
        <ele>1693.5</ele>
        <time>2018-06-23T13:14:09Z</time>
      </trkpt>
      <trkpt lat="44.70809" lon="5.6377">
        <ele>1697.34</ele>
        <time>2018-06-23T13:14:11Z</time>
      </trkpt>
      <trkpt lat="44.70808" lon="5.63768">
        <ele>1694.46</ele>
        <time>2018-06-23T13:14:13Z</time>
      </trkpt>
      <trkpt lat="44.70806" lon="5.63766">
        <ele>1691.58</ele>
        <time>2018-06-23T13:14:15Z</time>
      </trkpt>
      <trkpt lat="44.70804" lon="5.63765">
        <ele>1694.46</ele>
        <time>2018-06-23T13:14:16Z</time>
      </trkpt>
      <trkpt lat="44.70802" lon="5.63763">
        <ele>1691.1</ele>
        <time>2018-06-23T13:14:19Z</time>
      </trkpt>
      <trkpt lat="44.708" lon="5.6376">
        <ele>1694.46</ele>
        <time>2018-06-23T13:14:22Z</time>
      </trkpt>
      <trkpt lat="44.70799" lon="5.63757">
        <ele>1691.1</ele>
        <time>2018-06-23T13:14:24Z</time>
      </trkpt>
      <trkpt lat="44.70794" lon="5.63748">
        <ele>1693.98</ele>
        <time>2018-06-23T13:14:33Z</time>
      </trkpt>
      <trkpt lat="44.70794" lon="5.63747">
        <ele>1689.17</ele>
        <time>2018-06-23T13:14:34Z</time>
      </trkpt>
      <trkpt lat="44.7079" lon="5.63744">
        <ele>1687.25</ele>
        <time>2018-06-23T13:14:40Z</time>
      </trkpt>
      <trkpt lat="44.70788" lon="5.63739">
        <ele>1689.65</ele>
        <time>2018-06-23T13:14:45Z</time>
      </trkpt>
      <trkpt lat="44.70786" lon="5.63737">
        <ele>1685.81</ele>
        <time>2018-06-23T13:14:47Z</time>
      </trkpt>
      <trkpt lat="44.70785" lon="5.63736">
        <ele>1688.69</ele>
        <time>2018-06-23T13:14:49Z</time>
      </trkpt>
      <trkpt lat="44.70783" lon="5.63732">
        <ele>1683.89</ele>
        <time>2018-06-23T13:14:54Z</time>
      </trkpt>
      <trkpt lat="44.70783" lon="5.63731">
        <ele>1686.77</ele>
        <time>2018-06-23T13:14:55Z</time>
      </trkpt>
      <trkpt lat="44.7078" lon="5.63726">
        <ele>1678.12</ele>
        <time>2018-06-23T13:15:03Z</time>
      </trkpt>
      <trkpt lat="44.70779" lon="5.63725">
        <ele>1684.85</ele>
        <time>2018-06-23T13:15:04Z</time>
      </trkpt>
      <trkpt lat="44.70777" lon="5.63721">
        <ele>1686.29</ele>
        <time>2018-06-23T13:15:10Z</time>
      </trkpt>
      <trkpt lat="44.70776" lon="5.6372">
        <ele>1681.48</ele>
        <time>2018-06-23T13:15:11Z</time>
      </trkpt>
      <trkpt lat="44.70775" lon="5.63719">
        <ele>1683.89</ele>
        <time>2018-06-23T13:15:12Z</time>
      </trkpt>
      <trkpt lat="44.70774" lon="5.63717">
        <ele>1680.52</ele>
        <time>2018-06-23T13:15:15Z</time>
      </trkpt>
      <trkpt lat="44.70772" lon="5.63716">
        <ele>1684.37</ele>
        <time>2018-06-23T13:15:17Z</time>
      </trkpt>
      <trkpt lat="44.70771" lon="5.63715">
        <ele>1681.48</ele>
        <time>2018-06-23T13:15:19Z</time>
      </trkpt>
      <trkpt lat="44.70767" lon="5.63711">
        <ele>1679.08</ele>
        <time>2018-06-23T13:15:25Z</time>
      </trkpt>
      <trkpt lat="44.70766" lon="5.6371">
        <ele>1681.48</ele>
        <time>2018-06-23T13:15:28Z</time>
      </trkpt>
      <trkpt lat="44.70765" lon="5.6371">
        <ele>1678.6</ele>
        <time>2018-06-23T13:15:29Z</time>
      </trkpt>
      <trkpt lat="44.70764" lon="5.63709">
        <ele>1678.6</ele>
        <time>2018-06-23T13:15:30Z</time>
      </trkpt>
      <trkpt lat="44.70762" lon="5.63708">
        <ele>1680.04</ele>
        <time>2018-06-23T13:15:32Z</time>
      </trkpt>
      <trkpt lat="44.7076" lon="5.63705">
        <ele>1676.2</ele>
        <time>2018-06-23T13:15:36Z</time>
      </trkpt>
      <trkpt lat="44.70759" lon="5.63705">
        <ele>1677.16</ele>
        <time>2018-06-23T13:15:37Z</time>
      </trkpt>
      <trkpt lat="44.70757" lon="5.63703">
        <ele>1679.08</ele>
        <time>2018-06-23T13:15:40Z</time>
      </trkpt>
      <trkpt lat="44.70755" lon="5.63701">
        <ele>1675.23</ele>
        <time>2018-06-23T13:15:44Z</time>
      </trkpt>
      <trkpt lat="44.70747" lon="5.63692">
        <ele>1671.87</ele>
        <time>2018-06-23T13:15:57Z</time>
      </trkpt>
      <trkpt lat="44.70746" lon="5.63691">
        <ele>1671.87</ele>
        <time>2018-06-23T13:15:58Z</time>
      </trkpt>
      <trkpt lat="44.70745" lon="5.63689">
        <ele>1672.83</ele>
        <time>2018-06-23T13:16:00Z</time>
      </trkpt>
      <trkpt lat="44.70737" lon="5.63678">
        <ele>1669.95</ele>
        <time>2018-06-23T13:16:11Z</time>
      </trkpt>
      <trkpt lat="44.70736" lon="5.63677">
        <ele>1669.95</ele>
        <time>2018-06-23T13:16:12Z</time>
      </trkpt>
      <trkpt lat="44.70736" lon="5.63676">
        <ele>1674.27</ele>
        <time>2018-06-23T13:16:13Z</time>
      </trkpt>
      <trkpt lat="44.70735" lon="5.63675">
        <ele>1671.87</ele>
        <time>2018-06-23T13:16:14Z</time>
      </trkpt>
      <trkpt lat="44.70734" lon="5.63673">
        <ele>1670.91</ele>
        <time>2018-06-23T13:16:16Z</time>
      </trkpt>
      <trkpt lat="44.70732" lon="5.63671">
        <ele>1672.35</ele>
        <time>2018-06-23T13:16:18Z</time>
      </trkpt>
      <trkpt lat="44.70731" lon="5.63669">
        <ele>1668.99</ele>
        <time>2018-06-23T13:16:20Z</time>
      </trkpt>
      <trkpt lat="44.7073" lon="5.63668">
        <ele>1669.47</ele>
        <time>2018-06-23T13:16:21Z</time>
      </trkpt>
      <trkpt lat="44.70728" lon="5.63666">
        <ele>1674.75</ele>
        <time>2018-06-23T13:16:23Z</time>
      </trkpt>
      <trkpt lat="44.70727" lon="5.63665">
        <ele>1669.47</ele>
        <time>2018-06-23T13:16:24Z</time>
      </trkpt>
      <trkpt lat="44.70727" lon="5.63664">
        <ele>1668.99</ele>
        <time>2018-06-23T13:16:25Z</time>
      </trkpt>
      <trkpt lat="44.70726" lon="5.63663">
        <ele>1672.35</ele>
        <time>2018-06-23T13:16:26Z</time>
      </trkpt>
      <trkpt lat="44.70726" lon="5.63663">
        <ele>1671.87</ele>
        <time>2018-06-23T13:16:27Z</time>
      </trkpt>
      <trkpt lat="44.70724" lon="5.63661">
        <ele>1668.99</ele>
        <time>2018-06-23T13:16:29Z</time>
      </trkpt>
      <trkpt lat="44.70724" lon="5.63661">
        <ele>1668.99</ele>
        <time>2018-06-23T13:16:30Z</time>
      </trkpt>
      <trkpt lat="44.70723" lon="5.6366">
        <ele>1671.87</ele>
        <time>2018-06-23T13:16:32Z</time>
      </trkpt>
      <trkpt lat="44.70722" lon="5.63658">
        <ele>1668.51</ele>
        <time>2018-06-23T13:16:34Z</time>
      </trkpt>
      <trkpt lat="44.70719" lon="5.63655">
        <ele>1668.51</ele>
        <time>2018-06-23T13:16:38Z</time>
      </trkpt>
      <trkpt lat="44.70717" lon="5.63654">
        <ele>1671.87</ele>
        <time>2018-06-23T13:16:40Z</time>
      </trkpt>
      <trkpt lat="44.70716" lon="5.63653">
        <ele>1668.02</ele>
        <time>2018-06-23T13:16:41Z</time>
      </trkpt>
      <trkpt lat="44.70715" lon="5.63652">
        <ele>1671.87</ele>
        <time>2018-06-23T13:16:44Z</time>
      </trkpt>
      <trkpt lat="44.70714" lon="5.63651">
        <ele>1667.54</ele>
        <time>2018-06-23T13:16:45Z</time>
      </trkpt>
      <trkpt lat="44.70711" lon="5.63648">
        <ele>1669.95</ele>
        <time>2018-06-23T13:16:48Z</time>
      </trkpt>
      <trkpt lat="44.70709" lon="5.63647">
        <ele>1666.1</ele>
        <time>2018-06-23T13:16:51Z</time>
      </trkpt>
      <trkpt lat="44.70708" lon="5.63646">
        <ele>1669.47</ele>
        <time>2018-06-23T13:16:52Z</time>
      </trkpt>
      <trkpt lat="44.70707" lon="5.63645">
        <ele>1668.99</ele>
        <time>2018-06-23T13:16:53Z</time>
      </trkpt>
      <trkpt lat="44.70707" lon="5.63645">
        <ele>1665.14</ele>
        <time>2018-06-23T13:16:54Z</time>
      </trkpt>
      <trkpt lat="44.70706" lon="5.63644">
        <ele>1665.62</ele>
        <time>2018-06-23T13:16:55Z</time>
      </trkpt>
      <trkpt lat="44.707" lon="5.63637">
        <ele>1669.47</ele>
        <time>2018-06-23T13:17:04Z</time>
      </trkpt>
      <trkpt lat="44.707" lon="5.63637">
        <ele>1664.66</ele>
        <time>2018-06-23T13:17:05Z</time>
      </trkpt>
      <trkpt lat="44.70699" lon="5.63634">
        <ele>1664.18</ele>
        <time>2018-06-23T13:17:10Z</time>
      </trkpt>
      <trkpt lat="44.70695" lon="5.63629">
        <ele>1658.89</ele>
        <time>2018-06-23T13:17:18Z</time>
      </trkpt>
      <trkpt lat="44.70695" lon="5.63628">
        <ele>1665.14</ele>
        <time>2018-06-23T13:17:19Z</time>
      </trkpt>
      <trkpt lat="44.70694" lon="5.63626">
        <ele>1660.33</ele>
        <time>2018-06-23T13:17:21Z</time>
      </trkpt>
      <trkpt lat="44.70694" lon="5.63626">
        <ele>1664.18</ele>
        <time>2018-06-23T13:17:22Z</time>
      </trkpt>
      <trkpt lat="44.70693" lon="5.63625">
        <ele>1661.78</ele>
        <time>2018-06-23T13:17:25Z</time>
      </trkpt>
      <trkpt lat="44.70692" lon="5.63622">
        <ele>1658.41</ele>
        <time>2018-06-23T13:17:34Z</time>
      </trkpt>
      <trkpt lat="44.7069" lon="5.63615">
        <ele>1657.45</ele>
        <time>2018-06-23T13:17:44Z</time>
      </trkpt>
      <trkpt lat="44.70688" lon="5.63613">
        <ele>1656.49</ele>
        <time>2018-06-23T13:17:48Z</time>
      </trkpt>
      <trkpt lat="44.70686" lon="5.63612">
        <ele>1659.85</ele>
        <time>2018-06-23T13:17:51Z</time>
      </trkpt>
      <trkpt lat="44.70685" lon="5.63611">
        <ele>1656.49</ele>
        <time>2018-06-23T13:17:53Z</time>
      </trkpt>
      <trkpt lat="44.70684" lon="5.63611">
        <ele>1656.49</ele>
        <time>2018-06-23T13:17:54Z</time>
      </trkpt>
      <trkpt lat="44.70682" lon="5.63609">
        <ele>1652.64</ele>
        <time>2018-06-23T13:17:58Z</time>
      </trkpt>
      <trkpt lat="44.70681" lon="5.63608">
        <ele>1656.49</ele>
        <time>2018-06-23T13:18:01Z</time>
      </trkpt>
      <trkpt lat="44.70679" lon="5.63606">
        <ele>1652.64</ele>
        <time>2018-06-23T13:18:03Z</time>
      </trkpt>
      <trkpt lat="44.70679" lon="5.63606">
        <ele>1652.64</ele>
        <time>2018-06-23T13:18:04Z</time>
      </trkpt>
      <trkpt lat="44.70672" lon="5.63601">
        <ele>1651.2</ele>
        <time>2018-06-23T13:18:13Z</time>
      </trkpt>
      <trkpt lat="44.70669" lon="5.63598">
        <ele>1650.24</ele>
        <time>2018-06-23T13:18:19Z</time>
      </trkpt>
      <trkpt lat="44.70666" lon="5.63594">
        <ele>1648.8</ele>
        <time>2018-06-23T13:18:30Z</time>
      </trkpt>
      <trkpt lat="44.70664" lon="5.63592">
        <ele>1648.8</ele>
        <time>2018-06-23T13:18:46Z</time>
      </trkpt>
      <trkpt lat="44.70664" lon="5.63591">
        <ele>1644.95</ele>
        <time>2018-06-23T13:18:48Z</time>
      </trkpt>
      <trkpt lat="44.70663" lon="5.63591">
        <ele>1645.43</ele>
        <time>2018-06-23T13:18:49Z</time>
      </trkpt>
      <trkpt lat="44.70663" lon="5.63591">
        <ele>1649.28</ele>
        <time>2018-06-23T13:18:50Z</time>
      </trkpt>
      <trkpt lat="44.70663" lon="5.63591">
        <ele>1647.84</ele>
        <time>2018-06-23T13:18:51Z</time>
      </trkpt>
      <trkpt lat="44.70663" lon="5.6359">
        <ele>1645.91</ele>
        <time>2018-06-23T13:18:54Z</time>
      </trkpt>
      <trkpt lat="44.70662" lon="5.6359">
        <ele>1648.32</ele>
        <time>2018-06-23T13:18:57Z</time>
      </trkpt>
      <trkpt lat="44.70662" lon="5.6359">
        <ele>1647.36</ele>
        <time>2018-06-23T13:18:59Z</time>
      </trkpt>
      <trkpt lat="44.7066" lon="5.63587">
        <ele>1645.91</ele>
        <time>2018-06-23T13:19:06Z</time>
      </trkpt>
      <trkpt lat="44.70657" lon="5.63583">
        <ele>1644.95</ele>
        <time>2018-06-23T13:19:12Z</time>
      </trkpt>
      <trkpt lat="44.70655" lon="5.6358">
        <ele>1641.59</ele>
        <time>2018-06-23T13:19:16Z</time>
      </trkpt>
      <trkpt lat="44.70652" lon="5.63577">
        <ele>1645.43</ele>
        <time>2018-06-23T13:19:21Z</time>
      </trkpt>
      <trkpt lat="44.70651" lon="5.63575">
        <ele>1640.63</ele>
        <time>2018-06-23T13:19:23Z</time>
      </trkpt>
      <trkpt lat="44.7065" lon="5.63573">
        <ele>1643.99</ele>
        <time>2018-06-23T13:19:26Z</time>
      </trkpt>
      <trkpt lat="44.70649" lon="5.63573">
        <ele>1639.19</ele>
        <time>2018-06-23T13:19:27Z</time>
      </trkpt>
      <trkpt lat="44.70648" lon="5.63572">
        <ele>1643.51</ele>
        <time>2018-06-23T13:19:29Z</time>
      </trkpt>
      <trkpt lat="44.70647" lon="5.6357">
        <ele>1639.67</ele>
        <time>2018-06-23T13:19:33Z</time>
      </trkpt>
      <trkpt lat="44.70642" lon="5.63564">
        <ele>1635.34</ele>
        <time>2018-06-23T13:19:44Z</time>
      </trkpt>
      <trkpt lat="44.7064" lon="5.63563">
        <ele>1638.7</ele>
        <time>2018-06-23T13:19:46Z</time>
      </trkpt>
      <trkpt lat="44.7064" lon="5.63562">
        <ele>1635.34</ele>
        <time>2018-06-23T13:19:47Z</time>
      </trkpt>
      <trkpt lat="44.70639" lon="5.6356">
        <ele>1637.26</ele>
        <time>2018-06-23T13:19:50Z</time>
      </trkpt>
      <trkpt lat="44.70638" lon="5.63559">
        <ele>1633.42</ele>
        <time>2018-06-23T13:19:51Z</time>
      </trkpt>
      <trkpt lat="44.70638" lon="5.63558">
        <ele>1633.9</ele>
        <time>2018-06-23T13:19:52Z</time>
      </trkpt>
      <trkpt lat="44.70637" lon="5.63556">
        <ele>1637.26</ele>
        <time>2018-06-23T13:19:54Z</time>
      </trkpt>
      <trkpt lat="44.70636" lon="5.63555">
        <ele>1632.46</ele>
        <time>2018-06-23T13:19:55Z</time>
      </trkpt>
      <trkpt lat="44.70635" lon="5.63553">
        <ele>1635.82</ele>
        <time>2018-06-23T13:19:58Z</time>
      </trkpt>
      <trkpt lat="44.70634" lon="5.63552">
        <ele>1634.38</ele>
        <time>2018-06-23T13:19:59Z</time>
      </trkpt>
      <trkpt lat="44.70634" lon="5.63551">
        <ele>1631.01</ele>
        <time>2018-06-23T13:20:00Z</time>
      </trkpt>
      <trkpt lat="44.70633" lon="5.6355">
        <ele>1634.86</ele>
        <time>2018-06-23T13:20:01Z</time>
      </trkpt>
      <trkpt lat="44.70632" lon="5.63548">
        <ele>1630.53</ele>
        <time>2018-06-23T13:20:03Z</time>
      </trkpt>
      <trkpt lat="44.70632" lon="5.63547">
        <ele>1632.94</ele>
        <time>2018-06-23T13:20:04Z</time>
      </trkpt>
      <trkpt lat="44.70631" lon="5.63543">
        <ele>1628.61</ele>
        <time>2018-06-23T13:20:08Z</time>
      </trkpt>
      <trkpt lat="44.7063" lon="5.63541">
        <ele>1631.01</ele>
        <time>2018-06-23T13:20:09Z</time>
      </trkpt>
      <trkpt lat="44.70629" lon="5.63538">
        <ele>1629.57</ele>
        <time>2018-06-23T13:20:12Z</time>
      </trkpt>
      <trkpt lat="44.70629" lon="5.63537">
        <ele>1632.94</ele>
        <time>2018-06-23T13:20:13Z</time>
      </trkpt>
      <trkpt lat="44.70629" lon="5.63534">
        <ele>1629.57</ele>
        <time>2018-06-23T13:20:18Z</time>
      </trkpt>
      <trkpt lat="44.70631" lon="5.63533">
        <ele>1630.53</ele>
        <time>2018-06-23T13:20:27Z</time>
      </trkpt>
      <trkpt lat="44.70632" lon="5.63532">
        <ele>1627.17</ele>
        <time>2018-06-23T13:20:41Z</time>
      </trkpt>
      <trkpt lat="44.70633" lon="5.63532">
        <ele>1627.17</ele>
        <time>2018-06-23T13:20:42Z</time>
      </trkpt>
      <trkpt lat="44.70634" lon="5.6353">
        <ele>1626.69</ele>
        <time>2018-06-23T13:20:52Z</time>
      </trkpt>
      <trkpt lat="44.7063" lon="5.63525">
        <ele>1625.73</ele>
        <time>2018-06-23T13:21:01Z</time>
      </trkpt>
      <trkpt lat="44.7063" lon="5.63524">
        <ele>1629.57</ele>
        <time>2018-06-23T13:21:02Z</time>
      </trkpt>
      <trkpt lat="44.7063" lon="5.63524">
        <ele>1627.17</ele>
        <time>2018-06-23T13:21:03Z</time>
      </trkpt>
      <trkpt lat="44.70625" lon="5.63518">
        <ele>1625.73</ele>
        <time>2018-06-23T13:21:15Z</time>
      </trkpt>
      <trkpt lat="44.70624" lon="5.63516">
        <ele>1621.88</ele>
        <time>2018-06-23T13:21:23Z</time>
      </trkpt>
      <trkpt lat="44.70623" lon="5.63515">
        <ele>1625.25</ele>
        <time>2018-06-23T13:21:25Z</time>
      </trkpt>
      <trkpt lat="44.70622" lon="5.63514">
        <ele>1624.28</ele>
        <time>2018-06-23T13:21:26Z</time>
      </trkpt>
      <trkpt lat="44.70621" lon="5.63513">
        <ele>1620.92</ele>
        <time>2018-06-23T13:21:30Z</time>
      </trkpt>
      <trkpt lat="44.7062" lon="5.63502">
        <ele>1619.96</ele>
        <time>2018-06-23T13:21:43Z</time>
      </trkpt>
      <trkpt lat="44.70619" lon="5.63498">
        <ele>1618.52</ele>
        <time>2018-06-23T13:21:46Z</time>
      </trkpt>
      <trkpt lat="44.70615" lon="5.63487">
        <ele>1614.67</ele>
        <time>2018-06-23T13:21:57Z</time>
      </trkpt>
      <trkpt lat="44.70613" lon="5.63483">
        <ele>1612.75</ele>
        <time>2018-06-23T13:22:03Z</time>
      </trkpt>
      <trkpt lat="44.70611" lon="5.63474">
        <ele>1610.83</ele>
        <time>2018-06-23T13:22:15Z</time>
      </trkpt>
      <trkpt lat="44.70609" lon="5.63468">
        <ele>1605.54</ele>
        <time>2018-06-23T13:22:23Z</time>
      </trkpt>
      <trkpt lat="44.70609" lon="5.63467">
        <ele>1608.9</ele>
        <time>2018-06-23T13:22:24Z</time>
      </trkpt>
      <trkpt lat="44.70609" lon="5.63461">
        <ele>1604.58</ele>
        <time>2018-06-23T13:22:32Z</time>
      </trkpt>
      <trkpt lat="44.70607" lon="5.63452">
        <ele>1603.62</ele>
        <time>2018-06-23T13:22:42Z</time>
      </trkpt>
      <trkpt lat="44.70605" lon="5.63447">
        <ele>1604.58</ele>
        <time>2018-06-23T13:22:50Z</time>
      </trkpt>
      <trkpt lat="44.70606" lon="5.63445">
        <ele>1601.69</ele>
        <time>2018-06-23T13:22:52Z</time>
      </trkpt>
      <trkpt lat="44.70607" lon="5.63442">
        <ele>1598.81</ele>
        <time>2018-06-23T13:22:57Z</time>
      </trkpt>
      <trkpt lat="44.70607" lon="5.63441">
        <ele>1602.66</ele>
        <time>2018-06-23T13:22:58Z</time>
      </trkpt>
      <trkpt lat="44.70604" lon="5.63436">
        <ele>1601.21</ele>
        <time>2018-06-23T13:23:09Z</time>
      </trkpt>
      <trkpt lat="44.70602" lon="5.63433">
        <ele>1600.73</ele>
        <time>2018-06-23T13:23:12Z</time>
      </trkpt>
      <trkpt lat="44.70601" lon="5.63427">
        <ele>1598.33</ele>
        <time>2018-06-23T13:23:16Z</time>
      </trkpt>
      <trkpt lat="44.70601" lon="5.63424">
        <ele>1602.17</ele>
        <time>2018-06-23T13:23:18Z</time>
      </trkpt>
      <trkpt lat="44.70601" lon="5.63423">
        <ele>1597.37</ele>
        <time>2018-06-23T13:23:19Z</time>
      </trkpt>
      <trkpt lat="44.70601" lon="5.6342">
        <ele>1600.73</ele>
        <time>2018-06-23T13:23:21Z</time>
      </trkpt>
      <trkpt lat="44.70601" lon="5.63414">
        <ele>1596.89</ele>
        <time>2018-06-23T13:23:26Z</time>
      </trkpt>
      <trkpt lat="44.70601" lon="5.63407">
        <ele>1597.37</ele>
        <time>2018-06-23T13:23:32Z</time>
      </trkpt>
      <trkpt lat="44.70601" lon="5.63405">
        <ele>1601.69</ele>
        <time>2018-06-23T13:23:35Z</time>
      </trkpt>
      <trkpt lat="44.70601" lon="5.63404">
        <ele>1596.89</ele>
        <time>2018-06-23T13:23:36Z</time>
      </trkpt>
      <trkpt lat="44.70601" lon="5.63403">
        <ele>1600.25</ele>
        <time>2018-06-23T13:23:37Z</time>
      </trkpt>
      <trkpt lat="44.706" lon="5.63401">
        <ele>1598.81</ele>
        <time>2018-06-23T13:23:47Z</time>
      </trkpt>
      <trkpt lat="44.706" lon="5.63398">
        <ele>1594</ele>
        <time>2018-06-23T13:23:54Z</time>
      </trkpt>
      <trkpt lat="44.706" lon="5.63396">
        <ele>1594.96</ele>
        <time>2018-06-23T13:23:55Z</time>
      </trkpt>
      <trkpt lat="44.706" lon="5.63395">
        <ele>1598.33</ele>
        <time>2018-06-23T13:23:57Z</time>
      </trkpt>
      <trkpt lat="44.70598" lon="5.63391">
        <ele>1599.77</ele>
        <time>2018-06-23T13:24:03Z</time>
      </trkpt>
      <trkpt lat="44.70598" lon="5.63391">
        <ele>1595.45</ele>
        <time>2018-06-23T13:24:04Z</time>
      </trkpt>
      <trkpt lat="44.70597" lon="5.63385">
        <ele>1596.89</ele>
        <time>2018-06-23T13:24:10Z</time>
      </trkpt>
      <trkpt lat="44.70597" lon="5.63385">
        <ele>1593.04</ele>
        <time>2018-06-23T13:24:11Z</time>
      </trkpt>
      <trkpt lat="44.70597" lon="5.63384">
        <ele>1595.93</ele>
        <time>2018-06-23T13:24:12Z</time>
      </trkpt>
      <trkpt lat="44.70597" lon="5.63384">
        <ele>1597.85</ele>
        <time>2018-06-23T13:24:15Z</time>
      </trkpt>
      <trkpt lat="44.70597" lon="5.63384">
        <ele>1594.96</ele>
        <time>2018-06-23T13:24:17Z</time>
      </trkpt>
      <trkpt lat="44.70597" lon="5.63383">
        <ele>1595.93</ele>
        <time>2018-06-23T13:24:18Z</time>
      </trkpt>
      <trkpt lat="44.70596" lon="5.6338">
        <ele>1591.6</ele>
        <time>2018-06-23T13:24:21Z</time>
      </trkpt>
      <trkpt lat="44.70594" lon="5.63376">
        <ele>1595.45</ele>
        <time>2018-06-23T13:24:25Z</time>
      </trkpt>
      <trkpt lat="44.70593" lon="5.63374">
        <ele>1592.08</ele>
        <time>2018-06-23T13:24:27Z</time>
      </trkpt>
      <trkpt lat="44.7059" lon="5.63368">
        <ele>1593.52</ele>
        <time>2018-06-23T13:24:34Z</time>
      </trkpt>
      <trkpt lat="44.70589" lon="5.63367">
        <ele>1591.12</ele>
        <time>2018-06-23T13:24:36Z</time>
      </trkpt>
      <trkpt lat="44.70593" lon="5.63365">
        <ele>1587.27</ele>
        <time>2018-06-23T13:24:47Z</time>
      </trkpt>
      <trkpt lat="44.70593" lon="5.63364">
        <ele>1587.27</ele>
        <time>2018-06-23T13:24:48Z</time>
      </trkpt>
      <trkpt lat="44.70594" lon="5.63362">
        <ele>1591.6</ele>
        <time>2018-06-23T13:24:50Z</time>
      </trkpt>
      <trkpt lat="44.70594" lon="5.63361">
        <ele>1588.24</ele>
        <time>2018-06-23T13:24:52Z</time>
      </trkpt>
      <trkpt lat="44.70596" lon="5.63357">
        <ele>1586.79</ele>
        <time>2018-06-23T13:25:04Z</time>
      </trkpt>
      <trkpt lat="44.70595" lon="5.63356">
        <ele>1585.83</ele>
        <time>2018-06-23T13:25:13Z</time>
      </trkpt>
      <trkpt lat="44.70591" lon="5.63352">
        <ele>1584.87</ele>
        <time>2018-06-23T13:25:23Z</time>
      </trkpt>
      <trkpt lat="44.7059" lon="5.63347">
        <ele>1581.51</ele>
        <time>2018-06-23T13:25:33Z</time>
      </trkpt>
      <trkpt lat="44.70589" lon="5.63347">
        <ele>1581.99</ele>
        <time>2018-06-23T13:25:34Z</time>
      </trkpt>
      <trkpt lat="44.70587" lon="5.63342">
        <ele>1581.51</ele>
        <time>2018-06-23T13:25:40Z</time>
      </trkpt>
      <trkpt lat="44.70584" lon="5.63338">
        <ele>1577.66</ele>
        <time>2018-06-23T13:25:46Z</time>
      </trkpt>
      <trkpt lat="44.70583" lon="5.63336">
        <ele>1581.99</ele>
        <time>2018-06-23T13:25:48Z</time>
      </trkpt>
      <trkpt lat="44.70583" lon="5.63335">
        <ele>1578.14</ele>
        <time>2018-06-23T13:25:50Z</time>
      </trkpt>
      <trkpt lat="44.70583" lon="5.63334">
        <ele>1579.1</ele>
        <time>2018-06-23T13:25:51Z</time>
      </trkpt>
      <trkpt lat="44.70582" lon="5.6333">
        <ele>1575.74</ele>
        <time>2018-06-23T13:25:56Z</time>
      </trkpt>
      <trkpt lat="44.7058" lon="5.63327">
        <ele>1579.1</ele>
        <time>2018-06-23T13:26:00Z</time>
      </trkpt>
      <trkpt lat="44.7058" lon="5.63326">
        <ele>1574.78</ele>
        <time>2018-06-23T13:26:01Z</time>
      </trkpt>
      <trkpt lat="44.70579" lon="5.63325">
        <ele>1576.7</ele>
        <time>2018-06-23T13:26:02Z</time>
      </trkpt>
      <trkpt lat="44.70579" lon="5.63318">
        <ele>1573.33</ele>
        <time>2018-06-23T13:26:09Z</time>
      </trkpt>
      <trkpt lat="44.7058" lon="5.63313">
        <ele>1569.97</ele>
        <time>2018-06-23T13:26:14Z</time>
      </trkpt>
      <trkpt lat="44.7058" lon="5.63298">
        <ele>1570.45</ele>
        <time>2018-06-23T13:26:25Z</time>
      </trkpt>
      <trkpt lat="44.70579" lon="5.63295">
        <ele>1569.97</ele>
        <time>2018-06-23T13:26:29Z</time>
      </trkpt>
      <trkpt lat="44.70579" lon="5.63293">
        <ele>1573.33</ele>
        <time>2018-06-23T13:26:31Z</time>
      </trkpt>
      <trkpt lat="44.70579" lon="5.63292">
        <ele>1569.49</ele>
        <time>2018-06-23T13:26:32Z</time>
      </trkpt>
      <trkpt lat="44.70575" lon="5.63282">
        <ele>1569.97</ele>
        <time>2018-06-23T13:26:41Z</time>
      </trkpt>
      <trkpt lat="44.70576" lon="5.6328">
        <ele>1566.61</ele>
        <time>2018-06-23T13:26:43Z</time>
      </trkpt>
      <trkpt lat="44.70576" lon="5.6328">
        <ele>1567.57</ele>
        <time>2018-06-23T13:26:44Z</time>
      </trkpt>
      <trkpt lat="44.70576" lon="5.63278">
        <ele>1568.05</ele>
        <time>2018-06-23T13:26:46Z</time>
      </trkpt>
      <trkpt lat="44.70576" lon="5.63273">
        <ele>1564.68</ele>
        <time>2018-06-23T13:26:54Z</time>
      </trkpt>
      <trkpt lat="44.70575" lon="5.63266">
        <ele>1563.72</ele>
        <time>2018-06-23T13:27:09Z</time>
      </trkpt>
      <trkpt lat="44.70575" lon="5.63261">
        <ele>1560.84</ele>
        <time>2018-06-23T13:27:17Z</time>
      </trkpt>
      <trkpt lat="44.70575" lon="5.63255">
        <ele>1560.36</ele>
        <time>2018-06-23T13:27:26Z</time>
      </trkpt>
      <trkpt lat="44.70575" lon="5.63251">
        <ele>1557.47</ele>
        <time>2018-06-23T13:27:35Z</time>
      </trkpt>
      <trkpt lat="44.70575" lon="5.63247">
        <ele>1556.99</ele>
        <time>2018-06-23T13:27:46Z</time>
      </trkpt>
      <trkpt lat="44.70575" lon="5.63242">
        <ele>1554.11</ele>
        <time>2018-06-23T13:27:59Z</time>
      </trkpt>
      <trkpt lat="44.70576" lon="5.63238">
        <ele>1551.22</ele>
        <time>2018-06-23T13:28:07Z</time>
      </trkpt>
      <trkpt lat="44.70577" lon="5.63235">
        <ele>1551.22</ele>
        <time>2018-06-23T13:28:18Z</time>
      </trkpt>
      <trkpt lat="44.70579" lon="5.63228">
        <ele>1549.3</ele>
        <time>2018-06-23T13:28:28Z</time>
      </trkpt>
      <trkpt lat="44.70578" lon="5.63223">
        <ele>1545.94</ele>
        <time>2018-06-23T13:28:35Z</time>
      </trkpt>
      <trkpt lat="44.70578" lon="5.63223">
        <ele>1550.26</ele>
        <time>2018-06-23T13:28:36Z</time>
      </trkpt>
      <trkpt lat="44.70576" lon="5.63221">
        <ele>1546.42</ele>
        <time>2018-06-23T13:28:39Z</time>
      </trkpt>
      <trkpt lat="44.70575" lon="5.63209">
        <ele>1544.98</ele>
        <time>2018-06-23T13:28:51Z</time>
      </trkpt>
      <trkpt lat="44.70576" lon="5.63203">
        <ele>1544.01</ele>
        <time>2018-06-23T13:28:56Z</time>
      </trkpt>
      <trkpt lat="44.70574" lon="5.63198">
        <ele>1540.17</ele>
        <time>2018-06-23T13:29:07Z</time>
      </trkpt>
      <trkpt lat="44.70575" lon="5.63196">
        <ele>1544.5</ele>
        <time>2018-06-23T13:29:09Z</time>
      </trkpt>
      <trkpt lat="44.70576" lon="5.63196">
        <ele>1540.65</ele>
        <time>2018-06-23T13:29:10Z</time>
      </trkpt>
      <trkpt lat="44.70576" lon="5.63196">
        <ele>1540.65</ele>
        <time>2018-06-23T13:29:11Z</time>
      </trkpt>
      <trkpt lat="44.70576" lon="5.63195">
        <ele>1542.09</ele>
        <time>2018-06-23T13:29:19Z</time>
      </trkpt>
      <trkpt lat="44.70576" lon="5.63191">
        <ele>1538.25</ele>
        <time>2018-06-23T13:29:25Z</time>
      </trkpt>
      <trkpt lat="44.70576" lon="5.63179">
        <ele>1536.32</ele>
        <time>2018-06-23T13:29:35Z</time>
      </trkpt>
      <trkpt lat="44.70573" lon="5.63173">
        <ele>1534.88</ele>
        <time>2018-06-23T13:29:52Z</time>
      </trkpt>
      <trkpt lat="44.70572" lon="5.63169">
        <ele>1534.4</ele>
        <time>2018-06-23T13:30:03Z</time>
      </trkpt>
      <trkpt lat="44.70575" lon="5.63167">
        <ele>1531.04</ele>
        <time>2018-06-23T13:30:11Z</time>
      </trkpt>
      <trkpt lat="44.70577" lon="5.63164">
        <ele>1527.67</ele>
        <time>2018-06-23T13:30:19Z</time>
      </trkpt>
      <trkpt lat="44.70577" lon="5.63162">
        <ele>1531.04</ele>
        <time>2018-06-23T13:30:21Z</time>
      </trkpt>
      <trkpt lat="44.70577" lon="5.63159">
        <ele>1527.19</ele>
        <time>2018-06-23T13:30:24Z</time>
      </trkpt>
      <trkpt lat="44.70579" lon="5.63156">
        <ele>1528.15</ele>
        <time>2018-06-23T13:30:33Z</time>
      </trkpt>
      <trkpt lat="44.7058" lon="5.63151">
        <ele>1529.11</ele>
        <time>2018-06-23T13:30:46Z</time>
      </trkpt>
      <trkpt lat="44.7058" lon="5.6315">
        <ele>1524.79</ele>
        <time>2018-06-23T13:30:47Z</time>
      </trkpt>
      <trkpt lat="44.7058" lon="5.6315">
        <ele>1526.71</ele>
        <time>2018-06-23T13:30:50Z</time>
      </trkpt>
      <trkpt lat="44.70579" lon="5.63151">
        <ele>1525.75</ele>
        <time>2018-06-23T13:30:59Z</time>
      </trkpt>
      <trkpt lat="44.70579" lon="5.63151">
        <ele>1526.23</ele>
        <time>2018-06-23T13:31:25Z</time>
      </trkpt>
      <trkpt lat="44.70579" lon="5.63148">
        <ele>1525.27</ele>
        <time>2018-06-23T13:31:31Z</time>
      </trkpt>
      <trkpt lat="44.70581" lon="5.63144">
        <ele>1524.79</ele>
        <time>2018-06-23T13:31:35Z</time>
      </trkpt>
      <trkpt lat="44.7058" lon="5.63145">
        <ele>1525.27</ele>
        <time>2018-06-23T13:31:51Z</time>
      </trkpt>
      <trkpt lat="44.7058" lon="5.63144">
        <ele>1523.83</ele>
        <time>2018-06-23T13:31:55Z</time>
      </trkpt>
      <trkpt lat="44.70581" lon="5.63139">
        <ele>1523.35</ele>
        <time>2018-06-23T13:32:06Z</time>
      </trkpt>
      <trkpt lat="44.70581" lon="5.63137">
        <ele>1520.46</ele>
        <time>2018-06-23T13:32:08Z</time>
      </trkpt>
      <trkpt lat="44.70581" lon="5.63137">
        <ele>1523.35</ele>
        <time>2018-06-23T13:32:09Z</time>
      </trkpt>
      <trkpt lat="44.70583" lon="5.63136">
        <ele>1519.98</ele>
        <time>2018-06-23T13:32:15Z</time>
      </trkpt>
      <trkpt lat="44.70583" lon="5.63132">
        <ele>1520.46</ele>
        <time>2018-06-23T13:32:20Z</time>
      </trkpt>
      <trkpt lat="44.70583" lon="5.63129">
        <ele>1517.1</ele>
        <time>2018-06-23T13:32:34Z</time>
      </trkpt>
      <trkpt lat="44.70583" lon="5.63127">
        <ele>1516.62</ele>
        <time>2018-06-23T13:32:53Z</time>
      </trkpt>
      <trkpt lat="44.70584" lon="5.63122">
        <ele>1515.66</ele>
        <time>2018-06-23T13:33:08Z</time>
      </trkpt>
      <trkpt lat="44.70587" lon="5.63116">
        <ele>1514.69</ele>
        <time>2018-06-23T13:33:20Z</time>
      </trkpt>
      <trkpt lat="44.70587" lon="5.63114">
        <ele>1511.81</ele>
        <time>2018-06-23T13:33:31Z</time>
      </trkpt>
      <trkpt lat="44.70586" lon="5.63114">
        <ele>1513.25</ele>
        <time>2018-06-23T13:33:32Z</time>
      </trkpt>
      <trkpt lat="44.70588" lon="5.63111">
        <ele>1512.29</ele>
        <time>2018-06-23T13:33:46Z</time>
      </trkpt>
      <trkpt lat="44.70591" lon="5.63105">
        <ele>1510.85</ele>
        <time>2018-06-23T13:33:58Z</time>
      </trkpt>
      <trkpt lat="44.70594" lon="5.63104">
        <ele>1510.85</ele>
        <time>2018-06-23T13:34:13Z</time>
      </trkpt>
      <trkpt lat="44.70596" lon="5.63099">
        <ele>1509.89</ele>
        <time>2018-06-23T13:34:26Z</time>
      </trkpt>
      <trkpt lat="44.70596" lon="5.63092">
        <ele>1507.97</ele>
        <time>2018-06-23T13:34:38Z</time>
      </trkpt>
      <trkpt lat="44.70595" lon="5.6309">
        <ele>1506.04</ele>
        <time>2018-06-23T13:34:52Z</time>
      </trkpt>
      <trkpt lat="44.70596" lon="5.63082">
        <ele>1501.24</ele>
        <time>2018-06-23T13:35:05Z</time>
      </trkpt>
      <trkpt lat="44.70597" lon="5.63081">
        <ele>1506.52</ele>
        <time>2018-06-23T13:35:06Z</time>
      </trkpt>
      <trkpt lat="44.70597" lon="5.63081">
        <ele>1502.68</ele>
        <time>2018-06-23T13:35:07Z</time>
      </trkpt>
      <trkpt lat="44.70597" lon="5.63081">
        <ele>1506.04</ele>
        <time>2018-06-23T13:35:15Z</time>
      </trkpt>
      <trkpt lat="44.70598" lon="5.63081">
        <ele>1502.2</ele>
        <time>2018-06-23T13:35:20Z</time>
      </trkpt>
      <trkpt lat="44.70598" lon="5.6308">
        <ele>1505.08</ele>
        <time>2018-06-23T13:35:21Z</time>
      </trkpt>
      <trkpt lat="44.70599" lon="5.63079">
        <ele>1500.76</ele>
        <time>2018-06-23T13:35:22Z</time>
      </trkpt>
      <trkpt lat="44.70599" lon="5.63078">
        <ele>1504.6</ele>
        <time>2018-06-23T13:35:23Z</time>
      </trkpt>
      <trkpt lat="44.706" lon="5.63077">
        <ele>1500.76</ele>
        <time>2018-06-23T13:35:24Z</time>
      </trkpt>
      <trkpt lat="44.70601" lon="5.63076">
        <ele>1504.6</ele>
        <time>2018-06-23T13:35:27Z</time>
      </trkpt>
      <trkpt lat="44.70603" lon="5.63075">
        <ele>1500.76</ele>
        <time>2018-06-23T13:35:30Z</time>
      </trkpt>
      <trkpt lat="44.70604" lon="5.63074">
        <ele>1500.76</ele>
        <time>2018-06-23T13:35:31Z</time>
      </trkpt>
      <trkpt lat="44.70606" lon="5.63072">
        <ele>1503.16</ele>
        <time>2018-06-23T13:35:35Z</time>
      </trkpt>
      <trkpt lat="44.70605" lon="5.63071">
        <ele>1502.2</ele>
        <time>2018-06-23T13:35:37Z</time>
      </trkpt>
      <trkpt lat="44.70606" lon="5.63069">
        <ele>1500.76</ele>
        <time>2018-06-23T13:35:49Z</time>
      </trkpt>
      <trkpt lat="44.70613" lon="5.6306">
        <ele>1497.39</ele>
        <time>2018-06-23T13:36:02Z</time>
      </trkpt>
      <trkpt lat="44.70613" lon="5.63059">
        <ele>1500.27</ele>
        <time>2018-06-23T13:36:04Z</time>
      </trkpt>
      <trkpt lat="44.70614" lon="5.63058">
        <ele>1496.91</ele>
        <time>2018-06-23T13:36:05Z</time>
      </trkpt>
      <trkpt lat="44.70613" lon="5.63056">
        <ele>1499.31</ele>
        <time>2018-06-23T13:36:09Z</time>
      </trkpt>
      <trkpt lat="44.70614" lon="5.63055">
        <ele>1493.55</ele>
        <time>2018-06-23T13:36:11Z</time>
      </trkpt>
      <trkpt lat="44.70614" lon="5.63056">
        <ele>1498.35</ele>
        <time>2018-06-23T13:36:12Z</time>
      </trkpt>
      <trkpt lat="44.70615" lon="5.63056">
        <ele>1493.06</ele>
        <time>2018-06-23T13:36:13Z</time>
      </trkpt>
      <trkpt lat="44.70616" lon="5.63055">
        <ele>1496.43</ele>
        <time>2018-06-23T13:36:15Z</time>
      </trkpt>
      <trkpt lat="44.70622" lon="5.63054">
        <ele>1495.47</ele>
        <time>2018-06-23T13:36:28Z</time>
      </trkpt>
      <trkpt lat="44.70627" lon="5.63051">
        <ele>1491.62</ele>
        <time>2018-06-23T13:36:40Z</time>
      </trkpt>
      <trkpt lat="44.70631" lon="5.63045">
        <ele>1488.74</ele>
        <time>2018-06-23T13:36:52Z</time>
      </trkpt>
      <trkpt lat="44.70634" lon="5.6304">
        <ele>1488.26</ele>
        <time>2018-06-23T13:37:01Z</time>
      </trkpt>
      <trkpt lat="44.70635" lon="5.63039">
        <ele>1486.82</ele>
        <time>2018-06-23T13:37:03Z</time>
      </trkpt>
      <trkpt lat="44.70638" lon="5.63029">
        <ele>1486.34</ele>
        <time>2018-06-23T13:37:16Z</time>
      </trkpt>
      <trkpt lat="44.70639" lon="5.63027">
        <ele>1482.97</ele>
        <time>2018-06-23T13:37:19Z</time>
      </trkpt>
      <trkpt lat="44.7064" lon="5.63026">
        <ele>1481.53</ele>
        <time>2018-06-23T13:37:23Z</time>
      </trkpt>
      <trkpt lat="44.70642" lon="5.63026">
        <ele>1483.93</ele>
        <time>2018-06-23T13:37:25Z</time>
      </trkpt>
      <trkpt lat="44.70642" lon="5.63024">
        <ele>1481.05</ele>
        <time>2018-06-23T13:37:26Z</time>
      </trkpt>
      <trkpt lat="44.70643" lon="5.63024">
        <ele>1483.93</ele>
        <time>2018-06-23T13:37:27Z</time>
      </trkpt>
      <trkpt lat="44.70644" lon="5.63023">
        <ele>1480.09</ele>
        <time>2018-06-23T13:37:29Z</time>
      </trkpt>
      <trkpt lat="44.70644" lon="5.63022">
        <ele>1482.01</ele>
        <time>2018-06-23T13:37:30Z</time>
      </trkpt>
      <trkpt lat="44.70646" lon="5.63019">
        <ele>1480.09</ele>
        <time>2018-06-23T13:37:33Z</time>
      </trkpt>
      <trkpt lat="44.70648" lon="5.63011">
        <ele>1475.76</ele>
        <time>2018-06-23T13:37:43Z</time>
      </trkpt>
      <trkpt lat="44.70648" lon="5.6301">
        <ele>1481.53</ele>
        <time>2018-06-23T13:37:44Z</time>
      </trkpt>
      <trkpt lat="44.70648" lon="5.63009">
        <ele>1478.16</ele>
        <time>2018-06-23T13:37:45Z</time>
      </trkpt>
      <trkpt lat="44.70649" lon="5.63009">
        <ele>1477.68</ele>
        <time>2018-06-23T13:37:46Z</time>
      </trkpt>
      <trkpt lat="44.70652" lon="5.62998">
        <ele>1473.84</ele>
        <time>2018-06-23T13:37:57Z</time>
      </trkpt>
      <trkpt lat="44.70653" lon="5.62991">
        <ele>1473.36</ele>
        <time>2018-06-23T13:38:08Z</time>
      </trkpt>
      <trkpt lat="44.70653" lon="5.62986">
        <ele>1469.99</ele>
        <time>2018-06-23T13:38:15Z</time>
      </trkpt>
      <trkpt lat="44.70655" lon="5.62975">
        <ele>1469.03</ele>
        <time>2018-06-23T13:38:26Z</time>
      </trkpt>
      <trkpt lat="44.70655" lon="5.62972">
        <ele>1468.07</ele>
        <time>2018-06-23T13:38:28Z</time>
      </trkpt>
      <trkpt lat="44.70655" lon="5.62971">
        <ele>1469.99</ele>
        <time>2018-06-23T13:38:29Z</time>
      </trkpt>
      <trkpt lat="44.70656" lon="5.62967">
        <ele>1466.15</ele>
        <time>2018-06-23T13:38:31Z</time>
      </trkpt>
      <trkpt lat="44.70657" lon="5.62966">
        <ele>1466.15</ele>
        <time>2018-06-23T13:38:32Z</time>
      </trkpt>
      <trkpt lat="44.70657" lon="5.62965">
        <ele>1469.99</ele>
        <time>2018-06-23T13:38:33Z</time>
      </trkpt>
      <trkpt lat="44.70658" lon="5.62963">
        <ele>1469.51</ele>
        <time>2018-06-23T13:38:34Z</time>
      </trkpt>
      <trkpt lat="44.70658" lon="5.62962">
        <ele>1463.74</ele>
        <time>2018-06-23T13:38:35Z</time>
      </trkpt>
      <trkpt lat="44.70659" lon="5.6296">
        <ele>1464.71</ele>
        <time>2018-06-23T13:38:36Z</time>
      </trkpt>
      <trkpt lat="44.7066" lon="5.62955">
        <ele>1468.07</ele>
        <time>2018-06-23T13:38:41Z</time>
      </trkpt>
      <trkpt lat="44.7066" lon="5.62954">
        <ele>1468.55</ele>
        <time>2018-06-23T13:38:42Z</time>
      </trkpt>
      <trkpt lat="44.7066" lon="5.62953">
        <ele>1464.23</ele>
        <time>2018-06-23T13:38:45Z</time>
      </trkpt>
      <trkpt lat="44.7066" lon="5.62952">
        <ele>1469.03</ele>
        <time>2018-06-23T13:38:46Z</time>
      </trkpt>
      <trkpt lat="44.7066" lon="5.62947">
        <ele>1465.19</ele>
        <time>2018-06-23T13:38:50Z</time>
      </trkpt>
      <trkpt lat="44.70659" lon="5.62945">
        <ele>1468.55</ele>
        <time>2018-06-23T13:38:52Z</time>
      </trkpt>
      <trkpt lat="44.70659" lon="5.62944">
        <ele>1465.19</ele>
        <time>2018-06-23T13:38:53Z</time>
      </trkpt>
      <trkpt lat="44.7066" lon="5.62942">
        <ele>1470.47</ele>
        <time>2018-06-23T13:38:55Z</time>
      </trkpt>
      <trkpt lat="44.7066" lon="5.62942">
        <ele>1469.51</ele>
        <time>2018-06-23T13:38:56Z</time>
      </trkpt>
      <trkpt lat="44.7066" lon="5.62941">
        <ele>1466.15</ele>
        <time>2018-06-23T13:38:57Z</time>
      </trkpt>
      <trkpt lat="44.70663" lon="5.62928">
        <ele>1467.59</ele>
        <time>2018-06-23T13:39:08Z</time>
      </trkpt>
      <trkpt lat="44.70663" lon="5.62927">
        <ele>1463.74</ele>
        <time>2018-06-23T13:39:09Z</time>
      </trkpt>
      <trkpt lat="44.70663" lon="5.62925">
        <ele>1464.71</ele>
        <time>2018-06-23T13:39:10Z</time>
      </trkpt>
      <trkpt lat="44.70665" lon="5.6292">
        <ele>1461.34</ele>
        <time>2018-06-23T13:39:19Z</time>
      </trkpt>
      <trkpt lat="44.7066" lon="5.62917">
        <ele>1464.71</ele>
        <time>2018-06-23T13:39:25Z</time>
      </trkpt>
      <trkpt lat="44.70659" lon="5.62918">
        <ele>1464.23</ele>
        <time>2018-06-23T13:39:40Z</time>
      </trkpt>
      <trkpt lat="44.70658" lon="5.62918">
        <ele>1463.26</ele>
        <time>2018-06-23T13:39:42Z</time>
      </trkpt>
      <trkpt lat="44.70658" lon="5.62919">
        <ele>1462.3</ele>
        <time>2018-06-23T13:39:56Z</time>
      </trkpt>
      <trkpt lat="44.70658" lon="5.62919">
        <ele>1462.3</ele>
        <time>2018-06-23T13:40:06Z</time>
      </trkpt>
      <trkpt lat="44.70661" lon="5.62921">
        <ele>1463.26</ele>
        <time>2018-06-23T13:40:12Z</time>
      </trkpt>
      <trkpt lat="44.70661" lon="5.62921">
        <ele>1462.78</ele>
        <time>2018-06-23T13:40:14Z</time>
      </trkpt>
      <trkpt lat="44.70663" lon="5.62913">
        <ele>1462.78</ele>
        <time>2018-06-23T13:40:25Z</time>
      </trkpt>
      <trkpt lat="44.70661" lon="5.62914">
        <ele>1458.94</ele>
        <time>2018-06-23T13:40:35Z</time>
      </trkpt>
      <trkpt lat="44.70661" lon="5.62914">
        <ele>1462.78</ele>
        <time>2018-06-23T13:40:36Z</time>
      </trkpt>
      <trkpt lat="44.7066" lon="5.62916">
        <ele>1457.02</ele>
        <time>2018-06-23T13:40:37Z</time>
      </trkpt>
      <trkpt lat="44.7066" lon="5.62917">
        <ele>1464.23</ele>
        <time>2018-06-23T13:40:38Z</time>
      </trkpt>
      <trkpt lat="44.70659" lon="5.62919">
        <ele>1459.9</ele>
        <time>2018-06-23T13:40:41Z</time>
      </trkpt>
      <trkpt lat="44.70659" lon="5.6292">
        <ele>1462.78</ele>
        <time>2018-06-23T13:40:42Z</time>
      </trkpt>
      <trkpt lat="44.7066" lon="5.62921">
        <ele>1463.26</ele>
        <time>2018-06-23T13:40:44Z</time>
      </trkpt>
      <trkpt lat="44.70661" lon="5.62925">
        <ele>1464.23</ele>
        <time>2018-06-23T13:40:47Z</time>
      </trkpt>
      <trkpt lat="44.70661" lon="5.62924">
        <ele>1464.23</ele>
        <time>2018-06-23T13:40:58Z</time>
      </trkpt>
      <trkpt lat="44.70663" lon="5.6292">
        <ele>1464.23</ele>
        <time>2018-06-23T13:41:10Z</time>
      </trkpt>
      <trkpt lat="44.70663" lon="5.62918">
        <ele>1460.86</ele>
        <time>2018-06-23T13:41:11Z</time>
      </trkpt>
      <trkpt lat="44.70664" lon="5.62917">
        <ele>1464.23</ele>
        <time>2018-06-23T13:41:12Z</time>
      </trkpt>
      <trkpt lat="44.70664" lon="5.62916">
        <ele>1459.9</ele>
        <time>2018-06-23T13:41:13Z</time>
      </trkpt>
      <trkpt lat="44.70665" lon="5.62915">
        <ele>1463.26</ele>
        <time>2018-06-23T13:41:14Z</time>
      </trkpt>
      <trkpt lat="44.70664" lon="5.62912">
        <ele>1459.9</ele>
        <time>2018-06-23T13:41:19Z</time>
      </trkpt>
      <trkpt lat="44.70657" lon="5.62911">
        <ele>1460.86</ele>
        <time>2018-06-23T13:41:42Z</time>
      </trkpt>
      <trkpt lat="44.70657" lon="5.62911">
        <ele>1461.82</ele>
        <time>2018-06-23T13:41:59Z</time>
      </trkpt>
      <trkpt lat="44.70657" lon="5.62911">
        <ele>1458.46</ele>
        <time>2018-06-23T13:42:11Z</time>
      </trkpt>
      <trkpt lat="44.70657" lon="5.62911">
        <ele>1459.9</ele>
        <time>2018-06-23T13:42:12Z</time>
      </trkpt>
      <trkpt lat="44.70657" lon="5.62911">
        <ele>1461.82</ele>
        <time>2018-06-23T13:42:18Z</time>
      </trkpt>
      <trkpt lat="44.70656" lon="5.6291">
        <ele>1461.82</ele>
        <time>2018-06-23T13:42:35Z</time>
      </trkpt>
      <trkpt lat="44.70652" lon="5.62913">
        <ele>1459.9</ele>
        <time>2018-06-23T13:42:48Z</time>
      </trkpt>
      <trkpt lat="44.70641" lon="5.6292">
        <ele>1457.98</ele>
        <time>2018-06-23T13:42:59Z</time>
      </trkpt>
      <trkpt lat="44.70638" lon="5.62924">
        <ele>1457.5</ele>
        <time>2018-06-23T13:43:08Z</time>
      </trkpt>
      <trkpt lat="44.70635" lon="5.62927">
        <ele>1456.53</ele>
        <time>2018-06-23T13:43:21Z</time>
      </trkpt>
      <trkpt lat="44.70632" lon="5.62929">
        <ele>1456.05</ele>
        <time>2018-06-23T13:43:35Z</time>
      </trkpt>
      <trkpt lat="44.70622" lon="5.62939">
        <ele>1454.61</ele>
        <time>2018-06-23T13:43:48Z</time>
      </trkpt>
      <trkpt lat="44.70614" lon="5.62946">
        <ele>1452.21</ele>
        <time>2018-06-23T13:44:00Z</time>
      </trkpt>
      <trkpt lat="44.7061" lon="5.62947">
        <ele>1450.77</ele>
        <time>2018-06-23T13:44:06Z</time>
      </trkpt>
      <trkpt lat="44.70607" lon="5.62947">
        <ele>1450.29</ele>
        <time>2018-06-23T13:44:13Z</time>
      </trkpt>
      <trkpt lat="44.70605" lon="5.62947">
        <ele>1445.96</ele>
        <time>2018-06-23T13:44:19Z</time>
      </trkpt>
      <trkpt lat="44.70604" lon="5.62946">
        <ele>1452.69</ele>
        <time>2018-06-23T13:44:20Z</time>
      </trkpt>
      <trkpt lat="44.70603" lon="5.62946">
        <ele>1448.84</ele>
        <time>2018-06-23T13:44:21Z</time>
      </trkpt>
      <trkpt lat="44.70596" lon="5.62943">
        <ele>1447.88</ele>
        <time>2018-06-23T13:44:33Z</time>
      </trkpt>
      <trkpt lat="44.70595" lon="5.62943">
        <ele>1448.36</ele>
        <time>2018-06-23T13:44:37Z</time>
      </trkpt>
      <trkpt lat="44.70596" lon="5.62944">
        <ele>1443.56</ele>
        <time>2018-06-23T13:44:51Z</time>
      </trkpt>
      <trkpt lat="44.70596" lon="5.62944">
        <ele>1450.29</ele>
        <time>2018-06-23T13:44:52Z</time>
      </trkpt>
      <trkpt lat="44.70596" lon="5.62944">
        <ele>1441.63</ele>
        <time>2018-06-23T13:44:53Z</time>
      </trkpt>
      <trkpt lat="44.70596" lon="5.62944">
        <ele>1454.13</ele>
        <time>2018-06-23T13:44:54Z</time>
      </trkpt>
      <trkpt lat="44.70596" lon="5.62944">
        <ele>1447.88</ele>
        <time>2018-06-23T13:44:55Z</time>
      </trkpt>
      <trkpt lat="44.70596" lon="5.62944">
        <ele>1446.44</ele>
        <time>2018-06-23T13:44:57Z</time>
      </trkpt>
      <trkpt lat="44.70595" lon="5.62943">
        <ele>1443.56</ele>
        <time>2018-06-23T13:45:06Z</time>
      </trkpt>
      <trkpt lat="44.70594" lon="5.62943">
        <ele>1444.04</ele>
        <time>2018-06-23T13:45:07Z</time>
      </trkpt>
      <trkpt lat="44.70593" lon="5.62942">
        <ele>1447.88</ele>
        <time>2018-06-23T13:45:08Z</time>
      </trkpt>
      <trkpt lat="44.7059" lon="5.6294">
        <ele>1444.52</ele>
        <time>2018-06-23T13:45:11Z</time>
      </trkpt>
      <trkpt lat="44.70588" lon="5.6294">
        <ele>1448.84</ele>
        <time>2018-06-23T13:45:14Z</time>
      </trkpt>
      <trkpt lat="44.70587" lon="5.6294">
        <ele>1443.08</ele>
        <time>2018-06-23T13:45:15Z</time>
      </trkpt>
      <trkpt lat="44.70584" lon="5.62939">
        <ele>1447.4</ele>
        <time>2018-06-23T13:45:18Z</time>
      </trkpt>
      <trkpt lat="44.70583" lon="5.62939">
        <ele>1443.56</ele>
        <time>2018-06-23T13:45:19Z</time>
      </trkpt>
      <trkpt lat="44.7058" lon="5.62939">
        <ele>1445</ele>
        <time>2018-06-23T13:45:22Z</time>
      </trkpt>
      <trkpt lat="44.70578" lon="5.62938">
        <ele>1442.11</ele>
        <time>2018-06-23T13:45:24Z</time>
      </trkpt>
      <trkpt lat="44.70575" lon="5.62936">
        <ele>1438.75</ele>
        <time>2018-06-23T13:45:31Z</time>
      </trkpt>
      <trkpt lat="44.70575" lon="5.62936">
        <ele>1439.71</ele>
        <time>2018-06-23T13:45:32Z</time>
      </trkpt>
      <trkpt lat="44.70575" lon="5.62936">
        <ele>1443.56</ele>
        <time>2018-06-23T13:45:33Z</time>
      </trkpt>
      <trkpt lat="44.70575" lon="5.62935">
        <ele>1440.19</ele>
        <time>2018-06-23T13:45:36Z</time>
      </trkpt>
      <trkpt lat="44.70576" lon="5.62934">
        <ele>1445</ele>
        <time>2018-06-23T13:45:39Z</time>
      </trkpt>
      <trkpt lat="44.70576" lon="5.62934">
        <ele>1439.23</ele>
        <time>2018-06-23T13:45:40Z</time>
      </trkpt>
      <trkpt lat="44.70577" lon="5.62934">
        <ele>1443.56</ele>
        <time>2018-06-23T13:45:43Z</time>
      </trkpt>
      <trkpt lat="44.70578" lon="5.62933">
        <ele>1438.27</ele>
        <time>2018-06-23T13:45:44Z</time>
      </trkpt>
      <trkpt lat="44.70579" lon="5.62933">
        <ele>1438.27</ele>
        <time>2018-06-23T13:45:45Z</time>
      </trkpt>
      <trkpt lat="44.70582" lon="5.62929">
        <ele>1442.11</ele>
        <time>2018-06-23T13:45:48Z</time>
      </trkpt>
      <trkpt lat="44.70582" lon="5.62928">
        <ele>1436.83</ele>
        <time>2018-06-23T13:45:49Z</time>
      </trkpt>
      <trkpt lat="44.70583" lon="5.62928">
        <ele>1441.63</ele>
        <time>2018-06-23T13:45:50Z</time>
      </trkpt>
      <trkpt lat="44.70584" lon="5.62928">
        <ele>1437.79</ele>
        <time>2018-06-23T13:45:51Z</time>
      </trkpt>
      <trkpt lat="44.70587" lon="5.62929">
        <ele>1436.83</ele>
        <time>2018-06-23T13:46:07Z</time>
      </trkpt>
      <trkpt lat="44.70588" lon="5.62928">
        <ele>1438.75</ele>
        <time>2018-06-23T13:46:25Z</time>
      </trkpt>
      <trkpt lat="44.70589" lon="5.62927">
        <ele>1440.19</ele>
        <time>2018-06-23T13:46:42Z</time>
      </trkpt>
      <trkpt lat="44.70587" lon="5.62929">
        <ele>1440.19</ele>
        <time>2018-06-23T13:46:57Z</time>
      </trkpt>
      <trkpt lat="44.70583" lon="5.62933">
        <ele>1441.15</ele>
        <time>2018-06-23T13:47:09Z</time>
      </trkpt>
      <trkpt lat="44.70576" lon="5.62939">
        <ele>1442.11</ele>
        <time>2018-06-23T13:47:23Z</time>
      </trkpt>
      <trkpt lat="44.70575" lon="5.6294">
        <ele>1442.6</ele>
        <time>2018-06-23T13:47:37Z</time>
      </trkpt>
      <trkpt lat="44.70576" lon="5.6294">
        <ele>1443.08</ele>
        <time>2018-06-23T13:47:46Z</time>
      </trkpt>
      <trkpt lat="44.70579" lon="5.62941">
        <ele>1444.52</ele>
        <time>2018-06-23T13:47:56Z</time>
      </trkpt>
      <trkpt lat="44.70585" lon="5.62944">
        <ele>1445.96</ele>
        <time>2018-06-23T13:48:08Z</time>
      </trkpt>
      <trkpt lat="44.70599" lon="5.62949">
        <ele>1446.92</ele>
        <time>2018-06-23T13:48:20Z</time>
      </trkpt>
      <trkpt lat="44.70606" lon="5.62948">
        <ele>1447.88</ele>
        <time>2018-06-23T13:48:30Z</time>
      </trkpt>
      <trkpt lat="44.70612" lon="5.62948">
        <ele>1449.32</ele>
        <time>2018-06-23T13:48:42Z</time>
      </trkpt>
      <trkpt lat="44.70617" lon="5.62944">
        <ele>1450.29</ele>
        <time>2018-06-23T13:48:52Z</time>
      </trkpt>
      <trkpt lat="44.70623" lon="5.62942">
        <ele>1451.25</ele>
        <time>2018-06-23T13:49:02Z</time>
      </trkpt>
      <trkpt lat="44.70627" lon="5.62937">
        <ele>1453.17</ele>
        <time>2018-06-23T13:49:12Z</time>
      </trkpt>
      <trkpt lat="44.70633" lon="5.62932">
        <ele>1453.65</ele>
        <time>2018-06-23T13:49:21Z</time>
      </trkpt>
      <trkpt lat="44.70633" lon="5.62931">
        <ele>1454.13</ele>
        <time>2018-06-23T13:49:22Z</time>
      </trkpt>
      <trkpt lat="44.70636" lon="5.62926">
        <ele>1455.09</ele>
        <time>2018-06-23T13:49:32Z</time>
      </trkpt>
      <trkpt lat="44.7064" lon="5.62922">
        <ele>1455.09</ele>
        <time>2018-06-23T13:49:40Z</time>
      </trkpt>
      <trkpt lat="44.70646" lon="5.62919">
        <ele>1456.05</ele>
        <time>2018-06-23T13:49:49Z</time>
      </trkpt>
      <trkpt lat="44.70649" lon="5.62915">
        <ele>1456.53</ele>
        <time>2018-06-23T13:49:58Z</time>
      </trkpt>
      <trkpt lat="44.70652" lon="5.62913">
        <ele>1457.98</ele>
        <time>2018-06-23T13:50:05Z</time>
      </trkpt>
      <trkpt lat="44.70656" lon="5.62911">
        <ele>1458.46</ele>
        <time>2018-06-23T13:50:13Z</time>
      </trkpt>
      <trkpt lat="44.70659" lon="5.62911">
        <ele>1458.94</ele>
        <time>2018-06-23T13:50:21Z</time>
      </trkpt>
      <trkpt lat="44.70657" lon="5.62919">
        <ele>1460.38</ele>
        <time>2018-06-23T13:50:30Z</time>
      </trkpt>
      <trkpt lat="44.70654" lon="5.62921">
        <ele>1460.38</ele>
        <time>2018-06-23T13:50:41Z</time>
      </trkpt>
      <trkpt lat="44.70648" lon="5.62924">
        <ele>1459.9</ele>
        <time>2018-06-23T13:50:50Z</time>
      </trkpt>
      <trkpt lat="44.70647" lon="5.62924">
        <ele>1459.9</ele>
        <time>2018-06-23T13:50:55Z</time>
      </trkpt>
      <trkpt lat="44.70642" lon="5.62927">
        <ele>1460.86</ele>
        <time>2018-06-23T13:51:00Z</time>
      </trkpt>
      <trkpt lat="44.70638" lon="5.62928">
        <ele>1456.05</ele>
        <time>2018-06-23T13:51:03Z</time>
      </trkpt>
      <trkpt lat="44.70637" lon="5.62928">
        <ele>1460.38</ele>
        <time>2018-06-23T13:51:04Z</time>
      </trkpt>
      <trkpt lat="44.70634" lon="5.62931">
        <ele>1460.38</ele>
        <time>2018-06-23T13:51:08Z</time>
      </trkpt>
      <trkpt lat="44.70633" lon="5.62933">
        <ele>1457.98</ele>
        <time>2018-06-23T13:51:10Z</time>
      </trkpt>
      <trkpt lat="44.70632" lon="5.62934">
        <ele>1461.34</ele>
        <time>2018-06-23T13:51:11Z</time>
      </trkpt>
      <trkpt lat="44.70632" lon="5.62935">
        <ele>1457.02</ele>
        <time>2018-06-23T13:51:12Z</time>
      </trkpt>
      <trkpt lat="44.70628" lon="5.62941">
        <ele>1458.46</ele>
        <time>2018-06-23T13:51:19Z</time>
      </trkpt>
      <trkpt lat="44.70626" lon="5.62942">
        <ele>1458.94</ele>
        <time>2018-06-23T13:51:21Z</time>
      </trkpt>
      <trkpt lat="44.70626" lon="5.62943">
        <ele>1467.11</ele>
        <time>2018-06-23T13:51:22Z</time>
      </trkpt>
      <trkpt lat="44.70625" lon="5.62944">
        <ele>1457.02</ele>
        <time>2018-06-23T13:51:23Z</time>
      </trkpt>
      <trkpt lat="44.70623" lon="5.62945">
        <ele>1461.82</ele>
        <time>2018-06-23T13:51:25Z</time>
      </trkpt>
      <trkpt lat="44.70621" lon="5.62946">
        <ele>1457.02</ele>
        <time>2018-06-23T13:51:26Z</time>
      </trkpt>
      <trkpt lat="44.7062" lon="5.62947">
        <ele>1460.86</ele>
        <time>2018-06-23T13:51:27Z</time>
      </trkpt>
      <trkpt lat="44.7062" lon="5.62947">
        <ele>1454.61</ele>
        <time>2018-06-23T13:51:28Z</time>
      </trkpt>
      <trkpt lat="44.70619" lon="5.62947">
        <ele>1457.98</ele>
        <time>2018-06-23T13:51:29Z</time>
      </trkpt>
      <trkpt lat="44.70617" lon="5.62948">
        <ele>1459.42</ele>
        <time>2018-06-23T13:51:31Z</time>
      </trkpt>
      <trkpt lat="44.70616" lon="5.62949">
        <ele>1455.09</ele>
        <time>2018-06-23T13:51:32Z</time>
      </trkpt>
      <trkpt lat="44.70614" lon="5.62949">
        <ele>1457.5</ele>
        <time>2018-06-23T13:51:33Z</time>
      </trkpt>
      <trkpt lat="44.70614" lon="5.6295">
        <ele>1461.82</ele>
        <time>2018-06-23T13:51:34Z</time>
      </trkpt>
      <trkpt lat="44.70613" lon="5.62951">
        <ele>1459.42</ele>
        <time>2018-06-23T13:51:35Z</time>
      </trkpt>
      <trkpt lat="44.70612" lon="5.62952">
        <ele>1454.13</ele>
        <time>2018-06-23T13:51:36Z</time>
      </trkpt>
      <trkpt lat="44.70611" lon="5.62953">
        <ele>1457.5</ele>
        <time>2018-06-23T13:51:37Z</time>
      </trkpt>
      <trkpt lat="44.70609" lon="5.62953">
        <ele>1459.9</ele>
        <time>2018-06-23T13:51:38Z</time>
      </trkpt>
      <trkpt lat="44.70607" lon="5.62954">
        <ele>1454.13</ele>
        <time>2018-06-23T13:51:41Z</time>
      </trkpt>
      <trkpt lat="44.70604" lon="5.62954">
        <ele>1459.9</ele>
        <time>2018-06-23T13:51:43Z</time>
      </trkpt>
      <trkpt lat="44.70603" lon="5.62955">
        <ele>1455.09</ele>
        <time>2018-06-23T13:51:44Z</time>
      </trkpt>
      <trkpt lat="44.70602" lon="5.62956">
        <ele>1456.53</ele>
        <time>2018-06-23T13:51:46Z</time>
      </trkpt>
      <trkpt lat="44.70601" lon="5.62957">
        <ele>1457.02</ele>
        <time>2018-06-23T13:51:47Z</time>
      </trkpt>
      <trkpt lat="44.70601" lon="5.62958">
        <ele>1452.69</ele>
        <time>2018-06-23T13:51:48Z</time>
      </trkpt>
      <trkpt lat="44.706" lon="5.62959">
        <ele>1456.53</ele>
        <time>2018-06-23T13:51:49Z</time>
      </trkpt>
      <trkpt lat="44.706" lon="5.62961">
        <ele>1454.61</ele>
        <time>2018-06-23T13:51:50Z</time>
      </trkpt>
      <trkpt lat="44.706" lon="5.62962">
        <ele>1458.46</ele>
        <time>2018-06-23T13:51:51Z</time>
      </trkpt>
      <trkpt lat="44.70599" lon="5.62963">
        <ele>1457.98</ele>
        <time>2018-06-23T13:51:52Z</time>
      </trkpt>
      <trkpt lat="44.70599" lon="5.62963">
        <ele>1452.69</ele>
        <time>2018-06-23T13:51:53Z</time>
      </trkpt>
      <trkpt lat="44.70599" lon="5.62963">
        <ele>1453.65</ele>
        <time>2018-06-23T13:51:54Z</time>
      </trkpt>
      <trkpt lat="44.70598" lon="5.62962">
        <ele>1451.73</ele>
        <time>2018-06-23T13:51:55Z</time>
      </trkpt>
      <trkpt lat="44.70598" lon="5.62962">
        <ele>1459.42</ele>
        <time>2018-06-23T13:51:56Z</time>
      </trkpt>
      <trkpt lat="44.70597" lon="5.62962">
        <ele>1452.69</ele>
        <time>2018-06-23T13:51:57Z</time>
      </trkpt>
      <trkpt lat="44.70596" lon="5.62963">
        <ele>1457.02</ele>
        <time>2018-06-23T13:51:59Z</time>
      </trkpt>
      <trkpt lat="44.70595" lon="5.62963">
        <ele>1458.46</ele>
        <time>2018-06-23T13:52:00Z</time>
      </trkpt>
      <trkpt lat="44.70595" lon="5.62963">
        <ele>1453.17</ele>
        <time>2018-06-23T13:52:01Z</time>
      </trkpt>
      <trkpt lat="44.70594" lon="5.62962">
        <ele>1454.13</ele>
        <time>2018-06-23T13:52:02Z</time>
      </trkpt>
      <trkpt lat="44.70592" lon="5.62961">
        <ele>1458.46</ele>
        <time>2018-06-23T13:52:04Z</time>
      </trkpt>
      <trkpt lat="44.7059" lon="5.6296">
        <ele>1457.5</ele>
        <time>2018-06-23T13:52:05Z</time>
      </trkpt>
      <trkpt lat="44.70588" lon="5.62959">
        <ele>1453.17</ele>
        <time>2018-06-23T13:52:07Z</time>
      </trkpt>
      <trkpt lat="44.70587" lon="5.62958">
        <ele>1452.21</ele>
        <time>2018-06-23T13:52:08Z</time>
      </trkpt>
      <trkpt lat="44.70586" lon="5.62958">
        <ele>1459.42</ele>
        <time>2018-06-23T13:52:09Z</time>
      </trkpt>
      <trkpt lat="44.70585" lon="5.62958">
        <ele>1453.17</ele>
        <time>2018-06-23T13:52:10Z</time>
      </trkpt>
      <trkpt lat="44.70584" lon="5.62958">
        <ele>1453.17</ele>
        <time>2018-06-23T13:52:11Z</time>
      </trkpt>
      <trkpt lat="44.70581" lon="5.62959">
        <ele>1457.5</ele>
        <time>2018-06-23T13:52:13Z</time>
      </trkpt>
      <trkpt lat="44.70581" lon="5.62959">
        <ele>1453.17</ele>
        <time>2018-06-23T13:52:14Z</time>
      </trkpt>
      <trkpt lat="44.7058" lon="5.62959">
        <ele>1457.98</ele>
        <time>2018-06-23T13:52:15Z</time>
      </trkpt>
      <trkpt lat="44.7058" lon="5.6296">
        <ele>1452.69</ele>
        <time>2018-06-23T13:52:16Z</time>
      </trkpt>
      <trkpt lat="44.7058" lon="5.6296">
        <ele>1456.53</ele>
        <time>2018-06-23T13:52:17Z</time>
      </trkpt>
      <trkpt lat="44.70579" lon="5.6296">
        <ele>1455.09</ele>
        <time>2018-06-23T13:52:20Z</time>
      </trkpt>
      <trkpt lat="44.70578" lon="5.62961">
        <ele>1451.25</ele>
        <time>2018-06-23T13:52:23Z</time>
      </trkpt>
      <trkpt lat="44.70577" lon="5.62961">
        <ele>1455.09</ele>
        <time>2018-06-23T13:52:24Z</time>
      </trkpt>
      <trkpt lat="44.70572" lon="5.62962">
        <ele>1452.69</ele>
        <time>2018-06-23T13:52:27Z</time>
      </trkpt>
      <trkpt lat="44.7057" lon="5.62962">
        <ele>1455.09</ele>
        <time>2018-06-23T13:52:29Z</time>
      </trkpt>
      <trkpt lat="44.70569" lon="5.62962">
        <ele>1457.98</ele>
        <time>2018-06-23T13:52:30Z</time>
      </trkpt>
      <trkpt lat="44.70569" lon="5.62962">
        <ele>1452.69</ele>
        <time>2018-06-23T13:52:31Z</time>
      </trkpt>
      <trkpt lat="44.70568" lon="5.62962">
        <ele>1455.57</ele>
        <time>2018-06-23T13:52:33Z</time>
      </trkpt>
      <trkpt lat="44.70568" lon="5.62964">
        <ele>1450.29</ele>
        <time>2018-06-23T13:52:34Z</time>
      </trkpt>
      <trkpt lat="44.70567" lon="5.62965">
        <ele>1453.65</ele>
        <time>2018-06-23T13:52:35Z</time>
      </trkpt>
      <trkpt lat="44.70564" lon="5.62965">
        <ele>1455.57</ele>
        <time>2018-06-23T13:52:37Z</time>
      </trkpt>
      <trkpt lat="44.70564" lon="5.62964">
        <ele>1450.29</ele>
        <time>2018-06-23T13:52:38Z</time>
      </trkpt>
      <trkpt lat="44.70563" lon="5.62964">
        <ele>1453.65</ele>
        <time>2018-06-23T13:52:39Z</time>
      </trkpt>
      <trkpt lat="44.70558" lon="5.62965">
        <ele>1453.17</ele>
        <time>2018-06-23T13:52:43Z</time>
      </trkpt>
      <trkpt lat="44.70549" lon="5.62968">
        <ele>1447.88</ele>
        <time>2018-06-23T13:52:49Z</time>
      </trkpt>
      <trkpt lat="44.70548" lon="5.62969">
        <ele>1456.05</ele>
        <time>2018-06-23T13:52:50Z</time>
      </trkpt>
      <trkpt lat="44.70547" lon="5.62969">
        <ele>1451.73</ele>
        <time>2018-06-23T13:52:51Z</time>
      </trkpt>
      <trkpt lat="44.7054" lon="5.62973">
        <ele>1453.17</ele>
        <time>2018-06-23T13:52:57Z</time>
      </trkpt>
      <trkpt lat="44.70539" lon="5.62973">
        <ele>1455.09</ele>
        <time>2018-06-23T13:52:58Z</time>
      </trkpt>
      <trkpt lat="44.70539" lon="5.62974">
        <ele>1450.29</ele>
        <time>2018-06-23T13:52:59Z</time>
      </trkpt>
      <trkpt lat="44.70538" lon="5.62975">
        <ele>1450.77</ele>
        <time>2018-06-23T13:53:00Z</time>
      </trkpt>
      <trkpt lat="44.70538" lon="5.62978">
        <ele>1455.09</ele>
        <time>2018-06-23T13:53:02Z</time>
      </trkpt>
      <trkpt lat="44.70538" lon="5.62979">
        <ele>1450.29</ele>
        <time>2018-06-23T13:53:03Z</time>
      </trkpt>
      <trkpt lat="44.70537" lon="5.62981">
        <ele>1451.25</ele>
        <time>2018-06-23T13:53:04Z</time>
      </trkpt>
      <trkpt lat="44.70536" lon="5.62983">
        <ele>1453.17</ele>
        <time>2018-06-23T13:53:06Z</time>
      </trkpt>
      <trkpt lat="44.70535" lon="5.62984">
        <ele>1447.88</ele>
        <time>2018-06-23T13:53:07Z</time>
      </trkpt>
      <trkpt lat="44.70535" lon="5.62985">
        <ele>1451.73</ele>
        <time>2018-06-23T13:53:08Z</time>
      </trkpt>
      <trkpt lat="44.70534" lon="5.62988">
        <ele>1448.36</ele>
        <time>2018-06-23T13:53:11Z</time>
      </trkpt>
      <trkpt lat="44.70534" lon="5.62989">
        <ele>1452.21</ele>
        <time>2018-06-23T13:53:12Z</time>
      </trkpt>
      <trkpt lat="44.70532" lon="5.62991">
        <ele>1453.17</ele>
        <time>2018-06-23T13:53:14Z</time>
      </trkpt>
      <trkpt lat="44.7053" lon="5.62992">
        <ele>1450.77</ele>
        <time>2018-06-23T13:53:16Z</time>
      </trkpt>
      <trkpt lat="44.70524" lon="5.62997">
        <ele>1447.4</ele>
        <time>2018-06-23T13:53:23Z</time>
      </trkpt>
      <trkpt lat="44.70523" lon="5.62998">
        <ele>1451.25</ele>
        <time>2018-06-23T13:53:24Z</time>
      </trkpt>
      <trkpt lat="44.70522" lon="5.63">
        <ele>1447.4</ele>
        <time>2018-06-23T13:53:27Z</time>
      </trkpt>
      <trkpt lat="44.7052" lon="5.63001">
        <ele>1451.73</ele>
        <time>2018-06-23T13:53:29Z</time>
      </trkpt>
      <trkpt lat="44.70519" lon="5.63002">
        <ele>1447.88</ele>
        <time>2018-06-23T13:53:30Z</time>
      </trkpt>
      <trkpt lat="44.70518" lon="5.63003">
        <ele>1448.36</ele>
        <time>2018-06-23T13:53:31Z</time>
      </trkpt>
      <trkpt lat="44.70517" lon="5.63004">
        <ele>1449.81</ele>
        <time>2018-06-23T13:53:33Z</time>
      </trkpt>
      <trkpt lat="44.70513" lon="5.63006">
        <ele>1444.52</ele>
        <time>2018-06-23T13:53:40Z</time>
      </trkpt>
      <trkpt lat="44.70512" lon="5.63007">
        <ele>1447.88</ele>
        <time>2018-06-23T13:53:41Z</time>
      </trkpt>
      <trkpt lat="44.70509" lon="5.6301">
        <ele>1444.52</ele>
        <time>2018-06-23T13:53:44Z</time>
      </trkpt>
      <trkpt lat="44.70509" lon="5.6301">
        <ele>1445</ele>
        <time>2018-06-23T13:53:45Z</time>
      </trkpt>
      <trkpt lat="44.70507" lon="5.63012">
        <ele>1447.88</ele>
        <time>2018-06-23T13:53:47Z</time>
      </trkpt>
      <trkpt lat="44.70506" lon="5.63013">
        <ele>1446.92</ele>
        <time>2018-06-23T13:53:48Z</time>
      </trkpt>
      <trkpt lat="44.70505" lon="5.63014">
        <ele>1443.08</ele>
        <time>2018-06-23T13:53:49Z</time>
      </trkpt>
      <trkpt lat="44.70505" lon="5.63016">
        <ele>1445.96</ele>
        <time>2018-06-23T13:53:50Z</time>
      </trkpt>
      <trkpt lat="44.70503" lon="5.63018">
        <ele>1446.92</ele>
        <time>2018-06-23T13:53:52Z</time>
      </trkpt>
      <trkpt lat="44.70501" lon="5.6302">
        <ele>1441.63</ele>
        <time>2018-06-23T13:53:54Z</time>
      </trkpt>
      <trkpt lat="44.70499" lon="5.63023">
        <ele>1446.44</ele>
        <time>2018-06-23T13:53:57Z</time>
      </trkpt>
      <trkpt lat="44.70497" lon="5.63024">
        <ele>1441.63</ele>
        <time>2018-06-23T13:53:59Z</time>
      </trkpt>
      <trkpt lat="44.70496" lon="5.63025">
        <ele>1443.56</ele>
        <time>2018-06-23T13:54:00Z</time>
      </trkpt>
      <trkpt lat="44.70495" lon="5.63026">
        <ele>1444.52</ele>
        <time>2018-06-23T13:54:02Z</time>
      </trkpt>
      <trkpt lat="44.70489" lon="5.63031">
        <ele>1441.15</ele>
        <time>2018-06-23T13:54:08Z</time>
      </trkpt>
      <trkpt lat="44.70487" lon="5.63033">
        <ele>1445.48</ele>
        <time>2018-06-23T13:54:11Z</time>
      </trkpt>
      <trkpt lat="44.70485" lon="5.63035">
        <ele>1440.19</ele>
        <time>2018-06-23T13:54:13Z</time>
      </trkpt>
      <trkpt lat="44.70484" lon="5.63036">
        <ele>1443.08</ele>
        <time>2018-06-23T13:54:14Z</time>
      </trkpt>
      <trkpt lat="44.70482" lon="5.63041">
        <ele>1439.71</ele>
        <time>2018-06-23T13:54:17Z</time>
      </trkpt>
      <trkpt lat="44.70481" lon="5.63042">
        <ele>1443.08</ele>
        <time>2018-06-23T13:54:18Z</time>
      </trkpt>
      <trkpt lat="44.70481" lon="5.63043">
        <ele>1439.71</ele>
        <time>2018-06-23T13:54:20Z</time>
      </trkpt>
      <trkpt lat="44.7048" lon="5.63045">
        <ele>1439.23</ele>
        <time>2018-06-23T13:54:22Z</time>
      </trkpt>
      <trkpt lat="44.70479" lon="5.63047">
        <ele>1445</ele>
        <time>2018-06-23T13:54:24Z</time>
      </trkpt>
      <trkpt lat="44.70478" lon="5.63048">
        <ele>1440.67</ele>
        <time>2018-06-23T13:54:25Z</time>
      </trkpt>
      <trkpt lat="44.70476" lon="5.63049">
        <ele>1438.27</ele>
        <time>2018-06-23T13:54:27Z</time>
      </trkpt>
      <trkpt lat="44.70473" lon="5.63052">
        <ele>1442.6</ele>
        <time>2018-06-23T13:54:33Z</time>
      </trkpt>
      <trkpt lat="44.70472" lon="5.63054">
        <ele>1438.27</ele>
        <time>2018-06-23T13:54:35Z</time>
      </trkpt>
      <trkpt lat="44.70468" lon="5.63057">
        <ele>1435.87</ele>
        <time>2018-06-23T13:54:41Z</time>
      </trkpt>
      <trkpt lat="44.70468" lon="5.63057">
        <ele>1437.79</ele>
        <time>2018-06-23T13:54:42Z</time>
      </trkpt>
      <trkpt lat="44.70466" lon="5.63058">
        <ele>1434.42</ele>
        <time>2018-06-23T13:54:44Z</time>
      </trkpt>
      <trkpt lat="44.70465" lon="5.63058">
        <ele>1439.71</ele>
        <time>2018-06-23T13:54:45Z</time>
      </trkpt>
      <trkpt lat="44.70465" lon="5.63059">
        <ele>1435.39</ele>
        <time>2018-06-23T13:54:46Z</time>
      </trkpt>
      <trkpt lat="44.70463" lon="5.63062">
        <ele>1439.23</ele>
        <time>2018-06-23T13:54:48Z</time>
      </trkpt>
      <trkpt lat="44.70462" lon="5.63062">
        <ele>1434.91</ele>
        <time>2018-06-23T13:54:49Z</time>
      </trkpt>
      <trkpt lat="44.70463" lon="5.63064">
        <ele>1435.87</ele>
        <time>2018-06-23T13:54:50Z</time>
      </trkpt>
      <trkpt lat="44.70461" lon="5.63065">
        <ele>1437.79</ele>
        <time>2018-06-23T13:54:51Z</time>
      </trkpt>
      <trkpt lat="44.70457" lon="5.63066">
        <ele>1433.94</ele>
        <time>2018-06-23T13:54:54Z</time>
      </trkpt>
      <trkpt lat="44.70456" lon="5.63066">
        <ele>1434.42</ele>
        <time>2018-06-23T13:54:55Z</time>
      </trkpt>
      <trkpt lat="44.70453" lon="5.6307">
        <ele>1430.58</ele>
        <time>2018-06-23T13:55:01Z</time>
      </trkpt>
      <trkpt lat="44.70453" lon="5.63071">
        <ele>1434.42</ele>
        <time>2018-06-23T13:55:02Z</time>
      </trkpt>
      <trkpt lat="44.70451" lon="5.63072">
        <ele>1437.31</ele>
        <time>2018-06-23T13:55:04Z</time>
      </trkpt>
      <trkpt lat="44.7045" lon="5.63072">
        <ele>1433.46</ele>
        <time>2018-06-23T13:55:05Z</time>
      </trkpt>
      <trkpt lat="44.70449" lon="5.63073">
        <ele>1429.62</ele>
        <time>2018-06-23T13:55:06Z</time>
      </trkpt>
      <trkpt lat="44.70449" lon="5.63073">
        <ele>1432.98</ele>
        <time>2018-06-23T13:55:07Z</time>
      </trkpt>
      <trkpt lat="44.70439" lon="5.63082">
        <ele>1427.7</ele>
        <time>2018-06-23T13:55:17Z</time>
      </trkpt>
      <trkpt lat="44.70437" lon="5.63087">
        <ele>1433.94</ele>
        <time>2018-06-23T13:55:20Z</time>
      </trkpt>
      <trkpt lat="44.70436" lon="5.63088">
        <ele>1432.98</ele>
        <time>2018-06-23T13:55:21Z</time>
      </trkpt>
      <trkpt lat="44.70435" lon="5.63089">
        <ele>1428.18</ele>
        <time>2018-06-23T13:55:22Z</time>
      </trkpt>
      <trkpt lat="44.70434" lon="5.6309">
        <ele>1429.14</ele>
        <time>2018-06-23T13:55:23Z</time>
      </trkpt>
      <trkpt lat="44.70433" lon="5.63092">
        <ele>1433.94</ele>
        <time>2018-06-23T13:55:25Z</time>
      </trkpt>
      <trkpt lat="44.70431" lon="5.63095">
        <ele>1432.5</ele>
        <time>2018-06-23T13:55:27Z</time>
      </trkpt>
      <trkpt lat="44.7043" lon="5.63095">
        <ele>1428.66</ele>
        <time>2018-06-23T13:55:28Z</time>
      </trkpt>
      <trkpt lat="44.70429" lon="5.63096">
        <ele>1428.18</ele>
        <time>2018-06-23T13:55:29Z</time>
      </trkpt>
      <trkpt lat="44.70429" lon="5.63096">
        <ele>1432.02</ele>
        <time>2018-06-23T13:55:31Z</time>
      </trkpt>
      <trkpt lat="44.70426" lon="5.63098">
        <ele>1425.29</ele>
        <time>2018-06-23T13:55:34Z</time>
      </trkpt>
      <trkpt lat="44.70424" lon="5.63098">
        <ele>1427.21</ele>
        <time>2018-06-23T13:55:35Z</time>
      </trkpt>
      <trkpt lat="44.70423" lon="5.631">
        <ele>1430.58</ele>
        <time>2018-06-23T13:55:37Z</time>
      </trkpt>
      <trkpt lat="44.70422" lon="5.631">
        <ele>1430.1</ele>
        <time>2018-06-23T13:55:38Z</time>
      </trkpt>
      <trkpt lat="44.70421" lon="5.63101">
        <ele>1425.77</ele>
        <time>2018-06-23T13:55:40Z</time>
      </trkpt>
      <trkpt lat="44.7042" lon="5.63102">
        <ele>1427.7</ele>
        <time>2018-06-23T13:55:41Z</time>
      </trkpt>
      <trkpt lat="44.70418" lon="5.63103">
        <ele>1429.62</ele>
        <time>2018-06-23T13:55:43Z</time>
      </trkpt>
      <trkpt lat="44.70418" lon="5.63103">
        <ele>1424.81</ele>
        <time>2018-06-23T13:55:44Z</time>
      </trkpt>
      <trkpt lat="44.70417" lon="5.63104">
        <ele>1424.81</ele>
        <time>2018-06-23T13:55:45Z</time>
      </trkpt>
      <trkpt lat="44.70416" lon="5.63105">
        <ele>1424.33</ele>
        <time>2018-06-23T13:55:46Z</time>
      </trkpt>
      <trkpt lat="44.70416" lon="5.63106">
        <ele>1430.58</ele>
        <time>2018-06-23T13:55:47Z</time>
      </trkpt>
      <trkpt lat="44.70414" lon="5.63109">
        <ele>1426.73</ele>
        <time>2018-06-23T13:55:49Z</time>
      </trkpt>
      <trkpt lat="44.70413" lon="5.6311">
        <ele>1423.37</ele>
        <time>2018-06-23T13:55:50Z</time>
      </trkpt>
      <trkpt lat="44.70412" lon="5.63111">
        <ele>1423.85</ele>
        <time>2018-06-23T13:55:51Z</time>
      </trkpt>
      <trkpt lat="44.70411" lon="5.63113">
        <ele>1427.21</ele>
        <time>2018-06-23T13:55:53Z</time>
      </trkpt>
      <trkpt lat="44.7041" lon="5.63114">
        <ele>1430.58</ele>
        <time>2018-06-23T13:55:54Z</time>
      </trkpt>
      <trkpt lat="44.70409" lon="5.63115">
        <ele>1425.29</ele>
        <time>2018-06-23T13:55:55Z</time>
      </trkpt>
      <trkpt lat="44.70408" lon="5.63117">
        <ele>1424.33</ele>
        <time>2018-06-23T13:55:57Z</time>
      </trkpt>
      <trkpt lat="44.70407" lon="5.63118">
        <ele>1426.73</ele>
        <time>2018-06-23T13:55:58Z</time>
      </trkpt>
      <trkpt lat="44.70402" lon="5.63121">
        <ele>1422.89</ele>
        <time>2018-06-23T13:56:03Z</time>
      </trkpt>
      <trkpt lat="44.70401" lon="5.63122">
        <ele>1423.85</ele>
        <time>2018-06-23T13:56:04Z</time>
      </trkpt>
      <trkpt lat="44.704" lon="5.63123">
        <ele>1427.21</ele>
        <time>2018-06-23T13:56:05Z</time>
      </trkpt>
      <trkpt lat="44.70398" lon="5.63125">
        <ele>1423.85</ele>
        <time>2018-06-23T13:56:07Z</time>
      </trkpt>
      <trkpt lat="44.70388" lon="5.63127">
        <ele>1420</ele>
        <time>2018-06-23T13:56:14Z</time>
      </trkpt>
      <trkpt lat="44.70387" lon="5.63127">
        <ele>1422.89</ele>
        <time>2018-06-23T13:56:15Z</time>
      </trkpt>
      <trkpt lat="44.70383" lon="5.63126">
        <ele>1420.49</ele>
        <time>2018-06-23T13:56:19Z</time>
      </trkpt>
      <trkpt lat="44.70382" lon="5.63126">
        <ele>1424.81</ele>
        <time>2018-06-23T13:56:20Z</time>
      </trkpt>
      <trkpt lat="44.70382" lon="5.63127">
        <ele>1423.37</ele>
        <time>2018-06-23T13:56:21Z</time>
      </trkpt>
      <trkpt lat="44.70379" lon="5.63129">
        <ele>1419.52</ele>
        <time>2018-06-23T13:56:24Z</time>
      </trkpt>
      <trkpt lat="44.70379" lon="5.6313">
        <ele>1423.85</ele>
        <time>2018-06-23T13:56:25Z</time>
      </trkpt>
      <trkpt lat="44.70379" lon="5.63131">
        <ele>1423.37</ele>
        <time>2018-06-23T13:56:26Z</time>
      </trkpt>
      <trkpt lat="44.70377" lon="5.63133">
        <ele>1419.04</ele>
        <time>2018-06-23T13:56:29Z</time>
      </trkpt>
      <trkpt lat="44.70378" lon="5.63134">
        <ele>1422.41</ele>
        <time>2018-06-23T13:56:30Z</time>
      </trkpt>
      <trkpt lat="44.70377" lon="5.6314">
        <ele>1421.93</ele>
        <time>2018-06-23T13:56:48Z</time>
      </trkpt>
      <trkpt lat="44.70379" lon="5.63142">
        <ele>1421.45</ele>
        <time>2018-06-23T13:57:06Z</time>
      </trkpt>
      <trkpt lat="44.70379" lon="5.63143">
        <ele>1420.97</ele>
        <time>2018-06-23T13:57:11Z</time>
      </trkpt>
      <trkpt lat="44.70379" lon="5.63144">
        <ele>1422.41</ele>
        <time>2018-06-23T13:57:13Z</time>
      </trkpt>
      <trkpt lat="44.70379" lon="5.63145">
        <ele>1419.52</ele>
        <time>2018-06-23T13:57:18Z</time>
      </trkpt>
      <trkpt lat="44.70377" lon="5.63146">
        <ele>1423.85</ele>
        <time>2018-06-23T13:57:21Z</time>
      </trkpt>
      <trkpt lat="44.70376" lon="5.63146">
        <ele>1421.45</ele>
        <time>2018-06-23T13:57:22Z</time>
      </trkpt>
      <trkpt lat="44.70375" lon="5.63146">
        <ele>1417.6</ele>
        <time>2018-06-23T13:57:23Z</time>
      </trkpt>
      <trkpt lat="44.70374" lon="5.63147">
        <ele>1419.52</ele>
        <time>2018-06-23T13:57:24Z</time>
      </trkpt>
      <trkpt lat="44.70373" lon="5.63147">
        <ele>1423.85</ele>
        <time>2018-06-23T13:57:26Z</time>
      </trkpt>
      <trkpt lat="44.70372" lon="5.63147">
        <ele>1418.08</ele>
        <time>2018-06-23T13:57:27Z</time>
      </trkpt>
      <trkpt lat="44.70369" lon="5.63148">
        <ele>1423.37</ele>
        <time>2018-06-23T13:57:30Z</time>
      </trkpt>
      <trkpt lat="44.70369" lon="5.63148">
        <ele>1419.04</ele>
        <time>2018-06-23T13:57:31Z</time>
      </trkpt>
      <trkpt lat="44.70368" lon="5.63149">
        <ele>1422.41</ele>
        <time>2018-06-23T13:57:32Z</time>
      </trkpt>
      <trkpt lat="44.70367" lon="5.6315">
        <ele>1416.64</ele>
        <time>2018-06-23T13:57:33Z</time>
      </trkpt>
      <trkpt lat="44.70366" lon="5.63151">
        <ele>1417.6</ele>
        <time>2018-06-23T13:57:34Z</time>
      </trkpt>
      <trkpt lat="44.70365" lon="5.63152">
        <ele>1422.41</ele>
        <time>2018-06-23T13:57:36Z</time>
      </trkpt>
      <trkpt lat="44.70363" lon="5.63153">
        <ele>1416.16</ele>
        <time>2018-06-23T13:57:37Z</time>
      </trkpt>
      <trkpt lat="44.70362" lon="5.63154">
        <ele>1416.64</ele>
        <time>2018-06-23T13:57:38Z</time>
      </trkpt>
      <trkpt lat="44.70361" lon="5.63155">
        <ele>1417.12</ele>
        <time>2018-06-23T13:57:39Z</time>
      </trkpt>
      <trkpt lat="44.7036" lon="5.63156">
        <ele>1420.97</ele>
        <time>2018-06-23T13:57:40Z</time>
      </trkpt>
      <trkpt lat="44.70357" lon="5.63156">
        <ele>1415.68</ele>
        <time>2018-06-23T13:57:42Z</time>
      </trkpt>
      <trkpt lat="44.70355" lon="5.63157">
        <ele>1416.16</ele>
        <time>2018-06-23T13:57:43Z</time>
      </trkpt>
      <trkpt lat="44.70354" lon="5.6316">
        <ele>1420.97</ele>
        <time>2018-06-23T13:57:46Z</time>
      </trkpt>
      <trkpt lat="44.70354" lon="5.63161">
        <ele>1418.56</ele>
        <time>2018-06-23T13:57:47Z</time>
      </trkpt>
      <trkpt lat="44.70353" lon="5.63161">
        <ele>1413.76</ele>
        <time>2018-06-23T13:57:48Z</time>
      </trkpt>
      <trkpt lat="44.70352" lon="5.63162">
        <ele>1415.2</ele>
        <time>2018-06-23T13:57:49Z</time>
      </trkpt>
      <trkpt lat="44.70351" lon="5.63162">
        <ele>1418.56</ele>
        <time>2018-06-23T13:57:50Z</time>
      </trkpt>
      <trkpt lat="44.70349" lon="5.63162">
        <ele>1414.24</ele>
        <time>2018-06-23T13:57:52Z</time>
      </trkpt>
      <trkpt lat="44.70347" lon="5.63162">
        <ele>1418.56</ele>
        <time>2018-06-23T13:57:53Z</time>
      </trkpt>
      <trkpt lat="44.70346" lon="5.63162">
        <ele>1415.68</ele>
        <time>2018-06-23T13:57:54Z</time>
      </trkpt>
      <trkpt lat="44.70345" lon="5.63163">
        <ele>1420</ele>
        <time>2018-06-23T13:57:55Z</time>
      </trkpt>
      <trkpt lat="44.70344" lon="5.63163">
        <ele>1416.16</ele>
        <time>2018-06-23T13:57:56Z</time>
      </trkpt>
      <trkpt lat="44.70343" lon="5.63163">
        <ele>1420</ele>
        <time>2018-06-23T13:57:57Z</time>
      </trkpt>
      <trkpt lat="44.70343" lon="5.63164">
        <ele>1414.24</ele>
        <time>2018-06-23T13:57:58Z</time>
      </trkpt>
      <trkpt lat="44.70342" lon="5.63164">
        <ele>1418.56</ele>
        <time>2018-06-23T13:57:59Z</time>
      </trkpt>
      <trkpt lat="44.70342" lon="5.63164">
        <ele>1414.72</ele>
        <time>2018-06-23T13:58:00Z</time>
      </trkpt>
      <trkpt lat="44.70342" lon="5.63165">
        <ele>1418.08</ele>
        <time>2018-06-23T13:58:01Z</time>
      </trkpt>
      <trkpt lat="44.70341" lon="5.63166">
        <ele>1417.12</ele>
        <time>2018-06-23T13:58:02Z</time>
      </trkpt>
      <trkpt lat="44.7034" lon="5.63166">
        <ele>1413.28</ele>
        <time>2018-06-23T13:58:03Z</time>
      </trkpt>
      <trkpt lat="44.70339" lon="5.63167">
        <ele>1411.83</ele>
        <time>2018-06-23T13:58:04Z</time>
      </trkpt>
      <trkpt lat="44.70336" lon="5.63168">
        <ele>1419.04</ele>
        <time>2018-06-23T13:58:06Z</time>
      </trkpt>
      <trkpt lat="44.7033" lon="5.6317">
        <ele>1410.39</ele>
        <time>2018-06-23T13:58:10Z</time>
      </trkpt>
      <trkpt lat="44.70329" lon="5.6317">
        <ele>1417.6</ele>
        <time>2018-06-23T13:58:11Z</time>
      </trkpt>
      <trkpt lat="44.70328" lon="5.63171">
        <ele>1417.12</ele>
        <time>2018-06-23T13:58:12Z</time>
      </trkpt>
      <trkpt lat="44.70326" lon="5.63173">
        <ele>1408.47</ele>
        <time>2018-06-23T13:58:14Z</time>
      </trkpt>
      <trkpt lat="44.70326" lon="5.63173">
        <ele>1414.24</ele>
        <time>2018-06-23T13:58:15Z</time>
      </trkpt>
      <trkpt lat="44.70323" lon="5.63175">
        <ele>1410.87</ele>
        <time>2018-06-23T13:58:18Z</time>
      </trkpt>
      <trkpt lat="44.70314" lon="5.6318">
        <ele>1410.87</ele>
        <time>2018-06-23T13:58:26Z</time>
      </trkpt>
      <trkpt lat="44.70312" lon="5.63181">
        <ele>1414.24</ele>
        <time>2018-06-23T13:58:28Z</time>
      </trkpt>
      <trkpt lat="44.7031" lon="5.63181">
        <ele>1411.35</ele>
        <time>2018-06-23T13:58:29Z</time>
      </trkpt>
      <trkpt lat="44.70309" lon="5.63182">
        <ele>1408.95</ele>
        <time>2018-06-23T13:58:31Z</time>
      </trkpt>
      <trkpt lat="44.70304" lon="5.63185">
        <ele>1413.76</ele>
        <time>2018-06-23T13:58:35Z</time>
      </trkpt>
      <trkpt lat="44.70303" lon="5.63186">
        <ele>1409.91</ele>
        <time>2018-06-23T13:58:36Z</time>
      </trkpt>
      <trkpt lat="44.703" lon="5.63188">
        <ele>1408.47</ele>
        <time>2018-06-23T13:58:38Z</time>
      </trkpt>
      <trkpt lat="44.70299" lon="5.63189">
        <ele>1412.31</ele>
        <time>2018-06-23T13:58:39Z</time>
      </trkpt>
      <trkpt lat="44.70297" lon="5.63192">
        <ele>1407.51</ele>
        <time>2018-06-23T13:58:41Z</time>
      </trkpt>
      <trkpt lat="44.70295" lon="5.63198">
        <ele>1412.31</ele>
        <time>2018-06-23T13:58:44Z</time>
      </trkpt>
      <trkpt lat="44.70293" lon="5.63201">
        <ele>1407.99</ele>
        <time>2018-06-23T13:58:46Z</time>
      </trkpt>
      <trkpt lat="44.70294" lon="5.6321">
        <ele>1411.35</ele>
        <time>2018-06-23T13:58:48Z</time>
      </trkpt>
      <trkpt lat="44.70294" lon="5.63214">
        <ele>1405.58</ele>
        <time>2018-06-23T13:58:49Z</time>
      </trkpt>
      <trkpt lat="44.70294" lon="5.63217">
        <ele>1411.35</ele>
        <time>2018-06-23T13:58:50Z</time>
      </trkpt>
      <trkpt lat="44.70293" lon="5.63223">
        <ele>1407.99</ele>
        <time>2018-06-23T13:58:53Z</time>
      </trkpt>
      <trkpt lat="44.70292" lon="5.63225">
        <ele>1406.07</ele>
        <time>2018-06-23T13:58:54Z</time>
      </trkpt>
      <trkpt lat="44.70292" lon="5.63228">
        <ele>1407.99</ele>
        <time>2018-06-23T13:58:56Z</time>
      </trkpt>
      <trkpt lat="44.70292" lon="5.63235">
        <ele>1407.03</ele>
        <time>2018-06-23T13:59:00Z</time>
      </trkpt>
      <trkpt lat="44.70292" lon="5.63246">
        <ele>1411.35</ele>
        <time>2018-06-23T13:59:06Z</time>
      </trkpt>
      <trkpt lat="44.70292" lon="5.63246">
        <ele>1406.55</ele>
        <time>2018-06-23T13:59:07Z</time>
      </trkpt>
      <trkpt lat="44.70291" lon="5.63249">
        <ele>1404.62</ele>
        <time>2018-06-23T13:59:12Z</time>
      </trkpt>
      <trkpt lat="44.70292" lon="5.63258">
        <ele>1403.66</ele>
        <time>2018-06-23T13:59:17Z</time>
      </trkpt>
      <trkpt lat="44.70293" lon="5.63262">
        <ele>1407.51</ele>
        <time>2018-06-23T13:59:20Z</time>
      </trkpt>
      <trkpt lat="44.70293" lon="5.63263">
        <ele>1402.7</ele>
        <time>2018-06-23T13:59:21Z</time>
      </trkpt>
      <trkpt lat="44.70293" lon="5.63265">
        <ele>1404.14</ele>
        <time>2018-06-23T13:59:22Z</time>
      </trkpt>
      <trkpt lat="44.70293" lon="5.63268">
        <ele>1404.62</ele>
        <time>2018-06-23T13:59:24Z</time>
      </trkpt>
      <trkpt lat="44.70292" lon="5.63271">
        <ele>1399.82</ele>
        <time>2018-06-23T13:59:27Z</time>
      </trkpt>
      <trkpt lat="44.70292" lon="5.63272">
        <ele>1405.1</ele>
        <time>2018-06-23T13:59:28Z</time>
      </trkpt>
      <trkpt lat="44.70292" lon="5.63274">
        <ele>1401.74</ele>
        <time>2018-06-23T13:59:30Z</time>
      </trkpt>
      <trkpt lat="44.70292" lon="5.63275">
        <ele>1402.7</ele>
        <time>2018-06-23T13:59:31Z</time>
      </trkpt>
      <trkpt lat="44.70291" lon="5.63276">
        <ele>1406.55</ele>
        <time>2018-06-23T13:59:33Z</time>
      </trkpt>
      <trkpt lat="44.7029" lon="5.63277">
        <ele>1401.26</ele>
        <time>2018-06-23T13:59:34Z</time>
      </trkpt>
      <trkpt lat="44.7029" lon="5.63278">
        <ele>1402.22</ele>
        <time>2018-06-23T13:59:35Z</time>
      </trkpt>
      <trkpt lat="44.7029" lon="5.63283">
        <ele>1405.1</ele>
        <time>2018-06-23T13:59:39Z</time>
      </trkpt>
      <trkpt lat="44.7029" lon="5.63284">
        <ele>1400.3</ele>
        <time>2018-06-23T13:59:40Z</time>
      </trkpt>
      <trkpt lat="44.70289" lon="5.63285">
        <ele>1400.3</ele>
        <time>2018-06-23T13:59:41Z</time>
      </trkpt>
      <trkpt lat="44.70289" lon="5.63287">
        <ele>1403.66</ele>
        <time>2018-06-23T13:59:42Z</time>
      </trkpt>
      <trkpt lat="44.70288" lon="5.63288">
        <ele>1399.82</ele>
        <time>2018-06-23T13:59:44Z</time>
      </trkpt>
      <trkpt lat="44.70287" lon="5.63292">
        <ele>1404.62</ele>
        <time>2018-06-23T13:59:47Z</time>
      </trkpt>
      <trkpt lat="44.70286" lon="5.63293">
        <ele>1404.62</ele>
        <time>2018-06-23T13:59:48Z</time>
      </trkpt>
      <trkpt lat="44.70286" lon="5.63295">
        <ele>1399.34</ele>
        <time>2018-06-23T13:59:50Z</time>
      </trkpt>
      <trkpt lat="44.70286" lon="5.63297">
        <ele>1400.3</ele>
        <time>2018-06-23T13:59:51Z</time>
      </trkpt>
      <trkpt lat="44.70285" lon="5.63298">
        <ele>1403.66</ele>
        <time>2018-06-23T13:59:52Z</time>
      </trkpt>
      <trkpt lat="44.70285" lon="5.63299">
        <ele>1400.78</ele>
        <time>2018-06-23T13:59:53Z</time>
      </trkpt>
      <trkpt lat="44.70285" lon="5.633">
        <ele>1397.89</ele>
        <time>2018-06-23T13:59:54Z</time>
      </trkpt>
      <trkpt lat="44.70285" lon="5.633">
        <ele>1400.3</ele>
        <time>2018-06-23T13:59:55Z</time>
      </trkpt>
      <trkpt lat="44.70285" lon="5.633">
        <ele>1403.66</ele>
        <time>2018-06-23T13:59:56Z</time>
      </trkpt>
      <trkpt lat="44.70284" lon="5.63301">
        <ele>1400.3</ele>
        <time>2018-06-23T13:59:57Z</time>
      </trkpt>
      <trkpt lat="44.70283" lon="5.63303">
        <ele>1404.14</ele>
        <time>2018-06-23T14:00:00Z</time>
      </trkpt>
      <trkpt lat="44.70283" lon="5.63305">
        <ele>1401.74</ele>
        <time>2018-06-23T14:00:01Z</time>
      </trkpt>
      <trkpt lat="44.70284" lon="5.63306">
        <ele>1395.97</ele>
        <time>2018-06-23T14:00:03Z</time>
      </trkpt>
      <trkpt lat="44.70284" lon="5.63307">
        <ele>1400.78</ele>
        <time>2018-06-23T14:00:04Z</time>
      </trkpt>
      <trkpt lat="44.70284" lon="5.63309">
        <ele>1397.41</ele>
        <time>2018-06-23T14:00:06Z</time>
      </trkpt>
      <trkpt lat="44.70284" lon="5.6331">
        <ele>1398.86</ele>
        <time>2018-06-23T14:00:07Z</time>
      </trkpt>
      <trkpt lat="44.70285" lon="5.63316">
        <ele>1395.49</ele>
        <time>2018-06-23T14:00:11Z</time>
      </trkpt>
      <trkpt lat="44.70286" lon="5.63318">
        <ele>1400.3</ele>
        <time>2018-06-23T14:00:12Z</time>
      </trkpt>
      <trkpt lat="44.70289" lon="5.63322">
        <ele>1398.37</ele>
        <time>2018-06-23T14:00:33Z</time>
      </trkpt>
      <trkpt lat="44.70289" lon="5.63322">
        <ele>1402.22</ele>
        <time>2018-06-23T14:00:34Z</time>
      </trkpt>
      <trkpt lat="44.70289" lon="5.63323">
        <ele>1395.49</ele>
        <time>2018-06-23T14:00:36Z</time>
      </trkpt>
      <trkpt lat="44.70289" lon="5.63323">
        <ele>1398.86</ele>
        <time>2018-06-23T14:00:37Z</time>
      </trkpt>
      <trkpt lat="44.70289" lon="5.63323">
        <ele>1399.82</ele>
        <time>2018-06-23T14:00:39Z</time>
      </trkpt>
      <trkpt lat="44.7029" lon="5.63325">
        <ele>1398.37</ele>
        <time>2018-06-23T14:01:02Z</time>
      </trkpt>
      <trkpt lat="44.70288" lon="5.63322">
        <ele>1398.37</ele>
        <time>2018-06-23T14:01:14Z</time>
      </trkpt>
      <trkpt lat="44.70283" lon="5.63324">
        <ele>1395.01</ele>
        <time>2018-06-23T14:01:30Z</time>
      </trkpt>
      <trkpt lat="44.70283" lon="5.63325">
        <ele>1400.78</ele>
        <time>2018-06-23T14:01:31Z</time>
      </trkpt>
      <trkpt lat="44.70282" lon="5.63327">
        <ele>1394.05</ele>
        <time>2018-06-23T14:01:33Z</time>
      </trkpt>
      <trkpt lat="44.70282" lon="5.63328">
        <ele>1398.37</ele>
        <time>2018-06-23T14:01:34Z</time>
      </trkpt>
      <trkpt lat="44.70282" lon="5.63332">
        <ele>1396.45</ele>
        <time>2018-06-23T14:01:37Z</time>
      </trkpt>
      <trkpt lat="44.70282" lon="5.63334">
        <ele>1397.89</ele>
        <time>2018-06-23T14:01:39Z</time>
      </trkpt>
      <trkpt lat="44.70282" lon="5.63337">
        <ele>1396.45</ele>
        <time>2018-06-23T14:01:41Z</time>
      </trkpt>
      <trkpt lat="44.70282" lon="5.63341">
        <ele>1399.34</ele>
        <time>2018-06-23T14:01:44Z</time>
      </trkpt>
      <trkpt lat="44.70282" lon="5.63342">
        <ele>1394.05</ele>
        <time>2018-06-23T14:01:45Z</time>
      </trkpt>
      <trkpt lat="44.70282" lon="5.63345">
        <ele>1397.89</ele>
        <time>2018-06-23T14:01:47Z</time>
      </trkpt>
      <trkpt lat="44.70283" lon="5.63347">
        <ele>1393.09</ele>
        <time>2018-06-23T14:01:48Z</time>
      </trkpt>
      <trkpt lat="44.70283" lon="5.63348">
        <ele>1393.57</ele>
        <time>2018-06-23T14:01:49Z</time>
      </trkpt>
      <trkpt lat="44.70283" lon="5.63349">
        <ele>1397.89</ele>
        <time>2018-06-23T14:01:50Z</time>
      </trkpt>
      <trkpt lat="44.70283" lon="5.63351">
        <ele>1396.45</ele>
        <time>2018-06-23T14:01:51Z</time>
      </trkpt>
      <trkpt lat="44.70283" lon="5.63352">
        <ele>1393.09</ele>
        <time>2018-06-23T14:01:52Z</time>
      </trkpt>
      <trkpt lat="44.70284" lon="5.63354">
        <ele>1393.09</ele>
        <time>2018-06-23T14:01:53Z</time>
      </trkpt>
      <trkpt lat="44.70284" lon="5.63358">
        <ele>1397.41</ele>
        <time>2018-06-23T14:01:56Z</time>
      </trkpt>
      <trkpt lat="44.70283" lon="5.6336">
        <ele>1391.17</ele>
        <time>2018-06-23T14:01:58Z</time>
      </trkpt>
      <trkpt lat="44.70283" lon="5.63362">
        <ele>1395.97</ele>
        <time>2018-06-23T14:01:59Z</time>
      </trkpt>
      <trkpt lat="44.70283" lon="5.63365">
        <ele>1387.8</ele>
        <time>2018-06-23T14:02:02Z</time>
      </trkpt>
      <trkpt lat="44.70283" lon="5.63366">
        <ele>1394.05</ele>
        <time>2018-06-23T14:02:03Z</time>
      </trkpt>
      <trkpt lat="44.70282" lon="5.63371">
        <ele>1390.2</ele>
        <time>2018-06-23T14:02:07Z</time>
      </trkpt>
      <trkpt lat="44.70282" lon="5.63373">
        <ele>1393.09</ele>
        <time>2018-06-23T14:02:09Z</time>
      </trkpt>
      <trkpt lat="44.70282" lon="5.63376">
        <ele>1389.24</ele>
        <time>2018-06-23T14:02:11Z</time>
      </trkpt>
      <trkpt lat="44.70282" lon="5.63377">
        <ele>1390.2</ele>
        <time>2018-06-23T14:02:12Z</time>
      </trkpt>
      <trkpt lat="44.70281" lon="5.63381">
        <ele>1392.13</ele>
        <time>2018-06-23T14:02:14Z</time>
      </trkpt>
      <trkpt lat="44.7028" lon="5.63394">
        <ele>1387.8</ele>
        <time>2018-06-23T14:02:22Z</time>
      </trkpt>
      <trkpt lat="44.7028" lon="5.63395">
        <ele>1392.61</ele>
        <time>2018-06-23T14:02:23Z</time>
      </trkpt>
      <trkpt lat="44.7028" lon="5.63396">
        <ele>1391.65</ele>
        <time>2018-06-23T14:02:24Z</time>
      </trkpt>
      <trkpt lat="44.70278" lon="5.63399">
        <ele>1387.8</ele>
        <time>2018-06-23T14:02:26Z</time>
      </trkpt>
      <trkpt lat="44.70278" lon="5.63402">
        <ele>1393.57</ele>
        <time>2018-06-23T14:02:28Z</time>
      </trkpt>
      <trkpt lat="44.70278" lon="5.63403">
        <ele>1388.76</ele>
        <time>2018-06-23T14:02:29Z</time>
      </trkpt>
      <trkpt lat="44.70279" lon="5.63404">
        <ele>1392.61</ele>
        <time>2018-06-23T14:02:30Z</time>
      </trkpt>
      <trkpt lat="44.70278" lon="5.63406">
        <ele>1388.76</ele>
        <time>2018-06-23T14:02:31Z</time>
      </trkpt>
      <trkpt lat="44.70278" lon="5.63411">
        <ele>1390.2</ele>
        <time>2018-06-23T14:02:35Z</time>
      </trkpt>
      <trkpt lat="44.70278" lon="5.63412">
        <ele>1384.44</ele>
        <time>2018-06-23T14:02:36Z</time>
      </trkpt>
      <trkpt lat="44.70278" lon="5.63413">
        <ele>1386.84</ele>
        <time>2018-06-23T14:02:37Z</time>
      </trkpt>
      <trkpt lat="44.70278" lon="5.63418">
        <ele>1386.84</ele>
        <time>2018-06-23T14:02:40Z</time>
      </trkpt>
      <trkpt lat="44.70278" lon="5.63422">
        <ele>1385.4</ele>
        <time>2018-06-23T14:02:43Z</time>
      </trkpt>
      <trkpt lat="44.70278" lon="5.63423">
        <ele>1388.28</ele>
        <time>2018-06-23T14:02:44Z</time>
      </trkpt>
      <trkpt lat="44.70278" lon="5.63425">
        <ele>1392.61</ele>
        <time>2018-06-23T14:02:45Z</time>
      </trkpt>
      <trkpt lat="44.70278" lon="5.63426">
        <ele>1386.36</ele>
        <time>2018-06-23T14:02:46Z</time>
      </trkpt>
      <trkpt lat="44.70277" lon="5.63427">
        <ele>1386.36</ele>
        <time>2018-06-23T14:02:47Z</time>
      </trkpt>
      <trkpt lat="44.70277" lon="5.63434">
        <ele>1386.84</ele>
        <time>2018-06-23T14:02:53Z</time>
      </trkpt>
      <trkpt lat="44.70277" lon="5.63437">
        <ele>1387.8</ele>
        <time>2018-06-23T14:02:55Z</time>
      </trkpt>
      <trkpt lat="44.70277" lon="5.63439">
        <ele>1383.47</ele>
        <time>2018-06-23T14:02:56Z</time>
      </trkpt>
      <trkpt lat="44.70277" lon="5.63441">
        <ele>1386.84</ele>
        <time>2018-06-23T14:02:57Z</time>
      </trkpt>
      <trkpt lat="44.70277" lon="5.63446">
        <ele>1389.72</ele>
        <time>2018-06-23T14:03:00Z</time>
      </trkpt>
      <trkpt lat="44.70278" lon="5.63447">
        <ele>1386.36</ele>
        <time>2018-06-23T14:03:01Z</time>
      </trkpt>
      <trkpt lat="44.70277" lon="5.63451">
        <ele>1382.99</ele>
        <time>2018-06-23T14:03:06Z</time>
      </trkpt>
      <trkpt lat="44.70277" lon="5.63453">
        <ele>1386.84</ele>
        <time>2018-06-23T14:03:08Z</time>
      </trkpt>
      <trkpt lat="44.70277" lon="5.63456">
        <ele>1380.11</ele>
        <time>2018-06-23T14:03:10Z</time>
      </trkpt>
      <trkpt lat="44.70276" lon="5.63457">
        <ele>1387.32</ele>
        <time>2018-06-23T14:03:11Z</time>
      </trkpt>
      <trkpt lat="44.70273" lon="5.63465">
        <ele>1379.63</ele>
        <time>2018-06-23T14:03:17Z</time>
      </trkpt>
      <trkpt lat="44.70272" lon="5.63466">
        <ele>1384.92</ele>
        <time>2018-06-23T14:03:18Z</time>
      </trkpt>
      <trkpt lat="44.70271" lon="5.63468">
        <ele>1386.36</ele>
        <time>2018-06-23T14:03:20Z</time>
      </trkpt>
      <trkpt lat="44.7027" lon="5.63469">
        <ele>1382.99</ele>
        <time>2018-06-23T14:03:21Z</time>
      </trkpt>
      <trkpt lat="44.7027" lon="5.6347">
        <ele>1378.67</ele>
        <time>2018-06-23T14:03:22Z</time>
      </trkpt>
      <trkpt lat="44.70266" lon="5.63477">
        <ele>1379.63</ele>
        <time>2018-06-23T14:03:27Z</time>
      </trkpt>
      <trkpt lat="44.70265" lon="5.63478">
        <ele>1382.03</ele>
        <time>2018-06-23T14:03:28Z</time>
      </trkpt>
      <trkpt lat="44.70264" lon="5.63478">
        <ele>1379.15</ele>
        <time>2018-06-23T14:03:29Z</time>
      </trkpt>
      <trkpt lat="44.70263" lon="5.63479">
        <ele>1382.03</ele>
        <time>2018-06-23T14:03:30Z</time>
      </trkpt>
      <trkpt lat="44.70259" lon="5.63484">
        <ele>1381.55</ele>
        <time>2018-06-23T14:03:34Z</time>
      </trkpt>
      <trkpt lat="44.70258" lon="5.63484">
        <ele>1380.11</ele>
        <time>2018-06-23T14:03:35Z</time>
      </trkpt>
      <trkpt lat="44.70255" lon="5.63487">
        <ele>1382.99</ele>
        <time>2018-06-23T14:03:38Z</time>
      </trkpt>
      <trkpt lat="44.70254" lon="5.63488">
        <ele>1379.15</ele>
        <time>2018-06-23T14:03:39Z</time>
      </trkpt>
      <trkpt lat="44.70253" lon="5.63489">
        <ele>1380.11</ele>
        <time>2018-06-23T14:03:40Z</time>
      </trkpt>
      <trkpt lat="44.70252" lon="5.63491">
        <ele>1384.44</ele>
        <time>2018-06-23T14:03:42Z</time>
      </trkpt>
      <trkpt lat="44.70251" lon="5.63493">
        <ele>1381.07</ele>
        <time>2018-06-23T14:03:43Z</time>
      </trkpt>
      <trkpt lat="44.70251" lon="5.63494">
        <ele>1377.71</ele>
        <time>2018-06-23T14:03:44Z</time>
      </trkpt>
      <trkpt lat="44.7025" lon="5.63495">
        <ele>1382.03</ele>
        <time>2018-06-23T14:03:45Z</time>
      </trkpt>
      <trkpt lat="44.70248" lon="5.635">
        <ele>1385.4</ele>
        <time>2018-06-23T14:03:48Z</time>
      </trkpt>
      <trkpt lat="44.70247" lon="5.63501">
        <ele>1379.63</ele>
        <time>2018-06-23T14:03:49Z</time>
      </trkpt>
      <trkpt lat="44.70246" lon="5.63505">
        <ele>1378.19</ele>
        <time>2018-06-23T14:03:51Z</time>
      </trkpt>
      <trkpt lat="44.70245" lon="5.63507">
        <ele>1383.47</ele>
        <time>2018-06-23T14:03:53Z</time>
      </trkpt>
      <trkpt lat="44.70245" lon="5.63508">
        <ele>1378.67</ele>
        <time>2018-06-23T14:03:54Z</time>
      </trkpt>
      <trkpt lat="44.70244" lon="5.63511">
        <ele>1382.03</ele>
        <time>2018-06-23T14:03:56Z</time>
      </trkpt>
      <trkpt lat="44.70243" lon="5.63514">
        <ele>1376.75</ele>
        <time>2018-06-23T14:03:58Z</time>
      </trkpt>
      <trkpt lat="44.7024" lon="5.6352">
        <ele>1382.51</ele>
        <time>2018-06-23T14:04:03Z</time>
      </trkpt>
      <trkpt lat="44.7024" lon="5.63522">
        <ele>1378.67</ele>
        <time>2018-06-23T14:04:04Z</time>
      </trkpt>
      <trkpt lat="44.70239" lon="5.63522">
        <ele>1373.86</ele>
        <time>2018-06-23T14:04:05Z</time>
      </trkpt>
      <trkpt lat="44.70239" lon="5.63523">
        <ele>1377.71</ele>
        <time>2018-06-23T14:04:06Z</time>
      </trkpt>
      <trkpt lat="44.70237" lon="5.63528">
        <ele>1378.19</ele>
        <time>2018-06-23T14:04:11Z</time>
      </trkpt>
      <trkpt lat="44.70236" lon="5.63527">
        <ele>1376.75</ele>
        <time>2018-06-23T14:04:22Z</time>
      </trkpt>
      <trkpt lat="44.70236" lon="5.63526">
        <ele>1380.11</ele>
        <time>2018-06-23T14:04:35Z</time>
      </trkpt>
      <trkpt lat="44.70236" lon="5.63526">
        <ele>1374.34</ele>
        <time>2018-06-23T14:04:36Z</time>
      </trkpt>
      <trkpt lat="44.70236" lon="5.63526">
        <ele>1378.67</ele>
        <time>2018-06-23T14:04:37Z</time>
      </trkpt>
      <trkpt lat="44.70235" lon="5.63529">
        <ele>1374.82</ele>
        <time>2018-06-23T14:04:47Z</time>
      </trkpt>
      <trkpt lat="44.70235" lon="5.63529">
        <ele>1379.15</ele>
        <time>2018-06-23T14:04:48Z</time>
      </trkpt>
      <trkpt lat="44.70235" lon="5.63529">
        <ele>1375.78</ele>
        <time>2018-06-23T14:04:52Z</time>
      </trkpt>
      <trkpt lat="44.70234" lon="5.63534">
        <ele>1376.75</ele>
        <time>2018-06-23T14:05:03Z</time>
      </trkpt>
      <trkpt lat="44.70233" lon="5.63538">
        <ele>1380.11</ele>
        <time>2018-06-23T14:05:10Z</time>
      </trkpt>
      <trkpt lat="44.70233" lon="5.63539">
        <ele>1378.19</ele>
        <time>2018-06-23T14:05:11Z</time>
      </trkpt>
      <trkpt lat="44.70232" lon="5.63541">
        <ele>1373.38</ele>
        <time>2018-06-23T14:05:12Z</time>
      </trkpt>
      <trkpt lat="44.70231" lon="5.63542">
        <ele>1375.3</ele>
        <time>2018-06-23T14:05:13Z</time>
      </trkpt>
      <trkpt lat="44.70232" lon="5.63552">
        <ele>1378.67</ele>
        <time>2018-06-23T14:05:20Z</time>
      </trkpt>
      <trkpt lat="44.70232" lon="5.63553">
        <ele>1375.78</ele>
        <time>2018-06-23T14:05:21Z</time>
      </trkpt>
      <trkpt lat="44.70233" lon="5.63556">
        <ele>1372.42</ele>
        <time>2018-06-23T14:05:24Z</time>
      </trkpt>
      <trkpt lat="44.70233" lon="5.63558">
        <ele>1375.78</ele>
        <time>2018-06-23T14:05:26Z</time>
      </trkpt>
      <trkpt lat="44.70234" lon="5.63558">
        <ele>1375.78</ele>
        <time>2018-06-23T14:05:27Z</time>
      </trkpt>
      <trkpt lat="44.70235" lon="5.63559">
        <ele>1371.46</ele>
        <time>2018-06-23T14:05:31Z</time>
      </trkpt>
      <trkpt lat="44.70235" lon="5.63559">
        <ele>1374.34</ele>
        <time>2018-06-23T14:05:32Z</time>
      </trkpt>
      <trkpt lat="44.70234" lon="5.63559">
        <ele>1374.34</ele>
        <time>2018-06-23T14:05:37Z</time>
      </trkpt>
      <trkpt lat="44.70234" lon="5.63559">
        <ele>1375.78</ele>
        <time>2018-06-23T14:05:39Z</time>
      </trkpt>
      <trkpt lat="44.70234" lon="5.63559">
        <ele>1374.82</ele>
        <time>2018-06-23T14:05:41Z</time>
      </trkpt>
      <trkpt lat="44.70233" lon="5.63561">
        <ele>1378.19</ele>
        <time>2018-06-23T14:05:56Z</time>
      </trkpt>
      <trkpt lat="44.70233" lon="5.63561">
        <ele>1377.71</ele>
        <time>2018-06-23T14:05:57Z</time>
      </trkpt>
      <trkpt lat="44.70233" lon="5.63562">
        <ele>1373.86</ele>
        <time>2018-06-23T14:05:58Z</time>
      </trkpt>
      <trkpt lat="44.70233" lon="5.63564">
        <ele>1373.38</ele>
        <time>2018-06-23T14:05:59Z</time>
      </trkpt>
      <trkpt lat="44.70231" lon="5.63572">
        <ele>1372.42</ele>
        <time>2018-06-23T14:06:05Z</time>
      </trkpt>
      <trkpt lat="44.70231" lon="5.63575">
        <ele>1375.3</ele>
        <time>2018-06-23T14:06:07Z</time>
      </trkpt>
      <trkpt lat="44.70232" lon="5.63577">
        <ele>1371.46</ele>
        <time>2018-06-23T14:06:09Z</time>
      </trkpt>
      <trkpt lat="44.70232" lon="5.6358">
        <ele>1378.67</ele>
        <time>2018-06-23T14:06:11Z</time>
      </trkpt>
      <trkpt lat="44.70232" lon="5.63581">
        <ele>1375.78</ele>
        <time>2018-06-23T14:06:12Z</time>
      </trkpt>
      <trkpt lat="44.70232" lon="5.63583">
        <ele>1370.5</ele>
        <time>2018-06-23T14:06:13Z</time>
      </trkpt>
      <trkpt lat="44.70232" lon="5.63585">
        <ele>1370.5</ele>
        <time>2018-06-23T14:06:14Z</time>
      </trkpt>
      <trkpt lat="44.70232" lon="5.63587">
        <ele>1374.82</ele>
        <time>2018-06-23T14:06:16Z</time>
      </trkpt>
      <trkpt lat="44.70232" lon="5.6359">
        <ele>1371.46</ele>
        <time>2018-06-23T14:06:18Z</time>
      </trkpt>
      <trkpt lat="44.70231" lon="5.63593">
        <ele>1375.78</ele>
        <time>2018-06-23T14:06:21Z</time>
      </trkpt>
      <trkpt lat="44.70231" lon="5.63595">
        <ele>1370.5</ele>
        <time>2018-06-23T14:06:22Z</time>
      </trkpt>
      <trkpt lat="44.70231" lon="5.63601">
        <ele>1375.3</ele>
        <time>2018-06-23T14:06:27Z</time>
      </trkpt>
      <trkpt lat="44.7023" lon="5.63603">
        <ele>1370.98</ele>
        <time>2018-06-23T14:06:28Z</time>
      </trkpt>
      <trkpt lat="44.70229" lon="5.63608">
        <ele>1376.75</ele>
        <time>2018-06-23T14:06:31Z</time>
      </trkpt>
      <trkpt lat="44.70229" lon="5.63609">
        <ele>1371.94</ele>
        <time>2018-06-23T14:06:32Z</time>
      </trkpt>
      <trkpt lat="44.70229" lon="5.63617">
        <ele>1369.54</ele>
        <time>2018-06-23T14:06:38Z</time>
      </trkpt>
      <trkpt lat="44.70229" lon="5.63617">
        <ele>1369.05</ele>
        <time>2018-06-23T14:06:39Z</time>
      </trkpt>
      <trkpt lat="44.70229" lon="5.63622">
        <ele>1373.86</ele>
        <time>2018-06-23T14:06:41Z</time>
      </trkpt>
      <trkpt lat="44.7023" lon="5.63625">
        <ele>1369.05</ele>
        <time>2018-06-23T14:06:43Z</time>
      </trkpt>
      <trkpt lat="44.7023" lon="5.63627">
        <ele>1373.38</ele>
        <time>2018-06-23T14:06:45Z</time>
      </trkpt>
      <trkpt lat="44.7023" lon="5.6363">
        <ele>1368.57</ele>
        <time>2018-06-23T14:06:47Z</time>
      </trkpt>
      <trkpt lat="44.7023" lon="5.63631">
        <ele>1373.86</ele>
        <time>2018-06-23T14:06:48Z</time>
      </trkpt>
      <trkpt lat="44.70229" lon="5.63633">
        <ele>1373.38</ele>
        <time>2018-06-23T14:06:49Z</time>
      </trkpt>
      <trkpt lat="44.70229" lon="5.63635">
        <ele>1372.9</ele>
        <time>2018-06-23T14:06:51Z</time>
      </trkpt>
      <trkpt lat="44.70229" lon="5.63639">
        <ele>1369.05</ele>
        <time>2018-06-23T14:06:54Z</time>
      </trkpt>
      <trkpt lat="44.70229" lon="5.63641">
        <ele>1372.42</ele>
        <time>2018-06-23T14:06:55Z</time>
      </trkpt>
      <trkpt lat="44.70229" lon="5.63644">
        <ele>1368.09</ele>
        <time>2018-06-23T14:06:57Z</time>
      </trkpt>
      <trkpt lat="44.70229" lon="5.63648">
        <ele>1371.46</ele>
        <time>2018-06-23T14:06:59Z</time>
      </trkpt>
      <trkpt lat="44.7023" lon="5.63653">
        <ele>1367.13</ele>
        <time>2018-06-23T14:07:02Z</time>
      </trkpt>
      <trkpt lat="44.70229" lon="5.63658">
        <ele>1370.98</ele>
        <time>2018-06-23T14:07:05Z</time>
      </trkpt>
      <trkpt lat="44.70229" lon="5.63661">
        <ele>1367.61</ele>
        <time>2018-06-23T14:07:07Z</time>
      </trkpt>
      <trkpt lat="44.70229" lon="5.63662">
        <ele>1371.94</ele>
        <time>2018-06-23T14:07:08Z</time>
      </trkpt>
      <trkpt lat="44.7023" lon="5.63668">
        <ele>1366.65</ele>
        <time>2018-06-23T14:07:12Z</time>
      </trkpt>
      <trkpt lat="44.7023" lon="5.6367">
        <ele>1368.57</ele>
        <time>2018-06-23T14:07:13Z</time>
      </trkpt>
      <trkpt lat="44.70232" lon="5.63675">
        <ele>1370.5</ele>
        <time>2018-06-23T14:07:17Z</time>
      </trkpt>
      <trkpt lat="44.70232" lon="5.63676">
        <ele>1366.17</ele>
        <time>2018-06-23T14:07:18Z</time>
      </trkpt>
      <trkpt lat="44.70232" lon="5.63681">
        <ele>1370.02</ele>
        <time>2018-06-23T14:07:21Z</time>
      </trkpt>
      <trkpt lat="44.70232" lon="5.63685">
        <ele>1362.81</ele>
        <time>2018-06-23T14:07:23Z</time>
      </trkpt>
      <trkpt lat="44.70233" lon="5.63686">
        <ele>1367.61</ele>
        <time>2018-06-23T14:07:24Z</time>
      </trkpt>
      <trkpt lat="44.70233" lon="5.63691">
        <ele>1370.98</ele>
        <time>2018-06-23T14:07:27Z</time>
      </trkpt>
      <trkpt lat="44.70233" lon="5.63692">
        <ele>1367.61</ele>
        <time>2018-06-23T14:07:28Z</time>
      </trkpt>
      <trkpt lat="44.70233" lon="5.637">
        <ele>1369.54</ele>
        <time>2018-06-23T14:07:32Z</time>
      </trkpt>
      <trkpt lat="44.70232" lon="5.63704">
        <ele>1368.57</ele>
        <time>2018-06-23T14:07:34Z</time>
      </trkpt>
      <trkpt lat="44.70232" lon="5.63707">
        <ele>1361.84</ele>
        <time>2018-06-23T14:07:37Z</time>
      </trkpt>
      <trkpt lat="44.70232" lon="5.63708">
        <ele>1364.73</ele>
        <time>2018-06-23T14:07:38Z</time>
      </trkpt>
      <trkpt lat="44.70234" lon="5.6371">
        <ele>1366.17</ele>
        <time>2018-06-23T14:07:40Z</time>
      </trkpt>
      <trkpt lat="44.70236" lon="5.63713">
        <ele>1367.61</ele>
        <time>2018-06-23T14:07:43Z</time>
      </trkpt>
      <trkpt lat="44.70238" lon="5.63716">
        <ele>1363.29</ele>
        <time>2018-06-23T14:07:47Z</time>
      </trkpt>
      <trkpt lat="44.70238" lon="5.63716">
        <ele>1369.05</ele>
        <time>2018-06-23T14:07:48Z</time>
      </trkpt>
      <trkpt lat="44.70239" lon="5.63719">
        <ele>1365.69</ele>
        <time>2018-06-23T14:07:52Z</time>
      </trkpt>
      <trkpt lat="44.70239" lon="5.63721">
        <ele>1371.46</ele>
        <time>2018-06-23T14:07:54Z</time>
      </trkpt>
      <trkpt lat="44.70239" lon="5.63722">
        <ele>1361.84</ele>
        <time>2018-06-23T14:07:55Z</time>
      </trkpt>
      <trkpt lat="44.70239" lon="5.63722">
        <ele>1369.54</ele>
        <time>2018-06-23T14:07:56Z</time>
      </trkpt>
      <trkpt lat="44.70239" lon="5.63725">
        <ele>1367.61</ele>
        <time>2018-06-23T14:07:59Z</time>
      </trkpt>
      <trkpt lat="44.7024" lon="5.63728">
        <ele>1371.94</ele>
        <time>2018-06-23T14:08:01Z</time>
      </trkpt>
      <trkpt lat="44.7024" lon="5.63729">
        <ele>1363.77</ele>
        <time>2018-06-23T14:08:02Z</time>
      </trkpt>
      <trkpt lat="44.7024" lon="5.6373">
        <ele>1369.05</ele>
        <time>2018-06-23T14:08:03Z</time>
      </trkpt>
      <trkpt lat="44.70241" lon="5.63735">
        <ele>1363.29</ele>
        <time>2018-06-23T14:08:07Z</time>
      </trkpt>
      <trkpt lat="44.70242" lon="5.63736">
        <ele>1370.98</ele>
        <time>2018-06-23T14:08:08Z</time>
      </trkpt>
      <trkpt lat="44.70244" lon="5.63742">
        <ele>1365.21</ele>
        <time>2018-06-23T14:08:14Z</time>
      </trkpt>
      <trkpt lat="44.70245" lon="5.63742">
        <ele>1369.54</ele>
        <time>2018-06-23T14:08:15Z</time>
      </trkpt>
      <trkpt lat="44.70246" lon="5.63746">
        <ele>1372.9</ele>
        <time>2018-06-23T14:08:18Z</time>
      </trkpt>
      <trkpt lat="44.70247" lon="5.63748">
        <ele>1366.17</ele>
        <time>2018-06-23T14:08:19Z</time>
      </trkpt>
      <trkpt lat="44.70247" lon="5.63749">
        <ele>1372.42</ele>
        <time>2018-06-23T14:08:20Z</time>
      </trkpt>
      <trkpt lat="44.70249" lon="5.63757">
        <ele>1375.78</ele>
        <time>2018-06-23T14:08:25Z</time>
      </trkpt>
      <trkpt lat="44.70249" lon="5.63758">
        <ele>1369.54</ele>
        <time>2018-06-23T14:08:26Z</time>
      </trkpt>
      <trkpt lat="44.70252" lon="5.63764">
        <ele>1375.3</ele>
        <time>2018-06-23T14:08:30Z</time>
      </trkpt>
      <trkpt lat="44.70252" lon="5.63766">
        <ele>1370.98</ele>
        <time>2018-06-23T14:08:31Z</time>
      </trkpt>
      <trkpt lat="44.70254" lon="5.6377">
        <ele>1375.3</ele>
        <time>2018-06-23T14:08:33Z</time>
      </trkpt>
      <trkpt lat="44.70254" lon="5.63772">
        <ele>1371.94</ele>
        <time>2018-06-23T14:08:34Z</time>
      </trkpt>
      <trkpt lat="44.70256" lon="5.63776">
        <ele>1375.3</ele>
        <time>2018-06-23T14:08:37Z</time>
      </trkpt>
      <trkpt lat="44.70257" lon="5.63779">
        <ele>1370.98</ele>
        <time>2018-06-23T14:08:39Z</time>
      </trkpt>
      <trkpt lat="44.70258" lon="5.6378">
        <ele>1372.9</ele>
        <time>2018-06-23T14:08:40Z</time>
      </trkpt>
      <trkpt lat="44.7026" lon="5.63787">
        <ele>1376.75</ele>
        <time>2018-06-23T14:08:45Z</time>
      </trkpt>
      <trkpt lat="44.7026" lon="5.63788">
        <ele>1371.46</ele>
        <time>2018-06-23T14:08:46Z</time>
      </trkpt>
      <trkpt lat="44.7026" lon="5.6379">
        <ele>1372.42</ele>
        <time>2018-06-23T14:08:47Z</time>
      </trkpt>
      <trkpt lat="44.7026" lon="5.63791">
        <ele>1376.75</ele>
        <time>2018-06-23T14:08:48Z</time>
      </trkpt>
      <trkpt lat="44.7026" lon="5.63792">
        <ele>1372.42</ele>
        <time>2018-06-23T14:08:49Z</time>
      </trkpt>
      <trkpt lat="44.7026" lon="5.63797">
        <ele>1375.78</ele>
        <time>2018-06-23T14:08:53Z</time>
      </trkpt>
      <trkpt lat="44.7026" lon="5.63798">
        <ele>1372.42</ele>
        <time>2018-06-23T14:08:54Z</time>
      </trkpt>
      <trkpt lat="44.70261" lon="5.63803">
        <ele>1373.38</ele>
        <time>2018-06-23T14:08:58Z</time>
      </trkpt>
      <trkpt lat="44.70262" lon="5.63805">
        <ele>1375.78</ele>
        <time>2018-06-23T14:09:00Z</time>
      </trkpt>
      <trkpt lat="44.70263" lon="5.63806">
        <ele>1372.42</ele>
        <time>2018-06-23T14:09:01Z</time>
      </trkpt>
      <trkpt lat="44.70263" lon="5.63807">
        <ele>1375.3</ele>
        <time>2018-06-23T14:09:02Z</time>
      </trkpt>
      <trkpt lat="44.70265" lon="5.63812">
        <ele>1375.78</ele>
        <time>2018-06-23T14:09:06Z</time>
      </trkpt>
      <trkpt lat="44.70266" lon="5.63814">
        <ele>1376.75</ele>
        <time>2018-06-23T14:09:08Z</time>
      </trkpt>
      <trkpt lat="44.70268" lon="5.63818">
        <ele>1380.11</ele>
        <time>2018-06-23T14:09:11Z</time>
      </trkpt>
      <trkpt lat="44.70268" lon="5.63819">
        <ele>1374.82</ele>
        <time>2018-06-23T14:09:12Z</time>
      </trkpt>
      <trkpt lat="44.70269" lon="5.63821">
        <ele>1378.19</ele>
        <time>2018-06-23T14:09:14Z</time>
      </trkpt>
      <trkpt lat="44.70274" lon="5.63837">
        <ele>1380.11</ele>
        <time>2018-06-23T14:09:26Z</time>
      </trkpt>
      <trkpt lat="44.70275" lon="5.63838">
        <ele>1379.63</ele>
        <time>2018-06-23T14:09:27Z</time>
      </trkpt>
      <trkpt lat="44.70276" lon="5.63842">
        <ele>1373.86</ele>
        <time>2018-06-23T14:09:29Z</time>
      </trkpt>
      <trkpt lat="44.70277" lon="5.63843">
        <ele>1378.19</ele>
        <time>2018-06-23T14:09:30Z</time>
      </trkpt>
      <trkpt lat="44.70284" lon="5.63859">
        <ele>1379.15</ele>
        <time>2018-06-23T14:09:43Z</time>
      </trkpt>
      <trkpt lat="44.70285" lon="5.6386">
        <ele>1382.51</ele>
        <time>2018-06-23T14:09:44Z</time>
      </trkpt>
      <trkpt lat="44.70285" lon="5.63861">
        <ele>1376.26</ele>
        <time>2018-06-23T14:09:45Z</time>
      </trkpt>
      <trkpt lat="44.70286" lon="5.63861">
        <ele>1380.11</ele>
        <time>2018-06-23T14:09:46Z</time>
      </trkpt>
      <trkpt lat="44.70286" lon="5.63863">
        <ele>1383.47</ele>
        <time>2018-06-23T14:09:48Z</time>
      </trkpt>
      <trkpt lat="44.70287" lon="5.63863">
        <ele>1378.19</ele>
        <time>2018-06-23T14:09:49Z</time>
      </trkpt>
      <trkpt lat="44.70288" lon="5.63866">
        <ele>1381.55</ele>
        <time>2018-06-23T14:09:51Z</time>
      </trkpt>
      <trkpt lat="44.7029" lon="5.63878">
        <ele>1382.03</ele>
        <time>2018-06-23T14:09:59Z</time>
      </trkpt>
      <trkpt lat="44.7029" lon="5.63879">
        <ele>1387.8</ele>
        <time>2018-06-23T14:10:00Z</time>
      </trkpt>
      <trkpt lat="44.70291" lon="5.6388">
        <ele>1381.07</ele>
        <time>2018-06-23T14:10:01Z</time>
      </trkpt>
      <trkpt lat="44.70293" lon="5.63885">
        <ele>1384.92</ele>
        <time>2018-06-23T14:10:05Z</time>
      </trkpt>
      <trkpt lat="44.70293" lon="5.63886">
        <ele>1380.59</ele>
        <time>2018-06-23T14:10:06Z</time>
      </trkpt>
      <trkpt lat="44.70295" lon="5.63889">
        <ele>1384.92</ele>
        <time>2018-06-23T14:10:09Z</time>
      </trkpt>
      <trkpt lat="44.70296" lon="5.63889">
        <ele>1380.59</ele>
        <time>2018-06-23T14:10:10Z</time>
      </trkpt>
      <trkpt lat="44.70298" lon="5.63893">
        <ele>1384.44</ele>
        <time>2018-06-23T14:10:14Z</time>
      </trkpt>
      <trkpt lat="44.70299" lon="5.63898">
        <ele>1381.07</ele>
        <time>2018-06-23T14:10:18Z</time>
      </trkpt>
      <trkpt lat="44.70299" lon="5.639">
        <ele>1386.84</ele>
        <time>2018-06-23T14:10:20Z</time>
      </trkpt>
      <trkpt lat="44.703" lon="5.63901">
        <ele>1382.03</ele>
        <time>2018-06-23T14:10:21Z</time>
      </trkpt>
      <trkpt lat="44.703" lon="5.63906">
        <ele>1385.4</ele>
        <time>2018-06-23T14:10:27Z</time>
      </trkpt>
      <trkpt lat="44.70301" lon="5.6391">
        <ele>1385.88</ele>
        <time>2018-06-23T14:10:40Z</time>
      </trkpt>
      <trkpt lat="44.70306" lon="5.63925">
        <ele>1381.55</ele>
        <time>2018-06-23T14:10:53Z</time>
      </trkpt>
      <trkpt lat="44.70306" lon="5.63927">
        <ele>1384.44</ele>
        <time>2018-06-23T14:10:54Z</time>
      </trkpt>
      <trkpt lat="44.70306" lon="5.63929">
        <ele>1385.4</ele>
        <time>2018-06-23T14:10:56Z</time>
      </trkpt>
      <trkpt lat="44.70307" lon="5.63933">
        <ele>1390.2</ele>
        <time>2018-06-23T14:11:00Z</time>
      </trkpt>
      <trkpt lat="44.70307" lon="5.63934">
        <ele>1384.44</ele>
        <time>2018-06-23T14:11:01Z</time>
      </trkpt>
      <trkpt lat="44.70307" lon="5.63936">
        <ele>1387.8</ele>
        <time>2018-06-23T14:11:04Z</time>
      </trkpt>
      <trkpt lat="44.70306" lon="5.63939">
        <ele>1386.36</ele>
        <time>2018-06-23T14:11:11Z</time>
      </trkpt>
      <trkpt lat="44.70305" lon="5.6394">
        <ele>1389.24</ele>
        <time>2018-06-23T14:11:12Z</time>
      </trkpt>
      <trkpt lat="44.70306" lon="5.63942">
        <ele>1385.88</ele>
        <time>2018-06-23T14:11:13Z</time>
      </trkpt>
      <trkpt lat="44.70306" lon="5.63945">
        <ele>1390.2</ele>
        <time>2018-06-23T14:11:15Z</time>
      </trkpt>
      <trkpt lat="44.70307" lon="5.63947">
        <ele>1389.72</ele>
        <time>2018-06-23T14:11:16Z</time>
      </trkpt>
      <trkpt lat="44.70307" lon="5.63949">
        <ele>1386.36</ele>
        <time>2018-06-23T14:11:17Z</time>
      </trkpt>
      <trkpt lat="44.70308" lon="5.63952">
        <ele>1391.65</ele>
        <time>2018-06-23T14:11:19Z</time>
      </trkpt>
      <trkpt lat="44.70308" lon="5.63953">
        <ele>1386.84</ele>
        <time>2018-06-23T14:11:20Z</time>
      </trkpt>
      <trkpt lat="44.70309" lon="5.63959">
        <ele>1391.17</ele>
        <time>2018-06-23T14:11:24Z</time>
      </trkpt>
      <trkpt lat="44.70309" lon="5.6396">
        <ele>1386.36</ele>
        <time>2018-06-23T14:11:25Z</time>
      </trkpt>
      <trkpt lat="44.70309" lon="5.63961">
        <ele>1391.65</ele>
        <time>2018-06-23T14:11:26Z</time>
      </trkpt>
      <trkpt lat="44.70309" lon="5.63963">
        <ele>1386.84</ele>
        <time>2018-06-23T14:11:28Z</time>
      </trkpt>
      <trkpt lat="44.70309" lon="5.63964">
        <ele>1388.76</ele>
        <time>2018-06-23T14:11:29Z</time>
      </trkpt>
      <trkpt lat="44.70309" lon="5.63966">
        <ele>1392.61</ele>
        <time>2018-06-23T14:11:30Z</time>
      </trkpt>
      <trkpt lat="44.70309" lon="5.63967">
        <ele>1390.68</ele>
        <time>2018-06-23T14:11:31Z</time>
      </trkpt>
      <trkpt lat="44.70309" lon="5.6397">
        <ele>1388.28</ele>
        <time>2018-06-23T14:11:33Z</time>
      </trkpt>
      <trkpt lat="44.70309" lon="5.63972">
        <ele>1392.61</ele>
        <time>2018-06-23T14:11:35Z</time>
      </trkpt>
      <trkpt lat="44.70309" lon="5.63972">
        <ele>1391.65</ele>
        <time>2018-06-23T14:11:36Z</time>
      </trkpt>
      <trkpt lat="44.70309" lon="5.63975">
        <ele>1386.36</ele>
        <time>2018-06-23T14:11:38Z</time>
      </trkpt>
      <trkpt lat="44.70309" lon="5.63976">
        <ele>1390.68</ele>
        <time>2018-06-23T14:11:39Z</time>
      </trkpt>
      <trkpt lat="44.70312" lon="5.63984">
        <ele>1390.2</ele>
        <time>2018-06-23T14:11:43Z</time>
      </trkpt>
      <trkpt lat="44.70315" lon="5.63991">
        <ele>1383.96</ele>
        <time>2018-06-23T14:11:46Z</time>
      </trkpt>
      <trkpt lat="44.70317" lon="5.63993">
        <ele>1389.72</ele>
        <time>2018-06-23T14:11:47Z</time>
      </trkpt>
      <trkpt lat="44.70319" lon="5.63997">
        <ele>1390.68</ele>
        <time>2018-06-23T14:11:49Z</time>
      </trkpt>
      <trkpt lat="44.7032" lon="5.64">
        <ele>1394.53</ele>
        <time>2018-06-23T14:11:51Z</time>
      </trkpt>
      <trkpt lat="44.7032" lon="5.64001">
        <ele>1388.76</ele>
        <time>2018-06-23T14:11:52Z</time>
      </trkpt>
      <trkpt lat="44.70322" lon="5.64004">
        <ele>1392.61</ele>
        <time>2018-06-23T14:11:54Z</time>
      </trkpt>
      <trkpt lat="44.70323" lon="5.64006">
        <ele>1392.61</ele>
        <time>2018-06-23T14:11:55Z</time>
      </trkpt>
      <trkpt lat="44.70324" lon="5.64009">
        <ele>1388.28</ele>
        <time>2018-06-23T14:11:57Z</time>
      </trkpt>
      <trkpt lat="44.70324" lon="5.64011">
        <ele>1389.72</ele>
        <time>2018-06-23T14:11:58Z</time>
      </trkpt>
      <trkpt lat="44.70325" lon="5.64012">
        <ele>1393.57</ele>
        <time>2018-06-23T14:11:59Z</time>
      </trkpt>
      <trkpt lat="44.70325" lon="5.64014">
        <ele>1389.72</ele>
        <time>2018-06-23T14:12:00Z</time>
      </trkpt>
      <trkpt lat="44.70326" lon="5.64017">
        <ele>1393.57</ele>
        <time>2018-06-23T14:12:02Z</time>
      </trkpt>
      <trkpt lat="44.70326" lon="5.64018">
        <ele>1392.61</ele>
        <time>2018-06-23T14:12:03Z</time>
      </trkpt>
      <trkpt lat="44.70326" lon="5.64019">
        <ele>1388.76</ele>
        <time>2018-06-23T14:12:04Z</time>
      </trkpt>
      <trkpt lat="44.70325" lon="5.64024">
        <ele>1393.09</ele>
        <time>2018-06-23T14:12:08Z</time>
      </trkpt>
      <trkpt lat="44.70325" lon="5.64026">
        <ele>1388.76</ele>
        <time>2018-06-23T14:12:10Z</time>
      </trkpt>
      <trkpt lat="44.70326" lon="5.64028">
        <ele>1393.09</ele>
        <time>2018-06-23T14:12:12Z</time>
      </trkpt>
      <trkpt lat="44.70326" lon="5.64029">
        <ele>1389.72</ele>
        <time>2018-06-23T14:12:13Z</time>
      </trkpt>
      <trkpt lat="44.70326" lon="5.6403">
        <ele>1389.72</ele>
        <time>2018-06-23T14:12:14Z</time>
      </trkpt>
      <trkpt lat="44.70328" lon="5.64033">
        <ele>1388.76</ele>
        <time>2018-06-23T14:12:17Z</time>
      </trkpt>
      <trkpt lat="44.70333" lon="5.64043">
        <ele>1392.61</ele>
        <time>2018-06-23T14:12:26Z</time>
      </trkpt>
      <trkpt lat="44.70335" lon="5.64044">
        <ele>1388.76</ele>
        <time>2018-06-23T14:12:28Z</time>
      </trkpt>
      <trkpt lat="44.70337" lon="5.64045">
        <ele>1392.13</ele>
        <time>2018-06-23T14:12:30Z</time>
      </trkpt>
      <trkpt lat="44.70337" lon="5.64046">
        <ele>1388.76</ele>
        <time>2018-06-23T14:12:31Z</time>
      </trkpt>
      <trkpt lat="44.70339" lon="5.64047">
        <ele>1393.57</ele>
        <time>2018-06-23T14:12:33Z</time>
      </trkpt>
      <trkpt lat="44.7034" lon="5.64048">
        <ele>1391.65</ele>
        <time>2018-06-23T14:12:34Z</time>
      </trkpt>
      <trkpt lat="44.7034" lon="5.64048">
        <ele>1387.8</ele>
        <time>2018-06-23T14:12:35Z</time>
      </trkpt>
      <trkpt lat="44.70341" lon="5.64048">
        <ele>1389.72</ele>
        <time>2018-06-23T14:12:36Z</time>
      </trkpt>
      <trkpt lat="44.70345" lon="5.64051">
        <ele>1393.57</ele>
        <time>2018-06-23T14:12:41Z</time>
      </trkpt>
      <trkpt lat="44.70346" lon="5.64052">
        <ele>1390.68</ele>
        <time>2018-06-23T14:12:42Z</time>
      </trkpt>
      <trkpt lat="44.70347" lon="5.64056">
        <ele>1385.88</ele>
        <time>2018-06-23T14:12:45Z</time>
      </trkpt>
      <trkpt lat="44.70348" lon="5.64057">
        <ele>1390.2</ele>
        <time>2018-06-23T14:12:46Z</time>
      </trkpt>
      <trkpt lat="44.7035" lon="5.64067">
        <ele>1391.17</ele>
        <time>2018-06-23T14:12:52Z</time>
      </trkpt>
      <trkpt lat="44.70351" lon="5.64069">
        <ele>1387.8</ele>
        <time>2018-06-23T14:12:53Z</time>
      </trkpt>
      <trkpt lat="44.70351" lon="5.6407">
        <ele>1388.76</ele>
        <time>2018-06-23T14:12:54Z</time>
      </trkpt>
      <trkpt lat="44.70351" lon="5.64071">
        <ele>1384.92</ele>
        <time>2018-06-23T14:12:55Z</time>
      </trkpt>
      <trkpt lat="44.70351" lon="5.64072">
        <ele>1389.24</ele>
        <time>2018-06-23T14:12:56Z</time>
      </trkpt>
      <trkpt lat="44.70351" lon="5.64075">
        <ele>1387.32</ele>
        <time>2018-06-23T14:12:59Z</time>
      </trkpt>
      <trkpt lat="44.70351" lon="5.64078">
        <ele>1390.68</ele>
        <time>2018-06-23T14:13:01Z</time>
      </trkpt>
      <trkpt lat="44.70351" lon="5.6408">
        <ele>1390.2</ele>
        <time>2018-06-23T14:13:02Z</time>
      </trkpt>
      <trkpt lat="44.70351" lon="5.64082">
        <ele>1385.88</ele>
        <time>2018-06-23T14:13:03Z</time>
      </trkpt>
      <trkpt lat="44.70351" lon="5.64083">
        <ele>1388.76</ele>
        <time>2018-06-23T14:13:04Z</time>
      </trkpt>
      <trkpt lat="44.70354" lon="5.6409">
        <ele>1386.84</ele>
        <time>2018-06-23T14:13:10Z</time>
      </trkpt>
      <trkpt lat="44.70354" lon="5.64091">
        <ele>1390.68</ele>
        <time>2018-06-23T14:13:11Z</time>
      </trkpt>
      <trkpt lat="44.70354" lon="5.64092">
        <ele>1390.2</ele>
        <time>2018-06-23T14:13:12Z</time>
      </trkpt>
      <trkpt lat="44.70355" lon="5.64094">
        <ele>1385.4</ele>
        <time>2018-06-23T14:13:13Z</time>
      </trkpt>
      <trkpt lat="44.70355" lon="5.64095">
        <ele>1387.32</ele>
        <time>2018-06-23T14:13:14Z</time>
      </trkpt>
      <trkpt lat="44.70356" lon="5.641">
        <ele>1387.8</ele>
        <time>2018-06-23T14:13:17Z</time>
      </trkpt>
      <trkpt lat="44.70356" lon="5.64104">
        <ele>1390.2</ele>
        <time>2018-06-23T14:13:19Z</time>
      </trkpt>
      <trkpt lat="44.70357" lon="5.64106">
        <ele>1387.32</ele>
        <time>2018-06-23T14:13:20Z</time>
      </trkpt>
      <trkpt lat="44.70359" lon="5.64118">
        <ele>1390.2</ele>
        <time>2018-06-23T14:13:26Z</time>
      </trkpt>
      <trkpt lat="44.70359" lon="5.64122">
        <ele>1383.47</ele>
        <time>2018-06-23T14:13:28Z</time>
      </trkpt>
      <trkpt lat="44.70359" lon="5.64123">
        <ele>1388.28</ele>
        <time>2018-06-23T14:13:29Z</time>
      </trkpt>
      <trkpt lat="44.7036" lon="5.64126">
        <ele>1389.24</ele>
        <time>2018-06-23T14:13:31Z</time>
      </trkpt>
      <trkpt lat="44.70361" lon="5.64131">
        <ele>1383.96</ele>
        <time>2018-06-23T14:13:34Z</time>
      </trkpt>
      <trkpt lat="44.70361" lon="5.64132">
        <ele>1387.8</ele>
        <time>2018-06-23T14:13:35Z</time>
      </trkpt>
      <trkpt lat="44.70362" lon="5.64138">
        <ele>1385.88</ele>
        <time>2018-06-23T14:13:38Z</time>
      </trkpt>
      <trkpt lat="44.70363" lon="5.64139">
        <ele>1389.24</ele>
        <time>2018-06-23T14:13:39Z</time>
      </trkpt>
      <trkpt lat="44.70363" lon="5.64142">
        <ele>1382.51</ele>
        <time>2018-06-23T14:13:41Z</time>
      </trkpt>
      <trkpt lat="44.70363" lon="5.64144">
        <ele>1389.24</ele>
        <time>2018-06-23T14:13:42Z</time>
      </trkpt>
      <trkpt lat="44.70364" lon="5.64148">
        <ele>1385.4</ele>
        <time>2018-06-23T14:13:46Z</time>
      </trkpt>
      <trkpt lat="44.70364" lon="5.64151">
        <ele>1389.72</ele>
        <time>2018-06-23T14:13:49Z</time>
      </trkpt>
      <trkpt lat="44.70364" lon="5.64153">
        <ele>1384.44</ele>
        <time>2018-06-23T14:13:50Z</time>
      </trkpt>
      <trkpt lat="44.70365" lon="5.64154">
        <ele>1387.32</ele>
        <time>2018-06-23T14:13:51Z</time>
      </trkpt>
      <trkpt lat="44.70367" lon="5.64158">
        <ele>1383.47</ele>
        <time>2018-06-23T14:13:54Z</time>
      </trkpt>
      <trkpt lat="44.70367" lon="5.64159">
        <ele>1386.36</ele>
        <time>2018-06-23T14:13:55Z</time>
      </trkpt>
      <trkpt lat="44.70368" lon="5.64161">
        <ele>1390.2</ele>
        <time>2018-06-23T14:13:57Z</time>
      </trkpt>
      <trkpt lat="44.70368" lon="5.64163">
        <ele>1389.24</ele>
        <time>2018-06-23T14:13:58Z</time>
      </trkpt>
      <trkpt lat="44.70369" lon="5.64165">
        <ele>1383.47</ele>
        <time>2018-06-23T14:14:00Z</time>
      </trkpt>
      <trkpt lat="44.70369" lon="5.64167">
        <ele>1384.92</ele>
        <time>2018-06-23T14:14:01Z</time>
      </trkpt>
      <trkpt lat="44.70368" lon="5.64169">
        <ele>1390.68</ele>
        <time>2018-06-23T14:14:03Z</time>
      </trkpt>
      <trkpt lat="44.70368" lon="5.64171">
        <ele>1385.4</ele>
        <time>2018-06-23T14:14:04Z</time>
      </trkpt>
      <trkpt lat="44.70365" lon="5.64184">
        <ele>1389.24</ele>
        <time>2018-06-23T14:14:10Z</time>
      </trkpt>
      <trkpt lat="44.70365" lon="5.64185">
        <ele>1385.88</ele>
        <time>2018-06-23T14:14:11Z</time>
      </trkpt>
      <trkpt lat="44.70366" lon="5.64191">
        <ele>1384.44</ele>
        <time>2018-06-23T14:14:15Z</time>
      </trkpt>
      <trkpt lat="44.70366" lon="5.64195">
        <ele>1388.28</ele>
        <time>2018-06-23T14:14:17Z</time>
      </trkpt>
      <trkpt lat="44.70366" lon="5.64196">
        <ele>1383.47</ele>
        <time>2018-06-23T14:14:18Z</time>
      </trkpt>
      <trkpt lat="44.70366" lon="5.64198">
        <ele>1385.4</ele>
        <time>2018-06-23T14:14:19Z</time>
      </trkpt>
      <trkpt lat="44.70366" lon="5.642">
        <ele>1389.24</ele>
        <time>2018-06-23T14:14:20Z</time>
      </trkpt>
      <trkpt lat="44.70365" lon="5.64201">
        <ele>1387.32</ele>
        <time>2018-06-23T14:14:21Z</time>
      </trkpt>
      <trkpt lat="44.70364" lon="5.64212">
        <ele>1384.44</ele>
        <time>2018-06-23T14:14:29Z</time>
      </trkpt>
      <trkpt lat="44.70364" lon="5.64215">
        <ele>1387.32</ele>
        <time>2018-06-23T14:14:31Z</time>
      </trkpt>
      <trkpt lat="44.70363" lon="5.64217">
        <ele>1382.51</ele>
        <time>2018-06-23T14:14:33Z</time>
      </trkpt>
      <trkpt lat="44.70362" lon="5.64218">
        <ele>1384.44</ele>
        <time>2018-06-23T14:14:34Z</time>
      </trkpt>
      <trkpt lat="44.70361" lon="5.64224">
        <ele>1382.99</ele>
        <time>2018-06-23T14:14:40Z</time>
      </trkpt>
      <trkpt lat="44.70359" lon="5.64228">
        <ele>1386.36</ele>
        <time>2018-06-23T14:14:45Z</time>
      </trkpt>
      <trkpt lat="44.70359" lon="5.64229">
        <ele>1384.44</ele>
        <time>2018-06-23T14:14:46Z</time>
      </trkpt>
      <trkpt lat="44.70357" lon="5.64232">
        <ele>1379.63</ele>
        <time>2018-06-23T14:14:49Z</time>
      </trkpt>
      <trkpt lat="44.70356" lon="5.64233">
        <ele>1383.47</ele>
        <time>2018-06-23T14:14:50Z</time>
      </trkpt>
      <trkpt lat="44.70356" lon="5.64234">
        <ele>1379.63</ele>
        <time>2018-06-23T14:14:52Z</time>
      </trkpt>
      <trkpt lat="44.70356" lon="5.64235">
        <ele>1381.07</ele>
        <time>2018-06-23T14:14:53Z</time>
      </trkpt>
      <trkpt lat="44.70356" lon="5.64236">
        <ele>1378.19</ele>
        <time>2018-06-23T14:14:54Z</time>
      </trkpt>
      <trkpt lat="44.70355" lon="5.64238">
        <ele>1382.03</ele>
        <time>2018-06-23T14:14:55Z</time>
      </trkpt>
      <trkpt lat="44.70355" lon="5.64246">
        <ele>1377.23</ele>
        <time>2018-06-23T14:15:00Z</time>
      </trkpt>
      <trkpt lat="44.70354" lon="5.64249">
        <ele>1382.99</ele>
        <time>2018-06-23T14:15:02Z</time>
      </trkpt>
      <trkpt lat="44.70353" lon="5.6425">
        <ele>1379.63</ele>
        <time>2018-06-23T14:15:03Z</time>
      </trkpt>
      <trkpt lat="44.70352" lon="5.64254">
        <ele>1379.63</ele>
        <time>2018-06-23T14:15:06Z</time>
      </trkpt>
      <trkpt lat="44.70352" lon="5.64257">
        <ele>1375.3</ele>
        <time>2018-06-23T14:15:08Z</time>
      </trkpt>
      <trkpt lat="44.70352" lon="5.64259">
        <ele>1376.75</ele>
        <time>2018-06-23T14:15:09Z</time>
      </trkpt>
      <trkpt lat="44.7035" lon="5.64263">
        <ele>1380.11</ele>
        <time>2018-06-23T14:15:12Z</time>
      </trkpt>
      <trkpt lat="44.7035" lon="5.64265">
        <ele>1379.15</ele>
        <time>2018-06-23T14:15:13Z</time>
      </trkpt>
      <trkpt lat="44.70349" lon="5.64266">
        <ele>1375.3</ele>
        <time>2018-06-23T14:15:14Z</time>
      </trkpt>
      <trkpt lat="44.70349" lon="5.64268">
        <ele>1375.78</ele>
        <time>2018-06-23T14:15:15Z</time>
      </trkpt>
      <trkpt lat="44.70349" lon="5.64269">
        <ele>1379.63</ele>
        <time>2018-06-23T14:15:16Z</time>
      </trkpt>
      <trkpt lat="44.70348" lon="5.64271">
        <ele>1376.26</ele>
        <time>2018-06-23T14:15:18Z</time>
      </trkpt>
      <trkpt lat="44.70345" lon="5.64278">
        <ele>1372.9</ele>
        <time>2018-06-23T14:15:25Z</time>
      </trkpt>
      <trkpt lat="44.70344" lon="5.64279">
        <ele>1377.71</ele>
        <time>2018-06-23T14:15:27Z</time>
      </trkpt>
      <trkpt lat="44.70344" lon="5.64281">
        <ele>1376.75</ele>
        <time>2018-06-23T14:15:28Z</time>
      </trkpt>
      <trkpt lat="44.70343" lon="5.64283">
        <ele>1374.34</ele>
        <time>2018-06-23T14:15:30Z</time>
      </trkpt>
      <trkpt lat="44.70342" lon="5.64286">
        <ele>1378.19</ele>
        <time>2018-06-23T14:15:32Z</time>
      </trkpt>
      <trkpt lat="44.70342" lon="5.64288">
        <ele>1370.98</ele>
        <time>2018-06-23T14:15:33Z</time>
      </trkpt>
      <trkpt lat="44.70341" lon="5.64289">
        <ele>1375.3</ele>
        <time>2018-06-23T14:15:34Z</time>
      </trkpt>
      <trkpt lat="44.70341" lon="5.64291">
        <ele>1371.94</ele>
        <time>2018-06-23T14:15:35Z</time>
      </trkpt>
      <trkpt lat="44.7034" lon="5.64302">
        <ele>1376.26</ele>
        <time>2018-06-23T14:15:43Z</time>
      </trkpt>
      <trkpt lat="44.7034" lon="5.64303">
        <ele>1371.94</ele>
        <time>2018-06-23T14:15:44Z</time>
      </trkpt>
      <trkpt lat="44.70338" lon="5.64313">
        <ele>1370.5</ele>
        <time>2018-06-23T14:15:53Z</time>
      </trkpt>
      <trkpt lat="44.70337" lon="5.64315">
        <ele>1374.82</ele>
        <time>2018-06-23T14:15:55Z</time>
      </trkpt>
      <trkpt lat="44.70336" lon="5.64316">
        <ele>1370.5</ele>
        <time>2018-06-23T14:15:57Z</time>
      </trkpt>
      <trkpt lat="44.70335" lon="5.64325">
        <ele>1366.65</ele>
        <time>2018-06-23T14:16:05Z</time>
      </trkpt>
      <trkpt lat="44.70335" lon="5.64326">
        <ele>1371.94</ele>
        <time>2018-06-23T14:16:06Z</time>
      </trkpt>
      <trkpt lat="44.70335" lon="5.64328">
        <ele>1368.57</ele>
        <time>2018-06-23T14:16:08Z</time>
      </trkpt>
      <trkpt lat="44.70334" lon="5.6433">
        <ele>1372.42</ele>
        <time>2018-06-23T14:16:10Z</time>
      </trkpt>
      <trkpt lat="44.70334" lon="5.64331">
        <ele>1366.17</ele>
        <time>2018-06-23T14:16:11Z</time>
      </trkpt>
      <trkpt lat="44.70334" lon="5.64335">
        <ele>1370.02</ele>
        <time>2018-06-23T14:16:14Z</time>
      </trkpt>
      <trkpt lat="44.70334" lon="5.64342">
        <ele>1366.65</ele>
        <time>2018-06-23T14:16:19Z</time>
      </trkpt>
      <trkpt lat="44.70334" lon="5.64346">
        <ele>1365.21</ele>
        <time>2018-06-23T14:16:21Z</time>
      </trkpt>
      <trkpt lat="44.70334" lon="5.64356">
        <ele>1369.05</ele>
        <time>2018-06-23T14:16:28Z</time>
      </trkpt>
      <trkpt lat="44.70334" lon="5.64358">
        <ele>1368.57</ele>
        <time>2018-06-23T14:16:29Z</time>
      </trkpt>
      <trkpt lat="44.70334" lon="5.6436">
        <ele>1363.77</ele>
        <time>2018-06-23T14:16:30Z</time>
      </trkpt>
      <trkpt lat="44.70334" lon="5.64362">
        <ele>1366.17</ele>
        <time>2018-06-23T14:16:31Z</time>
      </trkpt>
      <trkpt lat="44.70334" lon="5.64363">
        <ele>1370.02</ele>
        <time>2018-06-23T14:16:32Z</time>
      </trkpt>
      <trkpt lat="44.70334" lon="5.64364">
        <ele>1368.09</ele>
        <time>2018-06-23T14:16:33Z</time>
      </trkpt>
      <trkpt lat="44.70334" lon="5.64368">
        <ele>1366.65</ele>
        <time>2018-06-23T14:16:36Z</time>
      </trkpt>
      <trkpt lat="44.70334" lon="5.64369">
        <ele>1369.54</ele>
        <time>2018-06-23T14:16:37Z</time>
      </trkpt>
      <trkpt lat="44.70334" lon="5.6437">
        <ele>1367.61</ele>
        <time>2018-06-23T14:16:38Z</time>
      </trkpt>
      <trkpt lat="44.70335" lon="5.64373">
        <ele>1363.77</ele>
        <time>2018-06-23T14:16:40Z</time>
      </trkpt>
      <trkpt lat="44.70335" lon="5.64374">
        <ele>1367.61</ele>
        <time>2018-06-23T14:16:41Z</time>
      </trkpt>
      <trkpt lat="44.70336" lon="5.64376">
        <ele>1367.13</ele>
        <time>2018-06-23T14:16:42Z</time>
      </trkpt>
      <trkpt lat="44.70336" lon="5.64379">
        <ele>1360.88</ele>
        <time>2018-06-23T14:16:44Z</time>
      </trkpt>
      <trkpt lat="44.70337" lon="5.6438">
        <ele>1364.73</ele>
        <time>2018-06-23T14:16:45Z</time>
      </trkpt>
      <trkpt lat="44.70337" lon="5.64382">
        <ele>1366.17</ele>
        <time>2018-06-23T14:16:47Z</time>
      </trkpt>
      <trkpt lat="44.70337" lon="5.64384">
        <ele>1357.52</ele>
        <time>2018-06-23T14:16:49Z</time>
      </trkpt>
      <trkpt lat="44.70339" lon="5.6439">
        <ele>1361.36</ele>
        <time>2018-06-23T14:16:53Z</time>
      </trkpt>
      <trkpt lat="44.7034" lon="5.64391">
        <ele>1364.73</ele>
        <time>2018-06-23T14:16:54Z</time>
      </trkpt>
      <trkpt lat="44.70343" lon="5.644">
        <ele>1364.73</ele>
        <time>2018-06-23T14:17:00Z</time>
      </trkpt>
      <trkpt lat="44.70344" lon="5.64403">
        <ele>1369.05</ele>
        <time>2018-06-23T14:17:02Z</time>
      </trkpt>
      <trkpt lat="44.70345" lon="5.64405">
        <ele>1364.25</ele>
        <time>2018-06-23T14:17:03Z</time>
      </trkpt>
      <trkpt lat="44.70346" lon="5.6441">
        <ele>1368.09</ele>
        <time>2018-06-23T14:17:06Z</time>
      </trkpt>
      <trkpt lat="44.70347" lon="5.64413">
        <ele>1360.4</ele>
        <time>2018-06-23T14:17:08Z</time>
      </trkpt>
      <trkpt lat="44.70347" lon="5.64414">
        <ele>1367.61</ele>
        <time>2018-06-23T14:17:09Z</time>
      </trkpt>
      <trkpt lat="44.70349" lon="5.6442">
        <ele>1360.88</ele>
        <time>2018-06-23T14:17:13Z</time>
      </trkpt>
      <trkpt lat="44.7035" lon="5.64421">
        <ele>1365.21</ele>
        <time>2018-06-23T14:17:14Z</time>
      </trkpt>
      <trkpt lat="44.70351" lon="5.64425">
        <ele>1361.36</ele>
        <time>2018-06-23T14:17:17Z</time>
      </trkpt>
      <trkpt lat="44.70352" lon="5.64426">
        <ele>1363.77</ele>
        <time>2018-06-23T14:17:18Z</time>
      </trkpt>
      <trkpt lat="44.70352" lon="5.64426">
        <ele>1368.09</ele>
        <time>2018-06-23T14:17:19Z</time>
      </trkpt>
      <trkpt lat="44.70353" lon="5.64428">
        <ele>1365.21</ele>
        <time>2018-06-23T14:17:20Z</time>
      </trkpt>
      <trkpt lat="44.70353" lon="5.64429">
        <ele>1361.36</ele>
        <time>2018-06-23T14:17:21Z</time>
      </trkpt>
      <trkpt lat="44.70354" lon="5.6443">
        <ele>1361.84</ele>
        <time>2018-06-23T14:17:22Z</time>
      </trkpt>
      <trkpt lat="44.70355" lon="5.64431">
        <ele>1364.73</ele>
        <time>2018-06-23T14:17:23Z</time>
      </trkpt>
      <trkpt lat="44.70356" lon="5.64434">
        <ele>1368.57</ele>
        <time>2018-06-23T14:17:25Z</time>
      </trkpt>
      <trkpt lat="44.70356" lon="5.64435">
        <ele>1361.36</ele>
        <time>2018-06-23T14:17:26Z</time>
      </trkpt>
      <trkpt lat="44.70357" lon="5.64437">
        <ele>1364.25</ele>
        <time>2018-06-23T14:17:27Z</time>
      </trkpt>
      <trkpt lat="44.70357" lon="5.64439">
        <ele>1366.17</ele>
        <time>2018-06-23T14:17:29Z</time>
      </trkpt>
      <trkpt lat="44.70358" lon="5.6444">
        <ele>1362.33</ele>
        <time>2018-06-23T14:17:30Z</time>
      </trkpt>
      <trkpt lat="44.70358" lon="5.64441">
        <ele>1366.17</ele>
        <time>2018-06-23T14:17:31Z</time>
      </trkpt>
      <trkpt lat="44.7036" lon="5.64446">
        <ele>1361.84</ele>
        <time>2018-06-23T14:17:35Z</time>
      </trkpt>
      <trkpt lat="44.70361" lon="5.64447">
        <ele>1367.13</ele>
        <time>2018-06-23T14:17:36Z</time>
      </trkpt>
      <trkpt lat="44.70361" lon="5.64448">
        <ele>1370.5</ele>
        <time>2018-06-23T14:17:37Z</time>
      </trkpt>
      <trkpt lat="44.70362" lon="5.6445">
        <ele>1364.73</ele>
        <time>2018-06-23T14:17:38Z</time>
      </trkpt>
      <trkpt lat="44.70362" lon="5.64451">
        <ele>1365.21</ele>
        <time>2018-06-23T14:17:39Z</time>
      </trkpt>
      <trkpt lat="44.70366" lon="5.64465">
        <ele>1368.57</ele>
        <time>2018-06-23T14:17:50Z</time>
      </trkpt>
      <trkpt lat="44.70366" lon="5.64467">
        <ele>1360.88</ele>
        <time>2018-06-23T14:17:51Z</time>
      </trkpt>
      <trkpt lat="44.70366" lon="5.64469">
        <ele>1366.65</ele>
        <time>2018-06-23T14:17:52Z</time>
      </trkpt>
      <trkpt lat="44.70368" lon="5.64476">
        <ele>1367.13</ele>
        <time>2018-06-23T14:17:57Z</time>
      </trkpt>
      <trkpt lat="44.70369" lon="5.64478">
        <ele>1362.81</ele>
        <time>2018-06-23T14:17:59Z</time>
      </trkpt>
      <trkpt lat="44.70369" lon="5.64479">
        <ele>1366.65</ele>
        <time>2018-06-23T14:18:00Z</time>
      </trkpt>
      <trkpt lat="44.70372" lon="5.64489">
        <ele>1370.02</ele>
        <time>2018-06-23T14:18:08Z</time>
      </trkpt>
      <trkpt lat="44.70373" lon="5.64491">
        <ele>1361.36</ele>
        <time>2018-06-23T14:18:09Z</time>
      </trkpt>
      <trkpt lat="44.70373" lon="5.64492">
        <ele>1368.09</ele>
        <time>2018-06-23T14:18:10Z</time>
      </trkpt>
      <trkpt lat="44.70374" lon="5.64494">
        <ele>1370.02</ele>
        <time>2018-06-23T14:18:12Z</time>
      </trkpt>
      <trkpt lat="44.70376" lon="5.64496">
        <ele>1363.77</ele>
        <time>2018-06-23T14:18:14Z</time>
      </trkpt>
      <trkpt lat="44.70376" lon="5.64497">
        <ele>1368.09</ele>
        <time>2018-06-23T14:18:15Z</time>
      </trkpt>
      <trkpt lat="44.70377" lon="5.64498">
        <ele>1370.98</ele>
        <time>2018-06-23T14:18:16Z</time>
      </trkpt>
      <trkpt lat="44.70378" lon="5.64499">
        <ele>1360.88</ele>
        <time>2018-06-23T14:18:17Z</time>
      </trkpt>
      <trkpt lat="44.70378" lon="5.645">
        <ele>1369.54</ele>
        <time>2018-06-23T14:18:18Z</time>
      </trkpt>
      <trkpt lat="44.70378" lon="5.64501">
        <ele>1372.9</ele>
        <time>2018-06-23T14:18:19Z</time>
      </trkpt>
      <trkpt lat="44.70379" lon="5.64502">
        <ele>1364.25</ele>
        <time>2018-06-23T14:18:20Z</time>
      </trkpt>
      <trkpt lat="44.7038" lon="5.64503">
        <ele>1369.54</ele>
        <time>2018-06-23T14:18:21Z</time>
      </trkpt>
      <trkpt lat="44.70381" lon="5.64505">
        <ele>1369.05</ele>
        <time>2018-06-23T14:18:23Z</time>
      </trkpt>
      <trkpt lat="44.70383" lon="5.64507">
        <ele>1367.61</ele>
        <time>2018-06-23T14:18:25Z</time>
      </trkpt>
      <trkpt lat="44.70383" lon="5.64508">
        <ele>1371.94</ele>
        <time>2018-06-23T14:18:26Z</time>
      </trkpt>
      <trkpt lat="44.70384" lon="5.6451">
        <ele>1367.13</ele>
        <time>2018-06-23T14:18:27Z</time>
      </trkpt>
      <trkpt lat="44.70385" lon="5.64512">
        <ele>1370.5</ele>
        <time>2018-06-23T14:18:29Z</time>
      </trkpt>
      <trkpt lat="44.70387" lon="5.64517">
        <ele>1365.69</ele>
        <time>2018-06-23T14:18:32Z</time>
      </trkpt>
      <trkpt lat="44.70387" lon="5.64518">
        <ele>1369.54</ele>
        <time>2018-06-23T14:18:33Z</time>
      </trkpt>
      <trkpt lat="44.70389" lon="5.6452">
        <ele>1370.5</ele>
        <time>2018-06-23T14:18:35Z</time>
      </trkpt>
      <trkpt lat="44.70389" lon="5.64521">
        <ele>1367.13</ele>
        <time>2018-06-23T14:18:36Z</time>
      </trkpt>
      <trkpt lat="44.7039" lon="5.64522">
        <ele>1370.5</ele>
        <time>2018-06-23T14:18:37Z</time>
      </trkpt>
      <trkpt lat="44.70393" lon="5.64529">
        <ele>1367.13</ele>
        <time>2018-06-23T14:18:44Z</time>
      </trkpt>
      <trkpt lat="44.70395" lon="5.64534">
        <ele>1371.94</ele>
        <time>2018-06-23T14:18:49Z</time>
      </trkpt>
      <trkpt lat="44.70395" lon="5.64535">
        <ele>1367.61</ele>
        <time>2018-06-23T14:18:50Z</time>
      </trkpt>
      <trkpt lat="44.70395" lon="5.64536">
        <ele>1371.46</ele>
        <time>2018-06-23T14:18:51Z</time>
      </trkpt>
      <trkpt lat="44.70396" lon="5.64542">
        <ele>1366.65</ele>
        <time>2018-06-23T14:18:55Z</time>
      </trkpt>
      <trkpt lat="44.70397" lon="5.64543">
        <ele>1368.57</ele>
        <time>2018-06-23T14:18:56Z</time>
      </trkpt>
      <trkpt lat="44.70397" lon="5.64546">
        <ele>1373.38</ele>
        <time>2018-06-23T14:18:58Z</time>
      </trkpt>
      <trkpt lat="44.70397" lon="5.64548">
        <ele>1367.61</ele>
        <time>2018-06-23T14:18:59Z</time>
      </trkpt>
      <trkpt lat="44.70399" lon="5.64557">
        <ele>1370.02</ele>
        <time>2018-06-23T14:19:04Z</time>
      </trkpt>
      <trkpt lat="44.70399" lon="5.64559">
        <ele>1366.17</ele>
        <time>2018-06-23T14:19:05Z</time>
      </trkpt>
      <trkpt lat="44.70399" lon="5.64562">
        <ele>1371.46</ele>
        <time>2018-06-23T14:19:07Z</time>
      </trkpt>
      <trkpt lat="44.704" lon="5.64563">
        <ele>1370.5</ele>
        <time>2018-06-23T14:19:08Z</time>
      </trkpt>
      <trkpt lat="44.704" lon="5.64565">
        <ele>1365.69</ele>
        <time>2018-06-23T14:19:09Z</time>
      </trkpt>
      <trkpt lat="44.704" lon="5.64566">
        <ele>1370.5</ele>
        <time>2018-06-23T14:19:10Z</time>
      </trkpt>
      <trkpt lat="44.70401" lon="5.64573">
        <ele>1368.09</ele>
        <time>2018-06-23T14:19:15Z</time>
      </trkpt>
      <trkpt lat="44.70401" lon="5.64576">
        <ele>1372.9</ele>
        <time>2018-06-23T14:19:17Z</time>
      </trkpt>
      <trkpt lat="44.70401" lon="5.64578">
        <ele>1364.25</ele>
        <time>2018-06-23T14:19:18Z</time>
      </trkpt>
      <trkpt lat="44.70401" lon="5.64579">
        <ele>1368.09</ele>
        <time>2018-06-23T14:19:19Z</time>
      </trkpt>
      <trkpt lat="44.70402" lon="5.64582">
        <ele>1370.98</ele>
        <time>2018-06-23T14:19:21Z</time>
      </trkpt>
      <trkpt lat="44.70402" lon="5.64583">
        <ele>1366.17</ele>
        <time>2018-06-23T14:19:22Z</time>
      </trkpt>
      <trkpt lat="44.70403" lon="5.64585">
        <ele>1372.42</ele>
        <time>2018-06-23T14:19:23Z</time>
      </trkpt>
      <trkpt lat="44.70403" lon="5.64589">
        <ele>1370.02</ele>
        <time>2018-06-23T14:19:26Z</time>
      </trkpt>
      <trkpt lat="44.70404" lon="5.64591">
        <ele>1366.65</ele>
        <time>2018-06-23T14:19:27Z</time>
      </trkpt>
      <trkpt lat="44.70404" lon="5.64592">
        <ele>1372.42</ele>
        <time>2018-06-23T14:19:28Z</time>
      </trkpt>
      <trkpt lat="44.70404" lon="5.64594">
        <ele>1371.94</ele>
        <time>2018-06-23T14:19:29Z</time>
      </trkpt>
      <trkpt lat="44.70404" lon="5.64597">
        <ele>1368.57</ele>
        <time>2018-06-23T14:19:31Z</time>
      </trkpt>
      <trkpt lat="44.70404" lon="5.646">
        <ele>1371.46</ele>
        <time>2018-06-23T14:19:33Z</time>
      </trkpt>
      <trkpt lat="44.70404" lon="5.64601">
        <ele>1366.17</ele>
        <time>2018-06-23T14:19:34Z</time>
      </trkpt>
      <trkpt lat="44.70404" lon="5.64603">
        <ele>1370.98</ele>
        <time>2018-06-23T14:19:35Z</time>
      </trkpt>
      <trkpt lat="44.70404" lon="5.64614">
        <ele>1367.61</ele>
        <time>2018-06-23T14:19:43Z</time>
      </trkpt>
      <trkpt lat="44.70403" lon="5.64615">
        <ele>1369.05</ele>
        <time>2018-06-23T14:19:44Z</time>
      </trkpt>
      <trkpt lat="44.70403" lon="5.64617">
        <ele>1370.98</ele>
        <time>2018-06-23T14:19:46Z</time>
      </trkpt>
      <trkpt lat="44.70403" lon="5.64618">
        <ele>1366.65</ele>
        <time>2018-06-23T14:19:47Z</time>
      </trkpt>
      <trkpt lat="44.70402" lon="5.64619">
        <ele>1370.02</ele>
        <time>2018-06-23T14:19:48Z</time>
      </trkpt>
      <trkpt lat="44.70401" lon="5.64625">
        <ele>1366.17</ele>
        <time>2018-06-23T14:19:53Z</time>
      </trkpt>
      <trkpt lat="44.70401" lon="5.64626">
        <ele>1369.54</ele>
        <time>2018-06-23T14:19:54Z</time>
      </trkpt>
      <trkpt lat="44.70401" lon="5.64627">
        <ele>1372.9</ele>
        <time>2018-06-23T14:19:55Z</time>
      </trkpt>
      <trkpt lat="44.70401" lon="5.64629">
        <ele>1370.02</ele>
        <time>2018-06-23T14:19:56Z</time>
      </trkpt>
      <trkpt lat="44.70401" lon="5.6463">
        <ele>1365.69</ele>
        <time>2018-06-23T14:19:57Z</time>
      </trkpt>
      <trkpt lat="44.70401" lon="5.64631">
        <ele>1369.54</ele>
        <time>2018-06-23T14:19:58Z</time>
      </trkpt>
      <trkpt lat="44.70401" lon="5.64643">
        <ele>1366.17</ele>
        <time>2018-06-23T14:20:07Z</time>
      </trkpt>
      <trkpt lat="44.70402" lon="5.64647">
        <ele>1369.54</ele>
        <time>2018-06-23T14:20:09Z</time>
      </trkpt>
      <trkpt lat="44.70402" lon="5.64649">
        <ele>1368.57</ele>
        <time>2018-06-23T14:20:10Z</time>
      </trkpt>
      <trkpt lat="44.70402" lon="5.64654">
        <ele>1364.25</ele>
        <time>2018-06-23T14:20:13Z</time>
      </trkpt>
      <trkpt lat="44.70402" lon="5.64658">
        <ele>1370.02</ele>
        <time>2018-06-23T14:20:16Z</time>
      </trkpt>
      <trkpt lat="44.70402" lon="5.6466">
        <ele>1366.17</ele>
        <time>2018-06-23T14:20:17Z</time>
      </trkpt>
      <trkpt lat="44.70403" lon="5.64661">
        <ele>1362.33</ele>
        <time>2018-06-23T14:20:18Z</time>
      </trkpt>
      <trkpt lat="44.70403" lon="5.64663">
        <ele>1364.25</ele>
        <time>2018-06-23T14:20:19Z</time>
      </trkpt>
      <trkpt lat="44.70403" lon="5.64665">
        <ele>1370.5</ele>
        <time>2018-06-23T14:20:21Z</time>
      </trkpt>
      <trkpt lat="44.70403" lon="5.64667">
        <ele>1364.73</ele>
        <time>2018-06-23T14:20:22Z</time>
      </trkpt>
      <trkpt lat="44.70403" lon="5.64674">
        <ele>1368.57</ele>
        <time>2018-06-23T14:20:27Z</time>
      </trkpt>
      <trkpt lat="44.70403" lon="5.64677">
        <ele>1362.81</ele>
        <time>2018-06-23T14:20:29Z</time>
      </trkpt>
      <trkpt lat="44.70403" lon="5.64678">
        <ele>1367.13</ele>
        <time>2018-06-23T14:20:30Z</time>
      </trkpt>
      <trkpt lat="44.70403" lon="5.64682">
        <ele>1363.29</ele>
        <time>2018-06-23T14:20:33Z</time>
      </trkpt>
      <trkpt lat="44.70402" lon="5.64683">
        <ele>1367.13</ele>
        <time>2018-06-23T14:20:34Z</time>
      </trkpt>
      <trkpt lat="44.70402" lon="5.64686">
        <ele>1363.77</ele>
        <time>2018-06-23T14:20:36Z</time>
      </trkpt>
      <trkpt lat="44.70402" lon="5.64687">
        <ele>1365.69</ele>
        <time>2018-06-23T14:20:37Z</time>
      </trkpt>
      <trkpt lat="44.70402" lon="5.64688">
        <ele>1362.33</ele>
        <time>2018-06-23T14:20:38Z</time>
      </trkpt>
      <trkpt lat="44.70402" lon="5.6469">
        <ele>1365.69</ele>
        <time>2018-06-23T14:20:39Z</time>
      </trkpt>
      <trkpt lat="44.70402" lon="5.64694">
        <ele>1362.33</ele>
        <time>2018-06-23T14:20:42Z</time>
      </trkpt>
      <trkpt lat="44.70402" lon="5.64695">
        <ele>1364.73</ele>
        <time>2018-06-23T14:20:43Z</time>
      </trkpt>
      <trkpt lat="44.704" lon="5.64704">
        <ele>1366.65</ele>
        <time>2018-06-23T14:20:49Z</time>
      </trkpt>
      <trkpt lat="44.704" lon="5.64707">
        <ele>1362.81</ele>
        <time>2018-06-23T14:20:51Z</time>
      </trkpt>
      <trkpt lat="44.70399" lon="5.64708">
        <ele>1366.17</ele>
        <time>2018-06-23T14:20:52Z</time>
      </trkpt>
      <trkpt lat="44.70399" lon="5.64709">
        <ele>1361.84</ele>
        <time>2018-06-23T14:20:53Z</time>
      </trkpt>
      <trkpt lat="44.70399" lon="5.64711">
        <ele>1366.17</ele>
        <time>2018-06-23T14:20:54Z</time>
      </trkpt>
      <trkpt lat="44.70397" lon="5.64715">
        <ele>1361.36</ele>
        <time>2018-06-23T14:20:57Z</time>
      </trkpt>
      <trkpt lat="44.70396" lon="5.64718">
        <ele>1366.65</ele>
        <time>2018-06-23T14:20:59Z</time>
      </trkpt>
      <trkpt lat="44.70396" lon="5.64719">
        <ele>1365.21</ele>
        <time>2018-06-23T14:21:00Z</time>
      </trkpt>
      <trkpt lat="44.70395" lon="5.64721">
        <ele>1361.36</ele>
        <time>2018-06-23T14:21:01Z</time>
      </trkpt>
      <trkpt lat="44.70394" lon="5.64722">
        <ele>1363.77</ele>
        <time>2018-06-23T14:21:02Z</time>
      </trkpt>
      <trkpt lat="44.70391" lon="5.64726">
        <ele>1365.21</ele>
        <time>2018-06-23T14:21:06Z</time>
      </trkpt>
      <trkpt lat="44.70389" lon="5.64728">
        <ele>1361.36</ele>
        <time>2018-06-23T14:21:08Z</time>
      </trkpt>
      <trkpt lat="44.70388" lon="5.6473">
        <ele>1365.69</ele>
        <time>2018-06-23T14:21:10Z</time>
      </trkpt>
      <trkpt lat="44.70386" lon="5.64733">
        <ele>1359.44</ele>
        <time>2018-06-23T14:21:12Z</time>
      </trkpt>
      <trkpt lat="44.70385" lon="5.64734">
        <ele>1364.73</ele>
        <time>2018-06-23T14:21:13Z</time>
      </trkpt>
      <trkpt lat="44.70385" lon="5.64735">
        <ele>1361.36</ele>
        <time>2018-06-23T14:21:14Z</time>
      </trkpt>
      <trkpt lat="44.70384" lon="5.64736">
        <ele>1364.25</ele>
        <time>2018-06-23T14:21:15Z</time>
      </trkpt>
      <trkpt lat="44.70383" lon="5.64738">
        <ele>1361.36</ele>
        <time>2018-06-23T14:21:17Z</time>
      </trkpt>
      <trkpt lat="44.70382" lon="5.64739">
        <ele>1360.88</ele>
        <time>2018-06-23T14:21:18Z</time>
      </trkpt>
      <trkpt lat="44.70381" lon="5.64741">
        <ele>1365.69</ele>
        <time>2018-06-23T14:21:20Z</time>
      </trkpt>
      <trkpt lat="44.7038" lon="5.64743">
        <ele>1360.88</ele>
        <time>2018-06-23T14:21:22Z</time>
      </trkpt>
      <trkpt lat="44.7038" lon="5.64744">
        <ele>1361.36</ele>
        <time>2018-06-23T14:21:23Z</time>
      </trkpt>
      <trkpt lat="44.70378" lon="5.64746">
        <ele>1362.33</ele>
        <time>2018-06-23T14:21:25Z</time>
      </trkpt>
      <trkpt lat="44.70377" lon="5.64749">
        <ele>1358.96</ele>
        <time>2018-06-23T14:21:28Z</time>
      </trkpt>
      <trkpt lat="44.70376" lon="5.6475">
        <ele>1361.84</ele>
        <time>2018-06-23T14:21:29Z</time>
      </trkpt>
      <trkpt lat="44.70375" lon="5.64754">
        <ele>1358.96</ele>
        <time>2018-06-23T14:21:33Z</time>
      </trkpt>
      <trkpt lat="44.70374" lon="5.64756">
        <ele>1362.33</ele>
        <time>2018-06-23T14:21:34Z</time>
      </trkpt>
      <trkpt lat="44.70374" lon="5.6476">
        <ele>1358</ele>
        <time>2018-06-23T14:21:37Z</time>
      </trkpt>
      <trkpt lat="44.70373" lon="5.64765">
        <ele>1361.36</ele>
        <time>2018-06-23T14:21:40Z</time>
      </trkpt>
      <trkpt lat="44.70373" lon="5.64769">
        <ele>1356.56</ele>
        <time>2018-06-23T14:21:43Z</time>
      </trkpt>
      <trkpt lat="44.70372" lon="5.64772">
        <ele>1362.33</ele>
        <time>2018-06-23T14:21:45Z</time>
      </trkpt>
      <trkpt lat="44.70372" lon="5.64774">
        <ele>1360.4</ele>
        <time>2018-06-23T14:21:46Z</time>
      </trkpt>
      <trkpt lat="44.70372" lon="5.64777">
        <ele>1356.56</ele>
        <time>2018-06-23T14:21:48Z</time>
      </trkpt>
      <trkpt lat="44.70372" lon="5.64779">
        <ele>1360.4</ele>
        <time>2018-06-23T14:21:49Z</time>
      </trkpt>
      <trkpt lat="44.70371" lon="5.64785">
        <ele>1356.08</ele>
        <time>2018-06-23T14:21:53Z</time>
      </trkpt>
      <trkpt lat="44.70371" lon="5.64786">
        <ele>1359.44</ele>
        <time>2018-06-23T14:21:54Z</time>
      </trkpt>
      <trkpt lat="44.7037" lon="5.64789">
        <ele>1360.88</ele>
        <time>2018-06-23T14:21:56Z</time>
      </trkpt>
      <trkpt lat="44.7037" lon="5.6479">
        <ele>1356.08</ele>
        <time>2018-06-23T14:21:57Z</time>
      </trkpt>
      <trkpt lat="44.70369" lon="5.64791">
        <ele>1358</ele>
        <time>2018-06-23T14:21:58Z</time>
      </trkpt>
      <trkpt lat="44.70368" lon="5.64795">
        <ele>1359.92</ele>
        <time>2018-06-23T14:22:00Z</time>
      </trkpt>
      <trkpt lat="44.70367" lon="5.64804">
        <ele>1360.4</ele>
        <time>2018-06-23T14:22:06Z</time>
      </trkpt>
      <trkpt lat="44.70366" lon="5.64807">
        <ele>1356.08</ele>
        <time>2018-06-23T14:22:08Z</time>
      </trkpt>
      <trkpt lat="44.70366" lon="5.64808">
        <ele>1357.52</ele>
        <time>2018-06-23T14:22:09Z</time>
      </trkpt>
      <trkpt lat="44.70365" lon="5.64811">
        <ele>1361.36</ele>
        <time>2018-06-23T14:22:11Z</time>
      </trkpt>
      <trkpt lat="44.70365" lon="5.64813">
        <ele>1355.12</ele>
        <time>2018-06-23T14:22:12Z</time>
      </trkpt>
      <trkpt lat="44.70365" lon="5.64814">
        <ele>1356.08</ele>
        <time>2018-06-23T14:22:13Z</time>
      </trkpt>
      <trkpt lat="44.70365" lon="5.64819">
        <ele>1359.44</ele>
        <time>2018-06-23T14:22:16Z</time>
      </trkpt>
      <trkpt lat="44.70365" lon="5.6482">
        <ele>1356.08</ele>
        <time>2018-06-23T14:22:17Z</time>
      </trkpt>
      <trkpt lat="44.70364" lon="5.64826">
        <ele>1359.44</ele>
        <time>2018-06-23T14:22:21Z</time>
      </trkpt>
      <trkpt lat="44.70364" lon="5.64827">
        <ele>1354.15</ele>
        <time>2018-06-23T14:22:22Z</time>
      </trkpt>
      <trkpt lat="44.70364" lon="5.64828">
        <ele>1355.12</ele>
        <time>2018-06-23T14:22:23Z</time>
      </trkpt>
      <trkpt lat="44.70364" lon="5.6483">
        <ele>1359.44</ele>
        <time>2018-06-23T14:22:24Z</time>
      </trkpt>
      <trkpt lat="44.70364" lon="5.64831">
        <ele>1358</ele>
        <time>2018-06-23T14:22:25Z</time>
      </trkpt>
      <trkpt lat="44.70364" lon="5.64832">
        <ele>1354.63</ele>
        <time>2018-06-23T14:22:26Z</time>
      </trkpt>
      <trkpt lat="44.70364" lon="5.64833">
        <ele>1358</ele>
        <time>2018-06-23T14:22:27Z</time>
      </trkpt>
      <trkpt lat="44.70364" lon="5.64835">
        <ele>1354.15</ele>
        <time>2018-06-23T14:22:28Z</time>
      </trkpt>
      <trkpt lat="44.70363" lon="5.64839">
        <ele>1357.52</ele>
        <time>2018-06-23T14:22:31Z</time>
      </trkpt>
      <trkpt lat="44.70362" lon="5.64845">
        <ele>1357.52</ele>
        <time>2018-06-23T14:22:35Z</time>
      </trkpt>
      <trkpt lat="44.70361" lon="5.64849">
        <ele>1356.08</ele>
        <time>2018-06-23T14:22:37Z</time>
      </trkpt>
      <trkpt lat="44.70361" lon="5.6485">
        <ele>1359.92</ele>
        <time>2018-06-23T14:22:38Z</time>
      </trkpt>
      <trkpt lat="44.7036" lon="5.64851">
        <ele>1354.63</ele>
        <time>2018-06-23T14:22:39Z</time>
      </trkpt>
      <trkpt lat="44.70357" lon="5.64857">
        <ele>1353.67</ele>
        <time>2018-06-23T14:22:45Z</time>
      </trkpt>
      <trkpt lat="44.70355" lon="5.64858">
        <ele>1354.63</ele>
        <time>2018-06-23T14:22:47Z</time>
      </trkpt>
      <trkpt lat="44.70349" lon="5.64863">
        <ele>1356.56</ele>
        <time>2018-06-23T14:22:57Z</time>
      </trkpt>
      <trkpt lat="44.70348" lon="5.64864">
        <ele>1352.71</ele>
        <time>2018-06-23T14:22:58Z</time>
      </trkpt>
      <trkpt lat="44.70347" lon="5.64864">
        <ele>1352.71</ele>
        <time>2018-06-23T14:22:59Z</time>
      </trkpt>
      <trkpt lat="44.70345" lon="5.64866">
        <ele>1357.52</ele>
        <time>2018-06-23T14:23:01Z</time>
      </trkpt>
      <trkpt lat="44.70344" lon="5.64866">
        <ele>1353.67</ele>
        <time>2018-06-23T14:23:02Z</time>
      </trkpt>
      <trkpt lat="44.70343" lon="5.64867">
        <ele>1349.83</ele>
        <time>2018-06-23T14:23:03Z</time>
      </trkpt>
      <trkpt lat="44.70342" lon="5.64867">
        <ele>1350.79</ele>
        <time>2018-06-23T14:23:04Z</time>
      </trkpt>
      <trkpt lat="44.70341" lon="5.64868">
        <ele>1351.75</ele>
        <time>2018-06-23T14:23:06Z</time>
      </trkpt>
      <trkpt lat="44.7034" lon="5.64869">
        <ele>1356.08</ele>
        <time>2018-06-23T14:23:07Z</time>
      </trkpt>
      <trkpt lat="44.70339" lon="5.64871">
        <ele>1352.23</ele>
        <time>2018-06-23T14:23:08Z</time>
      </trkpt>
      <trkpt lat="44.70331" lon="5.64882">
        <ele>1356.08</ele>
        <time>2018-06-23T14:23:17Z</time>
      </trkpt>
      <trkpt lat="44.7033" lon="5.64884">
        <ele>1349.83</ele>
        <time>2018-06-23T14:23:19Z</time>
      </trkpt>
      <trkpt lat="44.70327" lon="5.64886">
        <ele>1356.56</ele>
        <time>2018-06-23T14:23:22Z</time>
      </trkpt>
      <trkpt lat="44.70327" lon="5.64887">
        <ele>1354.15</ele>
        <time>2018-06-23T14:23:23Z</time>
      </trkpt>
      <trkpt lat="44.70326" lon="5.64887">
        <ele>1351.75</ele>
        <time>2018-06-23T14:23:24Z</time>
      </trkpt>
      <trkpt lat="44.70324" lon="5.64889">
        <ele>1350.79</ele>
        <time>2018-06-23T14:23:26Z</time>
      </trkpt>
      <trkpt lat="44.70322" lon="5.6489">
        <ele>1349.35</ele>
        <time>2018-06-23T14:23:29Z</time>
      </trkpt>
      <trkpt lat="44.70321" lon="5.6489">
        <ele>1352.71</ele>
        <time>2018-06-23T14:23:30Z</time>
      </trkpt>
      <trkpt lat="44.7032" lon="5.6489">
        <ele>1349.35</ele>
        <time>2018-06-23T14:23:31Z</time>
      </trkpt>
      <trkpt lat="44.70318" lon="5.64889">
        <ele>1345.5</ele>
        <time>2018-06-23T14:23:34Z</time>
      </trkpt>
      <trkpt lat="44.70318" lon="5.64887">
        <ele>1351.27</ele>
        <time>2018-06-23T14:23:35Z</time>
      </trkpt>
      <trkpt lat="44.70317" lon="5.64881">
        <ele>1345.98</ele>
        <time>2018-06-23T14:23:39Z</time>
      </trkpt>
      <trkpt lat="44.70317" lon="5.64874">
        <ele>1345.98</ele>
        <time>2018-06-23T14:23:45Z</time>
      </trkpt>
      <trkpt lat="44.70317" lon="5.64871">
        <ele>1348.87</ele>
        <time>2018-06-23T14:23:47Z</time>
      </trkpt>
      <trkpt lat="44.70316" lon="5.64866">
        <ele>1345.02</ele>
        <time>2018-06-23T14:23:50Z</time>
      </trkpt>
      <trkpt lat="44.70316" lon="5.64864">
        <ele>1347.43</ele>
        <time>2018-06-23T14:23:51Z</time>
      </trkpt>
      <trkpt lat="44.70314" lon="5.6486">
        <ele>1343.1</ele>
        <time>2018-06-23T14:23:57Z</time>
      </trkpt>
      <trkpt lat="44.70313" lon="5.6486">
        <ele>1343.1</ele>
        <time>2018-06-23T14:23:58Z</time>
      </trkpt>
      <trkpt lat="44.70313" lon="5.6486">
        <ele>1346.94</ele>
        <time>2018-06-23T14:23:59Z</time>
      </trkpt>
      <trkpt lat="44.70312" lon="5.64859">
        <ele>1346.94</ele>
        <time>2018-06-23T14:24:00Z</time>
      </trkpt>
      <trkpt lat="44.70311" lon="5.64859">
        <ele>1343.1</ele>
        <time>2018-06-23T14:24:01Z</time>
      </trkpt>
      <trkpt lat="44.7031" lon="5.64859">
        <ele>1345.5</ele>
        <time>2018-06-23T14:24:02Z</time>
      </trkpt>
      <trkpt lat="44.70307" lon="5.64859">
        <ele>1343.1</ele>
        <time>2018-06-23T14:24:05Z</time>
      </trkpt>
      <trkpt lat="44.70306" lon="5.64859">
        <ele>1344.06</ele>
        <time>2018-06-23T14:24:06Z</time>
      </trkpt>
      <trkpt lat="44.70303" lon="5.64862">
        <ele>1340.22</ele>
        <time>2018-06-23T14:24:11Z</time>
      </trkpt>
      <trkpt lat="44.70303" lon="5.64863">
        <ele>1345.98</ele>
        <time>2018-06-23T14:24:12Z</time>
      </trkpt>
      <trkpt lat="44.70302" lon="5.64864">
        <ele>1348.87</ele>
        <time>2018-06-23T14:24:13Z</time>
      </trkpt>
      <trkpt lat="44.70301" lon="5.64865">
        <ele>1343.1</ele>
        <time>2018-06-23T14:24:14Z</time>
      </trkpt>
      <trkpt lat="44.70299" lon="5.64871">
        <ele>1342.14</ele>
        <time>2018-06-23T14:24:20Z</time>
      </trkpt>
      <trkpt lat="44.70296" lon="5.64876">
        <ele>1339.25</ele>
        <time>2018-06-23T14:24:25Z</time>
      </trkpt>
      <trkpt lat="44.70295" lon="5.64877">
        <ele>1343.1</ele>
        <time>2018-06-23T14:24:26Z</time>
      </trkpt>
      <trkpt lat="44.70294" lon="5.64879">
        <ele>1336.85</ele>
        <time>2018-06-23T14:24:29Z</time>
      </trkpt>
      <trkpt lat="44.70293" lon="5.6488">
        <ele>1342.62</ele>
        <time>2018-06-23T14:24:30Z</time>
      </trkpt>
      <trkpt lat="44.70291" lon="5.64885">
        <ele>1337.81</ele>
        <time>2018-06-23T14:24:35Z</time>
      </trkpt>
      <trkpt lat="44.7029" lon="5.64886">
        <ele>1342.62</ele>
        <time>2018-06-23T14:24:36Z</time>
      </trkpt>
      <trkpt lat="44.70288" lon="5.64887">
        <ele>1336.37</ele>
        <time>2018-06-23T14:24:39Z</time>
      </trkpt>
      <trkpt lat="44.70287" lon="5.64888">
        <ele>1343.1</ele>
        <time>2018-06-23T14:24:40Z</time>
      </trkpt>
      <trkpt lat="44.70284" lon="5.64889">
        <ele>1339.25</ele>
        <time>2018-06-23T14:24:44Z</time>
      </trkpt>
      <trkpt lat="44.70283" lon="5.6489">
        <ele>1336.85</ele>
        <time>2018-06-23T14:24:45Z</time>
      </trkpt>
      <trkpt lat="44.7028" lon="5.6489">
        <ele>1339.25</ele>
        <time>2018-06-23T14:24:48Z</time>
      </trkpt>
      <trkpt lat="44.70278" lon="5.6489">
        <ele>1335.41</ele>
        <time>2018-06-23T14:24:50Z</time>
      </trkpt>
      <trkpt lat="44.70278" lon="5.64891">
        <ele>1341.18</ele>
        <time>2018-06-23T14:24:51Z</time>
      </trkpt>
      <trkpt lat="44.70277" lon="5.64891">
        <ele>1337.81</ele>
        <time>2018-06-23T14:24:52Z</time>
      </trkpt>
      <trkpt lat="44.70276" lon="5.64892">
        <ele>1334.45</ele>
        <time>2018-06-23T14:24:54Z</time>
      </trkpt>
      <trkpt lat="44.70275" lon="5.64892">
        <ele>1334.93</ele>
        <time>2018-06-23T14:24:55Z</time>
      </trkpt>
      <trkpt lat="44.70273" lon="5.64893">
        <ele>1339.73</ele>
        <time>2018-06-23T14:24:57Z</time>
      </trkpt>
      <trkpt lat="44.70272" lon="5.64894">
        <ele>1333.97</ele>
        <time>2018-06-23T14:24:58Z</time>
      </trkpt>
      <trkpt lat="44.70271" lon="5.64894">
        <ele>1333.97</ele>
        <time>2018-06-23T14:24:59Z</time>
      </trkpt>
      <trkpt lat="44.70266" lon="5.64895">
        <ele>1330.6</ele>
        <time>2018-06-23T14:25:04Z</time>
      </trkpt>
      <trkpt lat="44.70265" lon="5.64895">
        <ele>1334.93</ele>
        <time>2018-06-23T14:25:05Z</time>
      </trkpt>
      <trkpt lat="44.70263" lon="5.64895">
        <ele>1335.89</ele>
        <time>2018-06-23T14:25:08Z</time>
      </trkpt>
      <trkpt lat="44.70262" lon="5.64893">
        <ele>1335.41</ele>
        <time>2018-06-23T14:25:10Z</time>
      </trkpt>
      <trkpt lat="44.7026" lon="5.64893">
        <ele>1331.08</ele>
        <time>2018-06-23T14:25:12Z</time>
      </trkpt>
      <trkpt lat="44.70259" lon="5.64892">
        <ele>1334.93</ele>
        <time>2018-06-23T14:25:13Z</time>
      </trkpt>
      <trkpt lat="44.70258" lon="5.64892">
        <ele>1332.04</ele>
        <time>2018-06-23T14:25:14Z</time>
      </trkpt>
      <trkpt lat="44.70255" lon="5.64895">
        <ele>1331.08</ele>
        <time>2018-06-23T14:25:18Z</time>
      </trkpt>
      <trkpt lat="44.70254" lon="5.64896">
        <ele>1332.04</ele>
        <time>2018-06-23T14:25:20Z</time>
      </trkpt>
      <trkpt lat="44.70253" lon="5.64896">
        <ele>1330.12</ele>
        <time>2018-06-23T14:25:22Z</time>
      </trkpt>
      <trkpt lat="44.70252" lon="5.64897">
        <ele>1334.45</ele>
        <time>2018-06-23T14:25:23Z</time>
      </trkpt>
      <trkpt lat="44.70251" lon="5.64897">
        <ele>1330.6</ele>
        <time>2018-06-23T14:25:24Z</time>
      </trkpt>
      <trkpt lat="44.7025" lon="5.64898">
        <ele>1331.56</ele>
        <time>2018-06-23T14:25:26Z</time>
      </trkpt>
      <trkpt lat="44.70248" lon="5.64898">
        <ele>1329.16</ele>
        <time>2018-06-23T14:25:28Z</time>
      </trkpt>
      <trkpt lat="44.70247" lon="5.64898">
        <ele>1332.04</ele>
        <time>2018-06-23T14:25:29Z</time>
      </trkpt>
      <trkpt lat="44.70246" lon="5.64898">
        <ele>1333.49</ele>
        <time>2018-06-23T14:25:30Z</time>
      </trkpt>
      <trkpt lat="44.70244" lon="5.64897">
        <ele>1330.6</ele>
        <time>2018-06-23T14:25:32Z</time>
      </trkpt>
      <trkpt lat="44.70243" lon="5.64896">
        <ele>1326.76</ele>
        <time>2018-06-23T14:25:33Z</time>
      </trkpt>
      <trkpt lat="44.70239" lon="5.64896">
        <ele>1330.12</ele>
        <time>2018-06-23T14:25:36Z</time>
      </trkpt>
      <trkpt lat="44.70237" lon="5.64896">
        <ele>1326.76</ele>
        <time>2018-06-23T14:25:38Z</time>
      </trkpt>
      <trkpt lat="44.70235" lon="5.64896">
        <ele>1330.12</ele>
        <time>2018-06-23T14:25:40Z</time>
      </trkpt>
      <trkpt lat="44.70234" lon="5.64896">
        <ele>1322.91</ele>
        <time>2018-06-23T14:25:41Z</time>
      </trkpt>
      <trkpt lat="44.70233" lon="5.64896">
        <ele>1326.28</ele>
        <time>2018-06-23T14:25:42Z</time>
      </trkpt>
      <trkpt lat="44.70229" lon="5.64894">
        <ele>1328.2</ele>
        <time>2018-06-23T14:25:45Z</time>
      </trkpt>
      <trkpt lat="44.70228" lon="5.64893">
        <ele>1323.87</ele>
        <time>2018-06-23T14:25:46Z</time>
      </trkpt>
      <trkpt lat="44.70226" lon="5.64893">
        <ele>1326.28</ele>
        <time>2018-06-23T14:25:47Z</time>
      </trkpt>
      <trkpt lat="44.70225" lon="5.64892">
        <ele>1322.91</ele>
        <time>2018-06-23T14:25:48Z</time>
      </trkpt>
      <trkpt lat="44.70223" lon="5.64891">
        <ele>1326.76</ele>
        <time>2018-06-23T14:25:50Z</time>
      </trkpt>
      <trkpt lat="44.70221" lon="5.64889">
        <ele>1323.39</ele>
        <time>2018-06-23T14:25:53Z</time>
      </trkpt>
      <trkpt lat="44.70218" lon="5.64888">
        <ele>1325.8</ele>
        <time>2018-06-23T14:25:56Z</time>
      </trkpt>
      <trkpt lat="44.70216" lon="5.64889">
        <ele>1321.47</ele>
        <time>2018-06-23T14:25:59Z</time>
      </trkpt>
      <trkpt lat="44.70214" lon="5.6489">
        <ele>1327.24</ele>
        <time>2018-06-23T14:26:01Z</time>
      </trkpt>
      <trkpt lat="44.70212" lon="5.64891">
        <ele>1325.31</ele>
        <time>2018-06-23T14:26:02Z</time>
      </trkpt>
      <trkpt lat="44.70208" lon="5.64893">
        <ele>1319.55</ele>
        <time>2018-06-23T14:26:06Z</time>
      </trkpt>
      <trkpt lat="44.70206" lon="5.64893">
        <ele>1323.87</ele>
        <time>2018-06-23T14:26:08Z</time>
      </trkpt>
      <trkpt lat="44.70204" lon="5.64893">
        <ele>1317.62</ele>
        <time>2018-06-23T14:26:11Z</time>
      </trkpt>
      <trkpt lat="44.70203" lon="5.64893">
        <ele>1320.99</ele>
        <time>2018-06-23T14:26:12Z</time>
      </trkpt>
      <trkpt lat="44.70201" lon="5.64893">
        <ele>1321.95</ele>
        <time>2018-06-23T14:26:14Z</time>
      </trkpt>
      <trkpt lat="44.70199" lon="5.64893">
        <ele>1318.1</ele>
        <time>2018-06-23T14:26:16Z</time>
      </trkpt>
      <trkpt lat="44.70198" lon="5.64893">
        <ele>1324.35</ele>
        <time>2018-06-23T14:26:17Z</time>
      </trkpt>
      <trkpt lat="44.70197" lon="5.64893">
        <ele>1319.07</ele>
        <time>2018-06-23T14:26:18Z</time>
      </trkpt>
      <trkpt lat="44.70193" lon="5.64892">
        <ele>1322.43</ele>
        <time>2018-06-23T14:26:23Z</time>
      </trkpt>
      <trkpt lat="44.70192" lon="5.64891">
        <ele>1318.1</ele>
        <time>2018-06-23T14:26:24Z</time>
      </trkpt>
      <trkpt lat="44.70184" lon="5.64888">
        <ele>1314.74</ele>
        <time>2018-06-23T14:26:35Z</time>
      </trkpt>
      <trkpt lat="44.70183" lon="5.64889">
        <ele>1319.07</ele>
        <time>2018-06-23T14:26:36Z</time>
      </trkpt>
      <trkpt lat="44.7018" lon="5.64888">
        <ele>1315.7</ele>
        <time>2018-06-23T14:26:41Z</time>
      </trkpt>
      <trkpt lat="44.70175" lon="5.64889">
        <ele>1314.74</ele>
        <time>2018-06-23T14:26:46Z</time>
      </trkpt>
      <trkpt lat="44.70168" lon="5.64891">
        <ele>1307.05</ele>
        <time>2018-06-23T14:26:58Z</time>
      </trkpt>
      <trkpt lat="44.70167" lon="5.64891">
        <ele>1316.66</ele>
        <time>2018-06-23T14:26:59Z</time>
      </trkpt>
      <trkpt lat="44.70167" lon="5.64891">
        <ele>1311.86</ele>
        <time>2018-06-23T14:27:00Z</time>
      </trkpt>
      <trkpt lat="44.70162" lon="5.64889">
        <ele>1312.34</ele>
        <time>2018-06-23T14:27:12Z</time>
      </trkpt>
      <trkpt lat="44.70163" lon="5.64889">
        <ele>1307.05</ele>
        <time>2018-06-23T14:27:14Z</time>
      </trkpt>
      <trkpt lat="44.70163" lon="5.6489">
        <ele>1312.82</ele>
        <time>2018-06-23T14:27:16Z</time>
      </trkpt>
      <trkpt lat="44.70163" lon="5.6489">
        <ele>1310.41</ele>
        <time>2018-06-23T14:27:17Z</time>
      </trkpt>
      <trkpt lat="44.70161" lon="5.64889">
        <ele>1309.45</ele>
        <time>2018-06-23T14:27:24Z</time>
      </trkpt>
      <trkpt lat="44.70158" lon="5.64887">
        <ele>1306.09</ele>
        <time>2018-06-23T14:27:29Z</time>
      </trkpt>
      <trkpt lat="44.70155" lon="5.64886">
        <ele>1308.97</ele>
        <time>2018-06-23T14:27:36Z</time>
      </trkpt>
      <trkpt lat="44.70154" lon="5.64885">
        <ele>1302.72</ele>
        <time>2018-06-23T14:27:38Z</time>
      </trkpt>
      <trkpt lat="44.70154" lon="5.64885">
        <ele>1305.61</ele>
        <time>2018-06-23T14:27:39Z</time>
      </trkpt>
      <trkpt lat="44.70151" lon="5.64883">
        <ele>1305.13</ele>
        <time>2018-06-23T14:27:43Z</time>
      </trkpt>
      <trkpt lat="44.70149" lon="5.6488">
        <ele>1306.09</ele>
        <time>2018-06-23T14:27:47Z</time>
      </trkpt>
      <trkpt lat="44.70149" lon="5.64878">
        <ele>1305.13</ele>
        <time>2018-06-23T14:27:49Z</time>
      </trkpt>
      <trkpt lat="44.70147" lon="5.64874">
        <ele>1300.32</ele>
        <time>2018-06-23T14:27:52Z</time>
      </trkpt>
      <trkpt lat="44.70146" lon="5.64873">
        <ele>1301.76</ele>
        <time>2018-06-23T14:27:53Z</time>
      </trkpt>
      <trkpt lat="44.70146" lon="5.64872">
        <ele>1300.8</ele>
        <time>2018-06-23T14:27:55Z</time>
      </trkpt>
      <trkpt lat="44.70145" lon="5.64866">
        <ele>1299.84</ele>
        <time>2018-06-23T14:27:59Z</time>
      </trkpt>
      <trkpt lat="44.70145" lon="5.64864">
        <ele>1301.28</ele>
        <time>2018-06-23T14:28:00Z</time>
      </trkpt>
      <trkpt lat="44.70144" lon="5.64861">
        <ele>1304.65</ele>
        <time>2018-06-23T14:28:02Z</time>
      </trkpt>
      <trkpt lat="44.70144" lon="5.6486">
        <ele>1303.69</ele>
        <time>2018-06-23T14:28:03Z</time>
      </trkpt>
      <trkpt lat="44.70144" lon="5.64858">
        <ele>1299.36</ele>
        <time>2018-06-23T14:28:04Z</time>
      </trkpt>
      <trkpt lat="44.70144" lon="5.64857">
        <ele>1300.8</ele>
        <time>2018-06-23T14:28:05Z</time>
      </trkpt>
      <trkpt lat="44.70144" lon="5.64854">
        <ele>1301.28</ele>
        <time>2018-06-23T14:28:07Z</time>
      </trkpt>
      <trkpt lat="44.70144" lon="5.6485">
        <ele>1306.09</ele>
        <time>2018-06-23T14:28:09Z</time>
      </trkpt>
      <trkpt lat="44.70144" lon="5.64849">
        <ele>1300.32</ele>
        <time>2018-06-23T14:28:10Z</time>
      </trkpt>
      <trkpt lat="44.70142" lon="5.64845">
        <ele>1303.69</ele>
        <time>2018-06-23T14:28:13Z</time>
      </trkpt>
      <trkpt lat="44.70143" lon="5.64841">
        <ele>1297.92</ele>
        <time>2018-06-23T14:28:15Z</time>
      </trkpt>
      <trkpt lat="44.70142" lon="5.6484">
        <ele>1299.36</ele>
        <time>2018-06-23T14:28:16Z</time>
      </trkpt>
      <trkpt lat="44.70141" lon="5.64835">
        <ele>1301.28</ele>
        <time>2018-06-23T14:28:18Z</time>
      </trkpt>
      <trkpt lat="44.70141" lon="5.6483">
        <ele>1299.84</ele>
        <time>2018-06-23T14:28:21Z</time>
      </trkpt>
      <trkpt lat="44.70141" lon="5.64829">
        <ele>1303.2</ele>
        <time>2018-06-23T14:28:22Z</time>
      </trkpt>
      <trkpt lat="44.70141" lon="5.64828">
        <ele>1299.84</ele>
        <time>2018-06-23T14:28:23Z</time>
      </trkpt>
      <trkpt lat="44.70141" lon="5.64827">
        <ele>1300.32</ele>
        <time>2018-06-23T14:28:36Z</time>
      </trkpt>
      <trkpt lat="44.70138" lon="5.64827">
        <ele>1299.84</ele>
        <time>2018-06-23T14:28:46Z</time>
      </trkpt>
      <trkpt lat="44.70138" lon="5.64829">
        <ele>1299.36</ele>
        <time>2018-06-23T14:29:10Z</time>
      </trkpt>
      <trkpt lat="44.70137" lon="5.6483">
        <ele>1295.51</ele>
        <time>2018-06-23T14:29:23Z</time>
      </trkpt>
      <trkpt lat="44.70137" lon="5.6483">
        <ele>1302.24</ele>
        <time>2018-06-23T14:29:24Z</time>
      </trkpt>
      <trkpt lat="44.70137" lon="5.64829">
        <ele>1297.92</ele>
        <time>2018-06-23T14:29:31Z</time>
      </trkpt>
      <trkpt lat="44.70137" lon="5.64829">
        <ele>1301.28</ele>
        <time>2018-06-23T14:29:32Z</time>
      </trkpt>
      <trkpt lat="44.70137" lon="5.64829">
        <ele>1299.84</ele>
        <time>2018-06-23T14:29:46Z</time>
      </trkpt>
      <trkpt lat="44.70137" lon="5.64829">
        <ele>1296.48</ele>
        <time>2018-06-23T14:29:58Z</time>
      </trkpt>
      <trkpt lat="44.70137" lon="5.64829">
        <ele>1300.32</ele>
        <time>2018-06-23T14:29:59Z</time>
      </trkpt>
      <trkpt lat="44.70137" lon="5.6483">
        <ele>1296.96</ele>
        <time>2018-06-23T14:30:03Z</time>
      </trkpt>
      <trkpt lat="44.70137" lon="5.64829">
        <ele>1297.92</ele>
        <time>2018-06-23T14:30:05Z</time>
      </trkpt>
      <trkpt lat="44.70137" lon="5.64829">
        <ele>1300.8</ele>
        <time>2018-06-23T14:30:06Z</time>
      </trkpt>
      <trkpt lat="44.70139" lon="5.64826">
        <ele>1301.28</ele>
        <time>2018-06-23T14:30:25Z</time>
      </trkpt>
      <trkpt lat="44.70139" lon="5.64826">
        <ele>1295.99</ele>
        <time>2018-06-23T14:30:26Z</time>
      </trkpt>
      <trkpt lat="44.70139" lon="5.64826">
        <ele>1300.32</ele>
        <time>2018-06-23T14:30:28Z</time>
      </trkpt>
    </trkseg>
  </trk>
</gpx>